<?xml version='1.0' encoding='UTF-8'?><gpx version="1.1" creator="JPX - https://github.com/jenetics/jpx" xmlns="http://www.topografix.com/GPX/1/1"><trk><trkseg><trkpt lat="45.6100248" lon="9.4271269"><ele>201.99999999999997</ele><time>2026-03-24T11:57:27.982Z</time></trkpt><trkpt lat="45.6099685" lon="9.4270687"><ele>202.0</ele><time>2026-03-24T11:58:08.982Z</time></trkpt><trkpt lat="45.6099693" lon="9.4269627"><ele>202.0</ele><time>2026-03-24T11:58:10.982Z</time></trkpt><trkpt lat="45.6099701" lon="9.426827"><ele>202.0</ele><time>2026-03-24T11:58:12.982Z</time></trkpt><trkpt lat="45.60993" lon="9.4267377"><ele>201.99999999999997</ele><time>2026-03-24T11:58:14.982Z</time></trkpt><trkpt lat="45.6098623" lon="9.4267261"><ele>202.0</ele><time>2026-03-24T11:58:16.982Z</time></trkpt><trkpt lat="45.60977" lon="9.4266885"><ele>201.99999999999997</ele><time>2026-03-24T11:58:19.982Z</time></trkpt><trkpt lat="45.6097274" lon="9.4266034"><ele>202.0</ele><time>2026-03-24T11:58:21.982Z</time></trkpt><trkpt lat="45.6097177" lon="9.4264906"><ele>202.0</ele><time>2026-03-24T11:58:23.982Z</time></trkpt><trkpt lat="45.6096978" lon="9.4263908"><ele>202.0</ele><time>2026-03-24T11:58:25.982Z</time></trkpt><trkpt lat="45.6096811" lon="9.4262901"><ele>201.99999999999997</ele><time>2026-03-24T11:58:27.982Z</time></trkpt><trkpt lat="45.6096673" lon="9.4262019"><ele>202.0</ele><time>2026-03-24T11:58:29.982Z</time></trkpt><trkpt lat="45.6096751" lon="9.42606"><ele>202.0</ele><time>2026-03-24T11:58:41.982Z</time></trkpt><trkpt lat="45.6095824" lon="9.4260685"><ele>202.0</ele><time>2026-03-24T11:58:44.982Z</time></trkpt><trkpt lat="45.6095218" lon="9.4260943"><ele>202.0</ele><time>2026-03-24T11:58:46.982Z</time></trkpt><trkpt lat="45.6094543" lon="9.4260898"><ele>202.0</ele><time>2026-03-24T11:58:48.982Z</time></trkpt><trkpt lat="45.6093801" lon="9.4260791"><ele>202.0</ele><time>2026-03-24T11:58:50.982Z</time></trkpt><trkpt lat="45.6092998" lon="9.4260787"><ele>202.0</ele><time>2026-03-24T11:58:52.982Z</time></trkpt><trkpt lat="45.6092322" lon="9.426077"><ele>202.0</ele><time>2026-03-24T11:58:54.982Z</time></trkpt><trkpt lat="45.6091514" lon="9.4260669"><ele>201.39999999999998</ele><time>2026-03-24T11:58:56.982Z</time></trkpt><trkpt lat="45.6090547" lon="9.4260602"><ele>200.79999999999998</ele><time>2026-03-24T11:58:58.982Z</time></trkpt><trkpt lat="45.6089553" lon="9.4260599"><ele>200.2</ele><time>2026-03-24T11:59:00.982Z</time></trkpt><trkpt lat="45.6088449" lon="9.4260491"><ele>199.6</ele><time>2026-03-24T11:59:02.982Z</time></trkpt><trkpt lat="45.6087347" lon="9.426045"><ele>199.0</ele><time>2026-03-24T11:59:04.982Z</time></trkpt><trkpt lat="45.6086364" lon="9.4260431"><ele>198.39999999999998</ele><time>2026-03-24T11:59:06.981Z</time></trkpt><trkpt lat="45.6085458" lon="9.426039"><ele>197.8</ele><time>2026-03-24T11:59:08.982Z</time></trkpt><trkpt lat="45.6084417" lon="9.42603"><ele>197.2</ele><time>2026-03-24T11:59:10.982Z</time></trkpt><trkpt lat="45.6083424" lon="9.4260252"><ele>196.60000000000002</ele><time>2026-03-24T11:59:12.981Z</time></trkpt><trkpt lat="45.6082557" lon="9.4260179"><ele>196.0</ele><time>2026-03-24T11:59:14.982Z</time></trkpt><trkpt lat="45.6081688" lon="9.4260218"><ele>196.0</ele><time>2026-03-24T11:59:16.982Z</time></trkpt><trkpt lat="45.6080819" lon="9.4260195"><ele>196.0</ele><time>2026-03-24T11:59:18.982Z</time></trkpt><trkpt lat="45.6079656" lon="9.4260093"><ele>196.0</ele><time>2026-03-24T11:59:20.982Z</time></trkpt><trkpt lat="45.6078563" lon="9.4260173"><ele>196.0</ele><time>2026-03-24T11:59:22.981Z</time></trkpt><trkpt lat="45.6077437" lon="9.4259988"><ele>196.0</ele><time>2026-03-24T11:59:24.982Z</time></trkpt><trkpt lat="45.6076398" lon="9.4259872"><ele>195.8</ele><time>2026-03-24T11:59:26.982Z</time></trkpt><trkpt lat="45.6075443" lon="9.4259763"><ele>195.60000000000002</ele><time>2026-03-24T11:59:28.982Z</time></trkpt><trkpt lat="45.6074846" lon="9.4259013"><ele>195.4</ele><time>2026-03-24T11:59:30.982Z</time></trkpt><trkpt lat="45.6074664" lon="9.4257728"><ele>195.2</ele><time>2026-03-24T11:59:32.982Z</time></trkpt><trkpt lat="45.6074558" lon="9.4256304"><ele>195.0</ele><time>2026-03-24T11:59:34.982Z</time></trkpt><trkpt lat="45.6074554" lon="9.425487"><ele>195.2</ele><time>2026-03-24T11:59:36.982Z</time></trkpt><trkpt lat="45.6074487" lon="9.4253499"><ele>195.4</ele><time>2026-03-24T11:59:38.981Z</time></trkpt><trkpt lat="45.6074469" lon="9.4252006"><ele>195.60000000000002</ele><time>2026-03-24T11:59:40.982Z</time></trkpt><trkpt lat="45.6074449" lon="9.4250545"><ele>195.8</ele><time>2026-03-24T11:59:42.982Z</time></trkpt><trkpt lat="45.6074532" lon="9.4249238"><ele>196.0</ele><time>2026-03-24T11:59:44.982Z</time></trkpt><trkpt lat="45.6074595" lon="9.4247919"><ele>196.0</ele><time>2026-03-24T11:59:46.981Z</time></trkpt><trkpt lat="45.6074598" lon="9.4246508"><ele>196.0</ele><time>2026-03-24T11:59:48.982Z</time></trkpt><trkpt lat="45.6074566" lon="9.4245016"><ele>196.0</ele><time>2026-03-24T11:59:50.982Z</time></trkpt><trkpt lat="45.6074429" lon="9.4243531"><ele>196.0</ele><time>2026-03-24T11:59:52.982Z</time></trkpt><trkpt lat="45.6074108" lon="9.4241929"><ele>196.0</ele><time>2026-03-24T11:59:54.982Z</time></trkpt><trkpt lat="45.6073907" lon="9.4241014"><ele>195.71428571428572</ele><time>2026-03-24T11:59:55.982Z</time></trkpt><trkpt lat="45.6073757" lon="9.424012"><ele>195.42857142857144</ele><time>2026-03-24T11:59:56.982Z</time></trkpt><trkpt lat="45.6073526" lon="9.4239186"><ele>195.14285714285714</ele><time>2026-03-24T11:59:57.982Z</time></trkpt><trkpt lat="45.6073336" lon="9.4238187"><ele>194.85714285714286</ele><time>2026-03-24T11:59:58.982Z</time></trkpt><trkpt lat="45.6073127" lon="9.423725"><ele>194.57142857142858</ele><time>2026-03-24T11:59:59.982Z</time></trkpt><trkpt lat="45.6073" lon="9.4236217"><ele>194.28571428571428</ele><time>2026-03-24T12:00:00.982Z</time></trkpt><trkpt lat="45.6072987" lon="9.4235134"><ele>194.0</ele><time>2026-03-24T12:00:01.982Z</time></trkpt><trkpt lat="45.6072929" lon="9.4234142"><ele>193.83333333333334</ele><time>2026-03-24T12:00:02.982Z</time></trkpt><trkpt lat="45.6072941" lon="9.4233169"><ele>193.66666666666669</ele><time>2026-03-24T12:00:03.982Z</time></trkpt><trkpt lat="45.6072927" lon="9.4232227"><ele>193.5</ele><time>2026-03-24T12:00:04.982Z</time></trkpt><trkpt lat="45.6072919" lon="9.4231273"><ele>193.33333333333331</ele><time>2026-03-24T12:00:05.982Z</time></trkpt><trkpt lat="45.60729" lon="9.4229503"><ele>193.16666666666666</ele><time>2026-03-24T12:00:07.982Z</time></trkpt><trkpt lat="45.6072943" lon="9.4227782"><ele>193.0</ele><time>2026-03-24T12:00:09.982Z</time></trkpt><trkpt lat="45.6072892" lon="9.422616"><ele>193.0</ele><time>2026-03-24T12:00:11.982Z</time></trkpt><trkpt lat="45.6072959" lon="9.4224592"><ele>193.0</ele><time>2026-03-24T12:00:13.981Z</time></trkpt><trkpt lat="45.6073049" lon="9.4222987"><ele>193.0</ele><time>2026-03-24T12:00:15.982Z</time></trkpt><trkpt lat="45.6073063" lon="9.4221508"><ele>193.0</ele><time>2026-03-24T12:00:17.982Z</time></trkpt><trkpt lat="45.6073073" lon="9.4220013"><ele>193.0</ele><time>2026-03-24T12:00:19.982Z</time></trkpt><trkpt lat="45.6073052" lon="9.4218556"><ele>193.0</ele><time>2026-03-24T12:00:21.982Z</time></trkpt><trkpt lat="45.6073157" lon="9.4216983"><ele>193.0</ele><time>2026-03-24T12:00:23.982Z</time></trkpt><trkpt lat="45.6073189" lon="9.4215477"><ele>193.0</ele><time>2026-03-24T12:00:25.982Z</time></trkpt><trkpt lat="45.6073218" lon="9.4213999"><ele>193.0</ele><time>2026-03-24T12:00:27.982Z</time></trkpt><trkpt lat="45.6073291" lon="9.4212529"><ele>193.0</ele><time>2026-03-24T12:00:29.982Z</time></trkpt><trkpt lat="45.6073349" lon="9.4211056"><ele>193.0</ele><time>2026-03-24T12:00:31.982Z</time></trkpt><trkpt lat="45.6073392" lon="9.4209571"><ele>193.0</ele><time>2026-03-24T12:00:33.982Z</time></trkpt><trkpt lat="45.6073431" lon="9.4208056"><ele>193.0</ele><time>2026-03-24T12:00:35.982Z</time></trkpt><trkpt lat="45.6073537" lon="9.4206481"><ele>193.0</ele><time>2026-03-24T12:00:37.982Z</time></trkpt><trkpt lat="45.6073618" lon="9.4205031"><ele>193.0</ele><time>2026-03-24T12:00:39.982Z</time></trkpt><trkpt lat="45.6073962" lon="9.4203694"><ele>193.0</ele><time>2026-03-24T12:00:41.982Z</time></trkpt><trkpt lat="45.6074687" lon="9.4202651"><ele>193.0</ele><time>2026-03-24T12:00:43.982Z</time></trkpt><trkpt lat="45.6075503" lon="9.4201657"><ele>193.0</ele><time>2026-03-24T12:00:45.982Z</time></trkpt><trkpt lat="45.6076255" lon="9.4200542"><ele>193.0</ele><time>2026-03-24T12:00:47.982Z</time></trkpt><trkpt lat="45.6076677" lon="9.4199219"><ele>193.0</ele><time>2026-03-24T12:00:49.982Z</time></trkpt><trkpt lat="45.607706" lon="9.4197836"><ele>193.0</ele><time>2026-03-24T12:00:51.982Z</time></trkpt><trkpt lat="45.607762" lon="9.4196682"><ele>193.0</ele><time>2026-03-24T12:00:53.982Z</time></trkpt><trkpt lat="45.6078422" lon="9.4195717"><ele>193.0</ele><time>2026-03-24T12:00:55.982Z</time></trkpt><trkpt lat="45.6079477" lon="9.4195327"><ele>193.0</ele><time>2026-03-24T12:00:57.982Z</time></trkpt><trkpt lat="45.6080502" lon="9.4195205"><ele>193.0</ele><time>2026-03-24T12:00:59.981Z</time></trkpt><trkpt lat="45.6081496" lon="9.4195074"><ele>193.2</ele><time>2026-03-24T12:01:01.982Z</time></trkpt><trkpt lat="45.6082583" lon="9.4194875"><ele>193.4</ele><time>2026-03-24T12:01:03.981Z</time></trkpt><trkpt lat="45.6083579" lon="9.4194809"><ele>193.6</ele><time>2026-03-24T12:01:05.982Z</time></trkpt><trkpt lat="45.6084589" lon="9.4194735"><ele>193.79999999999998</ele><time>2026-03-24T12:01:07.982Z</time></trkpt><trkpt lat="45.6085691" lon="9.4194592"><ele>194.0</ele><time>2026-03-24T12:01:09.982Z</time></trkpt><trkpt lat="45.6086632" lon="9.4194438"><ele>194.16666666666669</ele><time>2026-03-24T12:01:11.982Z</time></trkpt><trkpt lat="45.6087372" lon="9.419428"><ele>194.33333333333334</ele><time>2026-03-24T12:01:13.982Z</time></trkpt><trkpt lat="45.6087949" lon="9.4193848"><ele>194.5</ele><time>2026-03-24T12:01:20.982Z</time></trkpt><trkpt lat="45.6088135" lon="9.4192673"><ele>194.66666666666669</ele><time>2026-03-24T12:01:27.982Z</time></trkpt><trkpt lat="45.6088156" lon="9.4191667"><ele>194.83333333333334</ele><time>2026-03-24T12:01:29.982Z</time></trkpt><trkpt lat="45.608827" lon="9.4190501"><ele>195.0</ele><time>2026-03-24T12:01:31.982Z</time></trkpt><trkpt lat="45.6088349" lon="9.4189113"><ele>195.0</ele><time>2026-03-24T12:01:33.982Z</time></trkpt><trkpt lat="45.6088521" lon="9.418765"><ele>195.0</ele><time>2026-03-24T12:01:35.982Z</time></trkpt><trkpt lat="45.6088725" lon="9.4186198"><ele>195.0</ele><time>2026-03-24T12:01:37.982Z</time></trkpt><trkpt lat="45.6088981" lon="9.4184771"><ele>195.0</ele><time>2026-03-24T12:01:39.982Z</time></trkpt><trkpt lat="45.6089189" lon="9.4183288"><ele>195.0</ele><time>2026-03-24T12:01:41.981Z</time></trkpt><trkpt lat="45.6089312" lon="9.4181913"><ele>195.0</ele><time>2026-03-24T12:01:43.982Z</time></trkpt><trkpt lat="45.6089315" lon="9.4180545"><ele>195.0</ele><time>2026-03-24T12:01:45.981Z</time></trkpt><trkpt lat="45.6089221" lon="9.4179143"><ele>195.0</ele><time>2026-03-24T12:01:47.982Z</time></trkpt><trkpt lat="45.6089211" lon="9.417767"><ele>195.0</ele><time>2026-03-24T12:01:49.982Z</time></trkpt><trkpt lat="45.6089141" lon="9.4176204"><ele>195.0</ele><time>2026-03-24T12:01:51.982Z</time></trkpt><trkpt lat="45.6089033" lon="9.4174698"><ele>194.8</ele><time>2026-03-24T12:01:53.982Z</time></trkpt><trkpt lat="45.6088974" lon="9.4173245"><ele>194.6</ele><time>2026-03-24T12:01:55.982Z</time></trkpt><trkpt lat="45.6089034" lon="9.4171657"><ele>194.39999999999998</ele><time>2026-03-24T12:01:57.982Z</time></trkpt><trkpt lat="45.6089119" lon="9.4170165"><ele>194.2</ele><time>2026-03-24T12:01:59.981Z</time></trkpt><trkpt lat="45.6089146" lon="9.416865"><ele>194.0</ele><time>2026-03-24T12:02:01.982Z</time></trkpt><trkpt lat="45.6089121" lon="9.4167042"><ele>194.0</ele><time>2026-03-24T12:02:03.982Z</time></trkpt><trkpt lat="45.608912" lon="9.416549"><ele>194.0</ele><time>2026-03-24T12:02:05.982Z</time></trkpt><trkpt lat="45.608904" lon="9.4163993"><ele>194.0</ele><time>2026-03-24T12:02:07.982Z</time></trkpt><trkpt lat="45.6089091" lon="9.4162375"><ele>194.0</ele><time>2026-03-24T12:02:09.982Z</time></trkpt><trkpt lat="45.6089204" lon="9.4160733"><ele>194.0</ele><time>2026-03-24T12:02:11.982Z</time></trkpt><trkpt lat="45.6089312" lon="9.4159079"><ele>194.0</ele><time>2026-03-24T12:02:13.982Z</time></trkpt><trkpt lat="45.6089364" lon="9.41575"><ele>194.0</ele><time>2026-03-24T12:02:15.982Z</time></trkpt><trkpt lat="45.6089484" lon="9.415598"><ele>194.0</ele><time>2026-03-24T12:02:17.982Z</time></trkpt><trkpt lat="45.608965" lon="9.4154508"><ele>194.0</ele><time>2026-03-24T12:02:19.982Z</time></trkpt><trkpt lat="45.6089771" lon="9.4152971"><ele>194.0</ele><time>2026-03-24T12:02:21.982Z</time></trkpt><trkpt lat="45.6089998" lon="9.415144"><ele>194.2</ele><time>2026-03-24T12:02:23.982Z</time></trkpt><trkpt lat="45.6090079" lon="9.4149922"><ele>194.39999999999998</ele><time>2026-03-24T12:02:25.982Z</time></trkpt><trkpt lat="45.6090142" lon="9.4148355"><ele>194.6</ele><time>2026-03-24T12:02:27.982Z</time></trkpt><trkpt lat="45.6090159" lon="9.4146667"><ele>194.8</ele><time>2026-03-24T12:02:29.982Z</time></trkpt><trkpt lat="45.6090002" lon="9.4145156"><ele>195.0</ele><time>2026-03-24T12:02:31.982Z</time></trkpt><trkpt lat="45.6089875" lon="9.4143556"><ele>195.0</ele><time>2026-03-24T12:02:33.981Z</time></trkpt><trkpt lat="45.608984" lon="9.4141897"><ele>195.0</ele><time>2026-03-24T12:02:35.981Z</time></trkpt><trkpt lat="45.6089778" lon="9.4140327"><ele>195.0</ele><time>2026-03-24T12:02:37.981Z</time></trkpt><trkpt lat="45.6089834" lon="9.4138729"><ele>195.0</ele><time>2026-03-24T12:02:39.981Z</time></trkpt><trkpt lat="45.6089992" lon="9.4137095"><ele>194.75</ele><time>2026-03-24T12:02:41.982Z</time></trkpt><trkpt lat="45.6089976" lon="9.4135526"><ele>194.5</ele><time>2026-03-24T12:02:43.982Z</time></trkpt><trkpt lat="45.6090015" lon="9.4133897"><ele>194.25</ele><time>2026-03-24T12:02:45.982Z</time></trkpt><trkpt lat="45.6090095" lon="9.413233"><ele>194.0</ele><time>2026-03-24T12:02:47.982Z</time></trkpt><trkpt lat="45.6090394" lon="9.4130718"><ele>193.5</ele><time>2026-03-24T12:02:49.982Z</time></trkpt><trkpt lat="45.6090696" lon="9.4129105"><ele>193.0</ele><time>2026-03-24T12:02:51.982Z</time></trkpt><trkpt lat="45.6090929" lon="9.4127405"><ele>192.5</ele><time>2026-03-24T12:02:53.982Z</time></trkpt><trkpt lat="45.6091047" lon="9.4125834"><ele>192.0</ele><time>2026-03-24T12:02:55.982Z</time></trkpt><trkpt lat="45.6091122" lon="9.412413"><ele>192.0</ele><time>2026-03-24T12:02:57.982Z</time></trkpt><trkpt lat="45.6091182" lon="9.4122579"><ele>192.0</ele><time>2026-03-24T12:02:59.982Z</time></trkpt><trkpt lat="45.6091227" lon="9.4121045"><ele>192.0</ele><time>2026-03-24T12:03:01.982Z</time></trkpt><trkpt lat="45.6091326" lon="9.4119535"><ele>192.0</ele><time>2026-03-24T12:03:03.982Z</time></trkpt><trkpt lat="45.6091385" lon="9.411793"><ele>192.0</ele><time>2026-03-24T12:03:05.982Z</time></trkpt><trkpt lat="45.6091472" lon="9.4116327"><ele>192.5</ele><time>2026-03-24T12:03:07.982Z</time></trkpt><trkpt lat="45.6091498" lon="9.4114663"><ele>193.0</ele><time>2026-03-24T12:03:09.981Z</time></trkpt><trkpt lat="45.6091543" lon="9.4112991"><ele>193.5</ele><time>2026-03-24T12:03:11.982Z</time></trkpt><trkpt lat="45.6091504" lon="9.4111325"><ele>194.0</ele><time>2026-03-24T12:03:13.982Z</time></trkpt><trkpt lat="45.609154" lon="9.4109654"><ele>194.0</ele><time>2026-03-24T12:03:15.982Z</time></trkpt><trkpt lat="45.6091494" lon="9.4107992"><ele>194.0</ele><time>2026-03-24T12:03:17.982Z</time></trkpt><trkpt lat="45.609151" lon="9.4106379"><ele>194.0</ele><time>2026-03-24T12:03:19.982Z</time></trkpt><trkpt lat="45.6091598" lon="9.4104783"><ele>194.0</ele><time>2026-03-24T12:03:21.982Z</time></trkpt><trkpt lat="45.6091627" lon="9.4103127"><ele>193.79999999999998</ele><time>2026-03-24T12:03:23.982Z</time></trkpt><trkpt lat="45.6091571" lon="9.4102205"><ele>193.6</ele><time>2026-03-24T12:03:24.982Z</time></trkpt><trkpt lat="45.6091585" lon="9.4100548"><ele>193.4</ele><time>2026-03-24T12:03:26.982Z</time></trkpt><trkpt lat="45.6091599" lon="9.4098906"><ele>193.2</ele><time>2026-03-24T12:03:28.982Z</time></trkpt><trkpt lat="45.6091607" lon="9.4097232"><ele>193.0</ele><time>2026-03-24T12:03:30.982Z</time></trkpt><trkpt lat="45.6091532" lon="9.4095573"><ele>193.0</ele><time>2026-03-24T12:03:32.982Z</time></trkpt><trkpt lat="45.6091527" lon="9.409388"><ele>193.0</ele><time>2026-03-24T12:03:34.982Z</time></trkpt><trkpt lat="45.609156" lon="9.4092233"><ele>193.0</ele><time>2026-03-24T12:03:36.982Z</time></trkpt><trkpt lat="45.6091546" lon="9.4090633"><ele>193.0</ele><time>2026-03-24T12:03:38.982Z</time></trkpt><trkpt lat="45.6091565" lon="9.4089723"><ele>193.0</ele><time>2026-03-24T12:03:39.982Z</time></trkpt><trkpt lat="45.6091502" lon="9.4088153"><ele>193.2</ele><time>2026-03-24T12:03:41.982Z</time></trkpt><trkpt lat="45.609147" lon="9.408661"><ele>193.4</ele><time>2026-03-24T12:03:43.982Z</time></trkpt><trkpt lat="45.6091406" lon="9.4085113"><ele>193.6</ele><time>2026-03-24T12:03:45.981Z</time></trkpt><trkpt lat="45.6091384" lon="9.4083525"><ele>193.79999999999998</ele><time>2026-03-24T12:03:47.982Z</time></trkpt><trkpt lat="45.6091332" lon="9.4081972"><ele>194.0</ele><time>2026-03-24T12:03:49.982Z</time></trkpt><trkpt lat="45.6091262" lon="9.4080336"><ele>194.0</ele><time>2026-03-24T12:03:51.982Z</time></trkpt><trkpt lat="45.6091275" lon="9.4078812"><ele>194.0</ele><time>2026-03-24T12:03:53.982Z</time></trkpt><trkpt lat="45.6091308" lon="9.4077171"><ele>194.0</ele><time>2026-03-24T12:03:55.982Z</time></trkpt><trkpt lat="45.6091336" lon="9.4075634"><ele>194.0</ele><time>2026-03-24T12:03:57.981Z</time></trkpt><trkpt lat="45.6091283" lon="9.4074041"><ele>194.0</ele><time>2026-03-24T12:03:59.982Z</time></trkpt><trkpt lat="45.6091268" lon="9.4072419"><ele>194.0</ele><time>2026-03-24T12:04:01.982Z</time></trkpt><trkpt lat="45.6091207" lon="9.4070806"><ele>194.0</ele><time>2026-03-24T12:04:03.982Z</time></trkpt><trkpt lat="45.6091264" lon="9.4069207"><ele>194.0</ele><time>2026-03-24T12:04:05.982Z</time></trkpt><trkpt lat="45.6091225" lon="9.406756"><ele>194.0</ele><time>2026-03-24T12:04:07.981Z</time></trkpt><trkpt lat="45.6091229" lon="9.4065903"><ele>194.0</ele><time>2026-03-24T12:04:09.982Z</time></trkpt><trkpt lat="45.6091186" lon="9.4064305"><ele>194.0</ele><time>2026-03-24T12:04:11.982Z</time></trkpt><trkpt lat="45.6091116" lon="9.4062719"><ele>194.0</ele><time>2026-03-24T12:04:13.982Z</time></trkpt><trkpt lat="45.6091139" lon="9.4061098"><ele>194.0</ele><time>2026-03-24T12:04:15.982Z</time></trkpt><trkpt lat="45.609112" lon="9.4059486"><ele>194.0</ele><time>2026-03-24T12:04:17.982Z</time></trkpt><trkpt lat="45.6091201" lon="9.4057866"><ele>194.6</ele><time>2026-03-24T12:04:19.982Z</time></trkpt><trkpt lat="45.6091125" lon="9.4056331"><ele>195.2</ele><time>2026-03-24T12:04:21.981Z</time></trkpt><trkpt lat="45.609109" lon="9.405496"><ele>195.79999999999998</ele><time>2026-03-24T12:04:23.982Z</time></trkpt><trkpt lat="45.6091281" lon="9.4053625"><ele>196.39999999999998</ele><time>2026-03-24T12:04:25.982Z</time></trkpt><trkpt lat="45.6091556" lon="9.4052643"><ele>197.0</ele><time>2026-03-24T12:04:26.982Z</time></trkpt><trkpt lat="45.609164" lon="9.4051293"><ele>197.0</ele><time>2026-03-24T12:04:28.982Z</time></trkpt><trkpt lat="45.6091518" lon="9.4049603"><ele>197.0</ele><time>2026-03-24T12:04:30.982Z</time></trkpt><trkpt lat="45.6091353" lon="9.4048733"><ele>197.0</ele><time>2026-03-24T12:04:31.982Z</time></trkpt><trkpt lat="45.6091056" lon="9.4047279"><ele>197.0</ele><time>2026-03-24T12:04:33.982Z</time></trkpt><trkpt lat="45.6090869" lon="9.4045738"><ele>197.0</ele><time>2026-03-24T12:04:35.982Z</time></trkpt><trkpt lat="45.6090874" lon="9.4044074"><ele>197.0</ele><time>2026-03-24T12:04:37.981Z</time></trkpt><trkpt lat="45.6090757" lon="9.404245"><ele>197.0</ele><time>2026-03-24T12:04:39.982Z</time></trkpt><trkpt lat="45.6090807" lon="9.4040756"><ele>197.0</ele><time>2026-03-24T12:04:41.982Z</time></trkpt><trkpt lat="45.6090813" lon="9.4039192"><ele>197.0</ele><time>2026-03-24T12:04:43.982Z</time></trkpt><trkpt lat="45.6090821" lon="9.4037511"><ele>197.0</ele><time>2026-03-24T12:04:45.981Z</time></trkpt><trkpt lat="45.6090791" lon="9.4035727"><ele>197.0</ele><time>2026-03-24T12:04:47.982Z</time></trkpt><trkpt lat="45.609088" lon="9.4034104"><ele>197.0</ele><time>2026-03-24T12:04:49.982Z</time></trkpt><trkpt lat="45.6090985" lon="9.4032507"><ele>197.0</ele><time>2026-03-24T12:04:51.982Z</time></trkpt><trkpt lat="45.6091126" lon="9.4030927"><ele>196.75</ele><time>2026-03-24T12:04:53.982Z</time></trkpt><trkpt lat="45.6091208" lon="9.4029308"><ele>196.5</ele><time>2026-03-24T12:04:55.982Z</time></trkpt><trkpt lat="45.6091283" lon="9.4027658"><ele>196.25</ele><time>2026-03-24T12:04:57.982Z</time></trkpt><trkpt lat="45.6091299" lon="9.4026029"><ele>196.0</ele><time>2026-03-24T12:04:59.982Z</time></trkpt><trkpt lat="45.6091404" lon="9.4024425"><ele>196.0</ele><time>2026-03-24T12:05:01.982Z</time></trkpt><trkpt lat="45.6091494" lon="9.4022747"><ele>196.0</ele><time>2026-03-24T12:05:03.982Z</time></trkpt><trkpt lat="45.609161" lon="9.4021849"><ele>196.0</ele><time>2026-03-24T12:05:04.982Z</time></trkpt><trkpt lat="45.6091738" lon="9.4020158"><ele>196.0</ele><time>2026-03-24T12:05:06.982Z</time></trkpt><trkpt lat="45.6091854" lon="9.401845"><ele>196.0</ele><time>2026-03-24T12:05:08.982Z</time></trkpt><trkpt lat="45.6091978" lon="9.4016666"><ele>195.66666666666666</ele><time>2026-03-24T12:05:10.982Z</time></trkpt><trkpt lat="45.6092041" lon="9.4015763"><ele>195.33333333333331</ele><time>2026-03-24T12:05:11.982Z</time></trkpt><trkpt lat="45.6092142" lon="9.4013974"><ele>195.0</ele><time>2026-03-24T12:05:13.982Z</time></trkpt><trkpt lat="45.609223" lon="9.401302"><ele>194.66666666666669</ele><time>2026-03-24T12:05:14.982Z</time></trkpt><trkpt lat="45.609229" lon="9.4012092"><ele>194.33333333333334</ele><time>2026-03-24T12:05:15.982Z</time></trkpt><trkpt lat="45.609247" lon="9.401117"><ele>194.0</ele><time>2026-03-24T12:05:16.982Z</time></trkpt><trkpt lat="45.6092771" lon="9.4010168"><ele>193.83333333333334</ele><time>2026-03-24T12:05:17.982Z</time></trkpt><trkpt lat="45.6093139" lon="9.4009189"><ele>193.66666666666669</ele><time>2026-03-24T12:05:18.982Z</time></trkpt><trkpt lat="45.6093609" lon="9.4008216"><ele>193.5</ele><time>2026-03-24T12:05:19.982Z</time></trkpt><trkpt lat="45.6094149" lon="9.4007255"><ele>193.33333333333331</ele><time>2026-03-24T12:05:20.982Z</time></trkpt><trkpt lat="45.6094716" lon="9.4006332"><ele>193.16666666666666</ele><time>2026-03-24T12:05:21.982Z</time></trkpt><trkpt lat="45.6095255" lon="9.4005618"><ele>193.0</ele><time>2026-03-24T12:05:22.982Z</time></trkpt><trkpt lat="45.6095819" lon="9.4005181"><ele>192.60000000000002</ele><time>2026-03-24T12:05:23.982Z</time></trkpt><trkpt lat="45.6096455" lon="9.4004995"><ele>192.20000000000002</ele><time>2026-03-24T12:05:24.981Z</time></trkpt><trkpt lat="45.609763" lon="9.400501"><ele>191.8</ele><time>2026-03-24T12:05:26.982Z</time></trkpt><trkpt lat="45.609858" lon="9.4005007"><ele>191.4</ele><time>2026-03-24T12:05:28.982Z</time></trkpt><trkpt lat="45.6099553" lon="9.4004826"><ele>191.0</ele><time>2026-03-24T12:05:30.982Z</time></trkpt><trkpt lat="45.6100258" lon="9.4004051"><ele>190.66666666666666</ele><time>2026-03-24T12:05:33.982Z</time></trkpt><trkpt lat="45.6099976" lon="9.4003072"><ele>190.33333333333331</ele><time>2026-03-24T12:05:34.982Z</time></trkpt><trkpt lat="45.6100015" lon="9.4001946"><ele>190.0</ele><time>2026-03-24T12:05:36.982Z</time></trkpt><trkpt lat="45.6100053" lon="9.4000379"><ele>189.66666666666666</ele><time>2026-03-24T12:05:38.982Z</time></trkpt><trkpt lat="45.610007" lon="9.3998841"><ele>189.33333333333334</ele><time>2026-03-24T12:05:40.982Z</time></trkpt><trkpt lat="45.6100185" lon="9.3997912"><ele>189.0</ele><time>2026-03-24T12:05:41.982Z</time></trkpt><trkpt lat="45.6100316" lon="9.3996481"><ele>188.6</ele><time>2026-03-24T12:05:43.982Z</time></trkpt><trkpt lat="45.6100417" lon="9.3995411"><ele>188.2</ele><time>2026-03-24T12:05:45.982Z</time></trkpt><trkpt lat="45.610054" lon="9.3993911"><ele>187.79999999999998</ele><time>2026-03-24T12:05:47.982Z</time></trkpt><trkpt lat="45.6100557" lon="9.3992139"><ele>187.39999999999998</ele><time>2026-03-24T12:05:49.982Z</time></trkpt><trkpt lat="45.6100817" lon="9.3991276"><ele>187.0</ele><time>2026-03-24T12:05:50.981Z</time></trkpt><trkpt lat="45.610048" lon="9.398959"><ele>187.0</ele><time>2026-03-24T12:05:52.982Z</time></trkpt><trkpt lat="45.6100392" lon="9.3988604"><ele>187.0</ele><time>2026-03-24T12:05:53.982Z</time></trkpt><trkpt lat="45.6100226" lon="9.3986852"><ele>187.0</ele><time>2026-03-24T12:05:55.982Z</time></trkpt><trkpt lat="45.6100101" lon="9.3985813"><ele>187.0</ele><time>2026-03-24T12:05:56.982Z</time></trkpt><trkpt lat="45.6099935" lon="9.3984143"><ele>187.0</ele><time>2026-03-24T12:05:58.981Z</time></trkpt><trkpt lat="45.6099877" lon="9.3982481"><ele>187.39999999999998</ele><time>2026-03-24T12:06:00.982Z</time></trkpt><trkpt lat="45.6099714" lon="9.3980769"><ele>187.79999999999998</ele><time>2026-03-24T12:06:02.982Z</time></trkpt><trkpt lat="45.609955" lon="9.397938"><ele>188.2</ele><time>2026-03-24T12:06:04.982Z</time></trkpt><trkpt lat="45.6099564" lon="9.3977796"><ele>188.6</ele><time>2026-03-24T12:06:06.982Z</time></trkpt><trkpt lat="45.6099829" lon="9.3976644"><ele>189.0</ele><time>2026-03-24T12:06:08.982Z</time></trkpt><trkpt lat="45.6099813" lon="9.3974888"><ele>189.2</ele><time>2026-03-24T12:06:10.982Z</time></trkpt><trkpt lat="45.6099623" lon="9.397324"><ele>189.39999999999998</ele><time>2026-03-24T12:06:12.982Z</time></trkpt><trkpt lat="45.6099653" lon="9.3971841"><ele>189.6</ele><time>2026-03-24T12:06:14.982Z</time></trkpt><trkpt lat="45.6099537" lon="9.3970205"><ele>189.8</ele><time>2026-03-24T12:06:16.982Z</time></trkpt><trkpt lat="45.6099385" lon="9.3968801"><ele>190.0</ele><time>2026-03-24T12:06:18.982Z</time></trkpt><trkpt lat="45.6099321" lon="9.3967567"><ele>190.57142857142858</ele><time>2026-03-24T12:06:20.982Z</time></trkpt><trkpt lat="45.6099555" lon="9.3966493"><ele>191.14285714285717</ele><time>2026-03-24T12:06:22.982Z</time></trkpt><trkpt lat="45.6099546" lon="9.3965525"><ele>191.71428571428572</ele><time>2026-03-24T12:06:24.981Z</time></trkpt><trkpt lat="45.6099532" lon="9.3964531"><ele>192.28571428571428</ele><time>2026-03-24T12:06:26.982Z</time></trkpt><trkpt lat="45.6099586" lon="9.396357"><ele>192.85714285714286</ele><time>2026-03-24T12:06:28.982Z</time></trkpt><trkpt lat="45.6099624" lon="9.3962591"><ele>193.42857142857142</ele><time>2026-03-24T12:06:30.982Z</time></trkpt><trkpt lat="45.6099814" lon="9.3961324"><ele>194.0</ele><time>2026-03-24T12:06:32.982Z</time></trkpt><trkpt lat="45.6099959" lon="9.3959897"><ele>194.25</ele><time>2026-03-24T12:06:34.982Z</time></trkpt><trkpt lat="45.6100118" lon="9.3958521"><ele>194.5</ele><time>2026-03-24T12:06:36.982Z</time></trkpt><trkpt lat="45.6100077" lon="9.396099"><ele>194.75</ele><time>2026-03-24T12:06:37.982Z</time></trkpt><trkpt lat="45.6100202" lon="9.3960033"><ele>195.0</ele><time>2026-03-24T12:06:41.982Z</time></trkpt><trkpt lat="45.6100299" lon="9.3957324"><ele>194.66666666666669</ele><time>2026-03-24T12:06:45.982Z</time></trkpt><trkpt lat="45.6100358" lon="9.3954805"><ele>194.33333333333334</ele><time>2026-03-24T12:06:46.982Z</time></trkpt><trkpt lat="45.6100426" lon="9.3952668"><ele>194.0</ele><time>2026-03-24T12:06:47.982Z</time></trkpt><trkpt lat="45.6100513" lon="9.395006"><ele>194.0</ele><time>2026-03-24T12:06:48.982Z</time></trkpt><trkpt lat="45.6100614" lon="9.3948499"><ele>194.0</ele><time>2026-03-24T12:06:50.982Z</time></trkpt><trkpt lat="45.6100721" lon="9.3946954"><ele>194.0</ele><time>2026-03-24T12:06:52.982Z</time></trkpt><trkpt lat="45.610087" lon="9.3945424"><ele>194.0</ele><time>2026-03-24T12:06:54.982Z</time></trkpt><trkpt lat="45.6101032" lon="9.394396"><ele>194.0</ele><time>2026-03-24T12:06:56.982Z</time></trkpt><trkpt lat="45.6101157" lon="9.3942513"><ele>194.2</ele><time>2026-03-24T12:06:58.982Z</time></trkpt><trkpt lat="45.6101329" lon="9.3940962"><ele>194.39999999999998</ele><time>2026-03-24T12:07:00.982Z</time></trkpt><trkpt lat="45.610158" lon="9.393946"><ele>194.6</ele><time>2026-03-24T12:07:02.982Z</time></trkpt><trkpt lat="45.6101724" lon="9.3937927"><ele>194.8</ele><time>2026-03-24T12:07:04.982Z</time></trkpt><trkpt lat="45.6101888" lon="9.3936259"><ele>195.0</ele><time>2026-03-24T12:07:06.982Z</time></trkpt><trkpt lat="45.6102069" lon="9.3934585"><ele>195.0</ele><time>2026-03-24T12:07:08.982Z</time></trkpt><trkpt lat="45.610243" lon="9.3932609"><ele>195.0</ele><time>2026-03-24T12:07:10.982Z</time></trkpt><trkpt lat="45.610243" lon="9.3930944"><ele>195.0</ele><time>2026-03-24T12:07:12.982Z</time></trkpt><trkpt lat="45.6102457" lon="9.3929363"><ele>195.0</ele><time>2026-03-24T12:07:14.982Z</time></trkpt><trkpt lat="45.6102599" lon="9.3927732"><ele>195.0</ele><time>2026-03-24T12:07:16.982Z</time></trkpt><trkpt lat="45.6102797" lon="9.3926028"><ele>195.0</ele><time>2026-03-24T12:07:18.982Z</time></trkpt><trkpt lat="45.6102861" lon="9.3925119"><ele>195.0</ele><time>2026-03-24T12:07:19.982Z</time></trkpt><trkpt lat="45.6103025" lon="9.3923489"><ele>195.0</ele><time>2026-03-24T12:07:21.981Z</time></trkpt><trkpt lat="45.6103132" lon="9.3921826"><ele>195.0</ele><time>2026-03-24T12:07:23.981Z</time></trkpt><trkpt lat="45.6103004" lon="9.3920229"><ele>195.0</ele><time>2026-03-24T12:07:25.982Z</time></trkpt><trkpt lat="45.6103224" lon="9.3918629"><ele>195.0</ele><time>2026-03-24T12:07:27.982Z</time></trkpt><trkpt lat="45.6103441" lon="9.3916968"><ele>195.0</ele><time>2026-03-24T12:07:29.982Z</time></trkpt><trkpt lat="45.610357" lon="9.3915323"><ele>195.0</ele><time>2026-03-24T12:07:31.982Z</time></trkpt><trkpt lat="45.610375" lon="9.3913707"><ele>195.4</ele><time>2026-03-24T12:07:33.982Z</time></trkpt><trkpt lat="45.6104086" lon="9.3912142"><ele>195.8</ele><time>2026-03-24T12:07:35.982Z</time></trkpt><trkpt lat="45.610432" lon="9.391124"><ele>196.2</ele><time>2026-03-24T12:07:36.982Z</time></trkpt><trkpt lat="45.6104796" lon="9.3909842"><ele>196.6</ele><time>2026-03-24T12:07:38.982Z</time></trkpt><trkpt lat="45.6105356" lon="9.3908576"><ele>197.0</ele><time>2026-03-24T12:07:40.982Z</time></trkpt><trkpt lat="45.6105763" lon="9.3907776"><ele>197.00000000000003</ele><time>2026-03-24T12:07:41.982Z</time></trkpt><trkpt lat="45.6106219" lon="9.3907068"><ele>197.0</ele><time>2026-03-24T12:07:42.981Z</time></trkpt><trkpt lat="45.610657" lon="9.3906283"><ele>197.0</ele><time>2026-03-24T12:07:43.981Z</time></trkpt><trkpt lat="45.6106901" lon="9.3905479"><ele>197.0</ele><time>2026-03-24T12:07:44.981Z</time></trkpt><trkpt lat="45.6107296" lon="9.3903761"><ele>197.00000000000003</ele><time>2026-03-24T12:07:46.981Z</time></trkpt><trkpt lat="45.6107639" lon="9.3902932"><ele>197.0</ele><time>2026-03-24T12:07:47.982Z</time></trkpt><trkpt lat="45.6108203" lon="9.3902061"><ele>196.39999999999998</ele><time>2026-03-24T12:07:48.982Z</time></trkpt><trkpt lat="45.6108928" lon="9.3901189"><ele>195.79999999999998</ele><time>2026-03-24T12:07:49.982Z</time></trkpt><trkpt lat="45.6109465" lon="9.3900475"><ele>195.2</ele><time>2026-03-24T12:07:50.982Z</time></trkpt><trkpt lat="45.6110038" lon="9.3899755"><ele>194.6</ele><time>2026-03-24T12:07:51.982Z</time></trkpt><trkpt lat="45.6110927" lon="9.3898561"><ele>194.0</ele><time>2026-03-24T12:07:53.982Z</time></trkpt><trkpt lat="45.6111804" lon="9.3897093"><ele>193.33333333333334</ele><time>2026-03-24T12:07:55.982Z</time></trkpt><trkpt lat="45.6112196" lon="9.3896247"><ele>192.66666666666669</ele><time>2026-03-24T12:07:56.982Z</time></trkpt><trkpt lat="45.6112462" lon="9.3895364"><ele>192.0</ele><time>2026-03-24T12:07:57.982Z</time></trkpt><trkpt lat="45.6112755" lon="9.3894465"><ele>191.33333333333334</ele><time>2026-03-24T12:07:58.982Z</time></trkpt><trkpt lat="45.6112886" lon="9.389357"><ele>190.66666666666669</ele><time>2026-03-24T12:07:59.982Z</time></trkpt><trkpt lat="45.611305" lon="9.3891769"><ele>190.0</ele><time>2026-03-24T12:08:01.982Z</time></trkpt><trkpt lat="45.6113146" lon="9.3889955"><ele>190.0</ele><time>2026-03-24T12:08:03.982Z</time></trkpt><trkpt lat="45.6113206" lon="9.3889048"><ele>190.0</ele><time>2026-03-24T12:08:04.982Z</time></trkpt><trkpt lat="45.6113252" lon="9.3887333"><ele>190.0</ele><time>2026-03-24T12:08:06.982Z</time></trkpt><trkpt lat="45.6113326" lon="9.3886395"><ele>190.0</ele><time>2026-03-24T12:08:07.982Z</time></trkpt><trkpt lat="45.6113427" lon="9.3884724"><ele>190.0</ele><time>2026-03-24T12:08:09.982Z</time></trkpt><trkpt lat="45.6113512" lon="9.3883094"><ele>190.6</ele><time>2026-03-24T12:08:11.982Z</time></trkpt><trkpt lat="45.6113598" lon="9.3882194"><ele>191.2</ele><time>2026-03-24T12:08:12.982Z</time></trkpt><trkpt lat="45.6113712" lon="9.3880569"><ele>191.8</ele><time>2026-03-24T12:08:14.982Z</time></trkpt><trkpt lat="45.6113801" lon="9.387895"><ele>192.4</ele><time>2026-03-24T12:08:16.982Z</time></trkpt><trkpt lat="45.6113877" lon="9.3877535"><ele>193.0</ele><time>2026-03-24T12:08:18.982Z</time></trkpt><trkpt lat="45.6114" lon="9.3876323"><ele>193.49999999999997</ele><time>2026-03-24T12:08:20.982Z</time></trkpt><trkpt lat="45.6114071" lon="9.3875189"><ele>194.0</ele><time>2026-03-24T12:08:22.982Z</time></trkpt><trkpt lat="45.6114226" lon="9.3873993"><ele>194.5</ele><time>2026-03-24T12:08:24.982Z</time></trkpt><trkpt lat="45.6114535" lon="9.3872645"><ele>195.0</ele><time>2026-03-24T12:08:26.982Z</time></trkpt><trkpt lat="45.611466" lon="9.3871297"><ele>195.49999999999997</ele><time>2026-03-24T12:08:29.982Z</time></trkpt><trkpt lat="45.611457" lon="9.3870069"><ele>196.0</ele><time>2026-03-24T12:08:31.982Z</time></trkpt><trkpt lat="45.6114594" lon="9.3868956"><ele>196.16666666666666</ele><time>2026-03-24T12:08:33.982Z</time></trkpt><trkpt lat="45.6114642" lon="9.3867703"><ele>196.33333333333331</ele><time>2026-03-24T12:08:35.982Z</time></trkpt><trkpt lat="45.6114756" lon="9.3866678"><ele>196.5</ele><time>2026-03-24T12:08:37.982Z</time></trkpt><trkpt lat="45.6114674" lon="9.3865571"><ele>196.66666666666669</ele><time>2026-03-24T12:08:39.982Z</time></trkpt><trkpt lat="45.611479" lon="9.3864232"><ele>196.83333333333334</ele><time>2026-03-24T12:08:41.982Z</time></trkpt><trkpt lat="45.6115055" lon="9.3862703"><ele>197.0</ele><time>2026-03-24T12:08:43.982Z</time></trkpt><trkpt lat="45.6115285" lon="9.3861268"><ele>197.0</ele><time>2026-03-24T12:08:45.982Z</time></trkpt><trkpt lat="45.6115512" lon="9.3859827"><ele>197.0</ele><time>2026-03-24T12:08:47.982Z</time></trkpt><trkpt lat="45.6115557" lon="9.3858194"><ele>197.0</ele><time>2026-03-24T12:08:49.982Z</time></trkpt><trkpt lat="45.6115977" lon="9.3856654"><ele>197.0</ele><time>2026-03-24T12:08:51.982Z</time></trkpt><trkpt lat="45.6116137" lon="9.3855453"><ele>197.0</ele><time>2026-03-24T12:08:53.982Z</time></trkpt><trkpt lat="45.6116393" lon="9.3853681"><ele>197.0</ele><time>2026-03-24T12:08:55.982Z</time></trkpt><trkpt lat="45.6116555" lon="9.3852244"><ele>197.0</ele><time>2026-03-24T12:08:57.982Z</time></trkpt><trkpt lat="45.6116644" lon="9.3850806"><ele>197.0</ele><time>2026-03-24T12:08:59.982Z</time></trkpt><trkpt lat="45.6116871" lon="9.3849206"><ele>197.0</ele><time>2026-03-24T12:09:01.982Z</time></trkpt><trkpt lat="45.6117202" lon="9.3847519"><ele>197.0</ele><time>2026-03-24T12:09:03.982Z</time></trkpt><trkpt lat="45.6117375" lon="9.3845772"><ele>196.8</ele><time>2026-03-24T12:09:05.981Z</time></trkpt><trkpt lat="45.611754" lon="9.3844851"><ele>196.6</ele><time>2026-03-24T12:09:06.982Z</time></trkpt><trkpt lat="45.6117631" lon="9.3843946"><ele>196.4</ele><time>2026-03-24T12:09:07.982Z</time></trkpt><trkpt lat="45.6117987" lon="9.3842233"><ele>196.20000000000002</ele><time>2026-03-24T12:09:09.981Z</time></trkpt><trkpt lat="45.6118183" lon="9.3840561"><ele>196.0</ele><time>2026-03-24T12:09:11.982Z</time></trkpt><trkpt lat="45.6118381" lon="9.3838962"><ele>195.8</ele><time>2026-03-24T12:09:13.982Z</time></trkpt><trkpt lat="45.6118572" lon="9.3837419"><ele>195.60000000000002</ele><time>2026-03-24T12:09:15.982Z</time></trkpt><trkpt lat="45.611883" lon="9.3835899"><ele>195.4</ele><time>2026-03-24T12:09:17.982Z</time></trkpt><trkpt lat="45.6119048" lon="9.3834232"><ele>195.2</ele><time>2026-03-24T12:09:19.982Z</time></trkpt><trkpt lat="45.6119092" lon="9.3832911"><ele>195.0</ele><time>2026-03-24T12:09:21.982Z</time></trkpt><trkpt lat="45.6119373" lon="9.3831233"><ele>195.0</ele><time>2026-03-24T12:09:23.982Z</time></trkpt><trkpt lat="45.6119449" lon="9.3830338"><ele>195.0</ele><time>2026-03-24T12:09:24.982Z</time></trkpt><trkpt lat="45.6119559" lon="9.382931"><ele>195.0</ele><time>2026-03-24T12:09:25.982Z</time></trkpt><trkpt lat="45.6119773" lon="9.3828401"><ele>195.0</ele><time>2026-03-24T12:09:26.982Z</time></trkpt><trkpt lat="45.6119863" lon="9.3827462"><ele>195.0</ele><time>2026-03-24T12:09:27.982Z</time></trkpt><trkpt lat="45.61198" lon="9.3825823"><ele>195.0</ele><time>2026-03-24T12:09:29.981Z</time></trkpt><trkpt lat="45.61198" lon="9.3824337"><ele>195.0</ele><time>2026-03-24T12:09:31.982Z</time></trkpt><trkpt lat="45.6120024" lon="9.382261"><ele>195.0</ele><time>2026-03-24T12:09:33.982Z</time></trkpt><trkpt lat="45.6120175" lon="9.3820881"><ele>195.0</ele><time>2026-03-24T12:09:35.982Z</time></trkpt><trkpt lat="45.6120325" lon="9.3819307"><ele>195.0</ele><time>2026-03-24T12:09:37.982Z</time></trkpt><trkpt lat="45.6120535" lon="9.3818376"><ele>195.0</ele><time>2026-03-24T12:09:38.982Z</time></trkpt><trkpt lat="45.6120596" lon="9.3817431"><ele>195.0</ele><time>2026-03-24T12:09:39.982Z</time></trkpt><trkpt lat="45.6120881" lon="9.3815809"><ele>195.0</ele><time>2026-03-24T12:09:41.982Z</time></trkpt><trkpt lat="45.6121102" lon="9.381407"><ele>195.0</ele><time>2026-03-24T12:09:43.982Z</time></trkpt><trkpt lat="45.6121213" lon="9.3812461"><ele>195.0</ele><time>2026-03-24T12:09:45.982Z</time></trkpt><trkpt lat="45.6120625" lon="9.3811011"><ele>195.16666666666666</ele><time>2026-03-24T12:09:47.982Z</time></trkpt><trkpt lat="45.6120386" lon="9.380954"><ele>195.33333333333331</ele><time>2026-03-24T12:09:49.982Z</time></trkpt><trkpt lat="45.6120265" lon="9.3808159"><ele>195.5</ele><time>2026-03-24T12:09:51.982Z</time></trkpt><trkpt lat="45.6120416" lon="9.3806916"><ele>195.66666666666666</ele><time>2026-03-24T12:09:53.982Z</time></trkpt><trkpt lat="45.612057" lon="9.3806026"><ele>195.83333333333331</ele><time>2026-03-24T12:09:55.982Z</time></trkpt><trkpt lat="45.6120803" lon="9.3805086"><ele>196.0</ele><time>2026-03-24T12:10:15.981Z</time></trkpt><trkpt lat="45.6120274" lon="9.3803962"><ele>195.60000000000002</ele><time>2026-03-24T12:10:17.982Z</time></trkpt><trkpt lat="45.6119596" lon="9.3802912"><ele>195.2</ele><time>2026-03-24T12:10:19.982Z</time></trkpt><trkpt lat="45.6118933" lon="9.3801575"><ele>194.8</ele><time>2026-03-24T12:10:21.982Z</time></trkpt><trkpt lat="45.6118275" lon="9.380057"><ele>194.39999999999998</ele><time>2026-03-24T12:10:23.982Z</time></trkpt><trkpt lat="45.611759" lon="9.3799664"><ele>194.0</ele><time>2026-03-24T12:10:25.982Z</time></trkpt><trkpt lat="45.6116856" lon="9.3799025"><ele>194.0</ele><time>2026-03-24T12:10:27.982Z</time></trkpt><trkpt lat="45.6116047" lon="9.379811"><ele>194.0</ele><time>2026-03-24T12:10:29.981Z</time></trkpt><trkpt lat="45.6115218" lon="9.3797155"><ele>194.0</ele><time>2026-03-24T12:10:31.982Z</time></trkpt><trkpt lat="45.6114412" lon="9.3796167"><ele>194.0</ele><time>2026-03-24T12:10:33.982Z</time></trkpt><trkpt lat="45.6113719" lon="9.3795142"><ele>194.0</ele><time>2026-03-24T12:10:35.982Z</time></trkpt><trkpt lat="45.6112981" lon="9.3794232"><ele>193.79999999999998</ele><time>2026-03-24T12:10:37.982Z</time></trkpt><trkpt lat="45.6112406" lon="9.3793388"><ele>193.6</ele><time>2026-03-24T12:10:39.981Z</time></trkpt><trkpt lat="45.6111557" lon="9.3792341"><ele>193.4</ele><time>2026-03-24T12:10:41.982Z</time></trkpt><trkpt lat="45.6110663" lon="9.3791234"><ele>193.2</ele><time>2026-03-24T12:10:43.982Z</time></trkpt><trkpt lat="45.6109874" lon="9.3790069"><ele>193.0</ele><time>2026-03-24T12:10:45.982Z</time></trkpt><trkpt lat="45.6109429" lon="9.3789394"><ele>193.16666666666666</ele><time>2026-03-24T12:10:46.982Z</time></trkpt><trkpt lat="45.6108508" lon="9.3788285"><ele>193.33333333333331</ele><time>2026-03-24T12:10:48.982Z</time></trkpt><trkpt lat="45.6108007" lon="9.3787699"><ele>193.5</ele><time>2026-03-24T12:10:49.982Z</time></trkpt><trkpt lat="45.6107528" lon="9.3787096"><ele>193.66666666666669</ele><time>2026-03-24T12:10:50.981Z</time></trkpt><trkpt lat="45.6106585" lon="9.3785983"><ele>193.83333333333334</ele><time>2026-03-24T12:10:52.982Z</time></trkpt><trkpt lat="45.610611" lon="9.378539"><ele>194.0</ele><time>2026-03-24T12:10:53.982Z</time></trkpt><trkpt lat="45.6105677" lon="9.3784607"><ele>194.0</ele><time>2026-03-24T12:10:54.981Z</time></trkpt><trkpt lat="45.6104758" lon="9.3783179"><ele>194.0</ele><time>2026-03-24T12:10:56.982Z</time></trkpt><trkpt lat="45.610391" lon="9.378187"><ele>194.0</ele><time>2026-03-24T12:10:58.981Z</time></trkpt><trkpt lat="45.6103492" lon="9.3781122"><ele>194.0</ele><time>2026-03-24T12:10:59.982Z</time></trkpt><trkpt lat="45.6103056" lon="9.3780391"><ele>194.0</ele><time>2026-03-24T12:11:00.981Z</time></trkpt><trkpt lat="45.6102222" lon="9.3778888"><ele>193.66666666666669</ele><time>2026-03-24T12:11:02.982Z</time></trkpt><trkpt lat="45.6101472" lon="9.3777427"><ele>193.33333333333334</ele><time>2026-03-24T12:11:04.982Z</time></trkpt><trkpt lat="45.6101081" lon="9.3776619"><ele>193.0</ele><time>2026-03-24T12:11:05.982Z</time></trkpt><trkpt lat="45.6100782" lon="9.3775767"><ele>192.66666666666669</ele><time>2026-03-24T12:11:06.982Z</time></trkpt><trkpt lat="45.6100588" lon="9.3774805"><ele>192.33333333333334</ele><time>2026-03-24T12:11:07.982Z</time></trkpt><trkpt lat="45.6100367" lon="9.3773957"><ele>192.0</ele><time>2026-03-24T12:11:08.982Z</time></trkpt><trkpt lat="45.6100178" lon="9.3772934"><ele>192.0</ele><time>2026-03-24T12:11:09.982Z</time></trkpt><trkpt lat="45.6100024" lon="9.3771932"><ele>192.0</ele><time>2026-03-24T12:11:10.982Z</time></trkpt><trkpt lat="45.6099788" lon="9.3770154"><ele>192.0</ele><time>2026-03-24T12:11:12.982Z</time></trkpt><trkpt lat="45.6099722" lon="9.3769161"><ele>192.0</ele><time>2026-03-24T12:11:13.982Z</time></trkpt><trkpt lat="45.6099644" lon="9.3768167"><ele>192.0</ele><time>2026-03-24T12:11:14.982Z</time></trkpt><trkpt lat="45.6099629" lon="9.3767209"><ele>192.0</ele><time>2026-03-24T12:11:15.982Z</time></trkpt><trkpt lat="45.6099622" lon="9.3766253"><ele>191.8</ele><time>2026-03-24T12:11:16.981Z</time></trkpt><trkpt lat="45.609971" lon="9.3764528"><ele>191.6</ele><time>2026-03-24T12:11:18.982Z</time></trkpt><trkpt lat="45.6099755" lon="9.3763616"><ele>191.4</ele><time>2026-03-24T12:11:19.982Z</time></trkpt><trkpt lat="45.6099841" lon="9.3762629"><ele>191.20000000000002</ele><time>2026-03-24T12:11:20.982Z</time></trkpt><trkpt lat="45.6099868" lon="9.3761694"><ele>191.0</ele><time>2026-03-24T12:11:21.982Z</time></trkpt><trkpt lat="45.6100012" lon="9.3759639"><ele>190.85714285714286</ele><time>2026-03-24T12:11:23.982Z</time></trkpt><trkpt lat="45.6100078" lon="9.3758716"><ele>190.7142857142857</ele><time>2026-03-24T12:11:24.982Z</time></trkpt><trkpt lat="45.6100201" lon="9.3757729"><ele>190.57142857142856</ele><time>2026-03-24T12:11:25.982Z</time></trkpt><trkpt lat="45.6100263" lon="9.3756674"><ele>190.42857142857144</ele><time>2026-03-24T12:11:26.982Z</time></trkpt><trkpt lat="45.6100356" lon="9.3755499"><ele>190.28571428571428</ele><time>2026-03-24T12:11:27.982Z</time></trkpt><trkpt lat="45.6100462" lon="9.3754546"><ele>190.14285714285714</ele><time>2026-03-24T12:11:28.982Z</time></trkpt><trkpt lat="45.6100654" lon="9.375349"><ele>190.0</ele><time>2026-03-24T12:11:29.982Z</time></trkpt><trkpt lat="45.6100816" lon="9.3752469"><ele>190.0</ele><time>2026-03-24T12:11:30.982Z</time></trkpt><trkpt lat="45.6100969" lon="9.375157"><ele>190.0</ele><time>2026-03-24T12:11:31.982Z</time></trkpt><trkpt lat="45.6101153" lon="9.3749935"><ele>190.0</ele><time>2026-03-24T12:11:33.982Z</time></trkpt><trkpt lat="45.6101334" lon="9.3748872"><ele>190.0</ele><time>2026-03-24T12:11:34.982Z</time></trkpt><trkpt lat="45.6101464" lon="9.374788"><ele>190.0</ele><time>2026-03-24T12:11:35.982Z</time></trkpt><trkpt lat="45.6101616" lon="9.3746967"><ele>190.0</ele><time>2026-03-24T12:11:36.982Z</time></trkpt><trkpt lat="45.6101731" lon="9.3746027"><ele>190.0</ele><time>2026-03-24T12:11:37.982Z</time></trkpt><trkpt lat="45.6101825" lon="9.3745006"><ele>190.0</ele><time>2026-03-24T12:11:38.982Z</time></trkpt><trkpt lat="45.6101962" lon="9.3743155"><ele>190.0</ele><time>2026-03-24T12:11:40.982Z</time></trkpt><trkpt lat="45.6102219" lon="9.374209"><ele>190.0</ele><time>2026-03-24T12:11:41.982Z</time></trkpt><trkpt lat="45.6102357" lon="9.3741013"><ele>190.0</ele><time>2026-03-24T12:11:42.982Z</time></trkpt><trkpt lat="45.6102422" lon="9.3739963"><ele>190.0</ele><time>2026-03-24T12:11:43.982Z</time></trkpt><trkpt lat="45.6102597" lon="9.3738819"><ele>190.0</ele><time>2026-03-24T12:11:44.982Z</time></trkpt><trkpt lat="45.6102797" lon="9.3736943"><ele>190.0</ele><time>2026-03-24T12:11:46.982Z</time></trkpt><trkpt lat="45.6102946" lon="9.373593"><ele>190.0</ele><time>2026-03-24T12:11:47.982Z</time></trkpt><trkpt lat="45.6103145" lon="9.3734372"><ele>190.0</ele><time>2026-03-24T12:11:49.982Z</time></trkpt><trkpt lat="45.6103202" lon="9.3732691"><ele>190.0</ele><time>2026-03-24T12:11:51.982Z</time></trkpt><trkpt lat="45.6103355" lon="9.3731639"><ele>191.2</ele><time>2026-03-24T12:11:52.982Z</time></trkpt><trkpt lat="45.6103798" lon="9.3729891"><ele>192.4</ele><time>2026-03-24T12:11:54.982Z</time></trkpt><trkpt lat="45.6104096" lon="9.3728826"><ele>193.60000000000002</ele><time>2026-03-24T12:11:55.982Z</time></trkpt><trkpt lat="45.6104251" lon="9.3727856"><ele>194.8</ele><time>2026-03-24T12:11:56.982Z</time></trkpt><trkpt lat="45.6104369" lon="9.372678"><ele>196.0</ele><time>2026-03-24T12:11:57.982Z</time></trkpt><trkpt lat="45.6104581" lon="9.3725063"><ele>196.0</ele><time>2026-03-24T12:11:59.982Z</time></trkpt><trkpt lat="45.6104585" lon="9.3723925"><ele>196.0</ele><time>2026-03-24T12:12:00.982Z</time></trkpt><trkpt lat="45.6104765" lon="9.3722224"><ele>196.0</ele><time>2026-03-24T12:12:02.982Z</time></trkpt><trkpt lat="45.6104849" lon="9.372127"><ele>196.0</ele><time>2026-03-24T12:12:03.982Z</time></trkpt><trkpt lat="45.6105178" lon="9.3719542"><ele>196.0</ele><time>2026-03-24T12:12:05.982Z</time></trkpt><trkpt lat="45.6105211" lon="9.3718562"><ele>195.60000000000002</ele><time>2026-03-24T12:12:06.982Z</time></trkpt><trkpt lat="45.6105227" lon="9.3717639"><ele>195.2</ele><time>2026-03-24T12:12:07.982Z</time></trkpt><trkpt lat="45.6105296" lon="9.3715898"><ele>194.8</ele><time>2026-03-24T12:12:09.982Z</time></trkpt><trkpt lat="45.610546" lon="9.3714864"><ele>194.39999999999998</ele><time>2026-03-24T12:12:10.982Z</time></trkpt><trkpt lat="45.6105625" lon="9.371394"><ele>194.0</ele><time>2026-03-24T12:12:11.982Z</time></trkpt><trkpt lat="45.6105746" lon="9.3712202"><ele>193.39999999999998</ele><time>2026-03-24T12:12:13.982Z</time></trkpt><trkpt lat="45.610586" lon="9.3710486"><ele>192.8</ele><time>2026-03-24T12:12:15.982Z</time></trkpt><trkpt lat="45.6106013" lon="9.3708569"><ele>192.2</ele><time>2026-03-24T12:12:17.982Z</time></trkpt><trkpt lat="45.6105994" lon="9.3707596"><ele>191.60000000000002</ele><time>2026-03-24T12:12:18.982Z</time></trkpt><trkpt lat="45.6105994" lon="9.370652"><ele>191.0</ele><time>2026-03-24T12:12:19.982Z</time></trkpt><trkpt lat="45.6105584" lon="9.3705598"><ele>191.14285714285714</ele><time>2026-03-24T12:12:20.982Z</time></trkpt><trkpt lat="45.6105487" lon="9.3704575"><ele>191.28571428571428</ele><time>2026-03-24T12:12:21.982Z</time></trkpt><trkpt lat="45.6105067" lon="9.3703756"><ele>191.42857142857142</ele><time>2026-03-24T12:12:22.982Z</time></trkpt><trkpt lat="45.6104886" lon="9.3702791"><ele>191.57142857142856</ele><time>2026-03-24T12:12:23.982Z</time></trkpt><trkpt lat="45.6104625" lon="9.370181"><ele>191.71428571428572</ele><time>2026-03-24T12:12:24.982Z</time></trkpt><trkpt lat="45.6104499" lon="9.3700803"><ele>191.85714285714283</ele><time>2026-03-24T12:12:25.981Z</time></trkpt><trkpt lat="45.6104522" lon="9.3699832"><ele>192.0</ele><time>2026-03-24T12:12:26.982Z</time></trkpt><trkpt lat="45.6104516" lon="9.3698858"><ele>191.99999999999997</ele><time>2026-03-24T12:12:27.982Z</time></trkpt><trkpt lat="45.6104372" lon="9.3697958"><ele>192.0</ele><time>2026-03-24T12:12:28.982Z</time></trkpt><trkpt lat="45.6104316" lon="9.3697001"><ele>192.0</ele><time>2026-03-24T12:12:29.982Z</time></trkpt><trkpt lat="45.6104458" lon="9.369612"><ele>192.0</ele><time>2026-03-24T12:12:30.981Z</time></trkpt><trkpt lat="45.6104702" lon="9.3695092"><ele>192.0</ele><time>2026-03-24T12:12:31.982Z</time></trkpt><trkpt lat="45.6104858" lon="9.3694198"><ele>191.99999999999997</ele><time>2026-03-24T12:12:32.982Z</time></trkpt><trkpt lat="45.6105081" lon="9.3693169"><ele>192.0</ele><time>2026-03-24T12:12:33.982Z</time></trkpt><trkpt lat="45.610533" lon="9.3692182"><ele>191.99999999999997</ele><time>2026-03-24T12:12:34.982Z</time></trkpt><trkpt lat="45.6105559" lon="9.3691213"><ele>192.0</ele><time>2026-03-24T12:12:35.982Z</time></trkpt><trkpt lat="45.6105726" lon="9.3690229"><ele>192.0</ele><time>2026-03-24T12:12:36.981Z</time></trkpt><trkpt lat="45.6105828" lon="9.3689277"><ele>192.0</ele><time>2026-03-24T12:12:37.982Z</time></trkpt><trkpt lat="45.6106012" lon="9.3688231"><ele>192.0</ele><time>2026-03-24T12:12:38.982Z</time></trkpt><trkpt lat="45.6106141" lon="9.3687229"><ele>191.99999999999997</ele><time>2026-03-24T12:12:39.982Z</time></trkpt><trkpt lat="45.6106227" lon="9.3686262"><ele>192.0</ele><time>2026-03-24T12:12:40.982Z</time></trkpt><trkpt lat="45.6106235" lon="9.3685345"><ele>192.14285714285714</ele><time>2026-03-24T12:12:41.982Z</time></trkpt><trkpt lat="45.6106286" lon="9.3684369"><ele>192.28571428571428</ele><time>2026-03-24T12:12:42.982Z</time></trkpt><trkpt lat="45.6106432" lon="9.3683337"><ele>192.42857142857144</ele><time>2026-03-24T12:12:43.982Z</time></trkpt><trkpt lat="45.6106485" lon="9.3682381"><ele>192.57142857142856</ele><time>2026-03-24T12:12:44.982Z</time></trkpt><trkpt lat="45.6106489" lon="9.3681332"><ele>192.71428571428572</ele><time>2026-03-24T12:12:45.982Z</time></trkpt><trkpt lat="45.6106537" lon="9.3680417"><ele>192.85714285714286</ele><time>2026-03-24T12:12:46.981Z</time></trkpt><trkpt lat="45.6106678" lon="9.3679388"><ele>193.0</ele><time>2026-03-24T12:12:47.982Z</time></trkpt><trkpt lat="45.6106801" lon="9.3678391"><ele>192.49999999999997</ele><time>2026-03-24T12:12:48.982Z</time></trkpt><trkpt lat="45.6107182" lon="9.3677344"><ele>192.0</ele><time>2026-03-24T12:12:49.982Z</time></trkpt><trkpt lat="45.6107554" lon="9.3676474"><ele>191.5</ele><time>2026-03-24T12:12:50.982Z</time></trkpt><trkpt lat="45.610792" lon="9.3675738"><ele>191.0</ele><time>2026-03-24T12:12:51.982Z</time></trkpt><trkpt lat="45.6108685" lon="9.3674122"><ele>190.5</ele><time>2026-03-24T12:12:53.981Z</time></trkpt><trkpt lat="45.6109077" lon="9.3673253"><ele>190.0</ele><time>2026-03-24T12:12:54.982Z</time></trkpt><trkpt lat="45.610949" lon="9.3672488"><ele>190.0</ele><time>2026-03-24T12:12:55.982Z</time></trkpt><trkpt lat="45.6109957" lon="9.3671707"><ele>190.0</ele><time>2026-03-24T12:12:56.982Z</time></trkpt><trkpt lat="45.6110597" lon="9.3670369"><ele>190.0</ele><time>2026-03-24T12:12:58.982Z</time></trkpt><trkpt lat="45.611134" lon="9.3669555"><ele>190.0</ele><time>2026-03-24T12:12:59.982Z</time></trkpt><trkpt lat="45.6112033" lon="9.3668541"><ele>190.0</ele><time>2026-03-24T12:13:01.982Z</time></trkpt><trkpt lat="45.6112954" lon="9.3667214"><ele>190.33333333333334</ele><time>2026-03-24T12:13:03.982Z</time></trkpt><trkpt lat="45.6113671" lon="9.3665619"><ele>190.66666666666669</ele><time>2026-03-24T12:13:05.982Z</time></trkpt><trkpt lat="45.6114203" lon="9.3664835"><ele>191.0</ele><time>2026-03-24T12:13:06.982Z</time></trkpt><trkpt lat="45.6114634" lon="9.3663969"><ele>191.33333333333334</ele><time>2026-03-24T12:13:07.982Z</time></trkpt><trkpt lat="45.6115128" lon="9.3663342"><ele>191.66666666666666</ele><time>2026-03-24T12:13:08.982Z</time></trkpt><trkpt lat="45.6115496" lon="9.3662602"><ele>192.0</ele><time>2026-03-24T12:13:09.982Z</time></trkpt><trkpt lat="45.6116224" lon="9.3661176"><ele>192.0</ele><time>2026-03-24T12:13:11.982Z</time></trkpt><trkpt lat="45.6116956" lon="9.3659726"><ele>192.0</ele><time>2026-03-24T12:13:13.982Z</time></trkpt><trkpt lat="45.611737" lon="9.3659043"><ele>192.0</ele><time>2026-03-24T12:13:14.981Z</time></trkpt><trkpt lat="45.6117801" lon="9.3658361"><ele>192.0</ele><time>2026-03-24T12:13:15.982Z</time></trkpt><trkpt lat="45.6118328" lon="9.3657677"><ele>192.0</ele><time>2026-03-24T12:13:16.982Z</time></trkpt><trkpt lat="45.6118809" lon="9.3656953"><ele>192.0</ele><time>2026-03-24T12:13:17.981Z</time></trkpt><trkpt lat="45.6119253" lon="9.365611"><ele>192.0</ele><time>2026-03-24T12:13:18.981Z</time></trkpt><trkpt lat="45.6119719" lon="9.3655437"><ele>192.0</ele><time>2026-03-24T12:13:19.982Z</time></trkpt><trkpt lat="45.6120252" lon="9.3654699"><ele>192.0</ele><time>2026-03-24T12:13:20.982Z</time></trkpt><trkpt lat="45.6120641" lon="9.3653959"><ele>192.0</ele><time>2026-03-24T12:13:21.982Z</time></trkpt><trkpt lat="45.6121234" lon="9.3653268"><ele>192.0</ele><time>2026-03-24T12:13:22.982Z</time></trkpt><trkpt lat="45.6121791" lon="9.365268"><ele>192.0</ele><time>2026-03-24T12:13:23.982Z</time></trkpt><trkpt lat="45.6122806" lon="9.3651986"><ele>192.16666666666666</ele><time>2026-03-24T12:13:25.982Z</time></trkpt><trkpt lat="45.6123634" lon="9.3651852"><ele>192.33333333333331</ele><time>2026-03-24T12:13:26.982Z</time></trkpt><trkpt lat="45.6124514" lon="9.365182"><ele>192.5</ele><time>2026-03-24T12:13:27.982Z</time></trkpt><trkpt lat="45.6125178" lon="9.3651863"><ele>192.66666666666666</ele><time>2026-03-24T12:13:28.982Z</time></trkpt><trkpt lat="45.6126355" lon="9.3651788"><ele>192.83333333333331</ele><time>2026-03-24T12:13:30.982Z</time></trkpt><trkpt lat="45.6127047" lon="9.3651786"><ele>193.0</ele><time>2026-03-24T12:13:31.982Z</time></trkpt><trkpt lat="45.6127888" lon="9.3651479"><ele>192.99999999999997</ele><time>2026-03-24T12:13:33.982Z</time></trkpt><trkpt lat="45.6128821" lon="9.3651426"><ele>193.0</ele><time>2026-03-24T12:13:35.982Z</time></trkpt><trkpt lat="45.6129891" lon="9.3651054"><ele>193.0</ele><time>2026-03-24T12:13:40.982Z</time></trkpt><trkpt lat="45.6130527" lon="9.3650856"><ele>193.0</ele><time>2026-03-24T12:13:42.982Z</time></trkpt><trkpt lat="45.6131235" lon="9.3650586"><ele>192.99999999999997</ele><time>2026-03-24T12:13:44.982Z</time></trkpt><trkpt lat="45.6131899" lon="9.3650071"><ele>193.0</ele><time>2026-03-24T12:13:48.982Z</time></trkpt><trkpt lat="45.6132513" lon="9.3649346"><ele>193.0</ele><time>2026-03-24T12:13:53.982Z</time></trkpt><trkpt lat="45.6132852" lon="9.3648579"><ele>193.0</ele><time>2026-03-24T12:13:59.982Z</time></trkpt><trkpt lat="45.6133026" lon="9.3647052"><ele>193.0</ele><time>2026-03-24T12:14:02.982Z</time></trkpt><trkpt lat="45.6133452" lon="9.3645971"><ele>193.0</ele><time>2026-03-24T12:14:03.982Z</time></trkpt><trkpt lat="45.6133752" lon="9.3644318"><ele>193.0</ele><time>2026-03-24T12:14:05.982Z</time></trkpt><trkpt lat="45.6133717" lon="9.3642996"><ele>192.85714285714286</ele><time>2026-03-24T12:14:07.982Z</time></trkpt><trkpt lat="45.6133971" lon="9.3641833"><ele>192.71428571428572</ele><time>2026-03-24T12:14:09.982Z</time></trkpt><trkpt lat="45.6133915" lon="9.3640809"><ele>192.57142857142856</ele><time>2026-03-24T12:14:11.982Z</time></trkpt><trkpt lat="45.6134255" lon="9.3640009"><ele>192.42857142857144</ele><time>2026-03-24T12:14:12.982Z</time></trkpt><trkpt lat="45.6134408" lon="9.3639054"><ele>192.28571428571428</ele><time>2026-03-24T12:14:13.982Z</time></trkpt><trkpt lat="45.6134524" lon="9.363808"><ele>192.14285714285714</ele><time>2026-03-24T12:14:14.982Z</time></trkpt><trkpt lat="45.613469" lon="9.3637064"><ele>192.0</ele><time>2026-03-24T12:14:15.982Z</time></trkpt><trkpt lat="45.6134737" lon="9.3636097"><ele>192.0</ele><time>2026-03-24T12:14:16.982Z</time></trkpt><trkpt lat="45.6134757" lon="9.3634384"><ele>192.0</ele><time>2026-03-24T12:14:18.982Z</time></trkpt><trkpt lat="45.613474" lon="9.3633401"><ele>192.0</ele><time>2026-03-24T12:14:19.982Z</time></trkpt><trkpt lat="45.6134667" lon="9.3631724"><ele>192.0</ele><time>2026-03-24T12:14:21.982Z</time></trkpt><trkpt lat="45.6134734" lon="9.3629921"><ele>192.0</ele><time>2026-03-24T12:14:23.982Z</time></trkpt><trkpt lat="45.6134768" lon="9.3628992"><ele>192.16666666666666</ele><time>2026-03-24T12:14:24.982Z</time></trkpt><trkpt lat="45.6134706" lon="9.3627249"><ele>192.33333333333331</ele><time>2026-03-24T12:14:26.982Z</time></trkpt><trkpt lat="45.6134785" lon="9.3626339"><ele>192.5</ele><time>2026-03-24T12:14:27.982Z</time></trkpt><trkpt lat="45.6134809" lon="9.3625401"><ele>192.66666666666666</ele><time>2026-03-24T12:14:28.982Z</time></trkpt><trkpt lat="45.6134912" lon="9.3624296"><ele>192.83333333333331</ele><time>2026-03-24T12:14:29.982Z</time></trkpt><trkpt lat="45.6134986" lon="9.3623358"><ele>193.0</ele><time>2026-03-24T12:14:30.982Z</time></trkpt><trkpt lat="45.6135168" lon="9.3622199"><ele>192.60000000000002</ele><time>2026-03-24T12:14:31.982Z</time></trkpt><trkpt lat="45.6135043" lon="9.3620958"><ele>192.20000000000002</ele><time>2026-03-24T12:14:33.982Z</time></trkpt><trkpt lat="45.6135191" lon="9.3620003"><ele>191.8</ele><time>2026-03-24T12:14:34.982Z</time></trkpt><trkpt lat="45.6135136" lon="9.3618341"><ele>191.4</ele><time>2026-03-24T12:14:36.982Z</time></trkpt><trkpt lat="45.6135199" lon="9.3616599"><ele>191.0</ele><time>2026-03-24T12:14:38.982Z</time></trkpt><trkpt lat="45.6135312" lon="9.3615347"><ele>191.0</ele><time>2026-03-24T12:14:39.982Z</time></trkpt><trkpt lat="45.613533" lon="9.3614333"><ele>191.0</ele><time>2026-03-24T12:14:40.981Z</time></trkpt><trkpt lat="45.6135376" lon="9.3613318"><ele>191.0</ele><time>2026-03-24T12:14:41.982Z</time></trkpt><trkpt lat="45.6135435" lon="9.3612347"><ele>191.0</ele><time>2026-03-24T12:14:42.982Z</time></trkpt><trkpt lat="45.6135499" lon="9.3611323"><ele>191.0</ele><time>2026-03-24T12:14:43.982Z</time></trkpt><trkpt lat="45.6135501" lon="9.3610364"><ele>191.0</ele><time>2026-03-24T12:14:44.982Z</time></trkpt><trkpt lat="45.6135508" lon="9.3609368"><ele>191.0</ele><time>2026-03-24T12:14:45.982Z</time></trkpt><trkpt lat="45.6135545" lon="9.3608331"><ele>190.83333333333331</ele><time>2026-03-24T12:14:46.982Z</time></trkpt><trkpt lat="45.6135471" lon="9.3607395"><ele>190.66666666666666</ele><time>2026-03-24T12:14:47.982Z</time></trkpt><trkpt lat="45.6135491" lon="9.3606453"><ele>190.5</ele><time>2026-03-24T12:14:48.982Z</time></trkpt><trkpt lat="45.6135533" lon="9.3605481"><ele>190.33333333333334</ele><time>2026-03-24T12:14:49.982Z</time></trkpt><trkpt lat="45.6135568" lon="9.3604535"><ele>190.16666666666669</ele><time>2026-03-24T12:14:50.982Z</time></trkpt><trkpt lat="45.6135578" lon="9.3603569"><ele>190.0</ele><time>2026-03-24T12:14:51.981Z</time></trkpt><trkpt lat="45.613562" lon="9.3601695"><ele>190.0</ele><time>2026-03-24T12:14:53.982Z</time></trkpt><trkpt lat="45.6135588" lon="9.3600653"><ele>190.0</ele><time>2026-03-24T12:14:54.982Z</time></trkpt><trkpt lat="45.6135693" lon="9.3599681"><ele>190.0</ele><time>2026-03-24T12:14:55.982Z</time></trkpt><trkpt lat="45.61357" lon="9.3597902"><ele>190.0</ele><time>2026-03-24T12:14:57.982Z</time></trkpt><trkpt lat="45.6135695" lon="9.3596905"><ele>190.0</ele><time>2026-03-24T12:14:58.982Z</time></trkpt><trkpt lat="45.6136007" lon="9.3595777"><ele>190.0</ele><time>2026-03-24T12:14:59.982Z</time></trkpt><trkpt lat="45.6136245" lon="9.3594838"><ele>190.0</ele><time>2026-03-24T12:15:00.982Z</time></trkpt><trkpt lat="45.6136444" lon="9.3593474"><ele>190.0</ele><time>2026-03-24T12:15:02.982Z</time></trkpt><trkpt lat="45.6136639" lon="9.3591886"><ele>190.0</ele><time>2026-03-24T12:15:04.982Z</time></trkpt><trkpt lat="45.6136371" lon="9.3590742"><ele>190.0</ele><time>2026-03-24T12:15:06.982Z</time></trkpt><trkpt lat="45.6135468" lon="9.359066"><ele>190.0</ele><time>2026-03-24T12:15:08.982Z</time></trkpt><trkpt lat="45.6134548" lon="9.3590689"><ele>189.8</ele><time>2026-03-24T12:15:10.982Z</time></trkpt><trkpt lat="45.6133731" lon="9.3590688"><ele>189.6</ele><time>2026-03-24T12:15:12.982Z</time></trkpt><trkpt lat="45.613273" lon="9.3590827"><ele>189.39999999999998</ele><time>2026-03-24T12:15:14.982Z</time></trkpt><trkpt lat="45.6131755" lon="9.3590936"><ele>189.2</ele><time>2026-03-24T12:15:16.982Z</time></trkpt><trkpt lat="45.613068" lon="9.3591095"><ele>189.0</ele><time>2026-03-24T12:15:18.981Z</time></trkpt><trkpt lat="45.6129604" lon="9.3591191"><ele>189.0</ele><time>2026-03-24T12:15:20.982Z</time></trkpt><trkpt lat="45.6128932" lon="9.3591392"><ele>189.0</ele><time>2026-03-24T12:15:21.982Z</time></trkpt><trkpt lat="45.6128254" lon="9.35916"><ele>189.0</ele><time>2026-03-24T12:15:22.982Z</time></trkpt><trkpt lat="45.6127181" lon="9.3591713"><ele>189.0</ele><time>2026-03-24T12:15:24.982Z</time></trkpt><trkpt lat="45.6125973" lon="9.3592126"><ele>189.0</ele><time>2026-03-24T12:15:26.982Z</time></trkpt><trkpt lat="45.6125325" lon="9.3592277"><ele>189.0</ele><time>2026-03-24T12:15:27.982Z</time></trkpt><trkpt lat="45.6124699" lon="9.3592418"><ele>188.79999999999998</ele><time>2026-03-24T12:15:28.982Z</time></trkpt><trkpt lat="45.6123526" lon="9.3592672"><ele>188.6</ele><time>2026-03-24T12:15:30.982Z</time></trkpt><trkpt lat="45.6122893" lon="9.359284"><ele>188.4</ele><time>2026-03-24T12:15:31.982Z</time></trkpt><trkpt lat="45.6122248" lon="9.3593069"><ele>188.2</ele><time>2026-03-24T12:15:32.982Z</time></trkpt><trkpt lat="45.61211" lon="9.35935"><ele>188.0</ele><time>2026-03-24T12:15:34.982Z</time></trkpt><trkpt lat="45.6120001" lon="9.3593893"><ele>188.16666666666666</ele><time>2026-03-24T12:15:36.981Z</time></trkpt><trkpt lat="45.6119356" lon="9.35941"><ele>188.33333333333331</ele><time>2026-03-24T12:15:37.982Z</time></trkpt><trkpt lat="45.6118411" lon="9.3594098"><ele>188.5</ele><time>2026-03-24T12:15:39.982Z</time></trkpt><trkpt lat="45.6117487" lon="9.3593299"><ele>188.66666666666666</ele><time>2026-03-24T12:15:41.982Z</time></trkpt><trkpt lat="45.6116837" lon="9.359301"><ele>188.83333333333334</ele><time>2026-03-24T12:15:43.982Z</time></trkpt><trkpt lat="45.6116032" lon="9.3593934"><ele>189.0</ele><time>2026-03-24T12:15:46.982Z</time></trkpt><trkpt lat="45.6114929" lon="9.3594384"><ele>189.0</ele><time>2026-03-24T12:15:48.981Z</time></trkpt><trkpt lat="45.6114231" lon="9.3594523"><ele>189.0</ele><time>2026-03-24T12:15:49.982Z</time></trkpt><trkpt lat="45.6113201" lon="9.3594828"><ele>189.0</ele><time>2026-03-24T12:15:51.982Z</time></trkpt><trkpt lat="45.6112118" lon="9.359515"><ele>189.0</ele><time>2026-03-24T12:15:53.982Z</time></trkpt><trkpt lat="45.6110961" lon="9.3595491"><ele>189.0</ele><time>2026-03-24T12:15:55.982Z</time></trkpt><trkpt lat="45.6109802" lon="9.359585"><ele>188.83333333333334</ele><time>2026-03-24T12:15:57.981Z</time></trkpt><trkpt lat="45.6108662" lon="9.3596264"><ele>188.66666666666666</ele><time>2026-03-24T12:15:59.982Z</time></trkpt><trkpt lat="45.6108016" lon="9.3596563"><ele>188.5</ele><time>2026-03-24T12:16:00.982Z</time></trkpt><trkpt lat="45.6107418" lon="9.3596891"><ele>188.33333333333331</ele><time>2026-03-24T12:16:01.982Z</time></trkpt><trkpt lat="45.6106759" lon="9.3597125"><ele>188.16666666666666</ele><time>2026-03-24T12:16:02.982Z</time></trkpt><trkpt lat="45.6106092" lon="9.3597399"><ele>188.0</ele><time>2026-03-24T12:16:03.982Z</time></trkpt><trkpt lat="45.6105473" lon="9.3597673"><ele>187.66666666666666</ele><time>2026-03-24T12:16:04.982Z</time></trkpt><trkpt lat="45.6104829" lon="9.3597987"><ele>187.33333333333331</ele><time>2026-03-24T12:16:05.982Z</time></trkpt><trkpt lat="45.6104225" lon="9.359829"><ele>187.0</ele><time>2026-03-24T12:16:06.982Z</time></trkpt><trkpt lat="45.6103595" lon="9.3598545"><ele>186.66666666666666</ele><time>2026-03-24T12:16:07.982Z</time></trkpt><trkpt lat="45.6102335" lon="9.3598946"><ele>186.33333333333334</ele><time>2026-03-24T12:16:09.981Z</time></trkpt><trkpt lat="45.6101622" lon="9.359921"><ele>186.0</ele><time>2026-03-24T12:16:10.982Z</time></trkpt><trkpt lat="45.610095" lon="9.3599511"><ele>185.4</ele><time>2026-03-24T12:16:11.981Z</time></trkpt><trkpt lat="45.6100311" lon="9.3599727"><ele>184.8</ele><time>2026-03-24T12:16:12.982Z</time></trkpt><trkpt lat="45.6099125" lon="9.3600342"><ele>184.20000000000002</ele><time>2026-03-24T12:16:14.981Z</time></trkpt><trkpt lat="45.6097898" lon="9.3600814"><ele>183.60000000000002</ele><time>2026-03-24T12:16:16.982Z</time></trkpt><trkpt lat="45.6097264" lon="9.3601063"><ele>183.0</ele><time>2026-03-24T12:16:17.982Z</time></trkpt><trkpt lat="45.609664" lon="9.3601368"><ele>183.0</ele><time>2026-03-24T12:16:18.982Z</time></trkpt><trkpt lat="45.6096041" lon="9.3601685"><ele>183.0</ele><time>2026-03-24T12:16:19.981Z</time></trkpt><trkpt lat="45.6095392" lon="9.3601944"><ele>183.0</ele><time>2026-03-24T12:16:20.982Z</time></trkpt><trkpt lat="45.6094698" lon="9.3602158"><ele>183.0</ele><time>2026-03-24T12:16:21.982Z</time></trkpt><trkpt lat="45.6094081" lon="9.3602387"><ele>183.0</ele><time>2026-03-24T12:16:22.982Z</time></trkpt><trkpt lat="45.6093454" lon="9.3602646"><ele>183.0</ele><time>2026-03-24T12:16:23.982Z</time></trkpt><trkpt lat="45.6092737" lon="9.3603013"><ele>183.0</ele><time>2026-03-24T12:16:24.981Z</time></trkpt><trkpt lat="45.6092026" lon="9.3603357"><ele>183.4</ele><time>2026-03-24T12:16:25.982Z</time></trkpt><trkpt lat="45.6090977" lon="9.3603847"><ele>183.8</ele><time>2026-03-24T12:16:27.981Z</time></trkpt><trkpt lat="45.6090323" lon="9.3604105"><ele>184.2</ele><time>2026-03-24T12:16:28.982Z</time></trkpt><trkpt lat="45.6089142" lon="9.3604713"><ele>184.6</ele><time>2026-03-24T12:16:30.981Z</time></trkpt><trkpt lat="45.608801" lon="9.3605393"><ele>185.0</ele><time>2026-03-24T12:16:32.982Z</time></trkpt><trkpt lat="45.6087221" lon="9.3605755"><ele>185.0</ele><time>2026-03-24T12:16:34.982Z</time></trkpt><trkpt lat="45.6086374" lon="9.3605567"><ele>185.0</ele><time>2026-03-24T12:16:38.982Z</time></trkpt><trkpt lat="45.6085782" lon="9.3605208"><ele>185.0</ele><time>2026-03-24T12:16:40.982Z</time></trkpt><trkpt lat="45.6085293" lon="9.3604442"><ele>185.0</ele><time>2026-03-24T12:16:42.981Z</time></trkpt><trkpt lat="45.6085161" lon="9.3603142"><ele>185.0</ele><time>2026-03-24T12:16:44.982Z</time></trkpt><trkpt lat="45.608522" lon="9.3601781"><ele>185.0</ele><time>2026-03-24T12:16:46.982Z</time></trkpt><trkpt lat="45.608526" lon="9.3600153"><ele>184.6</ele><time>2026-03-24T12:16:48.982Z</time></trkpt><trkpt lat="45.6085283" lon="9.3598563"><ele>184.2</ele><time>2026-03-24T12:16:50.982Z</time></trkpt><trkpt lat="45.6085267" lon="9.359689"><ele>183.8</ele><time>2026-03-24T12:16:52.982Z</time></trkpt><trkpt lat="45.6085532" lon="9.3595395"><ele>183.4</ele><time>2026-03-24T12:16:54.982Z</time></trkpt><trkpt lat="45.6086014" lon="9.3594031"><ele>183.0</ele><time>2026-03-24T12:16:56.981Z</time></trkpt><trkpt lat="45.6086011" lon="9.3592593"><ele>182.83333333333334</ele><time>2026-03-24T12:16:58.982Z</time></trkpt><trkpt lat="45.6085633" lon="9.3591462"><ele>182.66666666666666</ele><time>2026-03-24T12:17:00.981Z</time></trkpt><trkpt lat="45.6085427" lon="9.3590591"><ele>182.5</ele><time>2026-03-24T12:17:01.981Z</time></trkpt><trkpt lat="45.6085344" lon="9.3589051"><ele>182.33333333333331</ele><time>2026-03-24T12:17:03.982Z</time></trkpt><trkpt lat="45.6085372" lon="9.3587928"><ele>182.16666666666666</ele><time>2026-03-24T12:17:05.982Z</time></trkpt><trkpt lat="45.6085327" lon="9.3586644"><ele>182.0</ele><time>2026-03-24T12:17:08.982Z</time></trkpt><trkpt lat="45.6085231" lon="9.3585716"><ele>182.39999999999998</ele><time>2026-03-24T12:17:22.981Z</time></trkpt><trkpt lat="45.6085229" lon="9.3584782"><ele>182.79999999999998</ele><time>2026-03-24T12:17:25.982Z</time></trkpt><trkpt lat="45.608524" lon="9.3583395"><ele>183.2</ele><time>2026-03-24T12:17:28.982Z</time></trkpt><trkpt lat="45.6085266" lon="9.3582086"><ele>183.6</ele><time>2026-03-24T12:17:30.982Z</time></trkpt><trkpt lat="45.6085377" lon="9.3580489"><ele>184.0</ele><time>2026-03-24T12:17:32.981Z</time></trkpt><trkpt lat="45.6085403" lon="9.3579094"><ele>184.0</ele><time>2026-03-24T12:17:34.982Z</time></trkpt><trkpt lat="45.6085437" lon="9.3577709"><ele>184.0</ele><time>2026-03-24T12:17:36.982Z</time></trkpt><trkpt lat="45.6085446" lon="9.3576278"><ele>184.0</ele><time>2026-03-24T12:17:38.982Z</time></trkpt><trkpt lat="45.608541" lon="9.3574973"><ele>184.0</ele><time>2026-03-24T12:17:40.982Z</time></trkpt><trkpt lat="45.6085604" lon="9.3573663"><ele>184.0</ele><time>2026-03-24T12:17:42.982Z</time></trkpt><trkpt lat="45.6085994" lon="9.3572696"><ele>184.0</ele><time>2026-03-24T12:17:44.982Z</time></trkpt><trkpt lat="45.6087283" lon="9.3571808"><ele>184.0</ele><time>2026-03-24T12:17:47.982Z</time></trkpt><trkpt lat="45.6088392" lon="9.3571529"><ele>184.0</ele><time>2026-03-24T12:17:49.982Z</time></trkpt><trkpt lat="45.6089451" lon="9.357135"><ele>184.0</ele><time>2026-03-24T12:17:51.982Z</time></trkpt><trkpt lat="45.6090503" lon="9.357114"><ele>184.0</ele><time>2026-03-24T12:17:53.982Z</time></trkpt><trkpt lat="45.6091362" lon="9.3570477"><ele>184.0</ele><time>2026-03-24T12:17:55.982Z</time></trkpt><trkpt lat="45.6091939" lon="9.3569676"><ele>184.0</ele><time>2026-03-24T12:17:57.982Z</time></trkpt><trkpt lat="45.6092036" lon="9.356848"><ele>184.0</ele><time>2026-03-24T12:18:00.982Z</time></trkpt><trkpt lat="45.6092102" lon="9.3567442"><ele>184.0</ele><time>2026-03-24T12:18:02.982Z</time></trkpt><trkpt lat="45.6092116" lon="9.3566383"><ele>184.0</ele><time>2026-03-24T12:18:04.981Z</time></trkpt><trkpt lat="45.6092276" lon="9.3565478"><ele>184.0</ele><time>2026-03-24T12:18:06.982Z</time></trkpt><trkpt lat="45.6092846" lon="9.3564926"><ele>184.0</ele><time>2026-03-24T12:18:10.981Z</time></trkpt><trkpt lat="45.6093663" lon="9.3564823"><ele>184.0</ele><time>2026-03-24T12:18:13.982Z</time></trkpt><trkpt lat="45.6094469" lon="9.3565544"><ele>184.0</ele><time>2026-03-24T12:18:16.982Z</time></trkpt><trkpt lat="45.6095222" lon="9.3566054"><ele>184.0</ele><time>2026-03-24T12:18:18.981Z</time></trkpt><trkpt lat="45.6096141" lon="9.3565951"><ele>184.0</ele><time>2026-03-24T12:18:20.982Z</time></trkpt><trkpt lat="45.6096787" lon="9.3565045"><ele>184.0</ele><time>2026-03-24T12:18:22.982Z</time></trkpt><trkpt lat="45.6097372" lon="9.3564365"><ele>184.0</ele><time>2026-03-24T12:18:24.981Z</time></trkpt><trkpt lat="45.6097728" lon="9.3563502"><ele>184.0</ele><time>2026-03-24T12:18:26.982Z</time></trkpt><trkpt lat="45.6097853" lon="9.3562324"><ele>184.0</ele><time>2026-03-24T12:18:28.981Z</time></trkpt><trkpt lat="45.6097841" lon="9.3561007"><ele>184.0</ele><time>2026-03-24T12:18:30.981Z</time></trkpt><trkpt lat="45.6097904" lon="9.3559888"><ele>184.0</ele><time>2026-03-24T12:18:32.982Z</time></trkpt><trkpt lat="45.6098486" lon="9.3559096"><ele>184.33333333333334</ele><time>2026-03-24T12:18:35.982Z</time></trkpt><trkpt lat="45.6099244" lon="9.3558454"><ele>184.66666666666669</ele><time>2026-03-24T12:18:39.982Z</time></trkpt><trkpt lat="45.6099781" lon="9.3557891"><ele>185.0</ele><time>2026-03-24T12:18:41.982Z</time></trkpt><trkpt lat="45.6099888" lon="9.3556827"><ele>185.33333333333334</ele><time>2026-03-24T12:18:43.982Z</time></trkpt><trkpt lat="45.6099913" lon="9.3555693"><ele>185.66666666666666</ele><time>2026-03-24T12:18:45.982Z</time></trkpt><trkpt lat="45.6100058" lon="9.3554464"><ele>186.0</ele><time>2026-03-24T12:18:47.982Z</time></trkpt><trkpt lat="45.609974" lon="9.3553308"><ele>186.42857142857144</ele><time>2026-03-24T12:18:50.982Z</time></trkpt><trkpt lat="45.6099227" lon="9.3552678"><ele>186.85714285714286</ele><time>2026-03-24T12:18:52.982Z</time></trkpt><trkpt lat="45.6099006" lon="9.3551649"><ele>187.28571428571428</ele><time>2026-03-24T12:18:56.982Z</time></trkpt><trkpt lat="45.6098726" lon="9.3550574"><ele>187.71428571428572</ele><time>2026-03-24T12:18:59.982Z</time></trkpt><trkpt lat="45.609835" lon="9.3549729"><ele>188.14285714285714</ele><time>2026-03-24T12:19:03.981Z</time></trkpt><trkpt lat="45.6098714" lon="9.3550506"><ele>188.57142857142858</ele><time>2026-03-24T12:19:08.982Z</time></trkpt><trkpt lat="45.6099103" lon="9.3551353"><ele>189.0</ele><time>2026-03-24T12:19:11.982Z</time></trkpt><trkpt lat="45.6099787" lon="9.3551026"><ele>189.0</ele><time>2026-03-24T12:19:15.982Z</time></trkpt><trkpt lat="45.6100473" lon="9.3550935"><ele>189.0</ele><time>2026-03-24T12:19:19.981Z</time></trkpt><trkpt lat="45.610137" lon="9.3551331"><ele>189.0</ele><time>2026-03-24T12:19:22.982Z</time></trkpt><trkpt lat="45.6101651" lon="9.3550461"><ele>189.0</ele><time>2026-03-24T12:19:25.982Z</time></trkpt><trkpt lat="45.6101185" lon="9.3549567"><ele>189.0</ele><time>2026-03-24T12:19:28.982Z</time></trkpt><trkpt lat="45.6101016" lon="9.3548393"><ele>189.0</ele><time>2026-03-24T12:19:30.981Z</time></trkpt><trkpt lat="45.6100887" lon="9.3547026"><ele>188.79999999999998</ele><time>2026-03-24T12:19:32.982Z</time></trkpt><trkpt lat="45.6100717" lon="9.3545582"><ele>188.6</ele><time>2026-03-24T12:19:34.982Z</time></trkpt><trkpt lat="45.6100534" lon="9.3544017"><ele>188.4</ele><time>2026-03-24T12:19:36.982Z</time></trkpt><trkpt lat="45.6100373" lon="9.3542536"><ele>188.2</ele><time>2026-03-24T12:19:38.982Z</time></trkpt><trkpt lat="45.6100241" lon="9.3540885"><ele>188.0</ele><time>2026-03-24T12:19:40.982Z</time></trkpt><trkpt lat="45.610002" lon="9.3539254"><ele>186.75</ele><time>2026-03-24T12:19:42.982Z</time></trkpt><trkpt lat="45.6099745" lon="9.3537684"><ele>185.5</ele><time>2026-03-24T12:19:44.982Z</time></trkpt><trkpt lat="45.60995" lon="9.3535978"><ele>184.25</ele><time>2026-03-24T12:19:46.982Z</time></trkpt><trkpt lat="45.6099296" lon="9.3534368"><ele>183.0</ele><time>2026-03-24T12:19:48.982Z</time></trkpt><trkpt lat="45.6099078" lon="9.3532738"><ele>183.0</ele><time>2026-03-24T12:19:50.982Z</time></trkpt><trkpt lat="45.6098859" lon="9.3531157"><ele>183.0</ele><time>2026-03-24T12:19:52.982Z</time></trkpt><trkpt lat="45.6098487" lon="9.3529615"><ele>183.0</ele><time>2026-03-24T12:19:54.982Z</time></trkpt><trkpt lat="45.6098157" lon="9.3527966"><ele>183.0</ele><time>2026-03-24T12:19:56.982Z</time></trkpt><trkpt lat="45.6097944" lon="9.3526304"><ele>183.2</ele><time>2026-03-24T12:19:58.982Z</time></trkpt><trkpt lat="45.6097683" lon="9.3524554"><ele>183.4</ele><time>2026-03-24T12:20:00.982Z</time></trkpt><trkpt lat="45.6097383" lon="9.3523072"><ele>183.6</ele><time>2026-03-24T12:20:02.982Z</time></trkpt><trkpt lat="45.6097074" lon="9.3521427"><ele>183.79999999999998</ele><time>2026-03-24T12:20:04.982Z</time></trkpt><trkpt lat="45.6096899" lon="9.3520511"><ele>184.0</ele><time>2026-03-24T12:20:05.982Z</time></trkpt><trkpt lat="45.6096534" lon="9.3518997"><ele>184.0</ele><time>2026-03-24T12:20:07.982Z</time></trkpt><trkpt lat="45.6096345" lon="9.3517244"><ele>184.0</ele><time>2026-03-24T12:20:09.981Z</time></trkpt><trkpt lat="45.6096044" lon="9.3515571"><ele>184.0</ele><time>2026-03-24T12:20:11.982Z</time></trkpt><trkpt lat="45.6095719" lon="9.3514"><ele>184.0</ele><time>2026-03-24T12:20:13.982Z</time></trkpt><trkpt lat="45.6095413" lon="9.3512359"><ele>184.0</ele><time>2026-03-24T12:20:15.982Z</time></trkpt><trkpt lat="45.6095149" lon="9.3510866"><ele>184.0</ele><time>2026-03-24T12:20:17.982Z</time></trkpt><trkpt lat="45.6094904" lon="9.3509613"><ele>184.0</ele><time>2026-03-24T12:20:19.982Z</time></trkpt><trkpt lat="45.6094448" lon="9.3508605"><ele>184.0</ele><time>2026-03-24T12:20:21.982Z</time></trkpt><trkpt lat="45.6093948" lon="9.3507427"><ele>184.0</ele><time>2026-03-24T12:20:23.982Z</time></trkpt><trkpt lat="45.6093666" lon="9.3505887"><ele>183.0</ele><time>2026-03-24T12:20:25.981Z</time></trkpt><trkpt lat="45.6093348" lon="9.3504452"><ele>182.0</ele><time>2026-03-24T12:20:27.981Z</time></trkpt><trkpt lat="45.6093114" lon="9.3502906"><ele>181.0</ele><time>2026-03-24T12:20:29.981Z</time></trkpt><trkpt lat="45.6092924" lon="9.350125"><ele>180.0</ele><time>2026-03-24T12:20:31.982Z</time></trkpt><trkpt lat="45.6092763" lon="9.3499664"><ele>179.0</ele><time>2026-03-24T12:20:33.981Z</time></trkpt><trkpt lat="45.6092541" lon="9.3498067"><ele>179.5</ele><time>2026-03-24T12:20:35.982Z</time></trkpt><trkpt lat="45.6092456" lon="9.3496408"><ele>180.0</ele><time>2026-03-24T12:20:37.982Z</time></trkpt><trkpt lat="45.6092295" lon="9.3494762"><ele>180.5</ele><time>2026-03-24T12:20:39.982Z</time></trkpt><trkpt lat="45.6092189" lon="9.3493131"><ele>181.0</ele><time>2026-03-24T12:20:41.982Z</time></trkpt><trkpt lat="45.6092074" lon="9.3491522"><ele>181.0</ele><time>2026-03-24T12:20:43.982Z</time></trkpt><trkpt lat="45.6091917" lon="9.3489904"><ele>181.0</ele><time>2026-03-24T12:20:45.982Z</time></trkpt><trkpt lat="45.609176" lon="9.3488309"><ele>181.0</ele><time>2026-03-24T12:20:47.982Z</time></trkpt><trkpt lat="45.6091607" lon="9.3486773"><ele>181.0</ele><time>2026-03-24T12:20:49.982Z</time></trkpt><trkpt lat="45.6091356" lon="9.3485244"><ele>181.0</ele><time>2026-03-24T12:20:51.982Z</time></trkpt><trkpt lat="45.6091271" lon="9.3483655"><ele>181.33333333333334</ele><time>2026-03-24T12:20:53.982Z</time></trkpt><trkpt lat="45.6091146" lon="9.348217"><ele>181.66666666666669</ele><time>2026-03-24T12:20:55.982Z</time></trkpt><trkpt lat="45.6091109" lon="9.3480671"><ele>182.0</ele><time>2026-03-24T12:20:57.982Z</time></trkpt><trkpt lat="45.609099" lon="9.3479503"><ele>182.33333333333334</ele><time>2026-03-24T12:20:59.982Z</time></trkpt><trkpt lat="45.6091073" lon="9.3478527"><ele>182.66666666666666</ele><time>2026-03-24T12:21:07.982Z</time></trkpt><trkpt lat="45.6090662" lon="9.3477674"><ele>183.0</ele><time>2026-03-24T12:21:10.982Z</time></trkpt><trkpt lat="45.608984" lon="9.347733"><ele>183.4</ele><time>2026-03-24T12:21:12.982Z</time></trkpt><trkpt lat="45.6088721" lon="9.3477252"><ele>183.8</ele><time>2026-03-24T12:21:14.982Z</time></trkpt><trkpt lat="45.6087714" lon="9.3477072"><ele>184.2</ele><time>2026-03-24T12:21:16.982Z</time></trkpt><trkpt lat="45.6086689" lon="9.3476792"><ele>184.6</ele><time>2026-03-24T12:21:18.982Z</time></trkpt><trkpt lat="45.6085537" lon="9.3476565"><ele>185.0</ele><time>2026-03-24T12:21:20.982Z</time></trkpt><trkpt lat="45.6084425" lon="9.3476263"><ele>185.0</ele><time>2026-03-24T12:21:22.981Z</time></trkpt><trkpt lat="45.608331" lon="9.3475904"><ele>185.0</ele><time>2026-03-24T12:21:24.982Z</time></trkpt><trkpt lat="45.6082149" lon="9.3475386"><ele>185.0</ele><time>2026-03-24T12:21:26.982Z</time></trkpt><trkpt lat="45.6081033" lon="9.3474891"><ele>185.0</ele><time>2026-03-24T12:21:28.981Z</time></trkpt><trkpt lat="45.6079964" lon="9.3474231"><ele>185.0</ele><time>2026-03-24T12:21:30.982Z</time></trkpt><trkpt lat="45.6078831" lon="9.3473568"><ele>185.0</ele><time>2026-03-24T12:21:32.982Z</time></trkpt><trkpt lat="45.6077769" lon="9.3472743"><ele>185.0</ele><time>2026-03-24T12:21:34.982Z</time></trkpt><trkpt lat="45.60766" lon="9.3471952"><ele>185.0</ele><time>2026-03-24T12:21:36.982Z</time></trkpt><trkpt lat="45.6075488" lon="9.3471308"><ele>185.0</ele><time>2026-03-24T12:21:38.982Z</time></trkpt><trkpt lat="45.6074943" lon="9.3470833"><ele>185.0</ele><time>2026-03-24T12:21:39.982Z</time></trkpt><trkpt lat="45.6073859" lon="9.3470221"><ele>185.0</ele><time>2026-03-24T12:21:41.982Z</time></trkpt><trkpt lat="45.6072761" lon="9.3469508"><ele>185.0</ele><time>2026-03-24T12:21:43.982Z</time></trkpt><trkpt lat="45.6071627" lon="9.3468836"><ele>185.0</ele><time>2026-03-24T12:21:45.981Z</time></trkpt><trkpt lat="45.6071009" lon="9.3468644"><ele>185.0</ele><time>2026-03-24T12:21:46.982Z</time></trkpt><trkpt lat="45.6069922" lon="9.3468644"><ele>185.0</ele><time>2026-03-24T12:21:48.982Z</time></trkpt><trkpt lat="45.6068815" lon="9.3469034"><ele>185.0</ele><time>2026-03-24T12:21:50.982Z</time></trkpt><trkpt lat="45.6067897" lon="9.3469599"><ele>185.0</ele><time>2026-03-24T12:21:52.981Z</time></trkpt><trkpt lat="45.6066773" lon="9.3470351"><ele>185.0</ele><time>2026-03-24T12:21:54.982Z</time></trkpt><trkpt lat="45.60661" lon="9.3470881"><ele>185.0</ele><time>2026-03-24T12:21:55.982Z</time></trkpt><trkpt lat="45.6065142" lon="9.3471358"><ele>185.0</ele><time>2026-03-24T12:21:57.982Z</time></trkpt><trkpt lat="45.6064295" lon="9.3471689"><ele>185.0</ele><time>2026-03-24T12:21:58.982Z</time></trkpt><trkpt lat="45.6063638" lon="9.3472014"><ele>185.0</ele><time>2026-03-24T12:21:59.981Z</time></trkpt><trkpt lat="45.6062941" lon="9.3472175"><ele>185.0</ele><time>2026-03-24T12:22:00.982Z</time></trkpt><trkpt lat="45.6062278" lon="9.3472176"><ele>185.0</ele><time>2026-03-24T12:22:01.982Z</time></trkpt><trkpt lat="45.6061299" lon="9.3472366"><ele>184.6</ele><time>2026-03-24T12:22:03.982Z</time></trkpt><trkpt lat="45.6060339" lon="9.347227"><ele>184.2</ele><time>2026-03-24T12:22:05.982Z</time></trkpt><trkpt lat="45.6059473" lon="9.3471592"><ele>183.8</ele><time>2026-03-24T12:22:08.982Z</time></trkpt><trkpt lat="45.6058825" lon="9.3471187"><ele>183.4</ele><time>2026-03-24T12:22:10.982Z</time></trkpt><trkpt lat="45.6057792" lon="9.3471152"><ele>183.0</ele><time>2026-03-24T12:22:12.982Z</time></trkpt><trkpt lat="45.6056743" lon="9.3471525"><ele>183.25</ele><time>2026-03-24T12:22:14.982Z</time></trkpt><trkpt lat="45.6055623" lon="9.3472131"><ele>183.5</ele><time>2026-03-24T12:22:16.982Z</time></trkpt><trkpt lat="45.6054553" lon="9.3472391"><ele>183.75</ele><time>2026-03-24T12:22:18.982Z</time></trkpt><trkpt lat="45.6053353" lon="9.3472197"><ele>184.0</ele><time>2026-03-24T12:22:20.981Z</time></trkpt><trkpt lat="45.6052499" lon="9.3471332"><ele>184.0</ele><time>2026-03-24T12:22:22.982Z</time></trkpt><trkpt lat="45.6052431" lon="9.3470036"><ele>184.0</ele><time>2026-03-24T12:22:24.981Z</time></trkpt><trkpt lat="45.6052669" lon="9.3468908"><ele>184.0</ele><time>2026-03-24T12:22:26.982Z</time></trkpt><trkpt lat="45.6053014" lon="9.3467776"><ele>184.0</ele><time>2026-03-24T12:22:28.982Z</time></trkpt><trkpt lat="45.6053317" lon="9.3466658"><ele>184.0</ele><time>2026-03-24T12:22:30.982Z</time></trkpt><trkpt lat="45.605358" lon="9.3465521"><ele>184.0</ele><time>2026-03-24T12:22:32.982Z</time></trkpt><trkpt lat="45.6053796" lon="9.3464411"><ele>184.16666666666669</ele><time>2026-03-24T12:22:34.982Z</time></trkpt><trkpt lat="45.605403" lon="9.3463293"><ele>184.33333333333334</ele><time>2026-03-24T12:22:36.982Z</time></trkpt><trkpt lat="45.6054184" lon="9.3462317"><ele>184.5</ele><time>2026-03-24T12:22:38.982Z</time></trkpt><trkpt lat="45.6054347" lon="9.3461274"><ele>184.66666666666666</ele><time>2026-03-24T12:22:40.982Z</time></trkpt><trkpt lat="45.6054699" lon="9.346006"><ele>184.83333333333331</ele><time>2026-03-24T12:22:42.982Z</time></trkpt><trkpt lat="45.6055116" lon="9.3458818"><ele>185.0</ele><time>2026-03-24T12:22:44.982Z</time></trkpt><trkpt lat="45.6055121" lon="9.3457848"><ele>185.0</ele><time>2026-03-24T12:22:46.982Z</time></trkpt><trkpt lat="45.6055461" lon="9.3455493"><ele>185.0</ele><time>2026-03-24T12:22:51.982Z</time></trkpt><trkpt lat="45.6055893" lon="9.3454499"><ele>185.0</ele><time>2026-03-24T12:22:52.982Z</time></trkpt><trkpt lat="45.6056163" lon="9.3453663"><ele>185.0</ele><time>2026-03-24T12:22:53.982Z</time></trkpt><trkpt lat="45.6056356" lon="9.3452034"><ele>185.0</ele><time>2026-03-24T12:22:55.982Z</time></trkpt><trkpt lat="45.60565" lon="9.3451004"><ele>185.0</ele><time>2026-03-24T12:22:56.982Z</time></trkpt><trkpt lat="45.6056984" lon="9.3449474"><ele>185.0</ele><time>2026-03-24T12:22:58.981Z</time></trkpt><trkpt lat="45.6057069" lon="9.3448039"><ele>185.0</ele><time>2026-03-24T12:23:00.982Z</time></trkpt><trkpt lat="45.6057397" lon="9.3446356"><ele>185.0</ele><time>2026-03-24T12:23:02.981Z</time></trkpt><trkpt lat="45.6057559" lon="9.3445464"><ele>185.0</ele><time>2026-03-24T12:23:03.982Z</time></trkpt><trkpt lat="45.6057764" lon="9.3443934"><ele>184.8</ele><time>2026-03-24T12:23:05.982Z</time></trkpt><trkpt lat="45.6058001" lon="9.3442497"><ele>184.6</ele><time>2026-03-24T12:23:07.982Z</time></trkpt><trkpt lat="45.6058207" lon="9.3441166"><ele>184.39999999999998</ele><time>2026-03-24T12:23:09.982Z</time></trkpt><trkpt lat="45.6058429" lon="9.3439689"><ele>184.2</ele><time>2026-03-24T12:23:11.982Z</time></trkpt><trkpt lat="45.605864" lon="9.3438089"><ele>184.0</ele><time>2026-03-24T12:23:13.982Z</time></trkpt><trkpt lat="45.6058895" lon="9.3436675"><ele>184.0</ele><time>2026-03-24T12:23:15.982Z</time></trkpt><trkpt lat="45.6059008" lon="9.343543"><ele>184.0</ele><time>2026-03-24T12:23:17.982Z</time></trkpt><trkpt lat="45.605927" lon="9.3434437"><ele>184.0</ele><time>2026-03-24T12:23:24.982Z</time></trkpt><trkpt lat="45.6059469" lon="9.3433294"><ele>184.0</ele><time>2026-03-24T12:23:27.982Z</time></trkpt><trkpt lat="45.6059789" lon="9.3432217"><ele>184.0</ele><time>2026-03-24T12:23:29.982Z</time></trkpt><trkpt lat="45.6059814" lon="9.343099"><ele>184.0</ele><time>2026-03-24T12:23:31.982Z</time></trkpt><trkpt lat="45.6059392" lon="9.3430152"><ele>184.0</ele><time>2026-03-24T12:23:33.982Z</time></trkpt><trkpt lat="45.6058555" lon="9.3429545"><ele>184.0</ele><time>2026-03-24T12:23:35.982Z</time></trkpt><trkpt lat="45.6057611" lon="9.3429094"><ele>184.0</ele><time>2026-03-24T12:23:37.982Z</time></trkpt><trkpt lat="45.6056641" lon="9.3428601"><ele>184.0</ele><time>2026-03-24T12:23:39.982Z</time></trkpt><trkpt lat="45.6055621" lon="9.3428172"><ele>184.0</ele><time>2026-03-24T12:23:41.982Z</time></trkpt><trkpt lat="45.6054674" lon="9.3427833"><ele>184.0</ele><time>2026-03-24T12:23:43.982Z</time></trkpt><trkpt lat="45.6053835" lon="9.342729"><ele>184.0</ele><time>2026-03-24T12:23:45.982Z</time></trkpt><trkpt lat="45.6053561" lon="9.3426345"><ele>184.0</ele><time>2026-03-24T12:23:47.982Z</time></trkpt><trkpt lat="45.6053808" lon="9.3425346"><ele>184.0</ele><time>2026-03-24T12:23:49.982Z</time></trkpt><trkpt lat="45.6054045" lon="9.342414"><ele>184.0</ele><time>2026-03-24T12:23:51.982Z</time></trkpt><trkpt lat="45.6054282" lon="9.3422978"><ele>184.0</ele><time>2026-03-24T12:23:53.982Z</time></trkpt><trkpt lat="45.6054636" lon="9.3421578"><ele>183.79999999999998</ele><time>2026-03-24T12:23:55.982Z</time></trkpt><trkpt lat="45.6054877" lon="9.3420256"><ele>183.6</ele><time>2026-03-24T12:23:57.982Z</time></trkpt><trkpt lat="45.6055329" lon="9.3418956"><ele>183.4</ele><time>2026-03-24T12:23:59.981Z</time></trkpt><trkpt lat="45.6055731" lon="9.3417707"><ele>183.2</ele><time>2026-03-24T12:24:01.982Z</time></trkpt><trkpt lat="45.6056035" lon="9.3416327"><ele>183.0</ele><time>2026-03-24T12:24:03.982Z</time></trkpt><trkpt lat="45.6056327" lon="9.3414972"><ele>183.2</ele><time>2026-03-24T12:24:05.981Z</time></trkpt><trkpt lat="45.6056658" lon="9.3413547"><ele>183.4</ele><time>2026-03-24T12:24:07.982Z</time></trkpt><trkpt lat="45.6056968" lon="9.3412258"><ele>183.6</ele><time>2026-03-24T12:24:09.982Z</time></trkpt><trkpt lat="45.6057237" lon="9.3410825"><ele>183.79999999999998</ele><time>2026-03-24T12:24:11.981Z</time></trkpt><trkpt lat="45.6057494" lon="9.3409374"><ele>184.0</ele><time>2026-03-24T12:24:13.982Z</time></trkpt><trkpt lat="45.6057772" lon="9.3407992"><ele>184.0</ele><time>2026-03-24T12:24:15.982Z</time></trkpt><trkpt lat="45.6058013" lon="9.3406658"><ele>184.0</ele><time>2026-03-24T12:24:17.982Z</time></trkpt><trkpt lat="45.6058244" lon="9.3405207"><ele>184.0</ele><time>2026-03-24T12:24:19.982Z</time></trkpt><trkpt lat="45.6058375" lon="9.3403796"><ele>184.0</ele><time>2026-03-24T12:24:21.982Z</time></trkpt><trkpt lat="45.6058432" lon="9.3402304"><ele>184.0</ele><time>2026-03-24T12:24:23.981Z</time></trkpt><trkpt lat="45.6057937" lon="9.340113"><ele>183.79999999999998</ele><time>2026-03-24T12:24:25.982Z</time></trkpt><trkpt lat="45.6057118" lon="9.3400392"><ele>183.6</ele><time>2026-03-24T12:24:27.982Z</time></trkpt><trkpt lat="45.6056159" lon="9.3399909"><ele>183.4</ele><time>2026-03-24T12:24:29.981Z</time></trkpt><trkpt lat="45.6055325" lon="9.3399274"><ele>183.2</ele><time>2026-03-24T12:24:31.982Z</time></trkpt><trkpt lat="45.605433" lon="9.3399012"><ele>183.0</ele><time>2026-03-24T12:24:33.982Z</time></trkpt><trkpt lat="45.605347" lon="9.3398603"><ele>182.60000000000002</ele><time>2026-03-24T12:24:35.982Z</time></trkpt><trkpt lat="45.6052538" lon="9.3398194"><ele>182.20000000000002</ele><time>2026-03-24T12:24:37.982Z</time></trkpt><trkpt lat="45.6051604" lon="9.3397703"><ele>181.8</ele><time>2026-03-24T12:24:39.982Z</time></trkpt><trkpt lat="45.6050585" lon="9.3397224"><ele>181.4</ele><time>2026-03-24T12:24:41.982Z</time></trkpt><trkpt lat="45.6049569" lon="9.3396889"><ele>181.0</ele><time>2026-03-24T12:24:43.982Z</time></trkpt><trkpt lat="45.6048499" lon="9.3396518"><ele>180.8</ele><time>2026-03-24T12:24:45.982Z</time></trkpt><trkpt lat="45.6047429" lon="9.339606"><ele>180.60000000000002</ele><time>2026-03-24T12:24:47.982Z</time></trkpt><trkpt lat="45.6046328" lon="9.339566"><ele>180.4</ele><time>2026-03-24T12:24:49.982Z</time></trkpt><trkpt lat="45.6045224" lon="9.3395375"><ele>180.2</ele><time>2026-03-24T12:24:51.982Z</time></trkpt><trkpt lat="45.6044169" lon="9.3395202"><ele>180.0</ele><time>2026-03-24T12:24:53.982Z</time></trkpt><trkpt lat="45.6043146" lon="9.339516"><ele>180.0</ele><time>2026-03-24T12:24:55.981Z</time></trkpt><trkpt lat="45.6042195" lon="9.3395316"><ele>180.0</ele><time>2026-03-24T12:24:57.982Z</time></trkpt><trkpt lat="45.604125" lon="9.3395619"><ele>180.0</ele><time>2026-03-24T12:24:59.982Z</time></trkpt><trkpt lat="45.6040285" lon="9.3395955"><ele>180.0</ele><time>2026-03-24T12:25:01.982Z</time></trkpt><trkpt lat="45.6039268" lon="9.3395847"><ele>180.0</ele><time>2026-03-24T12:25:03.981Z</time></trkpt><trkpt lat="45.6038218" lon="9.3395356"><ele>180.0</ele><time>2026-03-24T12:25:05.982Z</time></trkpt><trkpt lat="45.603729" lon="9.3394603"><ele>180.0</ele><time>2026-03-24T12:25:07.982Z</time></trkpt><trkpt lat="45.6036464" lon="9.3393616"><ele>180.0</ele><time>2026-03-24T12:25:09.982Z</time></trkpt><trkpt lat="45.6035717" lon="9.3392573"><ele>180.0</ele><time>2026-03-24T12:25:11.982Z</time></trkpt><trkpt lat="45.6035096" lon="9.3391814"><ele>180.0</ele><time>2026-03-24T12:25:13.981Z</time></trkpt><trkpt lat="45.6034798" lon="9.3390559"><ele>180.2</ele><time>2026-03-24T12:25:15.982Z</time></trkpt><trkpt lat="45.6034444" lon="9.3389237"><ele>180.4</ele><time>2026-03-24T12:25:17.982Z</time></trkpt><trkpt lat="45.6034286" lon="9.3387774"><ele>180.60000000000002</ele><time>2026-03-24T12:25:19.982Z</time></trkpt><trkpt lat="45.6034099" lon="9.3386419"><ele>180.8</ele><time>2026-03-24T12:25:21.982Z</time></trkpt><trkpt lat="45.6034064" lon="9.3385014"><ele>181.0</ele><time>2026-03-24T12:25:23.981Z</time></trkpt><trkpt lat="45.603421" lon="9.33836"><ele>181.0</ele><time>2026-03-24T12:25:25.982Z</time></trkpt><trkpt lat="45.6034457" lon="9.3382359"><ele>181.0</ele><time>2026-03-24T12:25:27.981Z</time></trkpt><trkpt lat="45.6034739" lon="9.3380962"><ele>181.0</ele><time>2026-03-24T12:25:29.982Z</time></trkpt><trkpt lat="45.6035013" lon="9.3379643"><ele>181.0</ele><time>2026-03-24T12:25:31.982Z</time></trkpt><trkpt lat="45.603535" lon="9.3378342"><ele>181.0</ele><time>2026-03-24T12:25:33.982Z</time></trkpt><trkpt lat="45.6035703" lon="9.3376974"><ele>181.0</ele><time>2026-03-24T12:25:35.982Z</time></trkpt><trkpt lat="45.6036026" lon="9.3375668"><ele>181.0</ele><time>2026-03-24T12:25:37.982Z</time></trkpt><trkpt lat="45.6036376" lon="9.3374316"><ele>181.0</ele><time>2026-03-24T12:25:39.982Z</time></trkpt><trkpt lat="45.6036746" lon="9.3372924"><ele>181.0</ele><time>2026-03-24T12:25:41.982Z</time></trkpt><trkpt lat="45.6037105" lon="9.3371484"><ele>181.0</ele><time>2026-03-24T12:25:43.982Z</time></trkpt><trkpt lat="45.6037502" lon="9.3369915"><ele>181.0</ele><time>2026-03-24T12:25:45.982Z</time></trkpt><trkpt lat="45.6037785" lon="9.3368671"><ele>181.0</ele><time>2026-03-24T12:25:47.981Z</time></trkpt><trkpt lat="45.6038144" lon="9.3367176"><ele>181.0</ele><time>2026-03-24T12:25:49.982Z</time></trkpt><trkpt lat="45.603846" lon="9.3365734"><ele>181.0</ele><time>2026-03-24T12:25:51.982Z</time></trkpt><trkpt lat="45.6038776" lon="9.3364214"><ele>181.0</ele><time>2026-03-24T12:25:53.982Z</time></trkpt><trkpt lat="45.6039137" lon="9.3362732"><ele>181.0</ele><time>2026-03-24T12:25:55.982Z</time></trkpt><trkpt lat="45.6039538" lon="9.33613"><ele>181.0</ele><time>2026-03-24T12:25:57.982Z</time></trkpt><trkpt lat="45.6039992" lon="9.3359853"><ele>181.0</ele><time>2026-03-24T12:25:59.981Z</time></trkpt><trkpt lat="45.6040183" lon="9.3358964"><ele>181.0</ele><time>2026-03-24T12:26:00.982Z</time></trkpt><trkpt lat="45.6040491" lon="9.335762"><ele>181.0</ele><time>2026-03-24T12:26:02.982Z</time></trkpt><trkpt lat="45.6040851" lon="9.3356386"><ele>180.60000000000002</ele><time>2026-03-24T12:26:04.981Z</time></trkpt><trkpt lat="45.6041152" lon="9.3355009"><ele>180.2</ele><time>2026-03-24T12:26:06.982Z</time></trkpt><trkpt lat="45.6041479" lon="9.3353673"><ele>179.8</ele><time>2026-03-24T12:26:08.982Z</time></trkpt><trkpt lat="45.604188" lon="9.3352243"><ele>179.39999999999998</ele><time>2026-03-24T12:26:10.982Z</time></trkpt><trkpt lat="45.6042356" lon="9.3350842"><ele>179.0</ele><time>2026-03-24T12:26:12.981Z</time></trkpt><trkpt lat="45.6042788" lon="9.334951"><ele>179.0</ele><time>2026-03-24T12:26:14.982Z</time></trkpt><trkpt lat="45.6043351" lon="9.3348267"><ele>179.0</ele><time>2026-03-24T12:26:16.981Z</time></trkpt><trkpt lat="45.6043977" lon="9.3346978"><ele>179.0</ele><time>2026-03-24T12:26:18.982Z</time></trkpt><trkpt lat="45.6044613" lon="9.3345596"><ele>179.0</ele><time>2026-03-24T12:26:20.981Z</time></trkpt><trkpt lat="45.604506" lon="9.33443"><ele>179.0</ele><time>2026-03-24T12:26:22.982Z</time></trkpt><trkpt lat="45.6045438" lon="9.3342915"><ele>179.2</ele><time>2026-03-24T12:26:24.982Z</time></trkpt><trkpt lat="45.6045907" lon="9.3341527"><ele>179.39999999999998</ele><time>2026-03-24T12:26:26.982Z</time></trkpt><trkpt lat="45.6046255" lon="9.3340142"><ele>179.6</ele><time>2026-03-24T12:26:28.982Z</time></trkpt><trkpt lat="45.6046603" lon="9.3338782"><ele>179.8</ele><time>2026-03-24T12:26:30.982Z</time></trkpt><trkpt lat="45.6046914" lon="9.3337515"><ele>180.0</ele><time>2026-03-24T12:26:32.982Z</time></trkpt><trkpt lat="45.604728" lon="9.3336095"><ele>180.0</ele><time>2026-03-24T12:26:34.982Z</time></trkpt><trkpt lat="45.6047588" lon="9.3334603"><ele>180.0</ele><time>2026-03-24T12:26:36.981Z</time></trkpt><trkpt lat="45.6047855" lon="9.3333167"><ele>180.0</ele><time>2026-03-24T12:26:38.982Z</time></trkpt><trkpt lat="45.6048084" lon="9.3331666"><ele>180.0</ele><time>2026-03-24T12:26:40.982Z</time></trkpt><trkpt lat="45.6048321" lon="9.3330072"><ele>180.0</ele><time>2026-03-24T12:26:42.982Z</time></trkpt><trkpt lat="45.6048684" lon="9.332865"><ele>180.0</ele><time>2026-03-24T12:26:44.982Z</time></trkpt><trkpt lat="45.6048975" lon="9.3327141"><ele>180.0</ele><time>2026-03-24T12:26:46.981Z</time></trkpt><trkpt lat="45.6049388" lon="9.3325614"><ele>180.0</ele><time>2026-03-24T12:26:48.982Z</time></trkpt><trkpt lat="45.6049673" lon="9.3324271"><ele>180.0</ele><time>2026-03-24T12:26:50.982Z</time></trkpt><trkpt lat="45.6050015" lon="9.3322858"><ele>180.0</ele><time>2026-03-24T12:26:52.982Z</time></trkpt><trkpt lat="45.6050393" lon="9.3321381"><ele>179.4</ele><time>2026-03-24T12:26:54.982Z</time></trkpt><trkpt lat="45.6050744" lon="9.3319803"><ele>178.8</ele><time>2026-03-24T12:26:56.982Z</time></trkpt><trkpt lat="45.6051106" lon="9.331824"><ele>178.2</ele><time>2026-03-24T12:26:58.982Z</time></trkpt><trkpt lat="45.6051457" lon="9.3316901"><ele>177.6</ele><time>2026-03-24T12:27:00.982Z</time></trkpt><trkpt lat="45.605182" lon="9.3315299"><ele>177.0</ele><time>2026-03-24T12:27:02.982Z</time></trkpt><trkpt lat="45.605215" lon="9.3313881"><ele>177.0</ele><time>2026-03-24T12:27:04.981Z</time></trkpt><trkpt lat="45.6052426" lon="9.3312288"><ele>177.0</ele><time>2026-03-24T12:27:06.982Z</time></trkpt><trkpt lat="45.6052722" lon="9.331076"><ele>177.0</ele><time>2026-03-24T12:27:08.982Z</time></trkpt><trkpt lat="45.6052939" lon="9.3309289"><ele>177.0</ele><time>2026-03-24T12:27:10.982Z</time></trkpt><trkpt lat="45.6053048" lon="9.3307817"><ele>177.0</ele><time>2026-03-24T12:27:12.982Z</time></trkpt><trkpt lat="45.6053193" lon="9.3306389"><ele>177.39999999999998</ele><time>2026-03-24T12:27:14.981Z</time></trkpt><trkpt lat="45.6053547" lon="9.3305077"><ele>177.79999999999998</ele><time>2026-03-24T12:27:16.982Z</time></trkpt><trkpt lat="45.6053778" lon="9.330372"><ele>178.2</ele><time>2026-03-24T12:27:18.982Z</time></trkpt><trkpt lat="45.6054138" lon="9.3302371"><ele>178.6</ele><time>2026-03-24T12:27:20.982Z</time></trkpt><trkpt lat="45.6054364" lon="9.3300841"><ele>179.0</ele><time>2026-03-24T12:27:22.982Z</time></trkpt><trkpt lat="45.6054396" lon="9.3299253"><ele>179.0</ele><time>2026-03-24T12:27:24.981Z</time></trkpt><trkpt lat="45.6054524" lon="9.32977"><ele>179.0</ele><time>2026-03-24T12:27:26.982Z</time></trkpt><trkpt lat="45.6054771" lon="9.3296217"><ele>179.0</ele><time>2026-03-24T12:27:28.982Z</time></trkpt><trkpt lat="45.6055085" lon="9.3294871"><ele>179.0</ele><time>2026-03-24T12:27:30.982Z</time></trkpt><trkpt lat="45.6055347" lon="9.3293634"><ele>179.0</ele><time>2026-03-24T12:27:32.982Z</time></trkpt><trkpt lat="45.6055344" lon="9.3292193"><ele>179.2</ele><time>2026-03-24T12:27:34.982Z</time></trkpt><trkpt lat="45.6055694" lon="9.3290944"><ele>179.39999999999998</ele><time>2026-03-24T12:27:36.981Z</time></trkpt><trkpt lat="45.6055725" lon="9.3289656"><ele>179.6</ele><time>2026-03-24T12:27:38.982Z</time></trkpt><trkpt lat="45.605562" lon="9.3288333"><ele>179.8</ele><time>2026-03-24T12:27:40.982Z</time></trkpt><trkpt lat="45.6055152" lon="9.328714"><ele>180.0</ele><time>2026-03-24T12:27:42.982Z</time></trkpt><trkpt lat="45.6054268" lon="9.3285803"><ele>179.4</ele><time>2026-03-24T12:27:44.982Z</time></trkpt><trkpt lat="45.6053648" lon="9.3284326"><ele>178.8</ele><time>2026-03-24T12:27:46.982Z</time></trkpt><trkpt lat="45.6053361" lon="9.3283465"><ele>178.2</ele><time>2026-03-24T12:27:47.982Z</time></trkpt><trkpt lat="45.6052622" lon="9.3281919"><ele>177.6</ele><time>2026-03-24T12:27:49.982Z</time></trkpt><trkpt lat="45.6051935" lon="9.3281421"><ele>177.0</ele><time>2026-03-24T12:27:50.982Z</time></trkpt><trkpt lat="45.6051382" lon="9.3280906"><ele>176.8</ele><time>2026-03-24T12:27:51.982Z</time></trkpt><trkpt lat="45.6050556" lon="9.3280216"><ele>176.6</ele><time>2026-03-24T12:27:53.982Z</time></trkpt><trkpt lat="45.604959" lon="9.327954"><ele>176.4</ele><time>2026-03-24T12:27:55.982Z</time></trkpt><trkpt lat="45.6048605" lon="9.3278991"><ele>176.20000000000002</ele><time>2026-03-24T12:27:57.982Z</time></trkpt><trkpt lat="45.6047546" lon="9.3278357"><ele>176.0</ele><time>2026-03-24T12:27:59.982Z</time></trkpt><trkpt lat="45.6046379" lon="9.3277887"><ele>176.0</ele><time>2026-03-24T12:28:01.982Z</time></trkpt><trkpt lat="45.6045333" lon="9.3277336"><ele>176.0</ele><time>2026-03-24T12:28:03.982Z</time></trkpt><trkpt lat="45.604472" lon="9.3277042"><ele>176.0</ele><time>2026-03-24T12:28:04.982Z</time></trkpt><trkpt lat="45.6044122" lon="9.3276666"><ele>176.0</ele><time>2026-03-24T12:28:05.982Z</time></trkpt><trkpt lat="45.6043143" lon="9.3276133"><ele>176.0</ele><time>2026-03-24T12:28:07.982Z</time></trkpt><trkpt lat="45.6042213" lon="9.3275407"><ele>176.20000000000002</ele><time>2026-03-24T12:28:09.982Z</time></trkpt><trkpt lat="45.6041818" lon="9.3274079"><ele>176.4</ele><time>2026-03-24T12:28:11.982Z</time></trkpt><trkpt lat="45.6041499" lon="9.3272779"><ele>176.6</ele><time>2026-03-24T12:28:13.982Z</time></trkpt><trkpt lat="45.6041416" lon="9.327186"><ele>176.8</ele><time>2026-03-24T12:28:14.981Z</time></trkpt><trkpt lat="45.6041095" lon="9.3270473"><ele>177.0</ele><time>2026-03-24T12:28:16.982Z</time></trkpt><trkpt lat="45.6040871" lon="9.3269089"><ele>177.0</ele><time>2026-03-24T12:28:18.981Z</time></trkpt><trkpt lat="45.6040845" lon="9.326766"><ele>177.0</ele><time>2026-03-24T12:28:20.982Z</time></trkpt><trkpt lat="45.6041012" lon="9.326629"><ele>177.0</ele><time>2026-03-24T12:28:22.982Z</time></trkpt><trkpt lat="45.6041377" lon="9.3264927"><ele>177.0</ele><time>2026-03-24T12:28:24.982Z</time></trkpt><trkpt lat="45.6041843" lon="9.3263319"><ele>177.0</ele><time>2026-03-24T12:28:26.982Z</time></trkpt><trkpt lat="45.604217" lon="9.3261886"><ele>177.16666666666666</ele><time>2026-03-24T12:28:28.982Z</time></trkpt><trkpt lat="45.6042415" lon="9.3260682"><ele>177.33333333333334</ele><time>2026-03-24T12:28:30.982Z</time></trkpt><trkpt lat="45.6042636" lon="9.3259604"><ele>177.5</ele><time>2026-03-24T12:28:32.982Z</time></trkpt><trkpt lat="45.6043152" lon="9.3258423"><ele>177.66666666666669</ele><time>2026-03-24T12:28:34.982Z</time></trkpt><trkpt lat="45.6043298" lon="9.3257065"><ele>177.83333333333334</ele><time>2026-03-24T12:28:36.982Z</time></trkpt><trkpt lat="45.6042908" lon="9.3255965"><ele>178.0</ele><time>2026-03-24T12:28:38.981Z</time></trkpt><trkpt lat="45.6042296" lon="9.3255262"><ele>178.0</ele><time>2026-03-24T12:28:40.982Z</time></trkpt><trkpt lat="45.6041806" lon="9.3254584"><ele>178.0</ele><time>2026-03-24T12:28:42.982Z</time></trkpt><trkpt lat="45.6041164" lon="9.3253869"><ele>178.0</ele><time>2026-03-24T12:28:44.982Z</time></trkpt><trkpt lat="45.6040458" lon="9.3253184"><ele>178.0</ele><time>2026-03-24T12:28:46.981Z</time></trkpt><trkpt lat="45.6039341" lon="9.3252487"><ele>178.0</ele><time>2026-03-24T12:28:48.982Z</time></trkpt><trkpt lat="45.6038498" lon="9.3251939"><ele>178.0</ele><time>2026-03-24T12:28:50.982Z</time></trkpt><trkpt lat="45.6037642" lon="9.3251219"><ele>177.8</ele><time>2026-03-24T12:28:52.982Z</time></trkpt><trkpt lat="45.603636" lon="9.3250532"><ele>177.60000000000002</ele><time>2026-03-24T12:28:54.982Z</time></trkpt><trkpt lat="45.6035234" lon="9.324995"><ele>177.39999999999998</ele><time>2026-03-24T12:28:56.982Z</time></trkpt><trkpt lat="45.6034628" lon="9.3249682"><ele>177.2</ele><time>2026-03-24T12:28:58.982Z</time></trkpt><trkpt lat="45.6033954" lon="9.3250289"><ele>177.0</ele><time>2026-03-24T12:29:01.982Z</time></trkpt><trkpt lat="45.6033551" lon="9.3251293"><ele>177.0</ele><time>2026-03-24T12:29:03.982Z</time></trkpt><trkpt lat="45.6033253" lon="9.3252394"><ele>177.0</ele><time>2026-03-24T12:29:05.982Z</time></trkpt><trkpt lat="45.6032771" lon="9.3253353"><ele>177.0</ele><time>2026-03-24T12:29:08.982Z</time></trkpt><trkpt lat="45.6031733" lon="9.3253476"><ele>177.0</ele><time>2026-03-24T12:29:11.982Z</time></trkpt><trkpt lat="45.6030592" lon="9.3253237"><ele>177.0</ele><time>2026-03-24T12:29:13.982Z</time></trkpt><trkpt lat="45.6029603" lon="9.3253257"><ele>177.0</ele><time>2026-03-24T12:29:14.982Z</time></trkpt><trkpt lat="45.6028459" lon="9.3252598"><ele>177.0</ele><time>2026-03-24T12:29:16.982Z</time></trkpt><trkpt lat="45.60273" lon="9.3252194"><ele>177.0</ele><time>2026-03-24T12:29:18.982Z</time></trkpt><trkpt lat="45.6026214" lon="9.3251763"><ele>177.0</ele><time>2026-03-24T12:29:20.982Z</time></trkpt><trkpt lat="45.6025033" lon="9.3251321"><ele>177.0</ele><time>2026-03-24T12:29:22.981Z</time></trkpt><trkpt lat="45.6023951" lon="9.3250785"><ele>177.0</ele><time>2026-03-24T12:29:24.982Z</time></trkpt><trkpt lat="45.6023311" lon="9.3250577"><ele>177.0</ele><time>2026-03-24T12:29:25.982Z</time></trkpt><trkpt lat="45.6022215" lon="9.3250117"><ele>177.0</ele><time>2026-03-24T12:29:27.982Z</time></trkpt><trkpt lat="45.6021104" lon="9.3249683"><ele>177.0</ele><time>2026-03-24T12:29:29.982Z</time></trkpt><trkpt lat="45.6020079" lon="9.3249026"><ele>176.0</ele><time>2026-03-24T12:29:31.982Z</time></trkpt><trkpt lat="45.6018989" lon="9.3248524"><ele>175.0</ele><time>2026-03-24T12:29:33.982Z</time></trkpt><trkpt lat="45.6018014" lon="9.3248076"><ele>174.0</ele><time>2026-03-24T12:29:35.982Z</time></trkpt><trkpt lat="45.6017014" lon="9.3247524"><ele>173.0</ele><time>2026-03-24T12:29:37.982Z</time></trkpt><trkpt lat="45.6016014" lon="9.3246925"><ele>172.0</ele><time>2026-03-24T12:29:39.982Z</time></trkpt><trkpt lat="45.6014971" lon="9.3246475"><ele>172.0</ele><time>2026-03-24T12:29:41.982Z</time></trkpt><trkpt lat="45.6013937" lon="9.3245892"><ele>172.0</ele><time>2026-03-24T12:29:43.982Z</time></trkpt><trkpt lat="45.601274" lon="9.3245341"><ele>172.0</ele><time>2026-03-24T12:29:45.982Z</time></trkpt><trkpt lat="45.6012084" lon="9.3245251"><ele>172.0</ele><time>2026-03-24T12:29:46.982Z</time></trkpt><trkpt lat="45.6011031" lon="9.3244736"><ele>172.0</ele><time>2026-03-24T12:29:48.982Z</time></trkpt><trkpt lat="45.6010036" lon="9.3244286"><ele>172.39999999999998</ele><time>2026-03-24T12:29:50.982Z</time></trkpt><trkpt lat="45.6009127" lon="9.3243805"><ele>172.79999999999998</ele><time>2026-03-24T12:29:52.981Z</time></trkpt><trkpt lat="45.6008134" lon="9.3243456"><ele>173.2</ele><time>2026-03-24T12:29:54.982Z</time></trkpt><trkpt lat="45.6007136" lon="9.3242835"><ele>173.6</ele><time>2026-03-24T12:29:56.981Z</time></trkpt><trkpt lat="45.6006342" lon="9.3242327"><ele>174.0</ele><time>2026-03-24T12:29:58.982Z</time></trkpt><trkpt lat="45.6005893" lon="9.3241333"><ele>174.0</ele><time>2026-03-24T12:30:00.982Z</time></trkpt><trkpt lat="45.6005971" lon="9.3240196"><ele>174.0</ele><time>2026-03-24T12:30:02.982Z</time></trkpt><trkpt lat="45.6006229" lon="9.3238857"><ele>174.0</ele><time>2026-03-24T12:30:04.982Z</time></trkpt><trkpt lat="45.6006509" lon="9.3237631"><ele>174.0</ele><time>2026-03-24T12:30:06.982Z</time></trkpt><trkpt lat="45.6006835" lon="9.3236272"><ele>174.0</ele><time>2026-03-24T12:30:08.982Z</time></trkpt><trkpt lat="45.6007145" lon="9.3234948"><ele>173.79999999999998</ele><time>2026-03-24T12:30:10.981Z</time></trkpt><trkpt lat="45.6007512" lon="9.3233565"><ele>173.6</ele><time>2026-03-24T12:30:12.982Z</time></trkpt><trkpt lat="45.6007666" lon="9.3232221"><ele>173.4</ele><time>2026-03-24T12:30:14.982Z</time></trkpt><trkpt lat="45.6008176" lon="9.3230821"><ele>173.2</ele><time>2026-03-24T12:30:16.982Z</time></trkpt><trkpt lat="45.6008511" lon="9.3229453"><ele>173.0</ele><time>2026-03-24T12:30:18.982Z</time></trkpt><trkpt lat="45.6008977" lon="9.3227958"><ele>173.0</ele><time>2026-03-24T12:30:20.982Z</time></trkpt><trkpt lat="45.6009374" lon="9.3226355"><ele>173.0</ele><time>2026-03-24T12:30:22.982Z</time></trkpt><trkpt lat="45.6009702" lon="9.3224951"><ele>173.0</ele><time>2026-03-24T12:30:24.982Z</time></trkpt><trkpt lat="45.6010044" lon="9.3223419"><ele>173.0</ele><time>2026-03-24T12:30:26.982Z</time></trkpt><trkpt lat="45.6010406" lon="9.3221981"><ele>173.0</ele><time>2026-03-24T12:30:28.982Z</time></trkpt><trkpt lat="45.6010767" lon="9.3220508"><ele>173.2</ele><time>2026-03-24T12:30:30.982Z</time></trkpt><trkpt lat="45.601119" lon="9.3219035"><ele>173.4</ele><time>2026-03-24T12:30:32.982Z</time></trkpt><trkpt lat="45.6011574" lon="9.3217588"><ele>173.6</ele><time>2026-03-24T12:30:34.982Z</time></trkpt><trkpt lat="45.6011863" lon="9.3216073"><ele>173.79999999999998</ele><time>2026-03-24T12:30:36.982Z</time></trkpt><trkpt lat="45.6012177" lon="9.3214894"><ele>174.0</ele><time>2026-03-24T12:30:38.982Z</time></trkpt><trkpt lat="45.6012661" lon="9.3213569"><ele>174.0</ele><time>2026-03-24T12:30:40.982Z</time></trkpt><trkpt lat="45.6013056" lon="9.3212074"><ele>174.0</ele><time>2026-03-24T12:30:42.981Z</time></trkpt><trkpt lat="45.6013508" lon="9.3210676"><ele>174.0</ele><time>2026-03-24T12:30:44.982Z</time></trkpt><trkpt lat="45.6013865" lon="9.3209322"><ele>174.0</ele><time>2026-03-24T12:30:46.982Z</time></trkpt><trkpt lat="45.6014258" lon="9.3207961"><ele>174.0</ele><time>2026-03-24T12:30:48.982Z</time></trkpt><trkpt lat="45.6014876" lon="9.3206676"><ele>174.0</ele><time>2026-03-24T12:30:50.981Z</time></trkpt><trkpt lat="45.6015173" lon="9.3205834"><ele>174.0</ele><time>2026-03-24T12:30:51.982Z</time></trkpt><trkpt lat="45.6015322" lon="9.3204492"><ele>174.0</ele><time>2026-03-24T12:30:53.982Z</time></trkpt><trkpt lat="45.6015314" lon="9.3203562"><ele>174.0</ele><time>2026-03-24T12:30:54.982Z</time></trkpt><trkpt lat="45.6015452" lon="9.3202233"><ele>174.0</ele><time>2026-03-24T12:30:56.982Z</time></trkpt><trkpt lat="45.6015679" lon="9.3201018"><ele>174.0</ele><time>2026-03-24T12:30:58.982Z</time></trkpt><trkpt lat="45.6015867" lon="9.3199523"><ele>174.2</ele><time>2026-03-24T12:31:00.982Z</time></trkpt><trkpt lat="45.6015956" lon="9.3198608"><ele>174.39999999999998</ele><time>2026-03-24T12:31:01.982Z</time></trkpt><trkpt lat="45.6016247" lon="9.3197134"><ele>174.6</ele><time>2026-03-24T12:31:03.982Z</time></trkpt><trkpt lat="45.6016576" lon="9.3195561"><ele>174.8</ele><time>2026-03-24T12:31:05.982Z</time></trkpt><trkpt lat="45.601701" lon="9.3194058"><ele>175.0</ele><time>2026-03-24T12:31:07.982Z</time></trkpt><trkpt lat="45.601724" lon="9.3193216"><ele>175.2</ele><time>2026-03-24T12:31:08.982Z</time></trkpt><trkpt lat="45.6017589" lon="9.3191734"><ele>175.4</ele><time>2026-03-24T12:31:10.982Z</time></trkpt><trkpt lat="45.6018034" lon="9.3190255"><ele>175.60000000000002</ele><time>2026-03-24T12:31:12.982Z</time></trkpt><trkpt lat="45.6018448" lon="9.3189301"><ele>175.8</ele><time>2026-03-24T12:31:13.982Z</time></trkpt><trkpt lat="45.6018665" lon="9.3187832"><ele>176.0</ele><time>2026-03-24T12:31:15.982Z</time></trkpt><trkpt lat="45.6018952" lon="9.3186144"><ele>176.0</ele><time>2026-03-24T12:31:17.982Z</time></trkpt><trkpt lat="45.6019313" lon="9.3184475"><ele>176.0</ele><time>2026-03-24T12:31:19.982Z</time></trkpt><trkpt lat="45.6019433" lon="9.3183494"><ele>176.0</ele><time>2026-03-24T12:31:20.982Z</time></trkpt><trkpt lat="45.6019761" lon="9.3181914"><ele>176.0</ele><time>2026-03-24T12:31:22.982Z</time></trkpt><trkpt lat="45.6020193" lon="9.3180383"><ele>176.0</ele><time>2026-03-24T12:31:24.982Z</time></trkpt><trkpt lat="45.6020501" lon="9.3178918"><ele>175.8</ele><time>2026-03-24T12:31:26.982Z</time></trkpt><trkpt lat="45.6020813" lon="9.3177612"><ele>175.60000000000002</ele><time>2026-03-24T12:31:28.982Z</time></trkpt><trkpt lat="45.6021013" lon="9.3176211"><ele>175.4</ele><time>2026-03-24T12:31:30.982Z</time></trkpt><trkpt lat="45.6021281" lon="9.3175022"><ele>175.2</ele><time>2026-03-24T12:31:32.982Z</time></trkpt><trkpt lat="45.6021566" lon="9.317375"><ele>175.0</ele><time>2026-03-24T12:31:34.982Z</time></trkpt><trkpt lat="45.6021892" lon="9.3172526"><ele>175.4</ele><time>2026-03-24T12:31:36.982Z</time></trkpt><trkpt lat="45.6022356" lon="9.3171333"><ele>175.8</ele><time>2026-03-24T12:31:38.982Z</time></trkpt><trkpt lat="45.6022833" lon="9.3170215"><ele>176.2</ele><time>2026-03-24T12:31:40.981Z</time></trkpt><trkpt lat="45.6023396" lon="9.3168863"><ele>176.6</ele><time>2026-03-24T12:31:42.982Z</time></trkpt><trkpt lat="45.602386" lon="9.3167637"><ele>177.0</ele><time>2026-03-24T12:31:44.982Z</time></trkpt><trkpt lat="45.6024277" lon="9.316624"><ele>177.0</ele><time>2026-03-24T12:31:46.982Z</time></trkpt><trkpt lat="45.6024562" lon="9.3164741"><ele>177.0</ele><time>2026-03-24T12:31:48.982Z</time></trkpt><trkpt lat="45.6024977" lon="9.3163256"><ele>177.0</ele><time>2026-03-24T12:31:50.982Z</time></trkpt><trkpt lat="45.6025377" lon="9.3161882"><ele>177.0</ele><time>2026-03-24T12:31:52.982Z</time></trkpt><trkpt lat="45.6025755" lon="9.3160374"><ele>177.0</ele><time>2026-03-24T12:31:54.981Z</time></trkpt><trkpt lat="45.602604" lon="9.3159289"><ele>176.83333333333334</ele><time>2026-03-24T12:31:56.982Z</time></trkpt><trkpt lat="45.6026294" lon="9.3158362"><ele>176.66666666666666</ele><time>2026-03-24T12:31:58.982Z</time></trkpt><trkpt lat="45.6026489" lon="9.3157495"><ele>176.5</ele><time>2026-03-24T12:32:00.982Z</time></trkpt><trkpt lat="45.6026873" lon="9.3156432"><ele>176.33333333333331</ele><time>2026-03-24T12:32:03.982Z</time></trkpt><trkpt lat="45.6027163" lon="9.315503"><ele>176.16666666666666</ele><time>2026-03-24T12:32:06.982Z</time></trkpt><trkpt lat="45.6027509" lon="9.3153565"><ele>176.0</ele><time>2026-03-24T12:32:08.981Z</time></trkpt><trkpt lat="45.6027891" lon="9.3152121"><ele>176.0</ele><time>2026-03-24T12:32:10.982Z</time></trkpt><trkpt lat="45.6028473" lon="9.3150968"><ele>176.0</ele><time>2026-03-24T12:32:12.982Z</time></trkpt><trkpt lat="45.6028747" lon="9.3149549"><ele>176.0</ele><time>2026-03-24T12:32:14.982Z</time></trkpt><trkpt lat="45.6029164" lon="9.3147903"><ele>176.0</ele><time>2026-03-24T12:32:16.981Z</time></trkpt><trkpt lat="45.6029442" lon="9.3147037"><ele>176.0</ele><time>2026-03-24T12:32:17.982Z</time></trkpt><trkpt lat="45.602986" lon="9.3145494"><ele>175.8</ele><time>2026-03-24T12:32:19.982Z</time></trkpt><trkpt lat="45.6030274" lon="9.3144048"><ele>175.60000000000002</ele><time>2026-03-24T12:32:21.982Z</time></trkpt><trkpt lat="45.6030662" lon="9.3142487"><ele>175.4</ele><time>2026-03-24T12:32:23.982Z</time></trkpt><trkpt lat="45.6031044" lon="9.3140948"><ele>175.2</ele><time>2026-03-24T12:32:25.981Z</time></trkpt><trkpt lat="45.6031324" lon="9.313948"><ele>175.0</ele><time>2026-03-24T12:32:27.982Z</time></trkpt><trkpt lat="45.6031681" lon="9.3138662"><ele>175.0</ele><time>2026-03-24T12:32:28.981Z</time></trkpt><trkpt lat="45.6031998" lon="9.3137855"><ele>175.0</ele><time>2026-03-24T12:32:29.982Z</time></trkpt><trkpt lat="45.603245" lon="9.3136262"><ele>175.0</ele><time>2026-03-24T12:32:31.982Z</time></trkpt><trkpt lat="45.6032894" lon="9.313465"><ele>175.0</ele><time>2026-03-24T12:32:33.982Z</time></trkpt><trkpt lat="45.6033161" lon="9.3133053"><ele>175.0</ele><time>2026-03-24T12:32:35.982Z</time></trkpt><trkpt lat="45.6033412" lon="9.3131521"><ele>175.0</ele><time>2026-03-24T12:32:37.982Z</time></trkpt><trkpt lat="45.6033678" lon="9.3129937"><ele>175.0</ele><time>2026-03-24T12:32:39.982Z</time></trkpt><trkpt lat="45.6033917" lon="9.3129099"><ele>175.0</ele><time>2026-03-24T12:32:40.981Z</time></trkpt><trkpt lat="45.6034127" lon="9.3127492"><ele>175.0</ele><time>2026-03-24T12:32:42.982Z</time></trkpt><trkpt lat="45.603444" lon="9.3125818"><ele>175.0</ele><time>2026-03-24T12:32:44.982Z</time></trkpt><trkpt lat="45.6034631" lon="9.3124951"><ele>175.0</ele><time>2026-03-24T12:32:45.982Z</time></trkpt><trkpt lat="45.6034886" lon="9.3123343"><ele>175.0</ele><time>2026-03-24T12:32:47.982Z</time></trkpt><trkpt lat="45.6035187" lon="9.3121692"><ele>175.0</ele><time>2026-03-24T12:32:49.981Z</time></trkpt><trkpt lat="45.6035447" lon="9.3120021"><ele>175.0</ele><time>2026-03-24T12:32:51.981Z</time></trkpt><trkpt lat="45.6035708" lon="9.3118431"><ele>175.2</ele><time>2026-03-24T12:32:53.982Z</time></trkpt><trkpt lat="45.603607" lon="9.3116842"><ele>175.4</ele><time>2026-03-24T12:32:55.982Z</time></trkpt><trkpt lat="45.6036438" lon="9.3115256"><ele>175.60000000000002</ele><time>2026-03-24T12:32:57.981Z</time></trkpt><trkpt lat="45.6036891" lon="9.3113539"><ele>175.8</ele><time>2026-03-24T12:32:59.982Z</time></trkpt><trkpt lat="45.6037073" lon="9.3112646"><ele>176.0</ele><time>2026-03-24T12:33:00.982Z</time></trkpt><trkpt lat="45.603747" lon="9.3111031"><ele>175.4</ele><time>2026-03-24T12:33:02.982Z</time></trkpt><trkpt lat="45.6037681" lon="9.3110109"><ele>174.8</ele><time>2026-03-24T12:33:03.982Z</time></trkpt><trkpt lat="45.6038057" lon="9.3108659"><ele>174.20000000000002</ele><time>2026-03-24T12:33:05.982Z</time></trkpt><trkpt lat="45.6038696" lon="9.3107414"><ele>173.60000000000002</ele><time>2026-03-24T12:33:07.982Z</time></trkpt><trkpt lat="45.6039514" lon="9.3106391"><ele>173.0</ele><time>2026-03-24T12:33:09.982Z</time></trkpt><trkpt lat="45.6040246" lon="9.310516"><ele>172.8</ele><time>2026-03-24T12:33:11.982Z</time></trkpt><trkpt lat="45.6040694" lon="9.3103795"><ele>172.60000000000002</ele><time>2026-03-24T12:33:13.982Z</time></trkpt><trkpt lat="45.6040437" lon="9.3102394"><ele>172.39999999999998</ele><time>2026-03-24T12:33:15.982Z</time></trkpt><trkpt lat="45.6039891" lon="9.3100925"><ele>172.2</ele><time>2026-03-24T12:33:17.982Z</time></trkpt><trkpt lat="45.6039735" lon="9.3099429"><ele>172.0</ele><time>2026-03-24T12:33:19.982Z</time></trkpt><trkpt lat="45.6039937" lon="9.3097949"><ele>173.0</ele><time>2026-03-24T12:33:21.982Z</time></trkpt><trkpt lat="45.6040232" lon="9.3096435"><ele>174.0</ele><time>2026-03-24T12:33:23.982Z</time></trkpt><trkpt lat="45.6040586" lon="9.3094826"><ele>175.0</ele><time>2026-03-24T12:33:25.982Z</time></trkpt><trkpt lat="45.6040855" lon="9.3093851"><ele>176.0</ele><time>2026-03-24T12:33:26.982Z</time></trkpt><trkpt lat="45.6041101" lon="9.3093019"><ele>177.0</ele><time>2026-03-24T12:33:27.981Z</time></trkpt><trkpt lat="45.6041506" lon="9.309152"><ele>177.0</ele><time>2026-03-24T12:33:29.982Z</time></trkpt><trkpt lat="45.6041849" lon="9.3090049"><ele>177.0</ele><time>2026-03-24T12:33:31.982Z</time></trkpt><trkpt lat="45.6042059" lon="9.3089081"><ele>177.0</ele><time>2026-03-24T12:33:32.981Z</time></trkpt><trkpt lat="45.6042404" lon="9.3087497"><ele>177.0</ele><time>2026-03-24T12:33:34.982Z</time></trkpt><trkpt lat="45.6042946" lon="9.3085736"><ele>177.0</ele><time>2026-03-24T12:33:36.982Z</time></trkpt><trkpt lat="45.6043484" lon="9.3084263"><ele>177.16666666666666</ele><time>2026-03-24T12:33:38.982Z</time></trkpt><trkpt lat="45.6043676" lon="9.3083333"><ele>177.33333333333334</ele><time>2026-03-24T12:33:39.981Z</time></trkpt><trkpt lat="45.6043863" lon="9.3082359"><ele>177.5</ele><time>2026-03-24T12:33:40.982Z</time></trkpt><trkpt lat="45.6044276" lon="9.3080809"><ele>177.66666666666669</ele><time>2026-03-24T12:33:42.981Z</time></trkpt><trkpt lat="45.6044755" lon="9.3079154"><ele>177.83333333333334</ele><time>2026-03-24T12:33:44.982Z</time></trkpt><trkpt lat="45.6044969" lon="9.3078246"><ele>178.0</ele><time>2026-03-24T12:33:45.982Z</time></trkpt><trkpt lat="45.6045438" lon="9.3076619"><ele>177.4</ele><time>2026-03-24T12:33:47.982Z</time></trkpt><trkpt lat="45.6045636" lon="9.3075758"><ele>176.8</ele><time>2026-03-24T12:33:48.982Z</time></trkpt><trkpt lat="45.6046187" lon="9.3074205"><ele>176.2</ele><time>2026-03-24T12:33:50.982Z</time></trkpt><trkpt lat="45.6046464" lon="9.3073238"><ele>175.6</ele><time>2026-03-24T12:33:51.982Z</time></trkpt><trkpt lat="45.6046756" lon="9.307166"><ele>175.0</ele><time>2026-03-24T12:33:53.981Z</time></trkpt><trkpt lat="45.6047141" lon="9.3070283"><ele>175.0</ele><time>2026-03-24T12:33:55.982Z</time></trkpt><trkpt lat="45.6047561" lon="9.3068961"><ele>175.0</ele><time>2026-03-24T12:33:57.982Z</time></trkpt><trkpt lat="45.6047673" lon="9.3067851"><ele>175.0</ele><time>2026-03-24T12:33:59.981Z</time></trkpt><trkpt lat="45.6048001" lon="9.3066853"><ele>175.0</ele><time>2026-03-24T12:34:01.982Z</time></trkpt><trkpt lat="45.6048426" lon="9.3065983"><ele>175.0</ele><time>2026-03-24T12:34:03.981Z</time></trkpt><trkpt lat="45.6048847" lon="9.3065188"><ele>175.0</ele><time>2026-03-24T12:34:12.982Z</time></trkpt><trkpt lat="45.6049623" lon="9.3065419"><ele>175.0</ele><time>2026-03-24T12:34:15.982Z</time></trkpt><trkpt lat="45.6050476" lon="9.3066006"><ele>175.0</ele><time>2026-03-24T12:34:18.981Z</time></trkpt><trkpt lat="45.6051211" lon="9.3066519"><ele>175.0</ele><time>2026-03-24T12:34:21.982Z</time></trkpt><trkpt lat="45.6051035" lon="9.3065346"><ele>175.0</ele><time>2026-03-24T12:34:30.982Z</time></trkpt><trkpt lat="45.6050477" lon="9.3064535"><ele>175.0</ele><time>2026-03-24T12:34:33.982Z</time></trkpt><trkpt lat="45.6050101" lon="9.3061398"><ele>175.2</ele><time>2026-03-24T12:34:43.997Z</time></trkpt><trkpt lat="45.6050779" lon="9.3063282"><ele>175.4</ele><time>2026-03-24T12:34:49.003Z</time></trkpt><trkpt lat="45.6051702" lon="9.3063735"><ele>175.60000000000002</ele><time>2026-03-24T12:34:51.003Z</time></trkpt><trkpt lat="45.6051761" lon="9.3062793"><ele>175.8</ele><time>2026-03-24T12:34:58.003Z</time></trkpt><trkpt lat="45.6051202" lon="9.3062083"><ele>176.0</ele><time>2026-03-24T12:35:01.003Z</time></trkpt><trkpt lat="45.6050574" lon="9.3061593"><ele>176.0</ele><time>2026-03-24T12:35:04.003Z</time></trkpt><trkpt lat="45.605006" lon="9.3060644"><ele>176.0</ele><time>2026-03-24T12:35:09.003Z</time></trkpt><trkpt lat="45.6050122" lon="9.3059741"><ele>176.0</ele><time>2026-03-24T12:35:11.003Z</time></trkpt><trkpt lat="45.6050234" lon="9.3058842"><ele>176.0</ele><time>2026-03-24T12:35:13.002Z</time></trkpt><trkpt lat="45.6050096" lon="9.3057797"><ele>176.0</ele><time>2026-03-24T12:35:17.003Z</time></trkpt><trkpt lat="45.604961" lon="9.3056996"><ele>176.0</ele><time>2026-03-24T12:35:19.003Z</time></trkpt><trkpt lat="45.6048895" lon="9.305593"><ele>176.4</ele><time>2026-03-24T12:35:21.003Z</time></trkpt><trkpt lat="45.6048104" lon="9.3055122"><ele>176.8</ele><time>2026-03-24T12:35:22.003Z</time></trkpt><trkpt lat="45.6047135" lon="9.3054577"><ele>177.20000000000002</ele><time>2026-03-24T12:35:24.003Z</time></trkpt><trkpt lat="45.6046165" lon="9.3053964"><ele>177.60000000000002</ele><time>2026-03-24T12:35:26.003Z</time></trkpt><trkpt lat="45.604525" lon="9.3053444"><ele>178.0</ele><time>2026-03-24T12:35:28.002Z</time></trkpt><trkpt lat="45.6044305" lon="9.3052965"><ele>177.5</ele><time>2026-03-24T12:35:30.003Z</time></trkpt><trkpt lat="45.6043366" lon="9.3052193"><ele>177.0</ele><time>2026-03-24T12:35:32.002Z</time></trkpt><trkpt lat="45.6042784" lon="9.305128"><ele>176.5</ele><time>2026-03-24T12:35:34.003Z</time></trkpt><trkpt lat="45.6042565" lon="9.3050093"><ele>176.0</ele><time>2026-03-24T12:35:36.003Z</time></trkpt><trkpt lat="45.6042609" lon="9.3049089"><ele>175.5</ele><time>2026-03-24T12:35:38.003Z</time></trkpt><trkpt lat="45.6042787" lon="9.3047771"><ele>175.0</ele><time>2026-03-24T12:35:40.003Z</time></trkpt><trkpt lat="45.6043057" lon="9.3046494"><ele>175.0</ele><time>2026-03-24T12:35:42.003Z</time></trkpt><trkpt lat="45.6043574" lon="9.3045186"><ele>175.0</ele><time>2026-03-24T12:35:44.003Z</time></trkpt><trkpt lat="45.6043876" lon="9.3043882"><ele>175.0</ele><time>2026-03-24T12:35:46.003Z</time></trkpt><trkpt lat="45.6044134" lon="9.3042632"><ele>175.0</ele><time>2026-03-24T12:35:48.002Z</time></trkpt><trkpt lat="45.6044369" lon="9.3041177"><ele>175.0</ele><time>2026-03-24T12:35:50.003Z</time></trkpt><trkpt lat="45.6044721" lon="9.3039748"><ele>175.6</ele><time>2026-03-24T12:35:52.003Z</time></trkpt><trkpt lat="45.6045172" lon="9.3038565"><ele>176.2</ele><time>2026-03-24T12:35:54.003Z</time></trkpt><trkpt lat="45.6045588" lon="9.3037071"><ele>176.8</ele><time>2026-03-24T12:35:56.003Z</time></trkpt><trkpt lat="45.6045994" lon="9.3035828"><ele>177.4</ele><time>2026-03-24T12:35:58.003Z</time></trkpt><trkpt lat="45.6046345" lon="9.3034554"><ele>178.0</ele><time>2026-03-24T12:35:59.003Z</time></trkpt><trkpt lat="45.6046606" lon="9.3033093"><ele>178.0</ele><time>2026-03-24T12:36:01.002Z</time></trkpt><trkpt lat="45.6046962" lon="9.3031838"><ele>178.0</ele><time>2026-03-24T12:36:03.003Z</time></trkpt><trkpt lat="45.6047348" lon="9.3030282"><ele>178.0</ele><time>2026-03-24T12:36:05.003Z</time></trkpt><trkpt lat="45.604761" lon="9.3029027"><ele>178.0</ele><time>2026-03-24T12:36:07.003Z</time></trkpt><trkpt lat="45.6047944" lon="9.3027741"><ele>178.0</ele><time>2026-03-24T12:36:09.003Z</time></trkpt><trkpt lat="45.6048151" lon="9.3026522"><ele>178.0</ele><time>2026-03-24T12:36:11.003Z</time></trkpt><trkpt lat="45.6048348" lon="9.3025328"><ele>178.0</ele><time>2026-03-24T12:36:13.003Z</time></trkpt><trkpt lat="45.604861" lon="9.3023994"><ele>178.0</ele><time>2026-03-24T12:36:15.003Z</time></trkpt><trkpt lat="45.6048693" lon="9.3022935"><ele>178.0</ele><time>2026-03-24T12:36:17.003Z</time></trkpt><trkpt lat="45.6048889" lon="9.3021904"><ele>178.0</ele><time>2026-03-24T12:36:19.003Z</time></trkpt><trkpt lat="45.6049093" lon="9.3020809"><ele>178.0</ele><time>2026-03-24T12:36:21.003Z</time></trkpt><trkpt lat="45.6049282" lon="9.3019846"><ele>178.0</ele><time>2026-03-24T12:36:22.003Z</time></trkpt><trkpt lat="45.6049782" lon="9.3018965"><ele>178.0</ele><time>2026-03-24T12:36:25.003Z</time></trkpt><trkpt lat="45.6050164" lon="9.3017445"><ele>178.0</ele><time>2026-03-24T12:36:27.002Z</time></trkpt><trkpt lat="45.6050348" lon="9.3016562"><ele>178.0</ele><time>2026-03-24T12:36:29.003Z</time></trkpt><trkpt lat="45.6050552" lon="9.3015474"><ele>178.0</ele><time>2026-03-24T12:36:31.003Z</time></trkpt><trkpt lat="45.6050912" lon="9.3014047"><ele>178.0</ele><time>2026-03-24T12:36:33.003Z</time></trkpt><trkpt lat="45.6051209" lon="9.3012824"><ele>177.85714285714283</ele><time>2026-03-24T12:36:35.003Z</time></trkpt><trkpt lat="45.6051355" lon="9.3011855"><ele>177.71428571428572</ele><time>2026-03-24T12:36:38.002Z</time></trkpt><trkpt lat="45.6051495" lon="9.3010785"><ele>177.57142857142856</ele><time>2026-03-24T12:36:41.003Z</time></trkpt><trkpt lat="45.6051367" lon="9.3009785"><ele>177.42857142857142</ele><time>2026-03-24T12:36:44.003Z</time></trkpt><trkpt lat="45.6050897" lon="9.3008891"><ele>177.28571428571428</ele><time>2026-03-24T12:36:47.002Z</time></trkpt><trkpt lat="45.6050433" lon="9.3008109"><ele>177.14285714285714</ele><time>2026-03-24T12:36:50.003Z</time></trkpt><trkpt lat="45.6049947" lon="9.3007175"><ele>177.0</ele><time>2026-03-24T12:36:52.003Z</time></trkpt><trkpt lat="45.6049382" lon="9.3006293"><ele>176.6</ele><time>2026-03-24T12:36:54.003Z</time></trkpt><trkpt lat="45.6048177" lon="9.3005095"><ele>176.2</ele><time>2026-03-24T12:36:56.003Z</time></trkpt><trkpt lat="45.604733" lon="9.3004226"><ele>175.8</ele><time>2026-03-24T12:36:58.003Z</time></trkpt><trkpt lat="45.6046669" lon="9.3003531"><ele>175.4</ele><time>2026-03-24T12:37:00.003Z</time></trkpt><trkpt lat="45.6045902" lon="9.3002801"><ele>175.0</ele><time>2026-03-24T12:37:02.003Z</time></trkpt><trkpt lat="45.6045243" lon="9.3002226"><ele>175.4</ele><time>2026-03-24T12:37:04.003Z</time></trkpt><trkpt lat="45.6044789" lon="9.3001367"><ele>175.8</ele><time>2026-03-24T12:37:05.002Z</time></trkpt><trkpt lat="45.6043985" lon="9.3000601"><ele>176.2</ele><time>2026-03-24T12:37:07.003Z</time></trkpt><trkpt lat="45.6043128" lon="9.3000008"><ele>176.6</ele><time>2026-03-24T12:37:09.003Z</time></trkpt><trkpt lat="45.6042128" lon="9.2999723"><ele>177.0</ele><time>2026-03-24T12:37:11.003Z</time></trkpt><trkpt lat="45.6041348" lon="9.2999035"><ele>177.0</ele><time>2026-03-24T12:37:13.003Z</time></trkpt><trkpt lat="45.6040544" lon="9.2998462"><ele>177.0</ele><time>2026-03-24T12:37:15.003Z</time></trkpt><trkpt lat="45.6039881" lon="9.2997834"><ele>177.0</ele><time>2026-03-24T12:37:17.003Z</time></trkpt><trkpt lat="45.6039093" lon="9.2997423"><ele>177.0</ele><time>2026-03-24T12:37:19.003Z</time></trkpt><trkpt lat="45.6038343" lon="9.2996922"><ele>177.0</ele><time>2026-03-24T12:37:21.002Z</time></trkpt><trkpt lat="45.6037243" lon="9.2996522"><ele>176.8</ele><time>2026-03-24T12:37:23.003Z</time></trkpt><trkpt lat="45.603616" lon="9.2996017"><ele>176.6</ele><time>2026-03-24T12:37:25.003Z</time></trkpt><trkpt lat="45.603554" lon="9.2995658"><ele>176.4</ele><time>2026-03-24T12:37:26.003Z</time></trkpt><trkpt lat="45.6034556" lon="9.2995006"><ele>176.20000000000002</ele><time>2026-03-24T12:37:28.003Z</time></trkpt><trkpt lat="45.6033521" lon="9.2994381"><ele>176.0</ele><time>2026-03-24T12:37:30.003Z</time></trkpt><trkpt lat="45.6032533" lon="9.299382"><ele>176.0</ele><time>2026-03-24T12:37:32.003Z</time></trkpt><trkpt lat="45.603159" lon="9.2993285"><ele>176.0</ele><time>2026-03-24T12:37:34.003Z</time></trkpt><trkpt lat="45.6030761" lon="9.2992768"><ele>176.0</ele><time>2026-03-24T12:37:36.003Z</time></trkpt><trkpt lat="45.6029981" lon="9.2992013"><ele>176.0</ele><time>2026-03-24T12:37:38.003Z</time></trkpt><trkpt lat="45.6029111" lon="9.2991338"><ele>176.0</ele><time>2026-03-24T12:37:40.003Z</time></trkpt><trkpt lat="45.6028275" lon="9.2990436"><ele>176.0</ele><time>2026-03-24T12:37:42.003Z</time></trkpt><trkpt lat="45.6027356" lon="9.2990031"><ele>176.0</ele><time>2026-03-24T12:37:44.002Z</time></trkpt><trkpt lat="45.6026303" lon="9.2989397"><ele>176.0</ele><time>2026-03-24T12:37:46.003Z</time></trkpt><trkpt lat="45.6025417" lon="9.2988622"><ele>176.0</ele><time>2026-03-24T12:37:48.002Z</time></trkpt><trkpt lat="45.6024336" lon="9.2987718"><ele>176.0</ele><time>2026-03-24T12:37:50.003Z</time></trkpt><trkpt lat="45.602377" lon="9.29872"><ele>176.4</ele><time>2026-03-24T12:37:51.003Z</time></trkpt><trkpt lat="45.6022739" lon="9.2986546"><ele>176.8</ele><time>2026-03-24T12:37:53.003Z</time></trkpt><trkpt lat="45.6021716" lon="9.2985861"><ele>177.20000000000002</ele><time>2026-03-24T12:37:55.003Z</time></trkpt><trkpt lat="45.6021114" lon="9.2985454"><ele>177.60000000000002</ele><time>2026-03-24T12:37:56.003Z</time></trkpt><trkpt lat="45.6020144" lon="9.298465"><ele>178.0</ele><time>2026-03-24T12:37:58.002Z</time></trkpt><trkpt lat="45.6019124" lon="9.298386"><ele>177.60000000000002</ele><time>2026-03-24T12:38:00.003Z</time></trkpt><trkpt lat="45.6018154" lon="9.2983071"><ele>177.20000000000002</ele><time>2026-03-24T12:38:02.003Z</time></trkpt><trkpt lat="45.6017513" lon="9.298279"><ele>176.8</ele><time>2026-03-24T12:38:03.003Z</time></trkpt><trkpt lat="45.6016463" lon="9.2982202"><ele>176.4</ele><time>2026-03-24T12:38:05.002Z</time></trkpt><trkpt lat="45.6015875" lon="9.2981617"><ele>176.0</ele><time>2026-03-24T12:38:06.003Z</time></trkpt><trkpt lat="45.6015171" lon="9.2980788"><ele>176.0</ele><time>2026-03-24T12:38:08.003Z</time></trkpt><trkpt lat="45.6014646" lon="9.2979626"><ele>176.0</ele><time>2026-03-24T12:38:10.002Z</time></trkpt><trkpt lat="45.601447" lon="9.2978559"><ele>176.0</ele><time>2026-03-24T12:38:12.003Z</time></trkpt><trkpt lat="45.6014135" lon="9.2977618"><ele>176.0</ele><time>2026-03-24T12:38:14.003Z</time></trkpt><trkpt lat="45.6013752" lon="9.2976694"><ele>176.0</ele><time>2026-03-24T12:38:16.003Z</time></trkpt><trkpt lat="45.60129" lon="9.2976097"><ele>176.0</ele><time>2026-03-24T12:38:18.003Z</time></trkpt><trkpt lat="45.6012132" lon="9.297536"><ele>176.33333333333331</ele><time>2026-03-24T12:38:20.003Z</time></trkpt><trkpt lat="45.6011385" lon="9.2974458"><ele>176.66666666666666</ele><time>2026-03-24T12:38:22.003Z</time></trkpt><trkpt lat="45.6010782" lon="9.297378"><ele>177.0</ele><time>2026-03-24T12:38:23.003Z</time></trkpt><trkpt lat="45.600999" lon="9.2972862"><ele>177.33333333333334</ele><time>2026-03-24T12:38:25.003Z</time></trkpt><trkpt lat="45.6009606" lon="9.2972127"><ele>177.66666666666669</ele><time>2026-03-24T12:38:26.003Z</time></trkpt><trkpt lat="45.6008778" lon="9.2971345"><ele>178.0</ele><time>2026-03-24T12:38:28.003Z</time></trkpt><trkpt lat="45.600766" lon="9.2970429"><ele>177.8</ele><time>2026-03-24T12:38:30.003Z</time></trkpt><trkpt lat="45.6006698" lon="9.2969631"><ele>177.60000000000002</ele><time>2026-03-24T12:38:32.003Z</time></trkpt><trkpt lat="45.600571" lon="9.2968844"><ele>177.39999999999998</ele><time>2026-03-24T12:38:34.003Z</time></trkpt><trkpt lat="45.6005133" lon="9.2968366"><ele>177.2</ele><time>2026-03-24T12:38:35.003Z</time></trkpt><trkpt lat="45.6004148" lon="9.2967601"><ele>177.0</ele><time>2026-03-24T12:38:37.003Z</time></trkpt><trkpt lat="45.6003091" lon="9.2966931"><ele>177.0</ele><time>2026-03-24T12:38:39.003Z</time></trkpt><trkpt lat="45.6001986" lon="9.2966069"><ele>177.0</ele><time>2026-03-24T12:38:41.003Z</time></trkpt><trkpt lat="45.6000874" lon="9.296528"><ele>177.0</ele><time>2026-03-24T12:38:43.003Z</time></trkpt><trkpt lat="45.600033" lon="9.2964825"><ele>177.0</ele><time>2026-03-24T12:38:44.003Z</time></trkpt><trkpt lat="45.5999286" lon="9.296413"><ele>177.0</ele><time>2026-03-24T12:38:46.002Z</time></trkpt><trkpt lat="45.5998295" lon="9.2963156"><ele>177.16666666666666</ele><time>2026-03-24T12:38:48.003Z</time></trkpt><trkpt lat="45.599772" lon="9.2962673"><ele>177.33333333333334</ele><time>2026-03-24T12:38:49.003Z</time></trkpt><trkpt lat="45.5997266" lon="9.2961982"><ele>177.5</ele><time>2026-03-24T12:38:50.003Z</time></trkpt><trkpt lat="45.5996711" lon="9.2961475"><ele>177.66666666666669</ele><time>2026-03-24T12:38:51.003Z</time></trkpt><trkpt lat="45.5996135" lon="9.2960421"><ele>177.83333333333334</ele><time>2026-03-24T12:38:53.003Z</time></trkpt><trkpt lat="45.5995462" lon="9.2959377"><ele>178.0</ele><time>2026-03-24T12:38:55.003Z</time></trkpt><trkpt lat="45.5994888" lon="9.2957961"><ele>178.0</ele><time>2026-03-24T12:38:57.003Z</time></trkpt><trkpt lat="45.5994497" lon="9.2957051"><ele>178.0</ele><time>2026-03-24T12:38:58.003Z</time></trkpt><trkpt lat="45.5994033" lon="9.2956234"><ele>178.0</ele><time>2026-03-24T12:38:59.003Z</time></trkpt><trkpt lat="45.5993433" lon="9.2954723"><ele>178.0</ele><time>2026-03-24T12:39:01.003Z</time></trkpt><trkpt lat="45.5992768" lon="9.2953121"><ele>178.0</ele><time>2026-03-24T12:39:03.003Z</time></trkpt><trkpt lat="45.5992108" lon="9.2952208"><ele>178.2</ele><time>2026-03-24T12:39:05.003Z</time></trkpt><trkpt lat="45.5991646" lon="9.2950654"><ele>178.4</ele><time>2026-03-24T12:39:07.003Z</time></trkpt><trkpt lat="45.5991026" lon="9.2949529"><ele>178.6</ele><time>2026-03-24T12:39:09.003Z</time></trkpt><trkpt lat="45.5990257" lon="9.2948367"><ele>178.79999999999998</ele><time>2026-03-24T12:39:11.003Z</time></trkpt><trkpt lat="45.5989828" lon="9.294747"><ele>179.0</ele><time>2026-03-24T12:39:12.003Z</time></trkpt><trkpt lat="45.5989268" lon="9.2946072"><ele>179.0</ele><time>2026-03-24T12:39:14.003Z</time></trkpt><trkpt lat="45.5988626" lon="9.2944958"><ele>179.0</ele><time>2026-03-24T12:39:16.003Z</time></trkpt><trkpt lat="45.5988213" lon="9.2944167"><ele>179.0</ele><time>2026-03-24T12:39:17.003Z</time></trkpt><trkpt lat="45.5987673" lon="9.2942895"><ele>179.0</ele><time>2026-03-24T12:39:19.003Z</time></trkpt><trkpt lat="45.5987055" lon="9.2941674"><ele>179.0</ele><time>2026-03-24T12:39:21.003Z</time></trkpt><trkpt lat="45.5986552" lon="9.2940329"><ele>178.66666666666666</ele><time>2026-03-24T12:39:23.003Z</time></trkpt><trkpt lat="45.5986593" lon="9.2938948"><ele>178.33333333333331</ele><time>2026-03-24T12:39:25.003Z</time></trkpt><trkpt lat="45.5986808" lon="9.2936986"><ele>178.0</ele><time>2026-03-24T12:39:27.003Z</time></trkpt><trkpt lat="45.5986783" lon="9.2936063"><ele>177.66666666666666</ele><time>2026-03-24T12:39:28.003Z</time></trkpt><trkpt lat="45.5986795" lon="9.2935031"><ele>177.33333333333334</ele><time>2026-03-24T12:39:29.003Z</time></trkpt><trkpt lat="45.5986649" lon="9.2934147"><ele>177.0</ele><time>2026-03-24T12:39:30.003Z</time></trkpt><trkpt lat="45.5986152" lon="9.2932573"><ele>176.6</ele><time>2026-03-24T12:39:32.003Z</time></trkpt><trkpt lat="45.5985672" lon="9.2931878"><ele>176.2</ele><time>2026-03-24T12:39:33.003Z</time></trkpt><trkpt lat="45.5984821" lon="9.2931171"><ele>175.8</ele><time>2026-03-24T12:39:35.003Z</time></trkpt><trkpt lat="45.5983655" lon="9.2930968"><ele>175.4</ele><time>2026-03-24T12:39:37.003Z</time></trkpt><trkpt lat="45.5982648" lon="9.2930805"><ele>175.0</ele><time>2026-03-24T12:39:39.003Z</time></trkpt><trkpt lat="45.5981919" lon="9.2929665"><ele>175.0</ele><time>2026-03-24T12:39:41.003Z</time></trkpt><trkpt lat="45.5981304" lon="9.2928332"><ele>175.0</ele><time>2026-03-24T12:39:43.003Z</time></trkpt><trkpt lat="45.5980647" lon="9.2927002"><ele>175.0</ele><time>2026-03-24T12:39:45.003Z</time></trkpt><trkpt lat="45.5980164" lon="9.2925708"><ele>175.0</ele><time>2026-03-24T12:39:47.003Z</time></trkpt><trkpt lat="45.5979554" lon="9.2924062"><ele>175.0</ele><time>2026-03-24T12:39:49.003Z</time></trkpt><trkpt lat="45.5979207" lon="9.2923218"><ele>175.0</ele><time>2026-03-24T12:39:50.003Z</time></trkpt><trkpt lat="45.5978482" lon="9.2921957"><ele>175.0</ele><time>2026-03-24T12:39:52.003Z</time></trkpt><trkpt lat="45.5978136" lon="9.2921144"><ele>175.0</ele><time>2026-03-24T12:39:53.003Z</time></trkpt><trkpt lat="45.597777" lon="9.2920355"><ele>175.0</ele><time>2026-03-24T12:39:54.003Z</time></trkpt><trkpt lat="45.5977405" lon="9.2919565"><ele>175.0</ele><time>2026-03-24T12:39:55.003Z</time></trkpt><trkpt lat="45.5977013" lon="9.2918804"><ele>175.0</ele><time>2026-03-24T12:39:56.003Z</time></trkpt><trkpt lat="45.5976612" lon="9.2918042"><ele>175.16666666666669</ele><time>2026-03-24T12:39:57.003Z</time></trkpt><trkpt lat="45.5976259" lon="9.2917141"><ele>175.33333333333334</ele><time>2026-03-24T12:39:58.003Z</time></trkpt><trkpt lat="45.5975842" lon="9.2916276"><ele>175.5</ele><time>2026-03-24T12:39:59.003Z</time></trkpt><trkpt lat="45.5975415" lon="9.2915518"><ele>175.66666666666666</ele><time>2026-03-24T12:40:00.003Z</time></trkpt><trkpt lat="45.5974965" lon="9.2914638"><ele>175.83333333333331</ele><time>2026-03-24T12:40:01.003Z</time></trkpt><trkpt lat="45.5974577" lon="9.2913878"><ele>176.0</ele><time>2026-03-24T12:40:02.003Z</time></trkpt><trkpt lat="45.5973941" lon="9.2912525"><ele>175.4</ele><time>2026-03-24T12:40:04.003Z</time></trkpt><trkpt lat="45.5973375" lon="9.2911007"><ele>174.8</ele><time>2026-03-24T12:40:06.003Z</time></trkpt><trkpt lat="45.5973033" lon="9.2910084"><ele>174.20000000000002</ele><time>2026-03-24T12:40:07.003Z</time></trkpt><trkpt lat="45.5972315" lon="9.29088"><ele>173.60000000000002</ele><time>2026-03-24T12:40:09.003Z</time></trkpt><trkpt lat="45.5971669" lon="9.2907361"><ele>173.0</ele><time>2026-03-24T12:40:11.003Z</time></trkpt><trkpt lat="45.597118" lon="9.2906394"><ele>172.60000000000002</ele><time>2026-03-24T12:40:12.003Z</time></trkpt><trkpt lat="45.5970774" lon="9.2905486"><ele>172.20000000000002</ele><time>2026-03-24T12:40:13.003Z</time></trkpt><trkpt lat="45.5970065" lon="9.2903929"><ele>171.8</ele><time>2026-03-24T12:40:15.003Z</time></trkpt><trkpt lat="45.5969805" lon="9.2903007"><ele>171.4</ele><time>2026-03-24T12:40:16.003Z</time></trkpt><trkpt lat="45.5969356" lon="9.2902094"><ele>171.0</ele><time>2026-03-24T12:40:17.003Z</time></trkpt><trkpt lat="45.5968653" lon="9.2900691"><ele>170.60000000000002</ele><time>2026-03-24T12:40:19.003Z</time></trkpt><trkpt lat="45.5968251" lon="9.2899814"><ele>170.2</ele><time>2026-03-24T12:40:20.003Z</time></trkpt><trkpt lat="45.5967495" lon="9.2898519"><ele>169.8</ele><time>2026-03-24T12:40:22.003Z</time></trkpt><trkpt lat="45.596711" lon="9.289778"><ele>169.39999999999998</ele><time>2026-03-24T12:40:23.003Z</time></trkpt><trkpt lat="45.5966759" lon="9.2896906"><ele>169.0</ele><time>2026-03-24T12:40:24.003Z</time></trkpt><trkpt lat="45.5965998" lon="9.289538"><ele>169.71428571428572</ele><time>2026-03-24T12:40:26.003Z</time></trkpt><trkpt lat="45.5965631" lon="9.2894605"><ele>170.42857142857142</ele><time>2026-03-24T12:40:27.003Z</time></trkpt><trkpt lat="45.5965309" lon="9.2893754"><ele>171.14285714285714</ele><time>2026-03-24T12:40:28.003Z</time></trkpt><trkpt lat="45.59649" lon="9.2892983"><ele>171.85714285714286</ele><time>2026-03-24T12:40:29.003Z</time></trkpt><trkpt lat="45.596453" lon="9.2891992"><ele>172.57142857142858</ele><time>2026-03-24T12:40:30.003Z</time></trkpt><trkpt lat="45.5964084" lon="9.2891165"><ele>173.28571428571428</ele><time>2026-03-24T12:40:31.003Z</time></trkpt><trkpt lat="45.5963714" lon="9.2890234"><ele>174.0</ele><time>2026-03-24T12:40:32.003Z</time></trkpt><trkpt lat="45.5963375" lon="9.2889442"><ele>174.0</ele><time>2026-03-24T12:40:33.003Z</time></trkpt><trkpt lat="45.5962975" lon="9.2888533"><ele>174.0</ele><time>2026-03-24T12:40:34.003Z</time></trkpt><trkpt lat="45.5962297" lon="9.2886988"><ele>174.0</ele><time>2026-03-24T12:40:36.003Z</time></trkpt><trkpt lat="45.5961874" lon="9.2886169"><ele>174.0</ele><time>2026-03-24T12:40:37.003Z</time></trkpt><trkpt lat="45.596147" lon="9.2885468"><ele>174.0</ele><time>2026-03-24T12:40:38.003Z</time></trkpt><trkpt lat="45.5960761" lon="9.2883439"><ele>173.16666666666666</ele><time>2026-03-24T12:40:40.003Z</time></trkpt><trkpt lat="45.5960432" lon="9.2882625"><ele>172.33333333333334</ele><time>2026-03-24T12:40:41.003Z</time></trkpt><trkpt lat="45.5960101" lon="9.2881727"><ele>171.5</ele><time>2026-03-24T12:40:42.003Z</time></trkpt><trkpt lat="45.5959303" lon="9.2880281"><ele>170.66666666666669</ele><time>2026-03-24T12:40:44.003Z</time></trkpt><trkpt lat="45.5958957" lon="9.2879341"><ele>169.83333333333334</ele><time>2026-03-24T12:40:45.003Z</time></trkpt><trkpt lat="45.5958589" lon="9.2878474"><ele>169.0</ele><time>2026-03-24T12:40:46.003Z</time></trkpt><trkpt lat="45.5958145" lon="9.2877637"><ele>168.66666666666669</ele><time>2026-03-24T12:40:47.002Z</time></trkpt><trkpt lat="45.5957811" lon="9.2876848"><ele>168.33333333333334</ele><time>2026-03-24T12:40:48.003Z</time></trkpt><trkpt lat="45.5957157" lon="9.2875783"><ele>168.0</ele><time>2026-03-24T12:40:50.003Z</time></trkpt><trkpt lat="45.595685" lon="9.2874974"><ele>167.66666666666666</ele><time>2026-03-24T12:40:51.003Z</time></trkpt><trkpt lat="45.5956445" lon="9.2874214"><ele>167.33333333333331</ele><time>2026-03-24T12:40:52.003Z</time></trkpt><trkpt lat="45.5955678" lon="9.287276"><ele>167.0</ele><time>2026-03-24T12:40:54.003Z</time></trkpt><trkpt lat="45.5954966" lon="9.2871407"><ele>166.6</ele><time>2026-03-24T12:40:56.003Z</time></trkpt><trkpt lat="45.5954582" lon="9.287061"><ele>166.2</ele><time>2026-03-24T12:40:57.003Z</time></trkpt><trkpt lat="45.5954184" lon="9.2869555"><ele>165.8</ele><time>2026-03-24T12:40:58.003Z</time></trkpt><trkpt lat="45.5953456" lon="9.2868194"><ele>165.4</ele><time>2026-03-24T12:41:00.003Z</time></trkpt><trkpt lat="45.5953103" lon="9.2866715"><ele>165.0</ele><time>2026-03-24T12:41:02.003Z</time></trkpt><trkpt lat="45.5952836" lon="9.2865674"><ele>166.0</ele><time>2026-03-24T12:41:04.003Z</time></trkpt><trkpt lat="45.59526" lon="9.2864185"><ele>167.0</ele><time>2026-03-24T12:41:07.003Z</time></trkpt><trkpt lat="45.5952261" lon="9.2863304"><ele>168.0</ele><time>2026-03-24T12:41:09.003Z</time></trkpt><trkpt lat="45.5951877" lon="9.286221"><ele>169.0</ele><time>2026-03-24T12:41:11.003Z</time></trkpt><trkpt lat="45.595158" lon="9.2861155"><ele>170.0</ele><time>2026-03-24T12:41:13.003Z</time></trkpt><trkpt lat="45.59512" lon="9.2859657"><ele>170.0</ele><time>2026-03-24T12:41:15.003Z</time></trkpt><trkpt lat="45.5950903" lon="9.2858241"><ele>170.0</ele><time>2026-03-24T12:41:17.002Z</time></trkpt><trkpt lat="45.5950404" lon="9.285648"><ele>170.0</ele><time>2026-03-24T12:41:19.003Z</time></trkpt><trkpt lat="45.5950067" lon="9.2855443"><ele>170.0</ele><time>2026-03-24T12:41:20.003Z</time></trkpt><trkpt lat="45.5949751" lon="9.2854101"><ele>170.0</ele><time>2026-03-24T12:41:22.002Z</time></trkpt><trkpt lat="45.5949372" lon="9.2852729"><ele>170.4</ele><time>2026-03-24T12:41:24.003Z</time></trkpt><trkpt lat="45.5949067" lon="9.2851324"><ele>170.8</ele><time>2026-03-24T12:41:26.003Z</time></trkpt><trkpt lat="45.5949056" lon="9.2850055"><ele>171.2</ele><time>2026-03-24T12:41:28.003Z</time></trkpt><trkpt lat="45.5949277" lon="9.2848723"><ele>171.6</ele><time>2026-03-24T12:41:30.003Z</time></trkpt><trkpt lat="45.5949945" lon="9.2847435"><ele>172.0</ele><time>2026-03-24T12:41:32.003Z</time></trkpt><trkpt lat="45.5950416" lon="9.2846634"><ele>172.16666666666669</ele><time>2026-03-24T12:41:34.003Z</time></trkpt><trkpt lat="45.5951148" lon="9.2846109"><ele>172.33333333333334</ele><time>2026-03-24T12:41:36.003Z</time></trkpt><trkpt lat="45.5951847" lon="9.284564"><ele>172.5</ele><time>2026-03-24T12:41:38.003Z</time></trkpt><trkpt lat="45.5952775" lon="9.2845008"><ele>172.66666666666666</ele><time>2026-03-24T12:41:41.003Z</time></trkpt><trkpt lat="45.595362" lon="9.2844085"><ele>172.83333333333331</ele><time>2026-03-24T12:41:43.003Z</time></trkpt><trkpt lat="45.5954304" lon="9.2843693"><ele>173.0</ele><time>2026-03-24T12:41:44.003Z</time></trkpt><trkpt lat="45.5954936" lon="9.284334"><ele>173.0</ele><time>2026-03-24T12:41:45.003Z</time></trkpt><trkpt lat="45.595564" lon="9.2842433"><ele>173.0</ele><time>2026-03-24T12:41:46.003Z</time></trkpt><trkpt lat="45.5955992" lon="9.2841359"><ele>173.0</ele><time>2026-03-24T12:41:48.002Z</time></trkpt><trkpt lat="45.5956623" lon="9.2840421"><ele>173.0</ele><time>2026-03-24T12:41:50.003Z</time></trkpt><trkpt lat="45.5957363" lon="9.2839688"><ele>173.0</ele><time>2026-03-24T12:41:53.003Z</time></trkpt><trkpt lat="45.5957538" lon="9.2838514"><ele>173.0</ele><time>2026-03-24T12:41:56.003Z</time></trkpt><trkpt lat="45.5957456" lon="9.2837049"><ele>173.0</ele><time>2026-03-24T12:41:59.003Z</time></trkpt><trkpt lat="45.5957333" lon="9.2835608"><ele>173.0</ele><time>2026-03-24T12:42:01.003Z</time></trkpt><trkpt lat="45.5957203" lon="9.283442"><ele>173.0</ele><time>2026-03-24T12:42:03.003Z</time></trkpt><trkpt lat="45.5957042" lon="9.2833119"><ele>173.0</ele><time>2026-03-24T12:42:05.003Z</time></trkpt><trkpt lat="45.5956656" lon="9.2831643"><ele>173.0</ele><time>2026-03-24T12:42:07.003Z</time></trkpt><trkpt lat="45.595613" lon="9.2830583"><ele>173.0</ele><time>2026-03-24T12:42:08.003Z</time></trkpt><trkpt lat="45.5955509" lon="9.2829532"><ele>173.0</ele><time>2026-03-24T12:42:10.002Z</time></trkpt><trkpt lat="45.5955104" lon="9.2828082"><ele>173.0</ele><time>2026-03-24T12:42:12.003Z</time></trkpt><trkpt lat="45.5955132" lon="9.282715"><ele>173.0</ele><time>2026-03-24T12:42:13.003Z</time></trkpt><trkpt lat="45.5955161" lon="9.2825808"><ele>173.0</ele><time>2026-03-24T12:42:15.003Z</time></trkpt><trkpt lat="45.5955198" lon="9.2824165"><ele>173.0</ele><time>2026-03-24T12:42:17.003Z</time></trkpt><trkpt lat="45.5954891" lon="9.2823136"><ele>173.0</ele><time>2026-03-24T12:42:19.003Z</time></trkpt><trkpt lat="45.5954584" lon="9.2822216"><ele>173.0</ele><time>2026-03-24T12:42:21.003Z</time></trkpt><trkpt lat="45.5954066" lon="9.2821139"><ele>173.0</ele><time>2026-03-24T12:42:23.003Z</time></trkpt><trkpt lat="45.59535" lon="9.2820138"><ele>173.0</ele><time>2026-03-24T12:42:25.003Z</time></trkpt><trkpt lat="45.5952908" lon="9.2819067"><ele>173.0</ele><time>2026-03-24T12:42:27.003Z</time></trkpt><trkpt lat="45.5952207" lon="9.2817808"><ele>173.4</ele><time>2026-03-24T12:42:29.002Z</time></trkpt><trkpt lat="45.5951526" lon="9.2816555"><ele>173.8</ele><time>2026-03-24T12:42:31.003Z</time></trkpt><trkpt lat="45.5950739" lon="9.2815474"><ele>174.2</ele><time>2026-03-24T12:42:33.003Z</time></trkpt><trkpt lat="45.5949989" lon="9.2814635"><ele>174.6</ele><time>2026-03-24T12:42:35.003Z</time></trkpt><trkpt lat="45.5949309" lon="9.2813317"><ele>175.0</ele><time>2026-03-24T12:42:37.003Z</time></trkpt><trkpt lat="45.5948716" lon="9.2812029"><ele>175.6</ele><time>2026-03-24T12:42:39.003Z</time></trkpt><trkpt lat="45.5948271" lon="9.2811097"><ele>176.2</ele><time>2026-03-24T12:42:41.002Z</time></trkpt><trkpt lat="45.5947469" lon="9.2809375"><ele>176.8</ele><time>2026-03-24T12:42:43.003Z</time></trkpt><trkpt lat="45.5947097" lon="9.2807741"><ele>177.4</ele><time>2026-03-24T12:42:45.003Z</time></trkpt><trkpt lat="45.5947036" lon="9.2806584"><ele>178.0</ele><time>2026-03-24T12:42:47.003Z</time></trkpt><trkpt lat="45.5947177" lon="9.2805479"><ele>178.4</ele><time>2026-03-24T12:42:49.002Z</time></trkpt><trkpt lat="45.5947161" lon="9.2804222"><ele>178.8</ele><time>2026-03-24T12:42:51.003Z</time></trkpt><trkpt lat="45.5947413" lon="9.280296"><ele>179.2</ele><time>2026-03-24T12:42:53.003Z</time></trkpt><trkpt lat="45.5947695" lon="9.2801825"><ele>179.6</ele><time>2026-03-24T12:42:55.003Z</time></trkpt><trkpt lat="45.5947969" lon="9.2800672"><ele>180.0</ele><time>2026-03-24T12:42:57.003Z</time></trkpt><trkpt lat="45.5948426" lon="9.2799396"><ele>180.0</ele><time>2026-03-24T12:42:59.003Z</time></trkpt><trkpt lat="45.5948954" lon="9.2798064"><ele>180.0</ele><time>2026-03-24T12:43:01.002Z</time></trkpt><trkpt lat="45.5949386" lon="9.2797048"><ele>180.0</ele><time>2026-03-24T12:43:02.003Z</time></trkpt><trkpt lat="45.5949815" lon="9.279567"><ele>180.0</ele><time>2026-03-24T12:43:04.003Z</time></trkpt><trkpt lat="45.5950206" lon="9.279485"><ele>180.0</ele><time>2026-03-24T12:43:05.003Z</time></trkpt><trkpt lat="45.5950848" lon="9.2793446"><ele>180.16666666666666</ele><time>2026-03-24T12:43:07.003Z</time></trkpt><trkpt lat="45.5951406" lon="9.2792109"><ele>180.33333333333334</ele><time>2026-03-24T12:43:09.003Z</time></trkpt><trkpt lat="45.5951826" lon="9.279099"><ele>180.5</ele><time>2026-03-24T12:43:11.003Z</time></trkpt><trkpt lat="45.5952403" lon="9.2789992"><ele>180.66666666666669</ele><time>2026-03-24T12:43:13.003Z</time></trkpt><trkpt lat="45.5952659" lon="9.2789025"><ele>180.83333333333334</ele><time>2026-03-24T12:43:15.003Z</time></trkpt><trkpt lat="45.5952937" lon="9.278805"><ele>181.0</ele><time>2026-03-24T12:43:29.003Z</time></trkpt><trkpt lat="45.5953987" lon="9.2787014"><ele>180.83333333333334</ele><time>2026-03-24T12:44:06.003Z</time></trkpt><trkpt lat="45.5954564" lon="9.2786428"><ele>180.66666666666669</ele><time>2026-03-24T12:44:08.003Z</time></trkpt><trkpt lat="45.5955206" lon="9.2785569"><ele>180.5</ele><time>2026-03-24T12:44:10.003Z</time></trkpt><trkpt lat="45.5955879" lon="9.2784591"><ele>180.33333333333334</ele><time>2026-03-24T12:44:12.003Z</time></trkpt><trkpt lat="45.5956484" lon="9.2783585"><ele>180.16666666666666</ele><time>2026-03-24T12:44:14.003Z</time></trkpt><trkpt lat="45.5956902" lon="9.2782369"><ele>180.0</ele><time>2026-03-24T12:44:16.003Z</time></trkpt><trkpt lat="45.5957288" lon="9.2780969"><ele>180.0</ele><time>2026-03-24T12:44:18.003Z</time></trkpt><trkpt lat="45.5957769" lon="9.2779693"><ele>180.0</ele><time>2026-03-24T12:44:20.003Z</time></trkpt><trkpt lat="45.5958112" lon="9.2778221"><ele>180.0</ele><time>2026-03-24T12:44:22.003Z</time></trkpt><trkpt lat="45.5958517" lon="9.2776635"><ele>180.0</ele><time>2026-03-24T12:44:24.002Z</time></trkpt><trkpt lat="45.5958968" lon="9.2775377"><ele>180.0</ele><time>2026-03-24T12:44:26.003Z</time></trkpt><trkpt lat="45.5959372" lon="9.2774577"><ele>180.0</ele><time>2026-03-24T12:44:27.003Z</time></trkpt><trkpt lat="45.5960137" lon="9.2773686"><ele>180.0</ele><time>2026-03-24T12:44:29.003Z</time></trkpt><trkpt lat="45.5961103" lon="9.2773044"><ele>180.0</ele><time>2026-03-24T12:44:31.003Z</time></trkpt><trkpt lat="45.5961939" lon="9.2772751"><ele>180.0</ele><time>2026-03-24T12:44:33.002Z</time></trkpt><trkpt lat="45.5962752" lon="9.2772554"><ele>180.0</ele><time>2026-03-24T12:44:35.003Z</time></trkpt><trkpt lat="45.5963653" lon="9.2772415"><ele>179.75</ele><time>2026-03-24T12:44:37.002Z</time></trkpt><trkpt lat="45.5964646" lon="9.2772264"><ele>179.5</ele><time>2026-03-24T12:44:39.003Z</time></trkpt><trkpt lat="45.5966354" lon="9.2772318"><ele>179.25</ele><time>2026-03-24T12:44:42.003Z</time></trkpt><trkpt lat="45.5967455" lon="9.2772533"><ele>179.0</ele><time>2026-03-24T12:44:44.003Z</time></trkpt><trkpt lat="45.5968531" lon="9.27728"><ele>178.6</ele><time>2026-03-24T12:44:46.003Z</time></trkpt><trkpt lat="45.5969631" lon="9.277316"><ele>178.2</ele><time>2026-03-24T12:44:48.003Z</time></trkpt><trkpt lat="45.5970349" lon="9.2773154"><ele>177.79999999999998</ele><time>2026-03-24T12:44:49.003Z</time></trkpt><trkpt lat="45.5971389" lon="9.2773051"><ele>177.39999999999998</ele><time>2026-03-24T12:44:51.003Z</time></trkpt><trkpt lat="45.5972576" lon="9.277345"><ele>177.0</ele><time>2026-03-24T12:44:53.003Z</time></trkpt><trkpt lat="45.5973243" lon="9.2773498"><ele>178.0</ele><time>2026-03-24T12:44:54.003Z</time></trkpt><trkpt lat="45.5974436" lon="9.2773496"><ele>179.0</ele><time>2026-03-24T12:44:56.003Z</time></trkpt><trkpt lat="45.5975493" lon="9.2773114"><ele>180.0</ele><time>2026-03-24T12:44:58.003Z</time></trkpt><trkpt lat="45.5976515" lon="9.2772452"><ele>181.0</ele><time>2026-03-24T12:45:00.003Z</time></trkpt><trkpt lat="45.5977227" lon="9.27716"><ele>182.0</ele><time>2026-03-24T12:45:02.003Z</time></trkpt><trkpt lat="45.5977979" lon="9.2770873"><ele>183.0</ele><time>2026-03-24T12:45:04.003Z</time></trkpt><trkpt lat="45.597874" lon="9.2770173"><ele>184.0</ele><time>2026-03-24T12:45:06.003Z</time></trkpt><trkpt lat="45.5979439" lon="9.2769713"><ele>185.0</ele><time>2026-03-24T12:45:08.003Z</time></trkpt><trkpt lat="45.598011" lon="9.2769334"><ele>186.0</ele><time>2026-03-24T12:45:10.002Z</time></trkpt><trkpt lat="45.5980712" lon="9.2769043"><ele>187.0</ele><time>2026-03-24T12:45:12.003Z</time></trkpt><trkpt lat="45.5981438" lon="9.2768808"><ele>188.0</ele><time>2026-03-24T12:45:14.003Z</time></trkpt><trkpt lat="45.5982255" lon="9.2768611"><ele>188.0</ele><time>2026-03-24T12:45:16.003Z</time></trkpt><trkpt lat="45.5982901" lon="9.2768539"><ele>188.0</ele><time>2026-03-24T12:45:18.003Z</time></trkpt><trkpt lat="45.5983607" lon="9.2768454"><ele>188.0</ele><time>2026-03-24T12:45:20.003Z</time></trkpt><trkpt lat="45.5985935" lon="9.2768363"><ele>188.0</ele><time>2026-03-24T12:45:25.003Z</time></trkpt><trkpt lat="45.5986943" lon="9.2767837"><ele>187.0</ele><time>2026-03-24T12:45:27.003Z</time></trkpt><trkpt lat="45.5987646" lon="9.2767572"><ele>186.0</ele><time>2026-03-24T12:45:28.003Z</time></trkpt><trkpt lat="45.5988523" lon="9.276728"><ele>185.0</ele><time>2026-03-24T12:45:30.003Z</time></trkpt><trkpt lat="45.5989592" lon="9.2767043"><ele>184.0</ele><time>2026-03-24T12:45:33.003Z</time></trkpt><trkpt lat="45.599032" lon="9.2766967"><ele>183.0</ele><time>2026-03-24T12:45:35.003Z</time></trkpt><trkpt lat="45.599126" lon="9.2767362"><ele>182.0</ele><time>2026-03-24T12:45:37.003Z</time></trkpt><trkpt lat="45.5992063" lon="9.2767819"><ele>182.0</ele><time>2026-03-24T12:45:39.003Z</time></trkpt><trkpt lat="45.59928" lon="9.2768508"><ele>182.0</ele><time>2026-03-24T12:45:40.003Z</time></trkpt><trkpt lat="45.5993774" lon="9.2769445"><ele>182.0</ele><time>2026-03-24T12:45:42.003Z</time></trkpt><trkpt lat="45.5994588" lon="9.2770603"><ele>182.0</ele><time>2026-03-24T12:45:44.003Z</time></trkpt><trkpt lat="45.5995464" lon="9.277185"><ele>182.0</ele><time>2026-03-24T12:45:46.003Z</time></trkpt><trkpt lat="45.5995999" lon="9.2772649"><ele>179.75</ele><time>2026-03-24T12:45:47.003Z</time></trkpt><trkpt lat="45.5997001" lon="9.2773419"><ele>177.5</ele><time>2026-03-24T12:45:49.002Z</time></trkpt><trkpt lat="45.5999158" lon="9.2774786"><ele>175.25</ele><time>2026-03-24T12:45:54.003Z</time></trkpt><trkpt lat="45.6000007" lon="9.2774856"><ele>173.0</ele><time>2026-03-24T12:45:56.003Z</time></trkpt><trkpt lat="45.6000654" lon="9.2775127"><ele>173.0</ele><time>2026-03-24T12:45:57.003Z</time></trkpt><trkpt lat="45.6001785" lon="9.2775214"><ele>173.0</ele><time>2026-03-24T12:45:59.002Z</time></trkpt><trkpt lat="45.6002771" lon="9.2775491"><ele>173.0</ele><time>2026-03-24T12:46:01.003Z</time></trkpt><trkpt lat="45.6003732" lon="9.2775776"><ele>173.0</ele><time>2026-03-24T12:46:03.003Z</time></trkpt><trkpt lat="45.6004859" lon="9.2776215"><ele>173.0</ele><time>2026-03-24T12:46:05.003Z</time></trkpt><trkpt lat="45.6005933" lon="9.2776528"><ele>174.5</ele><time>2026-03-24T12:46:07.003Z</time></trkpt><trkpt lat="45.6007209" lon="9.2776917"><ele>176.0</ele><time>2026-03-24T12:46:09.003Z</time></trkpt><trkpt lat="45.6008293" lon="9.2776892"><ele>177.5</ele><time>2026-03-24T12:46:11.003Z</time></trkpt><trkpt lat="45.6009537" lon="9.2777131"><ele>179.0</ele><time>2026-03-24T12:46:13.003Z</time></trkpt><trkpt lat="45.6011886" lon="9.2777517"><ele>180.0</ele><time>2026-03-24T12:46:18.003Z</time></trkpt><trkpt lat="45.6013108" lon="9.2777568"><ele>181.0</ele><time>2026-03-24T12:46:20.003Z</time></trkpt><trkpt lat="45.6014445" lon="9.2777576"><ele>182.0</ele><time>2026-03-24T12:46:22.003Z</time></trkpt><trkpt lat="45.6015349" lon="9.2777958"><ele>183.0</ele><time>2026-03-24T12:46:23.002Z</time></trkpt><trkpt lat="45.6016585" lon="9.2778189"><ele>183.0</ele><time>2026-03-24T12:46:25.003Z</time></trkpt><trkpt lat="45.6017875" lon="9.2778579"><ele>183.0</ele><time>2026-03-24T12:46:27.003Z</time></trkpt><trkpt lat="45.6019041" lon="9.2778414"><ele>183.0</ele><time>2026-03-24T12:46:29.003Z</time></trkpt><trkpt lat="45.6020022" lon="9.2778275"><ele>183.0</ele><time>2026-03-24T12:46:31.002Z</time></trkpt><trkpt lat="45.6020866" lon="9.2777859"><ele>183.0</ele><time>2026-03-24T12:46:33.003Z</time></trkpt><trkpt lat="45.6022027" lon="9.2777484"><ele>183.0</ele><time>2026-03-24T12:46:35.003Z</time></trkpt><trkpt lat="45.60231" lon="9.2777053"><ele>183.0</ele><time>2026-03-24T12:46:37.003Z</time></trkpt><trkpt lat="45.602379" lon="9.2776885"><ele>183.0</ele><time>2026-03-24T12:46:38.003Z</time></trkpt><trkpt lat="45.6024429" lon="9.2776674"><ele>183.0</ele><time>2026-03-24T12:46:39.002Z</time></trkpt><trkpt lat="45.602553" lon="9.2776254"><ele>183.0</ele><time>2026-03-24T12:46:41.003Z</time></trkpt><trkpt lat="45.6026488" lon="9.2775703"><ele>183.0</ele><time>2026-03-24T12:46:43.003Z</time></trkpt><trkpt lat="45.6027106" lon="9.2775507"><ele>183.0</ele><time>2026-03-24T12:46:44.003Z</time></trkpt><trkpt lat="45.6027741" lon="9.2775333"><ele>183.0</ele><time>2026-03-24T12:46:45.003Z</time></trkpt><trkpt lat="45.6028879" lon="9.2774953"><ele>183.0</ele><time>2026-03-24T12:46:47.003Z</time></trkpt><trkpt lat="45.6029809" lon="9.2774454"><ele>183.0</ele><time>2026-03-24T12:46:49.003Z</time></trkpt><trkpt lat="45.6030775" lon="9.2774202"><ele>183.0</ele><time>2026-03-24T12:46:51.003Z</time></trkpt><trkpt lat="45.603196" lon="9.2773964"><ele>182.16666666666666</ele><time>2026-03-24T12:46:53.003Z</time></trkpt><trkpt lat="45.6032602" lon="9.2773837"><ele>181.33333333333334</ele><time>2026-03-24T12:46:54.003Z</time></trkpt><trkpt lat="45.6033924" lon="9.2773723"><ele>180.5</ele><time>2026-03-24T12:46:56.003Z</time></trkpt><trkpt lat="45.6034631" lon="9.2773902"><ele>179.66666666666669</ele><time>2026-03-24T12:46:57.003Z</time></trkpt><trkpt lat="45.603528" lon="9.2773878"><ele>178.83333333333334</ele><time>2026-03-24T12:46:58.003Z</time></trkpt><trkpt lat="45.6035907" lon="9.2774003"><ele>178.0</ele><time>2026-03-24T12:46:59.003Z</time></trkpt><trkpt lat="45.6037088" lon="9.2774292"><ele>178.0</ele><time>2026-03-24T12:47:01.003Z</time></trkpt><trkpt lat="45.6038247" lon="9.2774596"><ele>178.0</ele><time>2026-03-24T12:47:03.003Z</time></trkpt><trkpt lat="45.6039476" lon="9.2774709"><ele>178.0</ele><time>2026-03-24T12:47:05.003Z</time></trkpt><trkpt lat="45.6040159" lon="9.2774831"><ele>178.0</ele><time>2026-03-24T12:47:06.003Z</time></trkpt><trkpt lat="45.604081" lon="9.2774902"><ele>178.0</ele><time>2026-03-24T12:47:07.003Z</time></trkpt><trkpt lat="45.6041976" lon="9.2775268"><ele>178.0</ele><time>2026-03-24T12:47:09.003Z</time></trkpt><trkpt lat="45.6043157" lon="9.2775372"><ele>178.0</ele><time>2026-03-24T12:47:11.003Z</time></trkpt><trkpt lat="45.6044351" lon="9.2775593"><ele>178.0</ele><time>2026-03-24T12:47:13.003Z</time></trkpt><trkpt lat="45.6045548" lon="9.2775917"><ele>178.0</ele><time>2026-03-24T12:47:15.003Z</time></trkpt><trkpt lat="45.6046752" lon="9.2776063"><ele>178.0</ele><time>2026-03-24T12:47:17.003Z</time></trkpt><trkpt lat="45.6047882" lon="9.27763"><ele>178.0</ele><time>2026-03-24T12:47:19.003Z</time></trkpt><trkpt lat="45.6049076" lon="9.2776388"><ele>178.0</ele><time>2026-03-24T12:47:21.003Z</time></trkpt><trkpt lat="45.6050265" lon="9.2776592"><ele>178.0</ele><time>2026-03-24T12:47:23.003Z</time></trkpt><trkpt lat="45.6051523" lon="9.2776993"><ele>178.0</ele><time>2026-03-24T12:47:25.002Z</time></trkpt><trkpt lat="45.605267" lon="9.2777169"><ele>178.0</ele><time>2026-03-24T12:47:27.003Z</time></trkpt><trkpt lat="45.6053816" lon="9.2777383"><ele>178.0</ele><time>2026-03-24T12:47:29.002Z</time></trkpt><trkpt lat="45.6054971" lon="9.277765"><ele>178.0</ele><time>2026-03-24T12:47:31.003Z</time></trkpt><trkpt lat="45.6055981" lon="9.2777957"><ele>179.0</ele><time>2026-03-24T12:47:33.003Z</time></trkpt><trkpt lat="45.6057105" lon="9.2778183"><ele>180.0</ele><time>2026-03-24T12:47:35.003Z</time></trkpt><trkpt lat="45.6058143" lon="9.2778322"><ele>181.0</ele><time>2026-03-24T12:47:37.003Z</time></trkpt><trkpt lat="45.6059136" lon="9.2778485"><ele>182.0</ele><time>2026-03-24T12:47:39.003Z</time></trkpt><trkpt lat="45.6060194" lon="9.2778484"><ele>183.0</ele><time>2026-03-24T12:47:41.003Z</time></trkpt><trkpt lat="45.6061134" lon="9.2778632"><ele>182.66666666666666</ele><time>2026-03-24T12:47:43.003Z</time></trkpt><trkpt lat="45.606205" lon="9.2778405"><ele>182.33333333333334</ele><time>2026-03-24T12:47:45.003Z</time></trkpt><trkpt lat="45.6062841" lon="9.277834"><ele>182.0</ele><time>2026-03-24T12:47:46.003Z</time></trkpt><trkpt lat="45.6063566" lon="9.2778468"><ele>181.66666666666669</ele><time>2026-03-24T12:47:47.003Z</time></trkpt><trkpt lat="45.6064539" lon="9.2778374"><ele>181.33333333333334</ele><time>2026-03-24T12:47:49.003Z</time></trkpt><trkpt lat="45.6065555" lon="9.2778141"><ele>181.0</ele><time>2026-03-24T12:47:51.003Z</time></trkpt><trkpt lat="45.6067214" lon="9.2777996"><ele>181.0</ele><time>2026-03-24T12:47:54.003Z</time></trkpt><trkpt lat="45.6068215" lon="9.2777499"><ele>181.0</ele><time>2026-03-24T12:47:56.003Z</time></trkpt><trkpt lat="45.6069316" lon="9.2777224"><ele>181.0</ele><time>2026-03-24T12:47:58.003Z</time></trkpt><trkpt lat="45.6070426" lon="9.2776965"><ele>181.0</ele><time>2026-03-24T12:48:00.003Z</time></trkpt><trkpt lat="45.6071068" lon="9.2776874"><ele>181.0</ele><time>2026-03-24T12:48:01.003Z</time></trkpt><trkpt lat="45.6072135" lon="9.2776554"><ele>180.4</ele><time>2026-03-24T12:48:03.003Z</time></trkpt><trkpt lat="45.607339" lon="9.2776444"><ele>179.8</ele><time>2026-03-24T12:48:05.002Z</time></trkpt><trkpt lat="45.6074366" lon="9.2776045"><ele>179.20000000000002</ele><time>2026-03-24T12:48:07.003Z</time></trkpt><trkpt lat="45.6075369" lon="9.2775831"><ele>178.60000000000002</ele><time>2026-03-24T12:48:09.003Z</time></trkpt><trkpt lat="45.6076576" lon="9.2775908"><ele>178.0</ele><time>2026-03-24T12:48:11.003Z</time></trkpt><trkpt lat="45.6077659" lon="9.2776126"><ele>178.8</ele><time>2026-03-24T12:48:13.003Z</time></trkpt><trkpt lat="45.6078669" lon="9.2776277"><ele>179.60000000000002</ele><time>2026-03-24T12:48:15.003Z</time></trkpt><trkpt lat="45.6079334" lon="9.2776441"><ele>180.39999999999998</ele><time>2026-03-24T12:48:16.003Z</time></trkpt><trkpt lat="45.6080496" lon="9.2776681"><ele>181.2</ele><time>2026-03-24T12:48:18.003Z</time></trkpt><trkpt lat="45.6081629" lon="9.2776907"><ele>182.0</ele><time>2026-03-24T12:48:20.003Z</time></trkpt><trkpt lat="45.6082725" lon="9.2777169"><ele>182.0</ele><time>2026-03-24T12:48:22.003Z</time></trkpt><trkpt lat="45.6083737" lon="9.2777327"><ele>182.0</ele><time>2026-03-24T12:48:24.003Z</time></trkpt><trkpt lat="45.6084791" lon="9.2777418"><ele>182.0</ele><time>2026-03-24T12:48:26.003Z</time></trkpt><trkpt lat="45.6085931" lon="9.2777414"><ele>182.0</ele><time>2026-03-24T12:48:28.003Z</time></trkpt><trkpt lat="45.6087107" lon="9.2777452"><ele>182.0</ele><time>2026-03-24T12:48:30.003Z</time></trkpt><trkpt lat="45.6088251" lon="9.277743"><ele>182.16666666666666</ele><time>2026-03-24T12:48:32.003Z</time></trkpt><trkpt lat="45.6089106" lon="9.2777477"><ele>182.33333333333331</ele><time>2026-03-24T12:48:34.003Z</time></trkpt><trkpt lat="45.6089865" lon="9.2777613"><ele>182.5</ele><time>2026-03-24T12:48:36.003Z</time></trkpt><trkpt lat="45.6090583" lon="9.2777903"><ele>182.66666666666666</ele><time>2026-03-24T12:48:38.003Z</time></trkpt><trkpt lat="45.6091491" lon="9.2778027"><ele>182.83333333333334</ele><time>2026-03-24T12:48:41.003Z</time></trkpt><trkpt lat="45.6092303" lon="9.2777818"><ele>183.0</ele><time>2026-03-24T12:48:44.003Z</time></trkpt><trkpt lat="45.6093382" lon="9.2777594"><ele>183.0</ele><time>2026-03-24T12:48:46.003Z</time></trkpt><trkpt lat="45.609446" lon="9.2777545"><ele>183.0</ele><time>2026-03-24T12:48:48.003Z</time></trkpt><trkpt lat="45.6095452" lon="9.2777945"><ele>183.0</ele><time>2026-03-24T12:48:50.003Z</time></trkpt><trkpt lat="45.6096316" lon="9.2778352"><ele>183.0</ele><time>2026-03-24T12:48:52.003Z</time></trkpt><trkpt lat="45.6096992" lon="9.2777937"><ele>183.0</ele><time>2026-03-24T12:48:54.003Z</time></trkpt><trkpt lat="45.6097661" lon="9.2777324"><ele>183.0</ele><time>2026-03-24T12:48:56.003Z</time></trkpt><trkpt lat="45.6098548" lon="9.2777393"><ele>183.0</ele><time>2026-03-24T12:48:58.003Z</time></trkpt><trkpt lat="45.6099483" lon="9.2777675"><ele>183.0</ele><time>2026-03-24T12:49:00.003Z</time></trkpt><trkpt lat="45.6100246" lon="9.277794"><ele>183.0</ele><time>2026-03-24T12:49:02.003Z</time></trkpt><trkpt lat="45.6101258" lon="9.2778214"><ele>183.0</ele><time>2026-03-24T12:49:04.003Z</time></trkpt><trkpt lat="45.6102325" lon="9.2778498"><ele>184.4</ele><time>2026-03-24T12:49:06.003Z</time></trkpt><trkpt lat="45.6103405" lon="9.2778862"><ele>185.8</ele><time>2026-03-24T12:49:08.003Z</time></trkpt><trkpt lat="45.6104515" lon="9.2779282"><ele>187.2</ele><time>2026-03-24T12:49:10.003Z</time></trkpt><trkpt lat="45.6105209" lon="9.2779477"><ele>188.6</ele><time>2026-03-24T12:49:11.003Z</time></trkpt><trkpt lat="45.6106239" lon="9.2779855"><ele>190.0</ele><time>2026-03-24T12:49:13.003Z</time></trkpt><trkpt lat="45.6107514" lon="9.2780159"><ele>190.0</ele><time>2026-03-24T12:49:15.003Z</time></trkpt><trkpt lat="45.6108507" lon="9.2780423"><ele>190.0</ele><time>2026-03-24T12:49:17.003Z</time></trkpt><trkpt lat="45.6109525" lon="9.278045"><ele>190.0</ele><time>2026-03-24T12:49:19.003Z</time></trkpt><trkpt lat="45.6110579" lon="9.2780213"><ele>190.0</ele><time>2026-03-24T12:49:21.003Z</time></trkpt><trkpt lat="45.6111409" lon="9.27802"><ele>190.0</ele><time>2026-03-24T12:49:23.003Z</time></trkpt><trkpt lat="45.6112503" lon="9.278015"><ele>189.8</ele><time>2026-03-24T12:49:25.003Z</time></trkpt><trkpt lat="45.6113355" lon="9.2780227"><ele>189.6</ele><time>2026-03-24T12:49:27.003Z</time></trkpt><trkpt lat="45.6115479" lon="9.2780591"><ele>189.39999999999998</ele><time>2026-03-24T12:49:31.003Z</time></trkpt><trkpt lat="45.6116122" lon="9.2780823"><ele>189.2</ele><time>2026-03-24T12:49:32.003Z</time></trkpt><trkpt lat="45.6116775" lon="9.2780904"><ele>189.0</ele><time>2026-03-24T12:49:33.003Z</time></trkpt><trkpt lat="45.611803" lon="9.2781115"><ele>189.0</ele><time>2026-03-24T12:49:35.002Z</time></trkpt><trkpt lat="45.6119112" lon="9.2781094"><ele>189.0</ele><time>2026-03-24T12:49:37.003Z</time></trkpt><trkpt lat="45.6119871" lon="9.2781025"><ele>189.0</ele><time>2026-03-24T12:49:38.003Z</time></trkpt><trkpt lat="45.6120528" lon="9.2781141"><ele>189.0</ele><time>2026-03-24T12:49:39.003Z</time></trkpt><trkpt lat="45.6121357" lon="9.2781625"><ele>189.0</ele><time>2026-03-24T12:49:40.003Z</time></trkpt><trkpt lat="45.6122035" lon="9.2781956"><ele>189.0</ele><time>2026-03-24T12:49:41.002Z</time></trkpt><trkpt lat="45.6122756" lon="9.278203"><ele>188.6</ele><time>2026-03-24T12:49:42.003Z</time></trkpt><trkpt lat="45.6123495" lon="9.2781947"><ele>188.2</ele><time>2026-03-24T12:49:43.003Z</time></trkpt><trkpt lat="45.6124824" lon="9.2782172"><ele>187.79999999999998</ele><time>2026-03-24T12:49:45.003Z</time></trkpt><trkpt lat="45.6125907" lon="9.2782381"><ele>187.39999999999998</ele><time>2026-03-24T12:49:47.003Z</time></trkpt><trkpt lat="45.6127008" lon="9.2782422"><ele>187.0</ele><time>2026-03-24T12:49:49.003Z</time></trkpt><trkpt lat="45.6127718" lon="9.2782498"><ele>187.39999999999998</ele><time>2026-03-24T12:49:50.003Z</time></trkpt><trkpt lat="45.612842" lon="9.2782522"><ele>187.79999999999998</ele><time>2026-03-24T12:49:51.003Z</time></trkpt><trkpt lat="45.6129092" lon="9.2782398"><ele>188.2</ele><time>2026-03-24T12:49:52.003Z</time></trkpt><trkpt lat="45.6130179" lon="9.2782016"><ele>188.6</ele><time>2026-03-24T12:49:54.003Z</time></trkpt><trkpt lat="45.6131196" lon="9.2781476"><ele>189.0</ele><time>2026-03-24T12:49:56.003Z</time></trkpt><trkpt lat="45.6132066" lon="9.2780661"><ele>189.25</ele><time>2026-03-24T12:49:58.003Z</time></trkpt><trkpt lat="45.6133145" lon="9.2780046"><ele>189.5</ele><time>2026-03-24T12:50:00.003Z</time></trkpt><trkpt lat="45.6133847" lon="9.2779019"><ele>189.75</ele><time>2026-03-24T12:50:02.003Z</time></trkpt><trkpt lat="45.6135283" lon="9.2778642"><ele>190.0</ele><time>2026-03-24T12:50:04.003Z</time></trkpt><trkpt lat="45.6136354" lon="9.2778298"><ele>191.2</ele><time>2026-03-24T12:50:06.003Z</time></trkpt><trkpt lat="45.6136993" lon="9.2778096"><ele>192.4</ele><time>2026-03-24T12:50:07.003Z</time></trkpt><trkpt lat="45.6138492" lon="9.2777719"><ele>193.60000000000002</ele><time>2026-03-24T12:50:10.002Z</time></trkpt><trkpt lat="45.6139619" lon="9.2777447"><ele>194.8</ele><time>2026-03-24T12:50:12.003Z</time></trkpt><trkpt lat="45.614066" lon="9.2777299"><ele>196.0</ele><time>2026-03-24T12:50:14.003Z</time></trkpt><trkpt lat="45.614189" lon="9.277732"><ele>196.0</ele><time>2026-03-24T12:50:16.003Z</time></trkpt><trkpt lat="45.6142983" lon="9.2777604"><ele>196.0</ele><time>2026-03-24T12:50:18.003Z</time></trkpt><trkpt lat="45.6143695" lon="9.2777799"><ele>196.0</ele><time>2026-03-24T12:50:19.003Z</time></trkpt><trkpt lat="45.6144951" lon="9.2778182"><ele>196.0</ele><time>2026-03-24T12:50:21.003Z</time></trkpt><trkpt lat="45.6145897" lon="9.2778125"><ele>196.0</ele><time>2026-03-24T12:50:23.003Z</time></trkpt><trkpt lat="45.614654" lon="9.2778087"><ele>196.0</ele><time>2026-03-24T12:50:24.002Z</time></trkpt><trkpt lat="45.6147541" lon="9.2778217"><ele>196.0</ele><time>2026-03-24T12:50:26.003Z</time></trkpt><trkpt lat="45.614859" lon="9.2778338"><ele>196.0</ele><time>2026-03-24T12:50:28.002Z</time></trkpt><trkpt lat="45.6149495" lon="9.277867"><ele>196.0</ele><time>2026-03-24T12:50:30.003Z</time></trkpt><trkpt lat="45.6150508" lon="9.2778831"><ele>196.0</ele><time>2026-03-24T12:50:32.003Z</time></trkpt><trkpt lat="45.615156" lon="9.2779121"><ele>196.0</ele><time>2026-03-24T12:50:34.003Z</time></trkpt><trkpt lat="45.6152579" lon="9.2779279"><ele>196.0</ele><time>2026-03-24T12:50:36.003Z</time></trkpt><trkpt lat="45.6153694" lon="9.2779542"><ele>196.0</ele><time>2026-03-24T12:50:38.003Z</time></trkpt><trkpt lat="45.6154322" lon="9.2779774"><ele>196.0</ele><time>2026-03-24T12:50:39.003Z</time></trkpt><trkpt lat="45.6155297" lon="9.2780079"><ele>196.0</ele><time>2026-03-24T12:50:41.003Z</time></trkpt><trkpt lat="45.6156314" lon="9.2780365"><ele>196.25</ele><time>2026-03-24T12:50:43.003Z</time></trkpt><trkpt lat="45.6157458" lon="9.2780656"><ele>196.5</ele><time>2026-03-24T12:50:45.002Z</time></trkpt><trkpt lat="45.6158739" lon="9.2781041"><ele>196.75</ele><time>2026-03-24T12:50:47.002Z</time></trkpt><trkpt lat="45.6159732" lon="9.2781259"><ele>197.0</ele><time>2026-03-24T12:50:49.003Z</time></trkpt><trkpt lat="45.6160911" lon="9.2781645"><ele>197.39999999999998</ele><time>2026-03-24T12:50:51.003Z</time></trkpt><trkpt lat="45.6161657" lon="9.2781941"><ele>197.79999999999998</ele><time>2026-03-24T12:50:52.003Z</time></trkpt><trkpt lat="45.616236" lon="9.2782215"><ele>198.2</ele><time>2026-03-24T12:50:53.003Z</time></trkpt><trkpt lat="45.6163509" lon="9.2782656"><ele>198.6</ele><time>2026-03-24T12:50:55.003Z</time></trkpt><trkpt lat="45.6164672" lon="9.2783058"><ele>199.0</ele><time>2026-03-24T12:50:57.002Z</time></trkpt><trkpt lat="45.6165792" lon="9.2783508"><ele>199.0</ele><time>2026-03-24T12:50:59.003Z</time></trkpt><trkpt lat="45.6166746" lon="9.2783805"><ele>199.0</ele><time>2026-03-24T12:51:01.003Z</time></trkpt><trkpt lat="45.6167622" lon="9.2783865"><ele>199.0</ele><time>2026-03-24T12:51:03.003Z</time></trkpt><trkpt lat="45.6168589" lon="9.2784039"><ele>199.0</ele><time>2026-03-24T12:51:05.003Z</time></trkpt><trkpt lat="45.6170188" lon="9.2784167"><ele>199.0</ele><time>2026-03-24T12:51:08.003Z</time></trkpt><trkpt lat="45.6171195" lon="9.2784361"><ele>198.83333333333331</ele><time>2026-03-24T12:51:10.003Z</time></trkpt><trkpt lat="45.6172442" lon="9.2784588"><ele>198.66666666666666</ele><time>2026-03-24T12:51:12.003Z</time></trkpt><trkpt lat="45.6173078" lon="9.2784695"><ele>198.5</ele><time>2026-03-24T12:51:13.003Z</time></trkpt><trkpt lat="45.617374" lon="9.2784883"><ele>198.33333333333331</ele><time>2026-03-24T12:51:14.003Z</time></trkpt><trkpt lat="45.6174506" lon="9.2785066"><ele>198.16666666666666</ele><time>2026-03-24T12:51:15.003Z</time></trkpt><trkpt lat="45.617519" lon="9.2785258"><ele>198.0</ele><time>2026-03-24T12:51:16.003Z</time></trkpt><trkpt lat="45.617591" lon="9.2785512"><ele>198.0</ele><time>2026-03-24T12:51:17.003Z</time></trkpt><trkpt lat="45.6176602" lon="9.2785713"><ele>198.0</ele><time>2026-03-24T12:51:18.003Z</time></trkpt><trkpt lat="45.617728" lon="9.2785887"><ele>198.0</ele><time>2026-03-24T12:51:19.003Z</time></trkpt><trkpt lat="45.61786" lon="9.2786567"><ele>198.0</ele><time>2026-03-24T12:51:20.003Z</time></trkpt><trkpt lat="45.617997" lon="9.2786931"><ele>198.0</ele><time>2026-03-24T12:51:22.002Z</time></trkpt><trkpt lat="45.6180625" lon="9.2787167"><ele>197.83333333333334</ele><time>2026-03-24T12:51:23.003Z</time></trkpt><trkpt lat="45.6181277" lon="9.278744"><ele>197.66666666666669</ele><time>2026-03-24T12:51:24.003Z</time></trkpt><trkpt lat="45.6182486" lon="9.278788"><ele>197.5</ele><time>2026-03-24T12:51:26.003Z</time></trkpt><trkpt lat="45.6183112" lon="9.2788054"><ele>197.33333333333334</ele><time>2026-03-24T12:51:27.003Z</time></trkpt><trkpt lat="45.618378" lon="9.2788321"><ele>197.16666666666669</ele><time>2026-03-24T12:51:28.003Z</time></trkpt><trkpt lat="45.6184431" lon="9.2788564"><ele>197.0</ele><time>2026-03-24T12:51:29.002Z</time></trkpt><trkpt lat="45.6185594" lon="9.2788796"><ele>197.0</ele><time>2026-03-24T12:51:31.002Z</time></trkpt><trkpt lat="45.6186206" lon="9.2789033"><ele>197.0</ele><time>2026-03-24T12:51:32.003Z</time></trkpt><trkpt lat="45.6187426" lon="9.2789409"><ele>197.0</ele><time>2026-03-24T12:51:34.003Z</time></trkpt><trkpt lat="45.6188615" lon="9.2789773"><ele>197.0</ele><time>2026-03-24T12:51:36.003Z</time></trkpt><trkpt lat="45.6189682" lon="9.2789951"><ele>197.0</ele><time>2026-03-24T12:51:38.003Z</time></trkpt><trkpt lat="45.6190385" lon="9.2790219"><ele>196.83333333333334</ele><time>2026-03-24T12:51:39.003Z</time></trkpt><trkpt lat="45.6191028" lon="9.2790554"><ele>196.66666666666669</ele><time>2026-03-24T12:51:40.003Z</time></trkpt><trkpt lat="45.6191662" lon="9.2790715"><ele>196.5</ele><time>2026-03-24T12:51:41.003Z</time></trkpt><trkpt lat="45.6192821" lon="9.2791014"><ele>196.33333333333331</ele><time>2026-03-24T12:51:43.002Z</time></trkpt><trkpt lat="45.6193446" lon="9.2791203"><ele>196.16666666666666</ele><time>2026-03-24T12:51:44.003Z</time></trkpt><trkpt lat="45.6194591" lon="9.2791286"><ele>196.0</ele><time>2026-03-24T12:51:46.003Z</time></trkpt><trkpt lat="45.6195783" lon="9.2791735"><ele>195.99999999999997</ele><time>2026-03-24T12:51:48.003Z</time></trkpt><trkpt lat="45.6196441" lon="9.2791844"><ele>196.0</ele><time>2026-03-24T12:51:49.003Z</time></trkpt><trkpt lat="45.6197248" lon="9.2792211"><ele>196.0</ele><time>2026-03-24T12:51:50.003Z</time></trkpt><trkpt lat="45.6197886" lon="9.2792394"><ele>196.0</ele><time>2026-03-24T12:51:51.002Z</time></trkpt><trkpt lat="45.6198912" lon="9.2792632"><ele>195.99999999999997</ele><time>2026-03-24T12:51:53.003Z</time></trkpt><trkpt lat="45.6199677" lon="9.2792775"><ele>196.0</ele><time>2026-03-24T12:51:54.003Z</time></trkpt><trkpt lat="45.6200338" lon="9.2792794"><ele>196.0</ele><time>2026-03-24T12:51:55.003Z</time></trkpt><trkpt lat="45.6201666" lon="9.2792868"><ele>196.0</ele><time>2026-03-24T12:51:57.003Z</time></trkpt><trkpt lat="45.6203257" lon="9.2792963"><ele>196.0</ele><time>2026-03-24T12:52:00.003Z</time></trkpt><trkpt lat="45.6204303" lon="9.2793574"><ele>196.0</ele><time>2026-03-24T12:52:02.003Z</time></trkpt><trkpt lat="45.6205345" lon="9.2793757"><ele>196.5</ele><time>2026-03-24T12:52:04.003Z</time></trkpt><trkpt lat="45.6206433" lon="9.2793822"><ele>197.0</ele><time>2026-03-24T12:52:06.003Z</time></trkpt><trkpt lat="45.620752" lon="9.279373"><ele>197.5</ele><time>2026-03-24T12:52:08.003Z</time></trkpt><trkpt lat="45.620881" lon="9.2793452"><ele>198.0</ele><time>2026-03-24T12:52:10.003Z</time></trkpt><trkpt lat="45.6209808" lon="9.2793144"><ele>198.0</ele><time>2026-03-24T12:52:12.003Z</time></trkpt><trkpt lat="45.6210827" lon="9.2793028"><ele>198.0</ele><time>2026-03-24T12:52:14.003Z</time></trkpt><trkpt lat="45.6212143" lon="9.2793082"><ele>198.0</ele><time>2026-03-24T12:52:17.003Z</time></trkpt><trkpt lat="45.6213062" lon="9.2793437"><ele>198.0</ele><time>2026-03-24T12:52:19.003Z</time></trkpt><trkpt lat="45.6214085" lon="9.2793837"><ele>198.0</ele><time>2026-03-24T12:52:21.003Z</time></trkpt><trkpt lat="45.6215033" lon="9.2793853"><ele>197.8</ele><time>2026-03-24T12:52:23.003Z</time></trkpt><trkpt lat="45.6216514" lon="9.2794071"><ele>197.60000000000002</ele><time>2026-03-24T12:52:26.003Z</time></trkpt><trkpt lat="45.621745" lon="9.2794363"><ele>197.39999999999998</ele><time>2026-03-24T12:52:28.003Z</time></trkpt><trkpt lat="45.6218043" lon="9.2794706"><ele>197.2</ele><time>2026-03-24T12:52:29.003Z</time></trkpt><trkpt lat="45.6218916" lon="9.2795091"><ele>197.0</ele><time>2026-03-24T12:52:31.003Z</time></trkpt><trkpt lat="45.621957" lon="9.2795476"><ele>196.39999999999998</ele><time>2026-03-24T12:52:33.003Z</time></trkpt><trkpt lat="45.6220354" lon="9.2795666"><ele>195.79999999999998</ele><time>2026-03-24T12:52:35.003Z</time></trkpt><trkpt lat="45.6221652" lon="9.2795719"><ele>195.2</ele><time>2026-03-24T12:52:38.003Z</time></trkpt><trkpt lat="45.6222384" lon="9.2795799"><ele>194.6</ele><time>2026-03-24T12:52:40.003Z</time></trkpt><trkpt lat="45.622338" lon="9.2795827"><ele>194.0</ele><time>2026-03-24T12:52:42.003Z</time></trkpt><trkpt lat="45.6224555" lon="9.2795838"><ele>194.0</ele><time>2026-03-24T12:52:44.003Z</time></trkpt><trkpt lat="45.6225579" lon="9.2795597"><ele>194.0</ele><time>2026-03-24T12:52:46.003Z</time></trkpt><trkpt lat="45.6226252" lon="9.2795432"><ele>194.0</ele><time>2026-03-24T12:52:48.003Z</time></trkpt><trkpt lat="45.6227552" lon="9.279521"><ele>194.0</ele><time>2026-03-24T12:52:50.003Z</time></trkpt><trkpt lat="45.6228809" lon="9.2794802"><ele>194.0</ele><time>2026-03-24T12:52:52.002Z</time></trkpt><trkpt lat="45.6229816" lon="9.2794474"><ele>194.0</ele><time>2026-03-24T12:52:54.003Z</time></trkpt><trkpt lat="45.6230724" lon="9.2794192"><ele>194.0</ele><time>2026-03-24T12:52:56.003Z</time></trkpt><trkpt lat="45.6231794" lon="9.2794064"><ele>194.0</ele><time>2026-03-24T12:52:58.003Z</time></trkpt><trkpt lat="45.6232787" lon="9.2793912"><ele>194.0</ele><time>2026-03-24T12:53:00.003Z</time></trkpt><trkpt lat="45.6233567" lon="9.2793602"><ele>194.0</ele><time>2026-03-24T12:53:02.003Z</time></trkpt><trkpt lat="45.6234345" lon="9.2793352"><ele>194.00000000000003</ele><time>2026-03-24T12:53:04.003Z</time></trkpt><trkpt lat="45.6235232" lon="9.2792953"><ele>194.0</ele><time>2026-03-24T12:53:06.003Z</time></trkpt><trkpt lat="45.6236093" lon="9.2792824"><ele>194.0</ele><time>2026-03-24T12:53:08.003Z</time></trkpt><trkpt lat="45.6237221" lon="9.2792893"><ele>194.0</ele><time>2026-03-24T12:53:10.003Z</time></trkpt><trkpt lat="45.6237986" lon="9.2792972"><ele>194.00000000000003</ele><time>2026-03-24T12:53:11.002Z</time></trkpt><trkpt lat="45.6238671" lon="9.2793004"><ele>194.0</ele><time>2026-03-24T12:53:12.003Z</time></trkpt><trkpt lat="45.6239443" lon="9.2792988"><ele>195.2</ele><time>2026-03-24T12:53:13.003Z</time></trkpt><trkpt lat="45.6240396" lon="9.2793056"><ele>196.39999999999998</ele><time>2026-03-24T12:53:15.003Z</time></trkpt><trkpt lat="45.6241399" lon="9.2793148"><ele>197.6</ele><time>2026-03-24T12:53:17.003Z</time></trkpt><trkpt lat="45.6242188" lon="9.2793376"><ele>198.8</ele><time>2026-03-24T12:53:19.003Z</time></trkpt><trkpt lat="45.6243172" lon="9.2793743"><ele>200.0</ele><time>2026-03-24T12:53:21.003Z</time></trkpt><trkpt lat="45.6244246" lon="9.2794418"><ele>199.83333333333334</ele><time>2026-03-24T12:53:23.003Z</time></trkpt><trkpt lat="45.6245195" lon="9.2794962"><ele>199.66666666666669</ele><time>2026-03-24T12:53:25.003Z</time></trkpt><trkpt lat="45.6246236" lon="9.2795658"><ele>199.5</ele><time>2026-03-24T12:53:27.003Z</time></trkpt><trkpt lat="45.6246833" lon="9.2796129"><ele>199.33333333333331</ele><time>2026-03-24T12:53:28.003Z</time></trkpt><trkpt lat="45.6247442" lon="9.2796729"><ele>199.16666666666666</ele><time>2026-03-24T12:53:29.003Z</time></trkpt><trkpt lat="45.6247977" lon="9.2797385"><ele>199.0</ele><time>2026-03-24T12:53:30.003Z</time></trkpt><trkpt lat="45.6248629" lon="9.279794"><ele>199.0</ele><time>2026-03-24T12:53:31.003Z</time></trkpt><trkpt lat="45.6249638" lon="9.2798681"><ele>199.0</ele><time>2026-03-24T12:53:33.003Z</time></trkpt><trkpt lat="45.6250462" lon="9.2799685"><ele>199.0</ele><time>2026-03-24T12:53:35.003Z</time></trkpt><trkpt lat="45.6251335" lon="9.2800682"><ele>199.0</ele><time>2026-03-24T12:53:37.003Z</time></trkpt><trkpt lat="45.6252382" lon="9.2801778"><ele>199.75</ele><time>2026-03-24T12:53:39.003Z</time></trkpt><trkpt lat="45.6253284" lon="9.2802831"><ele>200.5</ele><time>2026-03-24T12:53:41.003Z</time></trkpt><trkpt lat="45.6254225" lon="9.2803728"><ele>201.25</ele><time>2026-03-24T12:53:43.003Z</time></trkpt><trkpt lat="45.6255185" lon="9.2804643"><ele>202.0</ele><time>2026-03-24T12:53:45.003Z</time></trkpt><trkpt lat="45.6256127" lon="9.280556"><ele>201.0</ele><time>2026-03-24T12:53:47.003Z</time></trkpt><trkpt lat="45.6257179" lon="9.2806354"><ele>200.0</ele><time>2026-03-24T12:53:49.003Z</time></trkpt><trkpt lat="45.6257807" lon="9.2806737"><ele>199.0</ele><time>2026-03-24T12:53:50.003Z</time></trkpt><trkpt lat="45.6258818" lon="9.2806959"><ele>198.0</ele><time>2026-03-24T12:53:52.003Z</time></trkpt><trkpt lat="45.6259959" lon="9.2807141"><ele>197.0</ele><time>2026-03-24T12:53:54.003Z</time></trkpt><trkpt lat="45.6260998" lon="9.2807233"><ele>197.0</ele><time>2026-03-24T12:53:56.003Z</time></trkpt><trkpt lat="45.6262117" lon="9.2807014"><ele>197.0</ele><time>2026-03-24T12:53:58.003Z</time></trkpt><trkpt lat="45.6263032" lon="9.280687"><ele>197.0</ele><time>2026-03-24T12:54:00.003Z</time></trkpt><trkpt lat="45.626403" lon="9.2806618"><ele>197.0</ele><time>2026-03-24T12:54:02.002Z</time></trkpt><trkpt lat="45.626462" lon="9.2806111"><ele>197.0</ele><time>2026-03-24T12:54:03.003Z</time></trkpt><trkpt lat="45.6265668" lon="9.2805456"><ele>197.39999999999998</ele><time>2026-03-24T12:54:05.003Z</time></trkpt><trkpt lat="45.6266563" lon="9.2804416"><ele>197.79999999999998</ele><time>2026-03-24T12:54:07.003Z</time></trkpt><trkpt lat="45.6267515" lon="9.2803447"><ele>198.2</ele><time>2026-03-24T12:54:09.003Z</time></trkpt><trkpt lat="45.6268233" lon="9.2802438"><ele>198.6</ele><time>2026-03-24T12:54:11.002Z</time></trkpt><trkpt lat="45.6268947" lon="9.2801268"><ele>199.0</ele><time>2026-03-24T12:54:13.003Z</time></trkpt><trkpt lat="45.6269869" lon="9.2800176"><ele>199.0</ele><time>2026-03-24T12:54:15.002Z</time></trkpt><trkpt lat="45.6270698" lon="9.2799257"><ele>199.0</ele><time>2026-03-24T12:54:17.003Z</time></trkpt><trkpt lat="45.6271576" lon="9.2798468"><ele>199.0</ele><time>2026-03-24T12:54:19.003Z</time></trkpt><trkpt lat="45.6272159" lon="9.2798016"><ele>199.0</ele><time>2026-03-24T12:54:20.003Z</time></trkpt><trkpt lat="45.6272938" lon="9.2797198"><ele>199.0</ele><time>2026-03-24T12:54:22.003Z</time></trkpt><trkpt lat="45.6273668" lon="9.2796437"><ele>199.33333333333331</ele><time>2026-03-24T12:54:24.003Z</time></trkpt><trkpt lat="45.6274374" lon="9.2795892"><ele>199.66666666666666</ele><time>2026-03-24T12:54:26.003Z</time></trkpt><trkpt lat="45.6275183" lon="9.2795526"><ele>200.0</ele><time>2026-03-24T12:54:28.003Z</time></trkpt><trkpt lat="45.6275956" lon="9.2795383"><ele>200.33333333333331</ele><time>2026-03-24T12:54:30.003Z</time></trkpt><trkpt lat="45.6276725" lon="9.2795175"><ele>200.66666666666666</ele><time>2026-03-24T12:54:32.003Z</time></trkpt><trkpt lat="45.6277644" lon="9.2794961"><ele>201.0</ele><time>2026-03-24T12:54:34.003Z</time></trkpt><trkpt lat="45.6278644" lon="9.2794637"><ele>201.0</ele><time>2026-03-24T12:54:36.003Z</time></trkpt><trkpt lat="45.627968" lon="9.2794272"><ele>201.0</ele><time>2026-03-24T12:54:38.003Z</time></trkpt><trkpt lat="45.6280617" lon="9.2793943"><ele>201.0</ele><time>2026-03-24T12:54:40.003Z</time></trkpt><trkpt lat="45.6281394" lon="9.2793696"><ele>201.0</ele><time>2026-03-24T12:54:42.003Z</time></trkpt><trkpt lat="45.6282379" lon="9.2793312"><ele>201.0</ele><time>2026-03-24T12:54:44.002Z</time></trkpt><trkpt lat="45.628325" lon="9.2793413"><ele>201.0</ele><time>2026-03-24T12:54:45.003Z</time></trkpt><trkpt lat="45.6284246" lon="9.2793075"><ele>201.0</ele><time>2026-03-24T12:54:47.003Z</time></trkpt><trkpt lat="45.6285128" lon="9.2792801"><ele>201.0</ele><time>2026-03-24T12:54:49.003Z</time></trkpt><trkpt lat="45.6286145" lon="9.2792467"><ele>201.0</ele><time>2026-03-24T12:54:51.003Z</time></trkpt><trkpt lat="45.6287156" lon="9.2792322"><ele>201.0</ele><time>2026-03-24T12:54:53.003Z</time></trkpt><trkpt lat="45.6288194" lon="9.2792389"><ele>201.4</ele><time>2026-03-24T12:54:55.003Z</time></trkpt><trkpt lat="45.6289112" lon="9.2793043"><ele>201.8</ele><time>2026-03-24T12:54:57.003Z</time></trkpt><trkpt lat="45.6289661" lon="9.2793677"><ele>202.20000000000002</ele><time>2026-03-24T12:54:58.003Z</time></trkpt><trkpt lat="45.6290688" lon="9.2794597"><ele>202.60000000000002</ele><time>2026-03-24T12:55:00.003Z</time></trkpt><trkpt lat="45.6291181" lon="9.2795182"><ele>203.0</ele><time>2026-03-24T12:55:01.003Z</time></trkpt><trkpt lat="45.6291984" lon="9.2796441"><ele>202.2</ele><time>2026-03-24T12:55:03.003Z</time></trkpt><trkpt lat="45.6292639" lon="9.2797676"><ele>201.4</ele><time>2026-03-24T12:55:05.003Z</time></trkpt><trkpt lat="45.6293296" lon="9.2798993"><ele>200.6</ele><time>2026-03-24T12:55:07.003Z</time></trkpt><trkpt lat="45.6293651" lon="9.2800041"><ele>199.79999999999998</ele><time>2026-03-24T12:55:09.003Z</time></trkpt><trkpt lat="45.6294027" lon="9.2801125"><ele>199.0</ele><time>2026-03-24T12:55:11.003Z</time></trkpt><trkpt lat="45.629426" lon="9.2802677"><ele>199.0</ele><time>2026-03-24T12:55:13.003Z</time></trkpt><trkpt lat="45.6294575" lon="9.2804746"><ele>199.0</ele><time>2026-03-24T12:55:15.003Z</time></trkpt><trkpt lat="45.6294428" lon="9.2806273"><ele>199.0</ele><time>2026-03-24T12:55:17.003Z</time></trkpt><trkpt lat="45.6294181" lon="9.2807905"><ele>199.0</ele><time>2026-03-24T12:55:19.002Z</time></trkpt><trkpt lat="45.6293932" lon="9.2809315"><ele>199.0</ele><time>2026-03-24T12:55:21.003Z</time></trkpt><trkpt lat="45.6293786" lon="9.2810305"><ele>199.0</ele><time>2026-03-24T12:55:22.003Z</time></trkpt><trkpt lat="45.6293993" lon="9.2811804"><ele>199.0</ele><time>2026-03-24T12:55:24.002Z</time></trkpt><trkpt lat="45.6293761" lon="9.2812667"><ele>199.0</ele><time>2026-03-24T12:55:26.002Z</time></trkpt><trkpt lat="45.6293592" lon="9.2814265"><ele>199.0</ele><time>2026-03-24T12:55:28.003Z</time></trkpt><trkpt lat="45.6293747" lon="9.2815724"><ele>199.6</ele><time>2026-03-24T12:55:30.003Z</time></trkpt><trkpt lat="45.6293692" lon="9.2817443"><ele>200.2</ele><time>2026-03-24T12:55:32.003Z</time></trkpt><trkpt lat="45.6293724" lon="9.2818879"><ele>200.79999999999998</ele><time>2026-03-24T12:55:34.003Z</time></trkpt><trkpt lat="45.6293938" lon="9.2820508"><ele>201.39999999999998</ele><time>2026-03-24T12:55:36.003Z</time></trkpt><trkpt lat="45.6294412" lon="9.2821729"><ele>202.0</ele><time>2026-03-24T12:55:38.003Z</time></trkpt><trkpt lat="45.6294832" lon="9.2822709"><ele>200.57142857142856</ele><time>2026-03-24T12:55:40.002Z</time></trkpt><trkpt lat="45.6295416" lon="9.2823336"><ele>199.14285714285714</ele><time>2026-03-24T12:55:42.003Z</time></trkpt><trkpt lat="45.6296011" lon="9.2823722"><ele>197.71428571428572</ele><time>2026-03-24T12:55:45.003Z</time></trkpt><trkpt lat="45.6296511" lon="9.2824795"><ele>196.28571428571428</ele><time>2026-03-24T12:55:48.003Z</time></trkpt><trkpt lat="45.6297087" lon="9.2825213"><ele>194.85714285714286</ele><time>2026-03-24T12:55:50.003Z</time></trkpt><trkpt lat="45.6297713" lon="9.2825334"><ele>193.42857142857142</ele><time>2026-03-24T12:55:52.003Z</time></trkpt><trkpt lat="45.6298358" lon="9.2825613"><ele>192.0</ele><time>2026-03-24T12:55:54.002Z</time></trkpt><trkpt lat="45.6299007" lon="9.2826199"><ele>192.0</ele><time>2026-03-24T12:55:57.003Z</time></trkpt><trkpt lat="45.6299791" lon="9.2826551"><ele>192.0</ele><time>2026-03-24T12:56:10.003Z</time></trkpt><trkpt lat="45.6300303" lon="9.2827268"><ele>192.0</ele><time>2026-03-24T12:56:12.002Z</time></trkpt><trkpt lat="45.6300509" lon="9.2828345"><ele>192.0</ele><time>2026-03-24T12:56:14.002Z</time></trkpt><trkpt lat="45.6300681" lon="9.2829575"><ele>192.0</ele><time>2026-03-24T12:56:16.003Z</time></trkpt><trkpt lat="45.6300903" lon="9.2831014"><ele>192.0</ele><time>2026-03-24T12:56:18.003Z</time></trkpt><trkpt lat="45.6301015" lon="9.2832586"><ele>191.8</ele><time>2026-03-24T12:56:20.003Z</time></trkpt><trkpt lat="45.6301108" lon="9.283421"><ele>191.6</ele><time>2026-03-24T12:56:22.003Z</time></trkpt><trkpt lat="45.6301253" lon="9.2835691"><ele>191.4</ele><time>2026-03-24T12:56:24.003Z</time></trkpt><trkpt lat="45.6301478" lon="9.283711"><ele>191.20000000000002</ele><time>2026-03-24T12:56:26.003Z</time></trkpt><trkpt lat="45.6301758" lon="9.2838477"><ele>191.0</ele><time>2026-03-24T12:56:28.003Z</time></trkpt><trkpt lat="45.6301958" lon="9.2840008"><ele>191.0</ele><time>2026-03-24T12:56:30.003Z</time></trkpt><trkpt lat="45.6302216" lon="9.2841629"><ele>191.0</ele><time>2026-03-24T12:56:32.003Z</time></trkpt><trkpt lat="45.6302423" lon="9.2843276"><ele>191.0</ele><time>2026-03-24T12:56:34.003Z</time></trkpt><trkpt lat="45.6302664" lon="9.2844778"><ele>191.0</ele><time>2026-03-24T12:56:36.003Z</time></trkpt><trkpt lat="45.6302846" lon="9.2846313"><ele>191.60000000000002</ele><time>2026-03-24T12:56:38.003Z</time></trkpt><trkpt lat="45.6302964" lon="9.2847888"><ele>192.2</ele><time>2026-03-24T12:56:40.003Z</time></trkpt><trkpt lat="45.6303036" lon="9.2849541"><ele>192.8</ele><time>2026-03-24T12:56:42.003Z</time></trkpt><trkpt lat="45.6303041" lon="9.2851295"><ele>193.39999999999998</ele><time>2026-03-24T12:56:44.003Z</time></trkpt><trkpt lat="45.6303047" lon="9.2852207"><ele>194.0</ele><time>2026-03-24T12:56:45.003Z</time></trkpt><trkpt lat="45.6303019" lon="9.2853205"><ele>194.0</ele><time>2026-03-24T12:56:46.002Z</time></trkpt><trkpt lat="45.6302981" lon="9.2854138"><ele>194.0</ele><time>2026-03-24T12:56:47.003Z</time></trkpt><trkpt lat="45.6302945" lon="9.2855067"><ele>194.0</ele><time>2026-03-24T12:56:48.003Z</time></trkpt><trkpt lat="45.6302949" lon="9.285677"><ele>194.0</ele><time>2026-03-24T12:56:50.003Z</time></trkpt><trkpt lat="45.6302949" lon="9.2858437"><ele>194.0</ele><time>2026-03-24T12:56:52.003Z</time></trkpt><trkpt lat="45.6302916" lon="9.2860017"><ele>194.0</ele><time>2026-03-24T12:56:54.002Z</time></trkpt><trkpt lat="45.6302923" lon="9.2860927"><ele>194.0</ele><time>2026-03-24T12:56:55.003Z</time></trkpt><trkpt lat="45.630293" lon="9.2862008"><ele>194.0</ele><time>2026-03-24T12:56:56.002Z</time></trkpt><trkpt lat="45.6302888" lon="9.2863662"><ele>194.0</ele><time>2026-03-24T12:56:58.003Z</time></trkpt><trkpt lat="45.6302989" lon="9.2865508"><ele>194.0</ele><time>2026-03-24T12:57:00.003Z</time></trkpt><trkpt lat="45.6302987" lon="9.2867121"><ele>194.0</ele><time>2026-03-24T12:57:02.002Z</time></trkpt><trkpt lat="45.6302838" lon="9.286891"><ele>194.0</ele><time>2026-03-24T12:57:04.003Z</time></trkpt><trkpt lat="45.6302891" lon="9.2870621"><ele>194.0</ele><time>2026-03-24T12:57:06.003Z</time></trkpt><trkpt lat="45.6302887" lon="9.287228"><ele>194.0</ele><time>2026-03-24T12:57:08.003Z</time></trkpt><trkpt lat="45.6302904" lon="9.2873907"><ele>194.0</ele><time>2026-03-24T12:57:10.003Z</time></trkpt><trkpt lat="45.630303" lon="9.2875445"><ele>194.0</ele><time>2026-03-24T12:57:12.003Z</time></trkpt><trkpt lat="45.6303153" lon="9.2876355"><ele>194.0</ele><time>2026-03-24T12:57:13.003Z</time></trkpt><trkpt lat="45.6303379" lon="9.2877983"><ele>194.0</ele><time>2026-03-24T12:57:15.003Z</time></trkpt><trkpt lat="45.6303825" lon="9.2879706"><ele>194.0</ele><time>2026-03-24T12:57:17.003Z</time></trkpt><trkpt lat="45.6304328" lon="9.2880957"><ele>193.2</ele><time>2026-03-24T12:57:19.003Z</time></trkpt><trkpt lat="45.6304691" lon="9.2882269"><ele>192.39999999999998</ele><time>2026-03-24T12:57:21.003Z</time></trkpt><trkpt lat="45.6305032" lon="9.2883636"><ele>191.6</ele><time>2026-03-24T12:57:23.003Z</time></trkpt><trkpt lat="45.6305514" lon="9.2884813"><ele>190.8</ele><time>2026-03-24T12:57:25.003Z</time></trkpt><trkpt lat="45.6306225" lon="9.2885799"><ele>190.0</ele><time>2026-03-24T12:57:27.003Z</time></trkpt><trkpt lat="45.6306538" lon="9.2886999"><ele>190.0</ele><time>2026-03-24T12:57:29.003Z</time></trkpt><trkpt lat="45.6306318" lon="9.2888477"><ele>190.0</ele><time>2026-03-24T12:57:31.003Z</time></trkpt><trkpt lat="45.6306519" lon="9.2890175"><ele>190.0</ele><time>2026-03-24T12:57:33.003Z</time></trkpt><trkpt lat="45.630682" lon="9.289155"><ele>190.0</ele><time>2026-03-24T12:57:35.003Z</time></trkpt><trkpt lat="45.6307124" lon="9.2893111"><ele>190.0</ele><time>2026-03-24T12:57:37.003Z</time></trkpt><trkpt lat="45.630746" lon="9.2894596"><ele>190.0</ele><time>2026-03-24T12:57:39.003Z</time></trkpt><trkpt lat="45.6307782" lon="9.2896238"><ele>190.0</ele><time>2026-03-24T12:57:41.003Z</time></trkpt><trkpt lat="45.6307999" lon="9.289787"><ele>190.0</ele><time>2026-03-24T12:57:43.003Z</time></trkpt><trkpt lat="45.6308206" lon="9.2899482"><ele>190.0</ele><time>2026-03-24T12:57:45.003Z</time></trkpt><trkpt lat="45.6308511" lon="9.2901145"><ele>190.75</ele><time>2026-03-24T12:57:47.003Z</time></trkpt><trkpt lat="45.630875" lon="9.2902768"><ele>191.5</ele><time>2026-03-24T12:57:49.003Z</time></trkpt><trkpt lat="45.6308873" lon="9.2904385"><ele>192.25</ele><time>2026-03-24T12:57:51.003Z</time></trkpt><trkpt lat="45.6309141" lon="9.2906075"><ele>193.0</ele><time>2026-03-24T12:57:53.003Z</time></trkpt><trkpt lat="45.6309324" lon="9.2907742"><ele>193.0</ele><time>2026-03-24T12:57:55.002Z</time></trkpt><trkpt lat="45.6309578" lon="9.2909363"><ele>193.0</ele><time>2026-03-24T12:57:57.003Z</time></trkpt><trkpt lat="45.6309839" lon="9.2910981"><ele>193.0</ele><time>2026-03-24T12:57:59.002Z</time></trkpt><trkpt lat="45.6310057" lon="9.2912549"><ele>193.0</ele><time>2026-03-24T12:58:01.003Z</time></trkpt><trkpt lat="45.6310259" lon="9.2913947"><ele>193.0</ele><time>2026-03-24T12:58:03.003Z</time></trkpt><trkpt lat="45.6310877" lon="9.2914889"><ele>192.4</ele><time>2026-03-24T12:58:05.003Z</time></trkpt><trkpt lat="45.6311824" lon="9.2915004"><ele>191.8</ele><time>2026-03-24T12:58:07.003Z</time></trkpt><trkpt lat="45.6312893" lon="9.2915139"><ele>191.2</ele><time>2026-03-24T12:58:09.003Z</time></trkpt><trkpt lat="45.631397" lon="9.2915189"><ele>190.6</ele><time>2026-03-24T12:58:11.003Z</time></trkpt><trkpt lat="45.6315092" lon="9.2915305"><ele>190.0</ele><time>2026-03-24T12:58:13.003Z</time></trkpt><trkpt lat="45.6316156" lon="9.29154"><ele>190.0</ele><time>2026-03-24T12:58:15.002Z</time></trkpt><trkpt lat="45.631729" lon="9.2915613"><ele>190.0</ele><time>2026-03-24T12:58:17.003Z</time></trkpt><trkpt lat="45.6318078" lon="9.2915724"><ele>190.0</ele><time>2026-03-24T12:58:18.003Z</time></trkpt><trkpt lat="45.6318942" lon="9.2915846"><ele>190.0</ele><time>2026-03-24T12:58:20.002Z</time></trkpt><trkpt lat="45.6319559" lon="9.2916072"><ele>190.0</ele><time>2026-03-24T12:58:21.003Z</time></trkpt><trkpt lat="45.6320571" lon="9.29161"><ele>190.0</ele><time>2026-03-24T12:58:23.002Z</time></trkpt><trkpt lat="45.6321568" lon="9.2915984"><ele>190.2</ele><time>2026-03-24T12:58:25.003Z</time></trkpt><trkpt lat="45.6322221" lon="9.2916071"><ele>190.4</ele><time>2026-03-24T12:58:26.003Z</time></trkpt><trkpt lat="45.6323565" lon="9.2916336"><ele>190.60000000000002</ele><time>2026-03-24T12:58:28.003Z</time></trkpt><trkpt lat="45.6324599" lon="9.2916406"><ele>190.8</ele><time>2026-03-24T12:58:30.003Z</time></trkpt><trkpt lat="45.6325652" lon="9.2916545"><ele>191.0</ele><time>2026-03-24T12:58:32.003Z</time></trkpt><trkpt lat="45.6326668" lon="9.2916704"><ele>191.0</ele><time>2026-03-24T12:58:34.003Z</time></trkpt><trkpt lat="45.6327668" lon="9.2916841"><ele>191.0</ele><time>2026-03-24T12:58:36.003Z</time></trkpt><trkpt lat="45.6328615" lon="9.2917007"><ele>191.0</ele><time>2026-03-24T12:58:38.003Z</time></trkpt><trkpt lat="45.6329751" lon="9.2917277"><ele>191.0</ele><time>2026-03-24T12:58:40.003Z</time></trkpt><trkpt lat="45.6330822" lon="9.2917427"><ele>191.0</ele><time>2026-03-24T12:58:42.003Z</time></trkpt><trkpt lat="45.6331991" lon="9.2917781"><ele>191.60000000000002</ele><time>2026-03-24T12:58:44.003Z</time></trkpt><trkpt lat="45.6333129" lon="9.2917991"><ele>192.2</ele><time>2026-03-24T12:58:46.003Z</time></trkpt><trkpt lat="45.6334204" lon="9.2918111"><ele>192.8</ele><time>2026-03-24T12:58:48.003Z</time></trkpt><trkpt lat="45.6335229" lon="9.2918492"><ele>193.39999999999998</ele><time>2026-03-24T12:58:50.003Z</time></trkpt><trkpt lat="45.6336299" lon="9.2918995"><ele>194.0</ele><time>2026-03-24T12:58:52.002Z</time></trkpt><trkpt lat="45.6337245" lon="9.2919557"><ele>194.0</ele><time>2026-03-24T12:58:54.003Z</time></trkpt><trkpt lat="45.6338216" lon="9.2920381"><ele>194.0</ele><time>2026-03-24T12:58:56.003Z</time></trkpt><trkpt lat="45.6339124" lon="9.2921267"><ele>194.0</ele><time>2026-03-24T12:58:58.003Z</time></trkpt><trkpt lat="45.6339917" lon="9.2922049"><ele>194.0</ele><time>2026-03-24T12:59:00.002Z</time></trkpt><trkpt lat="45.6340796" lon="9.2923112"><ele>194.0</ele><time>2026-03-24T12:59:02.002Z</time></trkpt><trkpt lat="45.6341834" lon="9.2923813"><ele>194.2</ele><time>2026-03-24T12:59:04.003Z</time></trkpt><trkpt lat="45.6342807" lon="9.2924568"><ele>194.39999999999998</ele><time>2026-03-24T12:59:06.003Z</time></trkpt><trkpt lat="45.6343574" lon="9.2925249"><ele>194.6</ele><time>2026-03-24T12:59:08.003Z</time></trkpt><trkpt lat="45.6344567" lon="9.292591"><ele>194.8</ele><time>2026-03-24T12:59:10.003Z</time></trkpt><trkpt lat="45.6345429" lon="9.2926282"><ele>195.0</ele><time>2026-03-24T12:59:12.003Z</time></trkpt><trkpt lat="45.6346234" lon="9.2927306"><ele>194.4</ele><time>2026-03-24T12:59:14.003Z</time></trkpt><trkpt lat="45.6346753" lon="9.2928621"><ele>193.8</ele><time>2026-03-24T12:59:16.003Z</time></trkpt><trkpt lat="45.634728" lon="9.2930026"><ele>193.2</ele><time>2026-03-24T12:59:18.003Z</time></trkpt><trkpt lat="45.6347737" lon="9.2931139"><ele>192.6</ele><time>2026-03-24T12:59:19.003Z</time></trkpt><trkpt lat="45.6348141" lon="9.2932145"><ele>192.0</ele><time>2026-03-24T12:59:20.003Z</time></trkpt><trkpt lat="45.6348416" lon="9.293299"><ele>191.66666666666666</ele><time>2026-03-24T12:59:21.003Z</time></trkpt><trkpt lat="45.6348626" lon="9.2933918"><ele>191.33333333333334</ele><time>2026-03-24T12:59:22.003Z</time></trkpt><trkpt lat="45.6348945" lon="9.2934865"><ele>191.0</ele><time>2026-03-24T12:59:23.003Z</time></trkpt><trkpt lat="45.6349528" lon="9.2936369"><ele>190.66666666666669</ele><time>2026-03-24T12:59:25.003Z</time></trkpt><trkpt lat="45.6349791" lon="9.2937224"><ele>190.33333333333334</ele><time>2026-03-24T12:59:26.003Z</time></trkpt><trkpt lat="45.6350058" lon="9.293808"><ele>190.0</ele><time>2026-03-24T12:59:27.003Z</time></trkpt><trkpt lat="45.6350554" lon="9.2939543"><ele>189.6</ele><time>2026-03-24T12:59:29.003Z</time></trkpt><trkpt lat="45.6350855" lon="9.2940491"><ele>189.2</ele><time>2026-03-24T12:59:30.003Z</time></trkpt><trkpt lat="45.6351303" lon="9.2942001"><ele>188.8</ele><time>2026-03-24T12:59:32.003Z</time></trkpt><trkpt lat="45.6351695" lon="9.2943693"><ele>188.4</ele><time>2026-03-24T12:59:34.003Z</time></trkpt><trkpt lat="45.6352199" lon="9.2945106"><ele>188.0</ele><time>2026-03-24T12:59:36.003Z</time></trkpt><trkpt lat="45.6352433" lon="9.2945991"><ele>188.0</ele><time>2026-03-24T12:59:37.003Z</time></trkpt><trkpt lat="45.6352864" lon="9.2947615"><ele>188.0</ele><time>2026-03-24T12:59:39.003Z</time></trkpt><trkpt lat="45.635324" lon="9.2948965"><ele>188.0</ele><time>2026-03-24T12:59:41.003Z</time></trkpt><trkpt lat="45.6353309" lon="9.2950433"><ele>188.0</ele><time>2026-03-24T12:59:43.003Z</time></trkpt><trkpt lat="45.6353309" lon="9.2951814"><ele>188.0</ele><time>2026-03-24T12:59:45.002Z</time></trkpt><trkpt lat="45.635349" lon="9.2953001"><ele>188.16666666666666</ele><time>2026-03-24T12:59:47.003Z</time></trkpt><trkpt lat="45.6354188" lon="9.2953406"><ele>188.33333333333331</ele><time>2026-03-24T12:59:59.003Z</time></trkpt><trkpt lat="45.6354798" lon="9.2953168"><ele>188.5</ele><time>2026-03-24T13:00:01.003Z</time></trkpt><trkpt lat="45.6355493" lon="9.2952671"><ele>188.66666666666666</ele><time>2026-03-24T13:00:03.002Z</time></trkpt><trkpt lat="45.6356257" lon="9.29521"><ele>188.83333333333334</ele><time>2026-03-24T13:00:05.003Z</time></trkpt><trkpt lat="45.6357114" lon="9.2951354"><ele>189.0</ele><time>2026-03-24T13:00:07.003Z</time></trkpt><trkpt lat="45.635792" lon="9.2950535"><ele>189.0</ele><time>2026-03-24T13:00:09.003Z</time></trkpt><trkpt lat="45.6358727" lon="9.2949746"><ele>189.0</ele><time>2026-03-24T13:00:11.003Z</time></trkpt><trkpt lat="45.635962" lon="9.2948894"><ele>189.0</ele><time>2026-03-24T13:00:13.002Z</time></trkpt><trkpt lat="45.6360448" lon="9.2947982"><ele>189.0</ele><time>2026-03-24T13:00:15.003Z</time></trkpt><trkpt lat="45.6361313" lon="9.2947123"><ele>189.0</ele><time>2026-03-24T13:00:17.003Z</time></trkpt><trkpt lat="45.6362374" lon="9.2946206"><ele>189.0</ele><time>2026-03-24T13:00:19.003Z</time></trkpt><trkpt lat="45.6363261" lon="9.2945263"><ele>189.0</ele><time>2026-03-24T13:00:21.003Z</time></trkpt><trkpt lat="45.6364338" lon="9.2944372"><ele>189.0</ele><time>2026-03-24T13:00:23.002Z</time></trkpt><trkpt lat="45.6365156" lon="9.2943413"><ele>189.0</ele><time>2026-03-24T13:00:25.003Z</time></trkpt><trkpt lat="45.636606" lon="9.2942483"><ele>189.0</ele><time>2026-03-24T13:00:27.003Z</time></trkpt><trkpt lat="45.6367" lon="9.2941628"><ele>189.0</ele><time>2026-03-24T13:00:29.003Z</time></trkpt><trkpt lat="45.6367855" lon="9.2940649"><ele>189.0</ele><time>2026-03-24T13:00:31.003Z</time></trkpt><trkpt lat="45.6368728" lon="9.2939672"><ele>189.0</ele><time>2026-03-24T13:00:33.003Z</time></trkpt><trkpt lat="45.6369698" lon="9.2938707"><ele>188.39999999999998</ele><time>2026-03-24T13:00:35.003Z</time></trkpt><trkpt lat="45.6370582" lon="9.2937717"><ele>187.8</ele><time>2026-03-24T13:00:37.003Z</time></trkpt><trkpt lat="45.6371427" lon="9.2936714"><ele>187.2</ele><time>2026-03-24T13:00:39.003Z</time></trkpt><trkpt lat="45.6372344" lon="9.2935718"><ele>186.60000000000002</ele><time>2026-03-24T13:00:41.003Z</time></trkpt><trkpt lat="45.6373181" lon="9.2934764"><ele>186.0</ele><time>2026-03-24T13:00:43.003Z</time></trkpt><trkpt lat="45.6374152" lon="9.2933737"><ele>186.0</ele><time>2026-03-24T13:00:45.003Z</time></trkpt><trkpt lat="45.6375051" lon="9.2932702"><ele>186.0</ele><time>2026-03-24T13:00:47.003Z</time></trkpt><trkpt lat="45.6375905" lon="9.2931679"><ele>186.0</ele><time>2026-03-24T13:00:49.003Z</time></trkpt><trkpt lat="45.6376818" lon="9.2930628"><ele>186.0</ele><time>2026-03-24T13:00:51.002Z</time></trkpt><trkpt lat="45.6377737" lon="9.2929656"><ele>186.75</ele><time>2026-03-24T13:00:53.002Z</time></trkpt><trkpt lat="45.6378593" lon="9.2928652"><ele>187.5</ele><time>2026-03-24T13:00:55.003Z</time></trkpt><trkpt lat="45.637951" lon="9.292759"><ele>188.25</ele><time>2026-03-24T13:00:57.003Z</time></trkpt><trkpt lat="45.6380398" lon="9.292659"><ele>189.0</ele><time>2026-03-24T13:00:59.003Z</time></trkpt><trkpt lat="45.6381248" lon="9.2925612"><ele>189.0</ele><time>2026-03-24T13:01:01.003Z</time></trkpt><trkpt lat="45.6382171" lon="9.2924657"><ele>189.0</ele><time>2026-03-24T13:01:03.003Z</time></trkpt><trkpt lat="45.638284" lon="9.2923571"><ele>189.0</ele><time>2026-03-24T13:01:05.003Z</time></trkpt><trkpt lat="45.638317" lon="9.2922211"><ele>189.0</ele><time>2026-03-24T13:01:07.003Z</time></trkpt><trkpt lat="45.6382762" lon="9.292112"><ele>189.0</ele><time>2026-03-24T13:01:09.003Z</time></trkpt><trkpt lat="45.6382335" lon="9.2920012"><ele>189.33333333333334</ele><time>2026-03-24T13:01:11.003Z</time></trkpt><trkpt lat="45.6381834" lon="9.2918965"><ele>189.66666666666666</ele><time>2026-03-24T13:01:13.003Z</time></trkpt><trkpt lat="45.6381422" lon="9.2918049"><ele>190.0</ele><time>2026-03-24T13:01:15.003Z</time></trkpt><trkpt lat="45.6381127" lon="9.2917031"><ele>190.33333333333331</ele><time>2026-03-24T13:01:17.002Z</time></trkpt><trkpt lat="45.6381075" lon="9.2915806"><ele>190.66666666666666</ele><time>2026-03-24T13:01:19.003Z</time></trkpt><trkpt lat="45.6381931" lon="9.2914751"><ele>191.0</ele><time>2026-03-24T13:01:21.003Z</time></trkpt><trkpt lat="45.6382765" lon="9.2913721"><ele>190.8</ele><time>2026-03-24T13:01:23.003Z</time></trkpt><trkpt lat="45.6383556" lon="9.2912762"><ele>190.60000000000002</ele><time>2026-03-24T13:01:25.003Z</time></trkpt><trkpt lat="45.6384476" lon="9.2911911"><ele>190.4</ele><time>2026-03-24T13:01:27.003Z</time></trkpt><trkpt lat="45.6385317" lon="9.2911099"><ele>190.2</ele><time>2026-03-24T13:01:29.003Z</time></trkpt><trkpt lat="45.6386152" lon="9.2910296"><ele>190.0</ele><time>2026-03-24T13:01:31.003Z</time></trkpt><trkpt lat="45.638686" lon="9.2909376"><ele>190.0</ele><time>2026-03-24T13:01:33.002Z</time></trkpt><trkpt lat="45.6387692" lon="9.2908497"><ele>190.0</ele><time>2026-03-24T13:01:35.003Z</time></trkpt><trkpt lat="45.6388606" lon="9.2907978"><ele>190.0</ele><time>2026-03-24T13:01:37.003Z</time></trkpt><trkpt lat="45.6389471" lon="9.2907206"><ele>190.0</ele><time>2026-03-24T13:01:39.003Z</time></trkpt><trkpt lat="45.6390279" lon="9.2906446"><ele>190.0</ele><time>2026-03-24T13:01:41.003Z</time></trkpt><trkpt lat="45.6391187" lon="9.2905937"><ele>190.8</ele><time>2026-03-24T13:01:43.003Z</time></trkpt><trkpt lat="45.6392277" lon="9.290555"><ele>191.6</ele><time>2026-03-24T13:01:45.003Z</time></trkpt><trkpt lat="45.6393298" lon="9.2904992"><ele>192.39999999999998</ele><time>2026-03-24T13:01:47.003Z</time></trkpt><trkpt lat="45.639427" lon="9.2904566"><ele>193.2</ele><time>2026-03-24T13:01:49.003Z</time></trkpt><trkpt lat="45.6395224" lon="9.2904002"><ele>194.0</ele><time>2026-03-24T13:01:51.003Z</time></trkpt><trkpt lat="45.6396184" lon="9.2903743"><ele>194.00000000000003</ele><time>2026-03-24T13:01:53.003Z</time></trkpt><trkpt lat="45.6397145" lon="9.2903472"><ele>194.0</ele><time>2026-03-24T13:01:55.003Z</time></trkpt><trkpt lat="45.639806" lon="9.2903297"><ele>194.0</ele><time>2026-03-24T13:01:57.002Z</time></trkpt><trkpt lat="45.6399088" lon="9.2903168"><ele>194.0</ele><time>2026-03-24T13:01:59.003Z</time></trkpt><trkpt lat="45.6399718" lon="9.2903225"><ele>194.00000000000003</ele><time>2026-03-24T13:02:00.003Z</time></trkpt><trkpt lat="45.6400423" lon="9.2903507"><ele>194.0</ele><time>2026-03-24T13:02:01.003Z</time></trkpt><trkpt lat="45.6401307" lon="9.2904133"><ele>194.0</ele><time>2026-03-24T13:02:03.003Z</time></trkpt><trkpt lat="45.6401918" lon="9.2905043"><ele>194.0</ele><time>2026-03-24T13:02:05.003Z</time></trkpt><trkpt lat="45.6402415" lon="9.2905603"><ele>194.0</ele><time>2026-03-24T13:02:07.003Z</time></trkpt><trkpt lat="45.6403707" lon="9.2905579"><ele>194.0</ele><time>2026-03-24T13:02:10.003Z</time></trkpt><trkpt lat="45.6405426" lon="9.2904897"><ele>194.0</ele><time>2026-03-24T13:02:14.003Z</time></trkpt><trkpt lat="45.6406735" lon="9.2903814"><ele>194.0</ele><time>2026-03-24T13:02:16.003Z</time></trkpt><trkpt lat="45.6407366" lon="9.2903095"><ele>194.0</ele><time>2026-03-24T13:02:17.003Z</time></trkpt><trkpt lat="45.6407939" lon="9.2902502"><ele>194.0</ele><time>2026-03-24T13:02:18.003Z</time></trkpt><trkpt lat="45.6408717" lon="9.2901903"><ele>194.0</ele><time>2026-03-24T13:02:20.003Z</time></trkpt><trkpt lat="45.6409537" lon="9.2902086"><ele>194.00000000000003</ele><time>2026-03-24T13:02:22.003Z</time></trkpt><trkpt lat="45.641014" lon="9.2902788"><ele>194.0</ele><time>2026-03-24T13:02:24.002Z</time></trkpt><trkpt lat="45.6410866" lon="9.2903742"><ele>194.0</ele><time>2026-03-24T13:02:27.003Z</time></trkpt><trkpt lat="45.6411304" lon="9.2904614"><ele>194.0</ele><time>2026-03-24T13:02:29.003Z</time></trkpt><trkpt lat="45.6411949" lon="9.2905655"><ele>194.00000000000003</ele><time>2026-03-24T13:02:31.003Z</time></trkpt><trkpt lat="45.6412566" lon="9.2906521"><ele>194.0</ele><time>2026-03-24T13:02:33.003Z</time></trkpt><trkpt lat="45.6413444" lon="9.2907127"><ele>192.6</ele><time>2026-03-24T13:02:35.003Z</time></trkpt><trkpt lat="45.6414437" lon="9.2906824"><ele>191.2</ele><time>2026-03-24T13:02:37.003Z</time></trkpt><trkpt lat="45.6415089" lon="9.2906411"><ele>189.79999999999998</ele><time>2026-03-24T13:02:39.003Z</time></trkpt><trkpt lat="45.6416022" lon="9.2905889"><ele>188.39999999999998</ele><time>2026-03-24T13:02:41.002Z</time></trkpt><trkpt lat="45.6416988" lon="9.2905304"><ele>187.0</ele><time>2026-03-24T13:02:43.002Z</time></trkpt><trkpt lat="45.6417966" lon="9.2904507"><ele>186.8</ele><time>2026-03-24T13:02:45.003Z</time></trkpt><trkpt lat="45.6418954" lon="9.2903842"><ele>186.6</ele><time>2026-03-24T13:02:47.002Z</time></trkpt><trkpt lat="45.6419923" lon="9.2903376"><ele>186.4</ele><time>2026-03-24T13:02:49.003Z</time></trkpt><trkpt lat="45.6420881" lon="9.2902813"><ele>186.20000000000002</ele><time>2026-03-24T13:02:51.003Z</time></trkpt><trkpt lat="45.6421902" lon="9.290215"><ele>186.0</ele><time>2026-03-24T13:02:53.003Z</time></trkpt><trkpt lat="45.6422974" lon="9.2901537"><ele>185.8</ele><time>2026-03-24T13:02:55.003Z</time></trkpt><trkpt lat="45.6423568" lon="9.2901208"><ele>185.60000000000002</ele><time>2026-03-24T13:02:56.003Z</time></trkpt><trkpt lat="45.6424499" lon="9.290063"><ele>185.4</ele><time>2026-03-24T13:02:58.003Z</time></trkpt><trkpt lat="45.6425397" lon="9.2900001"><ele>185.2</ele><time>2026-03-24T13:03:00.003Z</time></trkpt><trkpt lat="45.6426172" lon="9.2899246"><ele>185.0</ele><time>2026-03-24T13:03:02.003Z</time></trkpt><trkpt lat="45.642687" lon="9.2898334"><ele>185.2</ele><time>2026-03-24T13:03:04.003Z</time></trkpt><trkpt lat="45.6427557" lon="9.2897446"><ele>185.4</ele><time>2026-03-24T13:03:06.003Z</time></trkpt><trkpt lat="45.6428202" lon="9.289657"><ele>185.60000000000002</ele><time>2026-03-24T13:03:08.002Z</time></trkpt><trkpt lat="45.6429043" lon="9.2895578"><ele>185.8</ele><time>2026-03-24T13:03:10.003Z</time></trkpt><trkpt lat="45.6429745" lon="9.2894484"><ele>186.0</ele><time>2026-03-24T13:03:12.003Z</time></trkpt><trkpt lat="45.6430325" lon="9.2893184"><ele>186.0</ele><time>2026-03-24T13:03:14.003Z</time></trkpt><trkpt lat="45.6430991" lon="9.2891648"><ele>186.0</ele><time>2026-03-24T13:03:16.003Z</time></trkpt><trkpt lat="45.6431344" lon="9.2890052"><ele>186.0</ele><time>2026-03-24T13:03:18.003Z</time></trkpt><trkpt lat="45.6430787" lon="9.2888571"><ele>186.0</ele><time>2026-03-24T13:03:20.003Z</time></trkpt><trkpt lat="45.6429927" lon="9.2887549"><ele>186.0</ele><time>2026-03-24T13:03:22.003Z</time></trkpt><trkpt lat="45.6430081" lon="9.2886451"><ele>186.0</ele><time>2026-03-24T13:03:24.003Z</time></trkpt><trkpt lat="45.6430526" lon="9.2885383"><ele>186.0</ele><time>2026-03-24T13:03:26.003Z</time></trkpt><trkpt lat="45.6431301" lon="9.288403"><ele>186.0</ele><time>2026-03-24T13:03:28.003Z</time></trkpt><trkpt lat="45.6432148" lon="9.2882892"><ele>186.0</ele><time>2026-03-24T13:03:30.003Z</time></trkpt><trkpt lat="45.6433114" lon="9.2882069"><ele>186.0</ele><time>2026-03-24T13:03:32.003Z</time></trkpt><trkpt lat="45.6434122" lon="9.2881289"><ele>186.0</ele><time>2026-03-24T13:03:34.003Z</time></trkpt><trkpt lat="45.6435295" lon="9.28807"><ele>186.0</ele><time>2026-03-24T13:03:36.003Z</time></trkpt><trkpt lat="45.6436395" lon="9.2880167"><ele>186.0</ele><time>2026-03-24T13:03:38.003Z</time></trkpt><trkpt lat="45.6437576" lon="9.2879686"><ele>187.75</ele><time>2026-03-24T13:03:40.003Z</time></trkpt><trkpt lat="45.6438823" lon="9.2879285"><ele>189.5</ele><time>2026-03-24T13:03:42.003Z</time></trkpt><trkpt lat="45.6439926" lon="9.2878956"><ele>191.25</ele><time>2026-03-24T13:03:44.003Z</time></trkpt><trkpt lat="45.6441098" lon="9.2878679"><ele>193.0</ele><time>2026-03-24T13:03:46.003Z</time></trkpt><trkpt lat="45.64423" lon="9.287835"><ele>193.0</ele><time>2026-03-24T13:03:48.003Z</time></trkpt><trkpt lat="45.644339" lon="9.2878135"><ele>193.0</ele><time>2026-03-24T13:03:50.003Z</time></trkpt><trkpt lat="45.6444656" lon="9.2878183"><ele>193.0</ele><time>2026-03-24T13:03:52.003Z</time></trkpt><trkpt lat="45.6445701" lon="9.2878128"><ele>193.0</ele><time>2026-03-24T13:03:54.003Z</time></trkpt><trkpt lat="45.64465" lon="9.2877884"><ele>193.0</ele><time>2026-03-24T13:03:56.003Z</time></trkpt><trkpt lat="45.6447162" lon="9.2877135"><ele>192.66666666666666</ele><time>2026-03-24T13:03:59.003Z</time></trkpt><trkpt lat="45.6447826" lon="9.2876722"><ele>192.33333333333331</ele><time>2026-03-24T13:04:01.003Z</time></trkpt><trkpt lat="45.6448471" lon="9.2876358"><ele>192.0</ele><time>2026-03-24T13:04:03.003Z</time></trkpt><trkpt lat="45.6449328" lon="9.2876398"><ele>191.66666666666666</ele><time>2026-03-24T13:04:06.003Z</time></trkpt><trkpt lat="45.6449977" lon="9.2877017"><ele>191.33333333333331</ele><time>2026-03-24T13:04:08.003Z</time></trkpt><trkpt lat="45.6450917" lon="9.2877968"><ele>191.0</ele><time>2026-03-24T13:04:10.003Z</time></trkpt><trkpt lat="45.6451951" lon="9.2878935"><ele>190.4</ele><time>2026-03-24T13:04:12.003Z</time></trkpt><trkpt lat="45.6453091" lon="9.2879833"><ele>189.8</ele><time>2026-03-24T13:04:14.003Z</time></trkpt><trkpt lat="45.6454162" lon="9.2880678"><ele>189.20000000000002</ele><time>2026-03-24T13:04:16.003Z</time></trkpt><trkpt lat="45.6455268" lon="9.2881332"><ele>188.60000000000002</ele><time>2026-03-24T13:04:18.003Z</time></trkpt><trkpt lat="45.6455862" lon="9.2881638"><ele>188.0</ele><time>2026-03-24T13:04:19.003Z</time></trkpt><trkpt lat="45.6456761" lon="9.2882045"><ele>188.0</ele><time>2026-03-24T13:04:21.003Z</time></trkpt><trkpt lat="45.6457761" lon="9.2882408"><ele>188.0</ele><time>2026-03-24T13:04:23.003Z</time></trkpt><trkpt lat="45.6458766" lon="9.2882845"><ele>188.0</ele><time>2026-03-24T13:04:25.003Z</time></trkpt><trkpt lat="45.645977" lon="9.2883423"><ele>188.0</ele><time>2026-03-24T13:04:27.003Z</time></trkpt><trkpt lat="45.6460776" lon="9.2883877"><ele>188.0</ele><time>2026-03-24T13:04:29.003Z</time></trkpt><trkpt lat="45.646177" lon="9.2884215"><ele>187.60000000000002</ele><time>2026-03-24T13:04:31.003Z</time></trkpt><trkpt lat="45.6462723" lon="9.2884458"><ele>187.20000000000002</ele><time>2026-03-24T13:04:33.002Z</time></trkpt><trkpt lat="45.6463774" lon="9.288454"><ele>186.8</ele><time>2026-03-24T13:04:35.003Z</time></trkpt><trkpt lat="45.6464905" lon="9.2884758"><ele>186.4</ele><time>2026-03-24T13:04:37.003Z</time></trkpt><trkpt lat="45.6465844" lon="9.2884938"><ele>186.0</ele><time>2026-03-24T13:04:39.003Z</time></trkpt><trkpt lat="45.6466876" lon="9.2884976"><ele>186.0</ele><time>2026-03-24T13:04:41.003Z</time></trkpt><trkpt lat="45.64678" lon="9.2884427"><ele>186.0</ele><time>2026-03-24T13:04:43.003Z</time></trkpt><trkpt lat="45.6468335" lon="9.2883455"><ele>186.0</ele><time>2026-03-24T13:04:45.003Z</time></trkpt><trkpt lat="45.6468745" lon="9.288229"><ele>186.0</ele><time>2026-03-24T13:04:47.003Z</time></trkpt><trkpt lat="45.6469217" lon="9.2881041"><ele>186.0</ele><time>2026-03-24T13:04:49.003Z</time></trkpt><trkpt lat="45.6469697" lon="9.2879697"><ele>187.20000000000002</ele><time>2026-03-24T13:04:51.003Z</time></trkpt><trkpt lat="45.647023" lon="9.2878409"><ele>188.4</ele><time>2026-03-24T13:04:53.003Z</time></trkpt><trkpt lat="45.6470825" lon="9.2877094"><ele>189.6</ele><time>2026-03-24T13:04:55.003Z</time></trkpt><trkpt lat="45.6471381" lon="9.2875834"><ele>190.8</ele><time>2026-03-24T13:04:57.003Z</time></trkpt><trkpt lat="45.6471896" lon="9.2874539"><ele>192.0</ele><time>2026-03-24T13:04:59.003Z</time></trkpt><trkpt lat="45.6472129" lon="9.2873076"><ele>192.2</ele><time>2026-03-24T13:05:01.003Z</time></trkpt><trkpt lat="45.647216" lon="9.287164"><ele>192.39999999999998</ele><time>2026-03-24T13:05:03.003Z</time></trkpt><trkpt lat="45.6471912" lon="9.2870281"><ele>192.60000000000002</ele><time>2026-03-24T13:05:05.003Z</time></trkpt><trkpt lat="45.6472058" lon="9.2868953"><ele>192.8</ele><time>2026-03-24T13:05:07.003Z</time></trkpt><trkpt lat="45.6472621" lon="9.2867604"><ele>193.0</ele><time>2026-03-24T13:05:09.003Z</time></trkpt><trkpt lat="45.6473244" lon="9.2866464"><ele>193.0</ele><time>2026-03-24T13:05:11.003Z</time></trkpt><trkpt lat="45.6473846" lon="9.2865338"><ele>193.0</ele><time>2026-03-24T13:05:13.003Z</time></trkpt><trkpt lat="45.6474036" lon="9.2863993"><ele>193.0</ele><time>2026-03-24T13:05:15.003Z</time></trkpt><trkpt lat="45.6473724" lon="9.2862506"><ele>193.0</ele><time>2026-03-24T13:05:17.003Z</time></trkpt><trkpt lat="45.6473192" lon="9.2861365"><ele>193.0</ele><time>2026-03-24T13:05:19.003Z</time></trkpt><trkpt lat="45.64728" lon="9.286045"><ele>193.14285714285717</ele><time>2026-03-24T13:05:21.003Z</time></trkpt><trkpt lat="45.6472755" lon="9.2859211"><ele>193.28571428571428</ele><time>2026-03-24T13:05:23.003Z</time></trkpt><trkpt lat="45.6472258" lon="9.285843"><ele>193.42857142857144</ele><time>2026-03-24T13:05:25.003Z</time></trkpt><trkpt lat="45.647184" lon="9.2857579"><ele>193.57142857142858</ele><time>2026-03-24T13:05:28.003Z</time></trkpt><trkpt lat="45.6472158" lon="9.2856623"><ele>193.71428571428572</ele><time>2026-03-24T13:05:31.003Z</time></trkpt><trkpt lat="45.6472538" lon="9.2855903"><ele>193.85714285714286</ele><time>2026-03-24T13:05:33.003Z</time></trkpt><trkpt lat="45.6472946" lon="9.2855174"><ele>194.0</ele><time>2026-03-24T13:05:35.003Z</time></trkpt><trkpt lat="45.6473482" lon="9.2854247"><ele>194.00000000000003</ele><time>2026-03-24T13:05:38.003Z</time></trkpt><trkpt lat="45.6474061" lon="9.2853611"><ele>194.0</ele><time>2026-03-24T13:06:18.003Z</time></trkpt><trkpt lat="45.6474694" lon="9.2852917"><ele>194.0</ele><time>2026-03-24T13:06:20.003Z</time></trkpt><trkpt lat="45.6475384" lon="9.2852425"><ele>194.0</ele><time>2026-03-24T13:06:22.003Z</time></trkpt><trkpt lat="45.647606" lon="9.2852091"><ele>194.00000000000003</ele><time>2026-03-24T13:06:24.003Z</time></trkpt><trkpt lat="45.6476884" lon="9.2851724"><ele>194.0</ele><time>2026-03-24T13:06:26.003Z</time></trkpt><trkpt lat="45.6477715" lon="9.285185"><ele>195.66666666666669</ele><time>2026-03-24T13:06:28.003Z</time></trkpt><trkpt lat="45.6478151" lon="9.2852626"><ele>197.33333333333334</ele><time>2026-03-24T13:06:30.003Z</time></trkpt><trkpt lat="45.6478297" lon="9.28537"><ele>199.0</ele><time>2026-03-24T13:06:32.003Z</time></trkpt><trkpt lat="45.6478437" lon="9.2854819"><ele>200.66666666666669</ele><time>2026-03-24T13:06:34.003Z</time></trkpt><trkpt lat="45.6478317" lon="9.2856126"><ele>202.33333333333334</ele><time>2026-03-24T13:06:36.003Z</time></trkpt><trkpt lat="45.6478278" lon="9.285748"><ele>204.0</ele><time>2026-03-24T13:06:38.003Z</time></trkpt><trkpt lat="45.6478256" lon="9.2858836"><ele>204.0</ele><time>2026-03-24T13:06:40.003Z</time></trkpt><trkpt lat="45.6478071" lon="9.2860399"><ele>204.0</ele><time>2026-03-24T13:06:42.003Z</time></trkpt><trkpt lat="45.6477934" lon="9.2861843"><ele>204.0</ele><time>2026-03-24T13:06:44.003Z</time></trkpt><trkpt lat="45.6477805" lon="9.2863376"><ele>204.0</ele><time>2026-03-24T13:06:46.003Z</time></trkpt><trkpt lat="45.647761" lon="9.2865048"><ele>204.0</ele><time>2026-03-24T13:06:48.003Z</time></trkpt><trkpt lat="45.6477497" lon="9.286673"><ele>201.79999999999998</ele><time>2026-03-24T13:06:50.003Z</time></trkpt><trkpt lat="45.6477305" lon="9.2868257"><ele>199.6</ele><time>2026-03-24T13:06:52.003Z</time></trkpt><trkpt lat="45.6477104" lon="9.2869772"><ele>197.4</ele><time>2026-03-24T13:06:54.003Z</time></trkpt><trkpt lat="45.6477003" lon="9.287128"><ele>195.2</ele><time>2026-03-24T13:06:56.003Z</time></trkpt><trkpt lat="45.6476933" lon="9.2872947"><ele>193.0</ele><time>2026-03-24T13:06:58.003Z</time></trkpt><trkpt lat="45.6476909" lon="9.2874383"><ele>192.83333333333331</ele><time>2026-03-24T13:07:00.003Z</time></trkpt><trkpt lat="45.6476869" lon="9.2875701"><ele>192.66666666666666</ele><time>2026-03-24T13:07:02.003Z</time></trkpt><trkpt lat="45.6477132" lon="9.2876811"><ele>192.5</ele><time>2026-03-24T13:07:14.003Z</time></trkpt><trkpt lat="45.6477358" lon="9.287772"><ele>192.33333333333331</ele><time>2026-03-24T13:07:16.003Z</time></trkpt><trkpt lat="45.6477698" lon="9.2878552"><ele>192.16666666666666</ele><time>2026-03-24T13:07:18.003Z</time></trkpt><trkpt lat="45.647806" lon="9.2879413"><ele>192.0</ele><time>2026-03-24T13:07:20.002Z</time></trkpt><trkpt lat="45.6478549" lon="9.2880229"><ele>195.33333333333334</ele><time>2026-03-24T13:07:22.003Z</time></trkpt><trkpt lat="45.6479138" lon="9.288089"><ele>198.66666666666669</ele><time>2026-03-24T13:07:24.003Z</time></trkpt><trkpt lat="45.6480036" lon="9.2881501"><ele>202.0</ele><time>2026-03-24T13:07:26.003Z</time></trkpt><trkpt lat="45.6480912" lon="9.2882043"><ele>205.33333333333334</ele><time>2026-03-24T13:07:28.002Z</time></trkpt><trkpt lat="45.6481771" lon="9.2882374"><ele>208.66666666666669</ele><time>2026-03-24T13:07:30.002Z</time></trkpt><trkpt lat="45.6482556" lon="9.2882652"><ele>212.0</ele><time>2026-03-24T13:07:32.003Z</time></trkpt><trkpt lat="45.6483286" lon="9.2882987"><ele>212.0</ele><time>2026-03-24T13:07:34.003Z</time></trkpt><trkpt lat="45.6483988" lon="9.2883482"><ele>212.0</ele><time>2026-03-24T13:07:36.003Z</time></trkpt><trkpt lat="45.6484736" lon="9.2884172"><ele>212.0</ele><time>2026-03-24T13:07:38.003Z</time></trkpt><trkpt lat="45.6486401" lon="9.2886343"><ele>212.0</ele><time>2026-03-24T13:07:40.003Z</time></trkpt><trkpt lat="45.6487473" lon="9.2886824"><ele>212.50000000000003</ele><time>2026-03-24T13:07:42.003Z</time></trkpt><trkpt lat="45.6488396" lon="9.2887306"><ele>213.0</ele><time>2026-03-24T13:07:44.002Z</time></trkpt><trkpt lat="45.6488798" lon="9.2888451"><ele>213.5</ele><time>2026-03-24T13:07:46.003Z</time></trkpt><trkpt lat="45.6489157" lon="9.2889362"><ele>214.0</ele><time>2026-03-24T13:07:48.003Z</time></trkpt><trkpt lat="45.648955" lon="9.2890986"><ele>214.50000000000003</ele><time>2026-03-24T13:07:50.003Z</time></trkpt><trkpt lat="45.6490192" lon="9.2890996"><ele>215.0</ele><time>2026-03-24T13:07:51.003Z</time></trkpt><trkpt lat="45.6490728" lon="9.2891941"><ele>215.00000000000003</ele><time>2026-03-24T13:07:53.003Z</time></trkpt><trkpt lat="45.6491435" lon="9.2892917"><ele>215.0</ele><time>2026-03-24T13:07:55.003Z</time></trkpt><trkpt lat="45.6492071" lon="9.2893481"><ele>215.0</ele><time>2026-03-24T13:07:57.003Z</time></trkpt><trkpt lat="45.6492642" lon="9.2894494"><ele>215.0</ele><time>2026-03-24T13:07:59.003Z</time></trkpt><trkpt lat="45.6493247" lon="9.2895093"><ele>215.00000000000003</ele><time>2026-03-24T13:08:01.003Z</time></trkpt><trkpt lat="45.6493845" lon="9.2895999"><ele>215.0</ele><time>2026-03-24T13:08:03.003Z</time></trkpt><trkpt lat="45.6494378" lon="9.289666"><ele>215.00000000000003</ele><time>2026-03-24T13:08:05.003Z</time></trkpt><trkpt lat="45.6494999" lon="9.2897469"><ele>215.0</ele><time>2026-03-24T13:08:07.003Z</time></trkpt><trkpt lat="45.649541" lon="9.289819"><ele>215.0</ele><time>2026-03-24T13:08:09.002Z</time></trkpt><trkpt lat="45.6495849" lon="9.2899055"><ele>215.0</ele><time>2026-03-24T13:08:11.003Z</time></trkpt><trkpt lat="45.6496183" lon="9.2900125"><ele>215.00000000000003</ele><time>2026-03-24T13:08:14.003Z</time></trkpt><trkpt lat="45.6497111" lon="9.2900985"><ele>215.0</ele><time>2026-03-24T13:08:16.003Z</time></trkpt><trkpt lat="45.6497818" lon="9.2901827"><ele>215.0</ele><time>2026-03-24T13:08:18.003Z</time></trkpt><trkpt lat="45.6498618" lon="9.2902776"><ele>215.0</ele><time>2026-03-24T13:08:20.003Z</time></trkpt><trkpt lat="45.6499229" lon="9.2903039"><ele>215.0</ele><time>2026-03-24T13:08:22.002Z</time></trkpt><trkpt lat="45.6499917" lon="9.2903653"><ele>215.0</ele><time>2026-03-24T13:08:26.003Z</time></trkpt><trkpt lat="45.650154" lon="9.2903654"><ele>215.0</ele><time>2026-03-24T13:08:35.003Z</time></trkpt><trkpt lat="45.6500922" lon="9.2903066"><ele>215.0</ele><time>2026-03-24T13:09:07.944Z</time></trkpt><trkpt lat="45.6501524" lon="9.2903351"><ele>215.0</ele><time>2026-03-24T13:09:16.984Z</time></trkpt><trkpt lat="45.6502256" lon="9.2903909"><ele>215.0</ele><time>2026-03-24T13:09:29.003Z</time></trkpt><trkpt lat="45.6502936" lon="9.2903638"><ele>215.0</ele><time>2026-03-24T13:10:37.019Z</time></trkpt><trkpt lat="45.6503297" lon="9.2902843"><ele>215.0</ele><time>2026-03-24T13:10:55.003Z</time></trkpt><trkpt lat="45.6503914" lon="9.2902576"><ele>215.0</ele><time>2026-03-24T13:11:01.003Z</time></trkpt><trkpt lat="45.6504508" lon="9.290317"><ele>215.0</ele><time>2026-03-24T13:11:07.003Z</time></trkpt><trkpt lat="45.6505209" lon="9.2902695"><ele>215.66666666666669</ele><time>2026-03-24T13:11:26.003Z</time></trkpt><trkpt lat="45.6505891" lon="9.2902403"><ele>216.33333333333334</ele><time>2026-03-24T13:11:31.003Z</time></trkpt><trkpt lat="45.6506343" lon="9.2901734"><ele>217.0</ele><time>2026-03-24T13:11:46.835Z</time></trkpt><trkpt lat="45.650733" lon="9.2901227"><ele>217.66666666666669</ele><time>2026-03-24T13:11:48.003Z</time></trkpt><trkpt lat="45.6508166" lon="9.2900989"><ele>218.33333333333334</ele><time>2026-03-24T13:11:52.003Z</time></trkpt><trkpt lat="45.6508723" lon="9.290049"><ele>219.0</ele><time>2026-03-24T13:11:56.003Z</time></trkpt><trkpt lat="45.6509362" lon="9.2899938"><ele>219.0</ele><time>2026-03-24T13:11:59.003Z</time></trkpt><trkpt lat="45.6510271" lon="9.289973"><ele>219.0</ele><time>2026-03-24T13:12:02.003Z</time></trkpt><trkpt lat="45.6510871" lon="9.2899175"><ele>219.0</ele><time>2026-03-24T13:12:05.003Z</time></trkpt><trkpt lat="45.6511455" lon="9.2899591"><ele>219.0</ele><time>2026-03-24T13:12:12.002Z</time></trkpt><trkpt lat="45.6511827" lon="9.2900366"><ele>219.0</ele><time>2026-03-24T13:12:16.003Z</time></trkpt><trkpt lat="45.651207" lon="9.2901274"><ele>219.0</ele><time>2026-03-24T13:12:21.003Z</time></trkpt><trkpt lat="45.6512707" lon="9.2901007"><ele>219.0</ele><time>2026-03-24T13:12:27.003Z</time></trkpt><trkpt lat="45.6513361" lon="9.2900789"><ele>218.0</ele><time>2026-03-24T13:12:34.003Z</time></trkpt><trkpt lat="45.6513992" lon="9.290046"><ele>217.0</ele><time>2026-03-24T13:12:40.958Z</time></trkpt><trkpt lat="45.6514639" lon="9.2900224"><ele>216.0</ele><time>2026-03-24T13:12:48.003Z</time></trkpt><trkpt lat="45.6515031" lon="9.2901152"><ele>215.0</ele><time>2026-03-24T13:12:54.003Z</time></trkpt><trkpt lat="45.6515285" lon="9.2902"><ele>214.0</ele><time>2026-03-24T13:12:59.013Z</time></trkpt><trkpt lat="45.6515604" lon="9.2902781"><ele>213.0</ele><time>2026-03-24T13:13:04.003Z</time></trkpt><trkpt lat="45.6516213" lon="9.2903022"><ele>212.0</ele><time>2026-03-24T13:13:11.003Z</time></trkpt><trkpt lat="45.6515655" lon="9.2902451"><ele>212.0</ele><time>2026-03-24T13:13:26.003Z</time></trkpt><trkpt lat="45.6515479" lon="9.2901528"><ele>212.0</ele><time>2026-03-24T13:13:32.003Z</time></trkpt><trkpt lat="45.6515116" lon="9.2900668"><ele>212.0</ele><time>2026-03-24T13:13:41.106Z</time></trkpt><trkpt lat="45.6515523" lon="9.2899956"><ele>212.0</ele><time>2026-03-24T13:13:47.833Z</time></trkpt><trkpt lat="45.6516244" lon="9.2899999"><ele>212.0</ele><time>2026-03-24T13:13:52.978Z</time></trkpt><trkpt lat="45.6516858" lon="9.2899678"><ele>212.0</ele><time>2026-03-24T13:13:58.999Z</time></trkpt><trkpt lat="45.6517493" lon="9.2899854"><ele>212.0</ele><time>2026-03-24T13:14:05.003Z</time></trkpt><trkpt lat="45.6518082" lon="9.2900267"><ele>212.0</ele><time>2026-03-24T13:14:12.003Z</time></trkpt><trkpt lat="45.6518526" lon="9.2899562"><ele>212.0</ele><time>2026-03-24T13:14:18.003Z</time></trkpt><trkpt lat="45.6519165" lon="9.2899308"><ele>212.0</ele><time>2026-03-24T13:14:25.003Z</time></trkpt><trkpt lat="45.6519658" lon="9.2898616"><ele>212.0</ele><time>2026-03-24T13:14:33.003Z</time></trkpt><trkpt lat="45.6520185" lon="9.2898049"><ele>212.0</ele><time>2026-03-24T13:14:42.002Z</time></trkpt><trkpt lat="45.6520718" lon="9.2897366"><ele>212.0</ele><time>2026-03-24T13:14:50.994Z</time></trkpt><trkpt lat="45.6521166" lon="9.289664"><ele>212.0</ele><time>2026-03-24T13:14:59.003Z</time></trkpt><trkpt lat="45.6521609" lon="9.2895999"><ele>213.85714285714286</ele><time>2026-03-24T13:15:07.003Z</time></trkpt><trkpt lat="45.652213" lon="9.2895353"><ele>215.71428571428572</ele><time>2026-03-24T13:15:16.003Z</time></trkpt><trkpt lat="45.6522487" lon="9.2894564"><ele>217.57142857142858</ele><time>2026-03-24T13:15:25.999Z</time></trkpt><trkpt lat="45.6522317" lon="9.2893641"><ele>219.42857142857144</ele><time>2026-03-24T13:15:36.003Z</time></trkpt><trkpt lat="45.6522406" lon="9.2892737"><ele>221.28571428571428</ele><time>2026-03-24T13:15:45.003Z</time></trkpt><trkpt lat="45.652251" lon="9.2891833"><ele>223.14285714285717</ele><time>2026-03-24T13:15:55.003Z</time></trkpt><trkpt lat="45.6522232" lon="9.2890937"><ele>225.00000000000003</ele><time>2026-03-24T13:16:05.003Z</time></trkpt><trkpt lat="45.6522515" lon="9.2890123"><ele>225.00000000000003</ele><time>2026-03-24T13:16:14.003Z</time></trkpt><trkpt lat="45.6523141" lon="9.2889664"><ele>225.0</ele><time>2026-03-24T13:16:25.932Z</time></trkpt><trkpt lat="45.6523536" lon="9.2888639"><ele>225.00000000000003</ele><time>2026-03-24T13:16:31.003Z</time></trkpt><trkpt lat="45.6523842" lon="9.2887734"><ele>225.00000000000003</ele><time>2026-03-24T13:16:35.003Z</time></trkpt><trkpt lat="45.6524348" lon="9.2886996"><ele>225.0</ele><time>2026-03-24T13:16:39.003Z</time></trkpt><trkpt lat="45.6524926" lon="9.288644"><ele>225.00000000000003</ele><time>2026-03-24T13:16:42.003Z</time></trkpt><trkpt lat="45.6525598" lon="9.2885986"><ele>225.00000000000003</ele><time>2026-03-24T13:16:45.003Z</time></trkpt><trkpt lat="45.6526089" lon="9.2885404"><ele>225.75</ele><time>2026-03-24T13:16:49.003Z</time></trkpt><trkpt lat="45.6526744" lon="9.2884466"><ele>226.5</ele><time>2026-03-24T13:16:53.003Z</time></trkpt><trkpt lat="45.6527412" lon="9.2883847"><ele>227.25</ele><time>2026-03-24T13:16:55.003Z</time></trkpt><trkpt lat="45.6529714" lon="9.288393"><ele>228.0</ele><time>2026-03-24T13:17:00.003Z</time></trkpt><trkpt lat="45.6530774" lon="9.2883956"><ele>228.28571428571428</ele><time>2026-03-24T13:17:02.002Z</time></trkpt><trkpt lat="45.6531469" lon="9.2884298"><ele>228.57142857142856</ele><time>2026-03-24T13:17:04.003Z</time></trkpt><trkpt lat="45.6532115" lon="9.2884653"><ele>228.85714285714283</ele><time>2026-03-24T13:17:06.003Z</time></trkpt><trkpt lat="45.6532765" lon="9.288503"><ele>229.1428571428571</ele><time>2026-03-24T13:17:08.002Z</time></trkpt><trkpt lat="45.6533445" lon="9.2885366"><ele>229.42857142857142</ele><time>2026-03-24T13:17:10.003Z</time></trkpt><trkpt lat="45.653411" lon="9.2885754"><ele>229.71428571428567</ele><time>2026-03-24T13:17:12.003Z</time></trkpt><trkpt lat="45.6534818" lon="9.2886174"><ele>229.99999999999997</ele><time>2026-03-24T13:17:14.003Z</time></trkpt><trkpt lat="45.65355" lon="9.2886374"><ele>230.00000000000003</ele><time>2026-03-24T13:17:16.003Z</time></trkpt><trkpt lat="45.6536172" lon="9.2886311"><ele>230.0</ele><time>2026-03-24T13:17:18.003Z</time></trkpt><trkpt lat="45.6536861" lon="9.2886044"><ele>230.0</ele><time>2026-03-24T13:17:20.003Z</time></trkpt><trkpt lat="45.6537466" lon="9.2885665"><ele>230.0</ele><time>2026-03-24T13:17:22.003Z</time></trkpt><trkpt lat="45.6538282" lon="9.2884949"><ele>230.00000000000003</ele><time>2026-03-24T13:17:25.003Z</time></trkpt><trkpt lat="45.6539107" lon="9.2884387"><ele>230.0</ele><time>2026-03-24T13:17:28.003Z</time></trkpt><trkpt lat="45.6539798" lon="9.2884123"><ele>230.66666666666669</ele><time>2026-03-24T13:17:30.003Z</time></trkpt><trkpt lat="45.6540514" lon="9.2884075"><ele>231.33333333333334</ele><time>2026-03-24T13:17:32.003Z</time></trkpt><trkpt lat="45.6541365" lon="9.2884308"><ele>232.0</ele><time>2026-03-24T13:17:34.003Z</time></trkpt><trkpt lat="45.6542177" lon="9.2884632"><ele>232.66666666666669</ele><time>2026-03-24T13:17:36.002Z</time></trkpt><trkpt lat="45.6542822" lon="9.288503"><ele>233.33333333333334</ele><time>2026-03-24T13:17:38.003Z</time></trkpt><trkpt lat="45.6543611" lon="9.2885659"><ele>234.0</ele><time>2026-03-24T13:17:40.003Z</time></trkpt><trkpt lat="45.6544403" lon="9.2886084"><ele>234.71428571428572</ele><time>2026-03-24T13:17:42.003Z</time></trkpt><trkpt lat="45.6545028" lon="9.2886437"><ele>235.42857142857144</ele><time>2026-03-24T13:17:44.003Z</time></trkpt><trkpt lat="45.6545603" lon="9.2886919"><ele>236.14285714285717</ele><time>2026-03-24T13:17:46.003Z</time></trkpt><trkpt lat="45.6546128" lon="9.2887499"><ele>236.8571428571429</ele><time>2026-03-24T13:17:48.003Z</time></trkpt><trkpt lat="45.6546706" lon="9.2888089"><ele>237.57142857142858</ele><time>2026-03-24T13:17:51.002Z</time></trkpt><trkpt lat="45.6547111" lon="9.2888844"><ele>238.28571428571433</ele><time>2026-03-24T13:17:54.003Z</time></trkpt><trkpt lat="45.6547222" lon="9.2889974"><ele>239.00000000000003</ele><time>2026-03-24T13:17:57.003Z</time></trkpt><trkpt lat="45.6546686" lon="9.2890544"><ele>239.28571428571433</ele><time>2026-03-24T13:18:00.003Z</time></trkpt><trkpt lat="45.654656" lon="9.289145"><ele>239.57142857142858</ele><time>2026-03-24T13:18:02.003Z</time></trkpt><trkpt lat="45.6546403" lon="9.2892676"><ele>239.8571428571429</ele><time>2026-03-24T13:18:04.003Z</time></trkpt><trkpt lat="45.6546163" lon="9.2893596"><ele>240.14285714285717</ele><time>2026-03-24T13:18:06.003Z</time></trkpt><trkpt lat="45.6545949" lon="9.2894483"><ele>240.42857142857144</ele><time>2026-03-24T13:18:08.002Z</time></trkpt><trkpt lat="45.6545706" lon="9.2895343"><ele>240.71428571428572</ele><time>2026-03-24T13:18:10.002Z</time></trkpt><trkpt lat="45.654551" lon="9.2896259"><ele>241.0</ele><time>2026-03-24T13:18:12.003Z</time></trkpt><trkpt lat="45.6545329" lon="9.2897197"><ele>240.83333333333331</ele><time>2026-03-24T13:18:14.003Z</time></trkpt><trkpt lat="45.654511" lon="9.2898179"><ele>240.66666666666666</ele><time>2026-03-24T13:18:16.003Z</time></trkpt><trkpt lat="45.6544853" lon="9.2899179"><ele>240.5</ele><time>2026-03-24T13:18:18.003Z</time></trkpt><trkpt lat="45.6544573" lon="9.2900164"><ele>240.33333333333331</ele><time>2026-03-24T13:18:20.001Z</time></trkpt><trkpt lat="45.6544201" lon="9.2901167"><ele>240.16666666666666</ele><time>2026-03-24T13:18:22.003Z</time></trkpt><trkpt lat="45.6543783" lon="9.2902181"><ele>240.0</ele><time>2026-03-24T13:18:24.003Z</time></trkpt><trkpt lat="45.654343" lon="9.2903723"><ele>239.4</ele><time>2026-03-24T13:18:26.003Z</time></trkpt><trkpt lat="45.654317" lon="9.2905148"><ele>238.8</ele><time>2026-03-24T13:18:28.003Z</time></trkpt><trkpt lat="45.6542973" lon="9.2906452"><ele>238.2</ele><time>2026-03-24T13:18:30.003Z</time></trkpt><trkpt lat="45.6542714" lon="9.2907808"><ele>237.6</ele><time>2026-03-24T13:18:32.003Z</time></trkpt><trkpt lat="45.654246" lon="9.2909233"><ele>237.0</ele><time>2026-03-24T13:18:34.003Z</time></trkpt><trkpt lat="45.654225" lon="9.2910718"><ele>236.66666666666666</ele><time>2026-03-24T13:18:36.003Z</time></trkpt><trkpt lat="45.6542155" lon="9.2911793"><ele>236.33333333333331</ele><time>2026-03-24T13:18:38.003Z</time></trkpt><trkpt lat="45.6542124" lon="9.2912895"><ele>236.0</ele><time>2026-03-24T13:18:40.003Z</time></trkpt><trkpt lat="45.6543045" lon="9.2913228"><ele>235.66666666666666</ele><time>2026-03-24T13:18:43.003Z</time></trkpt><trkpt lat="45.6543833" lon="9.2913493"><ele>235.33333333333331</ele><time>2026-03-24T13:18:45.003Z</time></trkpt><trkpt lat="45.6544611" lon="9.2913719"><ele>235.0</ele><time>2026-03-24T13:18:47.003Z</time></trkpt><trkpt lat="45.6545357" lon="9.2914013"><ele>235.42857142857142</ele><time>2026-03-24T13:18:49.003Z</time></trkpt><trkpt lat="45.654599" lon="9.2914237"><ele>235.85714285714283</ele><time>2026-03-24T13:18:51.003Z</time></trkpt><trkpt lat="45.6546621" lon="9.291443"><ele>236.28571428571428</ele><time>2026-03-24T13:18:53.003Z</time></trkpt><trkpt lat="45.6547249" lon="9.2914635"><ele>236.71428571428572</ele><time>2026-03-24T13:18:55.003Z</time></trkpt><trkpt lat="45.6548042" lon="9.2915004"><ele>237.14285714285714</ele><time>2026-03-24T13:18:58.003Z</time></trkpt><trkpt lat="45.654863" lon="9.2915348"><ele>237.57142857142856</ele><time>2026-03-24T13:19:01.003Z</time></trkpt><trkpt lat="45.6549454" lon="9.2915378"><ele>238.0</ele><time>2026-03-24T13:19:05.003Z</time></trkpt><trkpt lat="45.6550082" lon="9.291575"><ele>237.99999999999997</ele><time>2026-03-24T13:19:07.003Z</time></trkpt><trkpt lat="45.6550454" lon="9.2916675"><ele>238.0</ele><time>2026-03-24T13:19:09.003Z</time></trkpt><trkpt lat="45.6550431" lon="9.2917725"><ele>238.0</ele><time>2026-03-24T13:19:11.003Z</time></trkpt><trkpt lat="45.6550361" lon="9.2918735"><ele>238.0</ele><time>2026-03-24T13:19:13.003Z</time></trkpt><trkpt lat="45.6550266" lon="9.2919833"><ele>237.99999999999997</ele><time>2026-03-24T13:19:15.003Z</time></trkpt><trkpt lat="45.6550204" lon="9.2920848"><ele>238.0</ele><time>2026-03-24T13:19:17.003Z</time></trkpt><trkpt lat="45.6550149" lon="9.2922037"><ele>237.99999999999997</ele><time>2026-03-24T13:19:19.003Z</time></trkpt><trkpt lat="45.6549971" lon="9.2923095"><ele>238.0</ele><time>2026-03-24T13:19:21.003Z</time></trkpt><trkpt lat="45.6549855" lon="9.2924337"><ele>238.0</ele><time>2026-03-24T13:19:23.003Z</time></trkpt><trkpt lat="45.6549784" lon="9.2925624"><ele>238.0</ele><time>2026-03-24T13:19:25.003Z</time></trkpt><trkpt lat="45.6549773" lon="9.2926984"><ele>237.99999999999997</ele><time>2026-03-24T13:19:27.003Z</time></trkpt><trkpt lat="45.6549716" lon="9.2928281"><ele>238.0</ele><time>2026-03-24T13:19:29.003Z</time></trkpt><trkpt lat="45.6549901" lon="9.2929408"><ele>238.0</ele><time>2026-03-24T13:19:31.003Z</time></trkpt><trkpt lat="45.6550274" lon="9.293018"><ele>238.0</ele><time>2026-03-24T13:19:33.003Z</time></trkpt><trkpt lat="45.655027" lon="9.2932635"><ele>238.0</ele><time>2026-03-24T13:19:34.003Z</time></trkpt><trkpt lat="45.6551029" lon="9.2932976"><ele>238.0</ele><time>2026-03-24T13:19:37.003Z</time></trkpt><trkpt lat="45.655178" lon="9.2933286"><ele>238.0</ele><time>2026-03-24T13:19:40.003Z</time></trkpt><trkpt lat="45.6552497" lon="9.2933619"><ele>238.66666666666666</ele><time>2026-03-24T13:19:43.003Z</time></trkpt><trkpt lat="45.6553273" lon="9.2934031"><ele>239.33333333333331</ele><time>2026-03-24T13:19:46.002Z</time></trkpt><trkpt lat="45.6554108" lon="9.2934419"><ele>240.0</ele><time>2026-03-24T13:19:49.003Z</time></trkpt><trkpt lat="45.6555022" lon="9.2934675"><ele>240.66666666666669</ele><time>2026-03-24T13:19:52.002Z</time></trkpt><trkpt lat="45.6555654" lon="9.2934829"><ele>241.33333333333334</ele><time>2026-03-24T13:19:54.003Z</time></trkpt><trkpt lat="45.6556522" lon="9.2935036"><ele>242.0</ele><time>2026-03-24T13:19:57.003Z</time></trkpt><trkpt lat="45.6557453" lon="9.2935271"><ele>242.00000000000003</ele><time>2026-03-24T13:20:00.003Z</time></trkpt><trkpt lat="45.6558073" lon="9.2935456"><ele>242.0</ele><time>2026-03-24T13:20:02.003Z</time></trkpt><trkpt lat="45.6558963" lon="9.2935791"><ele>242.0</ele><time>2026-03-24T13:20:05.003Z</time></trkpt><trkpt lat="45.6559612" lon="9.2935919"><ele>242.0</ele><time>2026-03-24T13:20:07.003Z</time></trkpt><trkpt lat="45.6560516" lon="9.293607"><ele>242.00000000000003</ele><time>2026-03-24T13:20:10.003Z</time></trkpt><trkpt lat="45.6561389" lon="9.2936145"><ele>242.0</ele><time>2026-03-24T13:20:13.003Z</time></trkpt><trkpt lat="45.6562159" lon="9.29362"><ele>242.7142857142857</ele><time>2026-03-24T13:20:16.003Z</time></trkpt><trkpt lat="45.6562799" lon="9.2936289"><ele>243.4285714285714</ele><time>2026-03-24T13:20:18.003Z</time></trkpt><trkpt lat="45.6563514" lon="9.2936333"><ele>244.14285714285714</ele><time>2026-03-24T13:20:20.003Z</time></trkpt><trkpt lat="45.6564264" lon="9.2936416"><ele>244.85714285714283</ele><time>2026-03-24T13:20:22.003Z</time></trkpt><trkpt lat="45.6564932" lon="9.29365"><ele>245.57142857142856</ele><time>2026-03-24T13:20:24.003Z</time></trkpt><trkpt lat="45.6565676" lon="9.2936535"><ele>246.28571428571428</ele><time>2026-03-24T13:20:26.003Z</time></trkpt><trkpt lat="45.6566397" lon="9.2936588"><ele>247.0</ele><time>2026-03-24T13:20:28.003Z</time></trkpt><trkpt lat="45.6567153" lon="9.2936727"><ele>247.0</ele><time>2026-03-24T13:20:30.003Z</time></trkpt><trkpt lat="45.6567886" lon="9.2936852"><ele>247.0</ele><time>2026-03-24T13:20:32Z</time></trkpt><trkpt lat="45.6568568" lon="9.2936992"><ele>247.0</ele><time>2026-03-24T13:20:34.003Z</time></trkpt><trkpt lat="45.6569204" lon="9.293716"><ele>247.0</ele><time>2026-03-24T13:20:36.003Z</time></trkpt><trkpt lat="45.656986" lon="9.2937351"><ele>247.0</ele><time>2026-03-24T13:20:38.003Z</time></trkpt><trkpt lat="45.657055" lon="9.2937582"><ele>247.0</ele><time>2026-03-24T13:20:40.003Z</time></trkpt><trkpt lat="45.6571192" lon="9.2937762"><ele>247.0</ele><time>2026-03-24T13:20:42.003Z</time></trkpt><trkpt lat="45.6572099" lon="9.2938011"><ele>247.83333333333331</ele><time>2026-03-24T13:20:45.003Z</time></trkpt><trkpt lat="45.6572876" lon="9.2938181"><ele>248.66666666666666</ele><time>2026-03-24T13:20:48.003Z</time></trkpt><trkpt lat="45.657302" lon="9.293695"><ele>249.5</ele><time>2026-03-24T13:20:52.002Z</time></trkpt><trkpt lat="45.6572942" lon="9.2935634"><ele>250.33333333333331</ele><time>2026-03-24T13:20:55.003Z</time></trkpt><trkpt lat="45.6573047" lon="9.2934631"><ele>251.16666666666666</ele><time>2026-03-24T13:20:57.003Z</time></trkpt><trkpt lat="45.6573214" lon="9.2933551"><ele>252.0</ele><time>2026-03-24T13:20:59.003Z</time></trkpt><trkpt lat="45.6573376" lon="9.2932409"><ele>252.0</ele><time>2026-03-24T13:21:01.003Z</time></trkpt><trkpt lat="45.6573546" lon="9.2931232"><ele>252.0</ele><time>2026-03-24T13:21:03.003Z</time></trkpt><trkpt lat="45.6573744" lon="9.2930125"><ele>252.0</ele><time>2026-03-24T13:21:05.003Z</time></trkpt><trkpt lat="45.6573955" lon="9.2928825"><ele>252.0</ele><time>2026-03-24T13:21:07.003Z</time></trkpt><trkpt lat="45.6574153" lon="9.2927513"><ele>252.0</ele><time>2026-03-24T13:21:09.003Z</time></trkpt><trkpt lat="45.6574317" lon="9.2926111"><ele>252.0</ele><time>2026-03-24T13:21:11.003Z</time></trkpt><trkpt lat="45.6574473" lon="9.2924621"><ele>252.0</ele><time>2026-03-24T13:21:13.003Z</time></trkpt><trkpt lat="45.6574659" lon="9.2923254"><ele>252.0</ele><time>2026-03-24T13:21:15.003Z</time></trkpt><trkpt lat="45.6575046" lon="9.2922036"><ele>252.0</ele><time>2026-03-24T13:21:17.003Z</time></trkpt><trkpt lat="45.6575742" lon="9.2921312"><ele>252.0</ele><time>2026-03-24T13:21:19.002Z</time></trkpt><trkpt lat="45.657672" lon="9.292151"><ele>252.16666666666666</ele><time>2026-03-24T13:21:21.003Z</time></trkpt><trkpt lat="45.6577714" lon="9.2921595"><ele>252.33333333333331</ele><time>2026-03-24T13:21:23.002Z</time></trkpt><trkpt lat="45.6578648" lon="9.2921552"><ele>252.5</ele><time>2026-03-24T13:21:25.003Z</time></trkpt><trkpt lat="45.6579448" lon="9.2921471"><ele>252.66666666666666</ele><time>2026-03-24T13:21:27.002Z</time></trkpt><trkpt lat="45.6580111" lon="9.2921167"><ele>252.83333333333331</ele><time>2026-03-24T13:21:29.003Z</time></trkpt><trkpt lat="45.6580824" lon="9.292071"><ele>253.0</ele><time>2026-03-24T13:21:31.003Z</time></trkpt><trkpt lat="45.6581959" lon="9.2920745"><ele>252.8</ele><time>2026-03-24T13:21:33.002Z</time></trkpt><trkpt lat="45.6582889" lon="9.2920918"><ele>252.60000000000002</ele><time>2026-03-24T13:21:35.003Z</time></trkpt><trkpt lat="45.6583871" lon="9.2920937"><ele>252.39999999999998</ele><time>2026-03-24T13:21:37.003Z</time></trkpt><trkpt lat="45.6584791" lon="9.2921196"><ele>252.2</ele><time>2026-03-24T13:21:39.003Z</time></trkpt><trkpt lat="45.6585577" lon="9.292151"><ele>252.0</ele><time>2026-03-24T13:21:41.003Z</time></trkpt><trkpt lat="45.6588235" lon="9.2921711"><ele>252.0</ele><time>2026-03-24T13:21:47.003Z</time></trkpt><trkpt lat="45.6589044" lon="9.2921699"><ele>252.0</ele><time>2026-03-24T13:21:49.003Z</time></trkpt><trkpt lat="45.6589933" lon="9.2921685"><ele>252.0</ele><time>2026-03-24T13:21:51.003Z</time></trkpt><trkpt lat="45.6590814" lon="9.2921732"><ele>252.0</ele><time>2026-03-24T13:21:53.003Z</time></trkpt><trkpt lat="45.6591909" lon="9.2921864"><ele>252.0</ele><time>2026-03-24T13:21:55.003Z</time></trkpt><trkpt lat="45.6592721" lon="9.2921807"><ele>252.0</ele><time>2026-03-24T13:21:57.003Z</time></trkpt><trkpt lat="45.6593692" lon="9.2921724"><ele>252.0</ele><time>2026-03-24T13:21:59.003Z</time></trkpt><trkpt lat="45.6594685" lon="9.2921878"><ele>252.0</ele><time>2026-03-24T13:22:01.003Z</time></trkpt><trkpt lat="45.6595648" lon="9.292269"><ele>252.0</ele><time>2026-03-24T13:22:03.003Z</time></trkpt><trkpt lat="45.6596635" lon="9.2923505"><ele>252.0</ele><time>2026-03-24T13:22:05.003Z</time></trkpt><trkpt lat="45.6597649" lon="9.2924098"><ele>252.0</ele><time>2026-03-24T13:22:07.002Z</time></trkpt><trkpt lat="45.6598304" lon="9.2924283"><ele>251.8</ele><time>2026-03-24T13:22:08.003Z</time></trkpt><trkpt lat="45.6598973" lon="9.2924509"><ele>251.6</ele><time>2026-03-24T13:22:09.002Z</time></trkpt><trkpt lat="45.6600112" lon="9.2924654"><ele>251.40000000000003</ele><time>2026-03-24T13:22:11.003Z</time></trkpt><trkpt lat="45.6601188" lon="9.2924749"><ele>251.20000000000002</ele><time>2026-03-24T13:22:13.003Z</time></trkpt><trkpt lat="45.6602272" lon="9.2924798"><ele>251.0</ele><time>2026-03-24T13:22:15.003Z</time></trkpt><trkpt lat="45.660338" lon="9.2924976"><ele>251.0</ele><time>2026-03-24T13:22:17.003Z</time></trkpt><trkpt lat="45.6604462" lon="9.292498"><ele>251.00000000000003</ele><time>2026-03-24T13:22:19.003Z</time></trkpt><trkpt lat="45.6605477" lon="9.292498"><ele>251.00000000000003</ele><time>2026-03-24T13:22:21.003Z</time></trkpt><trkpt lat="45.6606564" lon="9.2925009"><ele>251.0</ele><time>2026-03-24T13:22:23.002Z</time></trkpt><trkpt lat="45.6607726" lon="9.292498"><ele>251.0</ele><time>2026-03-24T13:22:25.003Z</time></trkpt><trkpt lat="45.6608838" lon="9.2925065"><ele>251.0</ele><time>2026-03-24T13:22:27.003Z</time></trkpt><trkpt lat="45.6609849" lon="9.2925229"><ele>251.00000000000003</ele><time>2026-03-24T13:22:29.002Z</time></trkpt><trkpt lat="45.6610705" lon="9.2925196"><ele>251.00000000000003</ele><time>2026-03-24T13:22:31.003Z</time></trkpt><trkpt lat="45.6611488" lon="9.292548"><ele>251.0</ele><time>2026-03-24T13:22:33.003Z</time></trkpt><trkpt lat="45.6612051" lon="9.2926651"><ele>251.0</ele><time>2026-03-24T13:22:35.002Z</time></trkpt><trkpt lat="45.661249" lon="9.2928123"><ele>250.8</ele><time>2026-03-24T13:22:37.002Z</time></trkpt><trkpt lat="45.6612849" lon="9.292958"><ele>250.60000000000002</ele><time>2026-03-24T13:22:39.003Z</time></trkpt><trkpt lat="45.6613222" lon="9.2931089"><ele>250.4</ele><time>2026-03-24T13:22:41.003Z</time></trkpt><trkpt lat="45.6613646" lon="9.293256"><ele>250.2</ele><time>2026-03-24T13:22:43.003Z</time></trkpt><trkpt lat="45.6613832" lon="9.2934067"><ele>250.0</ele><time>2026-03-24T13:22:45.003Z</time></trkpt><trkpt lat="45.6613924" lon="9.2935574"><ele>249.99999999999997</ele><time>2026-03-24T13:22:47.003Z</time></trkpt><trkpt lat="45.6614061" lon="9.2937205"><ele>250.0</ele><time>2026-03-24T13:22:49.002Z</time></trkpt><trkpt lat="45.6614093" lon="9.2938654"><ele>250.0</ele><time>2026-03-24T13:22:51.003Z</time></trkpt><trkpt lat="45.6614032" lon="9.293969"><ele>250.0</ele><time>2026-03-24T13:22:52.002Z</time></trkpt><trkpt lat="45.6613918" lon="9.2940696"><ele>249.99999999999997</ele><time>2026-03-24T13:22:53.003Z</time></trkpt><trkpt lat="45.6613801" lon="9.294172"><ele>250.0</ele><time>2026-03-24T13:22:54.003Z</time></trkpt><trkpt lat="45.6613623" lon="9.2943462"><ele>250.0</ele><time>2026-03-24T13:22:56.003Z</time></trkpt><trkpt lat="45.6613591" lon="9.2944463"><ele>250.0</ele><time>2026-03-24T13:22:57.003Z</time></trkpt><trkpt lat="45.6613653" lon="9.2946208"><ele>250.0</ele><time>2026-03-24T13:22:59.003Z</time></trkpt><trkpt lat="45.6613618" lon="9.2947627"><ele>250.0</ele><time>2026-03-24T13:23:01.002Z</time></trkpt><trkpt lat="45.6613556" lon="9.294939"><ele>250.0</ele><time>2026-03-24T13:23:03.003Z</time></trkpt><trkpt lat="45.6613699" lon="9.295091"><ele>249.99999999999997</ele><time>2026-03-24T13:23:05.003Z</time></trkpt><trkpt lat="45.6613775" lon="9.2952376"><ele>250.0</ele><time>2026-03-24T13:23:07.003Z</time></trkpt><trkpt lat="45.6613814" lon="9.2953804"><ele>250.0</ele><time>2026-03-24T13:23:09.003Z</time></trkpt><trkpt lat="45.6613888" lon="9.2955028"><ele>250.0</ele><time>2026-03-24T13:23:11.003Z</time></trkpt><trkpt lat="45.6614059" lon="9.2956139"><ele>249.99999999999997</ele><time>2026-03-24T13:23:13.003Z</time></trkpt><trkpt lat="45.6614571" lon="9.2956842"><ele>250.0</ele><time>2026-03-24T13:23:15.003Z</time></trkpt><trkpt lat="45.6615333" lon="9.295721"><ele>249.99999999999997</ele><time>2026-03-24T13:23:17.002Z</time></trkpt><trkpt lat="45.661596" lon="9.295732"><ele>250.0</ele><time>2026-03-24T13:23:19.003Z</time></trkpt><trkpt lat="45.6616879" lon="9.2957425"><ele>250.0</ele><time>2026-03-24T13:23:21.003Z</time></trkpt><trkpt lat="45.6617845" lon="9.2957474"><ele>250.0</ele><time>2026-03-24T13:23:23.003Z</time></trkpt><trkpt lat="45.6618653" lon="9.2957452"><ele>249.99999999999997</ele><time>2026-03-24T13:23:25.003Z</time></trkpt><trkpt lat="45.6619592" lon="9.2957538"><ele>250.0</ele><time>2026-03-24T13:23:27.003Z</time></trkpt><trkpt lat="45.6620249" lon="9.2958134"><ele>249.8</ele><time>2026-03-24T13:23:29.003Z</time></trkpt><trkpt lat="45.6620598" lon="9.2959404"><ele>249.6</ele><time>2026-03-24T13:23:31.003Z</time></trkpt><trkpt lat="45.6620708" lon="9.2960471"><ele>249.39999999999998</ele><time>2026-03-24T13:23:33.003Z</time></trkpt><trkpt lat="45.6621251" lon="9.2961562"><ele>249.2</ele><time>2026-03-24T13:23:35.003Z</time></trkpt><trkpt lat="45.6622583" lon="9.2961725"><ele>249.0</ele><time>2026-03-24T13:23:39.002Z</time></trkpt><trkpt lat="45.6623374" lon="9.2961801"><ele>249.0</ele><time>2026-03-24T13:23:42.003Z</time></trkpt><trkpt lat="45.6625557" lon="9.2961815"><ele>248.99999999999997</ele><time>2026-03-24T13:23:59.003Z</time></trkpt><trkpt lat="45.6626469" lon="9.2961413"><ele>248.99999999999997</ele><time>2026-03-24T13:24:10.003Z</time></trkpt><trkpt lat="45.6627108" lon="9.2961093"><ele>249.0</ele><time>2026-03-24T13:24:19.003Z</time></trkpt><trkpt lat="45.6627744" lon="9.2961256"><ele>249.0</ele><time>2026-03-24T13:24:25.003Z</time></trkpt><trkpt lat="45.6628315" lon="9.2961678"><ele>248.28571428571428</ele><time>2026-03-24T13:24:29.941Z</time></trkpt><trkpt lat="45.662883" lon="9.2962203"><ele>247.57142857142856</ele><time>2026-03-24T13:24:35.003Z</time></trkpt><trkpt lat="45.6629491" lon="9.2962068"><ele>246.85714285714283</ele><time>2026-03-24T13:24:40.003Z</time></trkpt><trkpt lat="45.6630191" lon="9.2961856"><ele>246.1428571428571</ele><time>2026-03-24T13:24:45.873Z</time></trkpt><trkpt lat="45.6630758" lon="9.2961461"><ele>245.42857142857142</ele><time>2026-03-24T13:24:51.003Z</time></trkpt><trkpt lat="45.6631547" lon="9.2961445"><ele>244.71428571428567</ele><time>2026-03-24T13:24:56.982Z</time></trkpt><trkpt lat="45.6632128" lon="9.2961884"><ele>243.99999999999997</ele><time>2026-03-24T13:25:02.003Z</time></trkpt><trkpt lat="45.6632708" lon="9.2962574"><ele>243.99999999999997</ele><time>2026-03-24T13:25:07.003Z</time></trkpt><trkpt lat="45.6633255" lon="9.2963095"><ele>244.0</ele><time>2026-03-24T13:25:12.738Z</time></trkpt><trkpt lat="45.663388" lon="9.2963392"><ele>243.99999999999997</ele><time>2026-03-24T13:25:19.935Z</time></trkpt><trkpt lat="45.6634369" lon="9.2963979"><ele>243.99999999999997</ele><time>2026-03-24T13:25:24.003Z</time></trkpt><trkpt lat="45.6634987" lon="9.2964664"><ele>244.0</ele><time>2026-03-24T13:25:34.003Z</time></trkpt><trkpt lat="45.6635555" lon="9.296516"><ele>243.99999999999997</ele><time>2026-03-24T13:25:38.002Z</time></trkpt><trkpt lat="45.6636144" lon="9.2965676"><ele>243.99999999999997</ele><time>2026-03-24T13:25:44.956Z</time></trkpt><trkpt lat="45.6636783" lon="9.2965415"><ele>242.83333333333331</ele><time>2026-03-24T13:26:03.952Z</time></trkpt><trkpt lat="45.6637754" lon="9.2964975"><ele>241.66666666666666</ele><time>2026-03-24T13:26:32.003Z</time></trkpt><trkpt lat="45.6638243" lon="9.2964249"><ele>240.5</ele><time>2026-03-24T13:26:34.003Z</time></trkpt><trkpt lat="45.6638741" lon="9.2963535"><ele>239.33333333333331</ele><time>2026-03-24T13:26:36.003Z</time></trkpt><trkpt lat="45.6639382" lon="9.2963256"><ele>238.16666666666666</ele><time>2026-03-24T13:26:38.003Z</time></trkpt><trkpt lat="45.6640135" lon="9.296297"><ele>237.0</ele><time>2026-03-24T13:26:41.003Z</time></trkpt><trkpt lat="45.6640763" lon="9.2962757"><ele>237.0</ele><time>2026-03-24T13:26:43.002Z</time></trkpt><trkpt lat="45.6641509" lon="9.2962063"><ele>237.0</ele><time>2026-03-24T13:26:46.003Z</time></trkpt><trkpt lat="45.6642181" lon="9.2961389"><ele>237.0</ele><time>2026-03-24T13:26:48.003Z</time></trkpt><trkpt lat="45.6642909" lon="9.2960741"><ele>237.0</ele><time>2026-03-24T13:26:50.003Z</time></trkpt><trkpt lat="45.6643544" lon="9.2959893"><ele>237.0</ele><time>2026-03-24T13:26:52.003Z</time></trkpt><trkpt lat="45.6644181" lon="9.2959206"><ele>237.0</ele><time>2026-03-24T13:26:54.003Z</time></trkpt><trkpt lat="45.6644954" lon="9.2958391"><ele>236.8</ele><time>2026-03-24T13:26:56.003Z</time></trkpt><trkpt lat="45.6645587" lon="9.2957634"><ele>236.6</ele><time>2026-03-24T13:26:58.003Z</time></trkpt><trkpt lat="45.6646046" lon="9.2956803"><ele>236.40000000000003</ele><time>2026-03-24T13:27:00.003Z</time></trkpt><trkpt lat="45.6646731" lon="9.2955974"><ele>236.20000000000002</ele><time>2026-03-24T13:27:02.003Z</time></trkpt><trkpt lat="45.6647741" lon="9.2955383"><ele>236.0</ele><time>2026-03-24T13:27:04.003Z</time></trkpt><trkpt lat="45.6648699" lon="9.2954951"><ele>238.20000000000002</ele><time>2026-03-24T13:27:06.003Z</time></trkpt><trkpt lat="45.6649344" lon="9.2954744"><ele>240.40000000000003</ele><time>2026-03-24T13:27:08.003Z</time></trkpt><trkpt lat="45.6650178" lon="9.2954543"><ele>242.6</ele><time>2026-03-24T13:27:10.999Z</time></trkpt><trkpt lat="45.665097" lon="9.2954559"><ele>244.8</ele><time>2026-03-24T13:27:13.003Z</time></trkpt><trkpt lat="45.6652101" lon="9.2955028"><ele>247.0</ele><time>2026-03-24T13:27:15.003Z</time></trkpt><trkpt lat="45.6653134" lon="9.2955303"><ele>247.8</ele><time>2026-03-24T13:27:17.003Z</time></trkpt><trkpt lat="45.6654114" lon="9.2955393"><ele>248.6</ele><time>2026-03-24T13:27:19.003Z</time></trkpt><trkpt lat="45.6655079" lon="9.2955506"><ele>249.40000000000003</ele><time>2026-03-24T13:27:21.003Z</time></trkpt><trkpt lat="45.6655913" lon="9.2955423"><ele>250.20000000000002</ele><time>2026-03-24T13:27:23.002Z</time></trkpt><trkpt lat="45.6656793" lon="9.2955522"><ele>251.0</ele><time>2026-03-24T13:27:25.003Z</time></trkpt><trkpt lat="45.6657867" lon="9.295575"><ele>251.0</ele><time>2026-03-24T13:27:27.003Z</time></trkpt><trkpt lat="45.6658993" lon="9.2955743"><ele>251.00000000000003</ele><time>2026-03-24T13:27:29.003Z</time></trkpt><trkpt lat="45.6660005" lon="9.2955641"><ele>251.00000000000003</ele><time>2026-03-24T13:27:31.003Z</time></trkpt><trkpt lat="45.6660799" lon="9.2955371"><ele>251.0</ele><time>2026-03-24T13:27:33.003Z</time></trkpt><trkpt lat="45.6661356" lon="9.295594"><ele>251.0</ele><time>2026-03-24T13:27:45.002Z</time></trkpt><trkpt lat="45.6662422" lon="9.2955874"><ele>249.99999999999997</ele><time>2026-03-24T13:28:04.002Z</time></trkpt><trkpt lat="45.6663169" lon="9.2956419"><ele>249.0</ele><time>2026-03-24T13:28:10.003Z</time></trkpt><trkpt lat="45.6663826" lon="9.2956653"><ele>247.99999999999997</ele><time>2026-03-24T13:28:15.003Z</time></trkpt><trkpt lat="45.666452" lon="9.295703"><ele>246.99999999999997</ele><time>2026-03-24T13:28:21.003Z</time></trkpt><trkpt lat="45.6665133" lon="9.2956649"><ele>246.0</ele><time>2026-03-24T13:28:26.003Z</time></trkpt><trkpt lat="45.6665354" lon="9.2955759"><ele>244.99999999999997</ele><time>2026-03-24T13:28:30.91Z</time></trkpt><trkpt lat="45.6665633" lon="9.2954942"><ele>243.99999999999997</ele><time>2026-03-24T13:28:38.003Z</time></trkpt><trkpt lat="45.6664958" lon="9.29546"><ele>246.4285714285714</ele><time>2026-03-24T13:28:45.003Z</time></trkpt><trkpt lat="45.6664543" lon="9.2953861"><ele>248.85714285714283</ele><time>2026-03-24T13:28:53.003Z</time></trkpt><trkpt lat="45.6664444" lon="9.2952904"><ele>251.28571428571428</ele><time>2026-03-24T13:29:00.002Z</time></trkpt><trkpt lat="45.6665077" lon="9.2952613"><ele>253.7142857142857</ele><time>2026-03-24T13:29:07.004Z</time></trkpt><trkpt lat="45.6665463" lon="9.2953613"><ele>256.1428571428571</ele><time>2026-03-24T13:29:10.865Z</time></trkpt><trkpt lat="45.6665999" lon="9.2954487"><ele>258.57142857142856</ele><time>2026-03-24T13:29:14.763Z</time></trkpt><trkpt lat="45.6666749" lon="9.2955002"><ele>261.0</ele><time>2026-03-24T13:29:18.729Z</time></trkpt><trkpt lat="45.6667156" lon="9.2955695"><ele>261.0</ele><time>2026-03-24T13:29:21.911Z</time></trkpt><trkpt lat="45.6667826" lon="9.2956146"><ele>261.0</ele><time>2026-03-24T13:29:26.003Z</time></trkpt><trkpt lat="45.6668478" lon="9.295615"><ele>261.0</ele><time>2026-03-24T13:29:31.003Z</time></trkpt><trkpt lat="45.6667687" lon="9.2956449"><ele>261.0</ele><time>2026-03-24T13:29:45.003Z</time></trkpt><trkpt lat="45.6668266" lon="9.2955931"><ele>261.0</ele><time>2026-03-24T13:30:04.003Z</time></trkpt><trkpt lat="45.6668831" lon="9.2955476"><ele>261.0</ele><time>2026-03-24T13:30:12.003Z</time></trkpt><trkpt lat="45.666946" lon="9.29553"><ele>261.0</ele><time>2026-03-24T13:30:17.003Z</time></trkpt><trkpt lat="45.6670207" lon="9.2955545"><ele>258.8571428571429</ele><time>2026-03-24T13:30:22.003Z</time></trkpt><trkpt lat="45.6670788" lon="9.2955956"><ele>256.7142857142857</ele><time>2026-03-24T13:30:25.971Z</time></trkpt><trkpt lat="45.6671483" lon="9.2956356"><ele>254.57142857142858</ele><time>2026-03-24T13:30:31.052Z</time></trkpt><trkpt lat="45.6672142" lon="9.2956584"><ele>252.42857142857144</ele><time>2026-03-24T13:30:36.003Z</time></trkpt><trkpt lat="45.6672669" lon="9.2957348"><ele>250.28571428571428</ele><time>2026-03-24T13:30:41.003Z</time></trkpt><trkpt lat="45.6673054" lon="9.295812"><ele>248.14285714285717</ele><time>2026-03-24T13:30:45.003Z</time></trkpt><trkpt lat="45.6673166" lon="9.2959012"><ele>246.00000000000003</ele><time>2026-03-24T13:30:49.003Z</time></trkpt><trkpt lat="45.6673567" lon="9.295988"><ele>246.0</ele><time>2026-03-24T13:30:53.003Z</time></trkpt><trkpt lat="45.6674122" lon="9.2961036"><ele>246.0</ele><time>2026-03-24T13:30:57.003Z</time></trkpt><trkpt lat="45.6674512" lon="9.2961989"><ele>246.0</ele><time>2026-03-24T13:31:03.003Z</time></trkpt><trkpt lat="45.6674879" lon="9.29631"><ele>246.0</ele><time>2026-03-24T13:31:05.998Z</time></trkpt><trkpt lat="45.667529" lon="9.2963789"><ele>246.0</ele><time>2026-03-24T13:31:09.003Z</time></trkpt><trkpt lat="45.6675811" lon="9.2964468"><ele>246.0</ele><time>2026-03-24T13:31:13.002Z</time></trkpt><trkpt lat="45.6676359" lon="9.2965092"><ele>246.00000000000003</ele><time>2026-03-24T13:31:17.003Z</time></trkpt><trkpt lat="45.6676941" lon="9.2965595"><ele>246.0</ele><time>2026-03-24T13:31:20.003Z</time></trkpt><trkpt lat="45.6677522" lon="9.2966028"><ele>246.00000000000003</ele><time>2026-03-24T13:31:24.003Z</time></trkpt><trkpt lat="45.6678116" lon="9.2966544"><ele>246.00000000000003</ele><time>2026-03-24T13:31:27.003Z</time></trkpt><trkpt lat="45.66787" lon="9.29669"><ele>246.0</ele><time>2026-03-24T13:31:31.003Z</time></trkpt><trkpt lat="45.6679242" lon="9.2967718"><ele>246.00000000000003</ele><time>2026-03-24T13:31:35.003Z</time></trkpt><trkpt lat="45.6679793" lon="9.2968265"><ele>246.00000000000003</ele><time>2026-03-24T13:31:37.003Z</time></trkpt><trkpt lat="45.6680445" lon="9.2968574"><ele>246.83333333333334</ele><time>2026-03-24T13:31:40.003Z</time></trkpt><trkpt lat="45.6681139" lon="9.2968726"><ele>247.66666666666669</ele><time>2026-03-24T13:31:43.002Z</time></trkpt><trkpt lat="45.6682058" lon="9.2969023"><ele>248.5</ele><time>2026-03-24T13:31:46.003Z</time></trkpt><trkpt lat="45.6682822" lon="9.2969835"><ele>249.33333333333334</ele><time>2026-03-24T13:31:48.003Z</time></trkpt><trkpt lat="45.6683611" lon="9.2969649"><ele>250.16666666666669</ele><time>2026-03-24T13:31:51.003Z</time></trkpt><trkpt lat="45.668426" lon="9.2969595"><ele>251.0</ele><time>2026-03-24T13:31:53.003Z</time></trkpt><trkpt lat="45.6686326" lon="9.2969724"><ele>252.20000000000002</ele><time>2026-03-24T13:32:14.003Z</time></trkpt><trkpt lat="45.668637" lon="9.2971384"><ele>253.40000000000003</ele><time>2026-03-24T13:32:25.97Z</time></trkpt><trkpt lat="45.6687031" lon="9.2971502"><ele>254.6</ele><time>2026-03-24T13:32:33.053Z</time></trkpt><trkpt lat="45.6687432" lon="9.2970679"><ele>255.8</ele><time>2026-03-24T13:32:39.003Z</time></trkpt><trkpt lat="45.6688142" lon="9.2970914"><ele>257.0</ele><time>2026-03-24T13:32:44.003Z</time></trkpt><trkpt lat="45.6689697" lon="9.2971918"><ele>257.0</ele><time>2026-03-24T13:32:48.003Z</time></trkpt><trkpt lat="45.669053" lon="9.2972324"><ele>257.0</ele><time>2026-03-24T13:32:51.002Z</time></trkpt><trkpt lat="45.6691173" lon="9.2972484"><ele>257.0</ele><time>2026-03-24T13:32:53.002Z</time></trkpt><trkpt lat="45.669189" lon="9.2972526"><ele>257.0</ele><time>2026-03-24T13:32:55.003Z</time></trkpt><trkpt lat="45.6692647" lon="9.2972489"><ele>257.0</ele><time>2026-03-24T13:32:57.002Z</time></trkpt><trkpt lat="45.6693477" lon="9.2972427"><ele>257.0</ele><time>2026-03-24T13:33:00.003Z</time></trkpt><trkpt lat="45.6694444" lon="9.2972384"><ele>257.5</ele><time>2026-03-24T13:33:04.003Z</time></trkpt><trkpt lat="45.6695227" lon="9.2972158"><ele>258.0</ele><time>2026-03-24T13:33:07.003Z</time></trkpt><trkpt lat="45.6695882" lon="9.2972004"><ele>258.5</ele><time>2026-03-24T13:33:10.003Z</time></trkpt><trkpt lat="45.669689" lon="9.2972053"><ele>259.0</ele><time>2026-03-24T13:33:13.003Z</time></trkpt><trkpt lat="45.6697636" lon="9.2972118"><ele>259.5</ele><time>2026-03-24T13:33:16.003Z</time></trkpt><trkpt lat="45.6698684" lon="9.2972132"><ele>260.0</ele><time>2026-03-24T13:33:20.003Z</time></trkpt><trkpt lat="45.6699389" lon="9.2972455"><ele>259.6</ele><time>2026-03-24T13:33:23.003Z</time></trkpt><trkpt lat="45.6700178" lon="9.2972704"><ele>259.2</ele><time>2026-03-24T13:33:27.003Z</time></trkpt><trkpt lat="45.6700829" lon="9.2972829"><ele>258.8</ele><time>2026-03-24T13:33:30.003Z</time></trkpt><trkpt lat="45.6701909" lon="9.2972858"><ele>258.4</ele><time>2026-03-24T13:33:34.003Z</time></trkpt><trkpt lat="45.6702948" lon="9.297292"><ele>258.0</ele><time>2026-03-24T13:33:36.003Z</time></trkpt><trkpt lat="45.6704061" lon="9.2972669"><ele>258.0</ele><time>2026-03-24T13:33:38.002Z</time></trkpt><trkpt lat="45.6704744" lon="9.2972283"><ele>258.0</ele><time>2026-03-24T13:33:40.003Z</time></trkpt><trkpt lat="45.6705165" lon="9.2971141"><ele>258.0</ele><time>2026-03-24T13:33:42.003Z</time></trkpt><trkpt lat="45.6706073" lon="9.2970427"><ele>258.0</ele><time>2026-03-24T13:33:45.003Z</time></trkpt><trkpt lat="45.6706661" lon="9.2970087"><ele>258.0</ele><time>2026-03-24T13:33:47.003Z</time></trkpt><trkpt lat="45.6707735" lon="9.2969935"><ele>258.0</ele><time>2026-03-24T13:33:49.003Z</time></trkpt><trkpt lat="45.6708348" lon="9.2969651"><ele>258.0</ele><time>2026-03-24T13:33:51.003Z</time></trkpt><trkpt lat="45.6709398" lon="9.2969261"><ele>258.0</ele><time>2026-03-24T13:33:54.003Z</time></trkpt><trkpt lat="45.671002" lon="9.2968967"><ele>258.0</ele><time>2026-03-24T13:33:56.003Z</time></trkpt><trkpt lat="45.671078" lon="9.2968376"><ele>258.0</ele><time>2026-03-24T13:33:59.003Z</time></trkpt><trkpt lat="45.6711358" lon="9.2967962"><ele>258.0</ele><time>2026-03-24T13:34:01.003Z</time></trkpt><trkpt lat="45.6712064" lon="9.2967938"><ele>258.0</ele><time>2026-03-24T13:34:03.003Z</time></trkpt><trkpt lat="45.671275" lon="9.2967978"><ele>257.8</ele><time>2026-03-24T13:34:05.003Z</time></trkpt><trkpt lat="45.6713804" lon="9.2968077"><ele>257.6</ele><time>2026-03-24T13:34:07.003Z</time></trkpt><trkpt lat="45.6714732" lon="9.2968343"><ele>257.4</ele><time>2026-03-24T13:34:08.003Z</time></trkpt><trkpt lat="45.6716191" lon="9.2967783"><ele>257.2</ele><time>2026-03-24T13:34:11.002Z</time></trkpt><trkpt lat="45.6716983" lon="9.2967554"><ele>257.0</ele><time>2026-03-24T13:34:13.003Z</time></trkpt><trkpt lat="45.6717947" lon="9.2967012"><ele>257.0</ele><time>2026-03-24T13:34:16.003Z</time></trkpt><trkpt lat="45.6718703" lon="9.2966667"><ele>257.0</ele><time>2026-03-24T13:34:18.003Z</time></trkpt><trkpt lat="45.6719352" lon="9.2966264"><ele>257.0</ele><time>2026-03-24T13:34:20.003Z</time></trkpt><trkpt lat="45.6720011" lon="9.2966009"><ele>257.0</ele><time>2026-03-24T13:34:23.003Z</time></trkpt><trkpt lat="45.6720783" lon="9.2965606"><ele>257.0</ele><time>2026-03-24T13:34:26.003Z</time></trkpt><trkpt lat="45.6721555" lon="9.2965162"><ele>257.0</ele><time>2026-03-24T13:34:29.003Z</time></trkpt><trkpt lat="45.6722205" lon="9.2964887"><ele>256.83333333333337</ele><time>2026-03-24T13:34:31.003Z</time></trkpt><trkpt lat="45.6722813" lon="9.2964549"><ele>256.6666666666667</ele><time>2026-03-24T13:34:33.003Z</time></trkpt><trkpt lat="45.6723765" lon="9.2964067"><ele>256.5</ele><time>2026-03-24T13:34:36.003Z</time></trkpt><trkpt lat="45.6724516" lon="9.2963907"><ele>256.3333333333333</ele><time>2026-03-24T13:34:38.003Z</time></trkpt><trkpt lat="45.672536" lon="9.2963646"><ele>256.16666666666663</ele><time>2026-03-24T13:34:41.003Z</time></trkpt><trkpt lat="45.6725981" lon="9.2963393"><ele>256.0</ele><time>2026-03-24T13:34:45.003Z</time></trkpt><trkpt lat="45.6726635" lon="9.2963403"><ele>257.1428571428571</ele><time>2026-03-24T13:34:53.999Z</time></trkpt><trkpt lat="45.6727204" lon="9.2962914"><ele>258.2857142857143</ele><time>2026-03-24T13:35:04.003Z</time></trkpt><trkpt lat="45.6727959" lon="9.296322"><ele>259.42857142857144</ele><time>2026-03-24T13:35:09.925Z</time></trkpt><trkpt lat="45.6728622" lon="9.2962869"><ele>260.57142857142856</ele><time>2026-03-24T13:35:15.003Z</time></trkpt><trkpt lat="45.6729246" lon="9.2962279"><ele>261.7142857142857</ele><time>2026-03-24T13:35:20.002Z</time></trkpt><trkpt lat="45.6729889" lon="9.2961668"><ele>262.85714285714283</ele><time>2026-03-24T13:35:23.003Z</time></trkpt><trkpt lat="45.673052" lon="9.2961815"><ele>264.0</ele><time>2026-03-24T13:35:25.003Z</time></trkpt><trkpt lat="45.6731103" lon="9.2962249"><ele>264.0</ele><time>2026-03-24T13:35:27.002Z</time></trkpt><trkpt lat="45.6732022" lon="9.2962424"><ele>264.0</ele><time>2026-03-24T13:35:29.002Z</time></trkpt><trkpt lat="45.6732878" lon="9.2962928"><ele>264.0</ele><time>2026-03-24T13:35:31.002Z</time></trkpt><trkpt lat="45.6733658" lon="9.2962882"><ele>264.0</ele><time>2026-03-24T13:35:34.003Z</time></trkpt><trkpt lat="45.6734347" lon="9.2962647"><ele>264.0</ele><time>2026-03-24T13:35:36.003Z</time></trkpt><trkpt lat="45.6735064" lon="9.2962219"><ele>264.0</ele><time>2026-03-24T13:35:38.003Z</time></trkpt><trkpt lat="45.6735902" lon="9.2962002"><ele>263.8</ele><time>2026-03-24T13:35:41.003Z</time></trkpt><trkpt lat="45.6736832" lon="9.2961988"><ele>263.59999999999997</ele><time>2026-03-24T13:35:44.003Z</time></trkpt><trkpt lat="45.6737513" lon="9.296179"><ele>263.4</ele><time>2026-03-24T13:35:47.003Z</time></trkpt><trkpt lat="45.6738566" lon="9.2961536"><ele>263.2</ele><time>2026-03-24T13:35:50.003Z</time></trkpt><trkpt lat="45.6740035" lon="9.296146"><ele>263.0</ele><time>2026-03-24T13:35:53.002Z</time></trkpt><trkpt lat="45.6740821" lon="9.296142"><ele>263.0</ele><time>2026-03-24T13:35:56.003Z</time></trkpt><trkpt lat="45.6741439" lon="9.2961647"><ele>263.0</ele><time>2026-03-24T13:35:58.003Z</time></trkpt><trkpt lat="45.6742232" lon="9.2961978"><ele>263.0</ele><time>2026-03-24T13:36:01.003Z</time></trkpt><trkpt lat="45.6742894" lon="9.2962316"><ele>263.0</ele><time>2026-03-24T13:36:03.003Z</time></trkpt><trkpt lat="45.6743786" lon="9.296238"><ele>263.0</ele><time>2026-03-24T13:36:05.003Z</time></trkpt><trkpt lat="45.6744656" lon="9.2962468"><ele>263.0</ele><time>2026-03-24T13:36:07.003Z</time></trkpt><trkpt lat="45.6745469" lon="9.296272"><ele>263.7142857142857</ele><time>2026-03-24T13:36:10.003Z</time></trkpt><trkpt lat="45.6746098" lon="9.2962906"><ele>264.4285714285714</ele><time>2026-03-24T13:36:12.003Z</time></trkpt><trkpt lat="45.6746771" lon="9.2962732"><ele>265.1428571428571</ele><time>2026-03-24T13:36:14.003Z</time></trkpt><trkpt lat="45.6747397" lon="9.2962504"><ele>265.85714285714283</ele><time>2026-03-24T13:36:16.003Z</time></trkpt><trkpt lat="45.6748134" lon="9.2962559"><ele>266.57142857142856</ele><time>2026-03-24T13:36:18.003Z</time></trkpt><trkpt lat="45.674885" lon="9.2962919"><ele>267.2857142857143</ele><time>2026-03-24T13:36:21.003Z</time></trkpt><trkpt lat="45.6749499" lon="9.2963571"><ele>268.0</ele><time>2026-03-24T13:36:25.003Z</time></trkpt><trkpt lat="45.6750042" lon="9.2964399"><ele>266.2857142857143</ele><time>2026-03-24T13:36:28.003Z</time></trkpt><trkpt lat="45.6750245" lon="9.2965341"><ele>264.57142857142856</ele><time>2026-03-24T13:36:31.003Z</time></trkpt><trkpt lat="45.6750322" lon="9.2966504"><ele>262.85714285714283</ele><time>2026-03-24T13:36:35.003Z</time></trkpt><trkpt lat="45.6750349" lon="9.2967481"><ele>261.1428571428571</ele><time>2026-03-24T13:36:39.003Z</time></trkpt><trkpt lat="45.6750316" lon="9.2968511"><ele>259.4285714285714</ele><time>2026-03-24T13:36:42.003Z</time></trkpt><trkpt lat="45.675044" lon="9.2969405"><ele>257.7142857142857</ele><time>2026-03-24T13:36:45.003Z</time></trkpt><trkpt lat="45.6750662" lon="9.2970323"><ele>256.0</ele><time>2026-03-24T13:36:50.003Z</time></trkpt><trkpt lat="45.6750762" lon="9.2971234"><ele>256.0</ele><time>2026-03-24T13:36:53.003Z</time></trkpt><trkpt lat="45.6751041" lon="9.2972204"><ele>255.99999999999997</ele><time>2026-03-24T13:36:57.003Z</time></trkpt><trkpt lat="45.6751621" lon="9.2972555"><ele>256.0</ele><time>2026-03-24T13:37:00.003Z</time></trkpt><trkpt lat="45.675238" lon="9.297258"><ele>256.0</ele><time>2026-03-24T13:37:04.003Z</time></trkpt><trkpt lat="45.6753161" lon="9.2972659"><ele>255.99999999999997</ele><time>2026-03-24T13:37:07.003Z</time></trkpt><trkpt lat="45.6753835" lon="9.2972733"><ele>256.0</ele><time>2026-03-24T13:37:10.003Z</time></trkpt><trkpt lat="45.6754663" lon="9.2973134"><ele>256.0</ele><time>2026-03-24T13:37:13.003Z</time></trkpt><trkpt lat="45.6755282" lon="9.2973435"><ele>256.0</ele><time>2026-03-24T13:37:15.003Z</time></trkpt><trkpt lat="45.6755911" lon="9.2973599"><ele>255.99999999999997</ele><time>2026-03-24T13:37:17.002Z</time></trkpt><trkpt lat="45.6756557" lon="9.2973775"><ele>256.0</ele><time>2026-03-24T13:37:19.003Z</time></trkpt><trkpt lat="45.675728" lon="9.2973919"><ele>256.0</ele><time>2026-03-24T13:37:21.003Z</time></trkpt><trkpt lat="45.6758052" lon="9.2973704"><ele>255.99999999999997</ele><time>2026-03-24T13:37:24.003Z</time></trkpt><trkpt lat="45.6758891" lon="9.2973586"><ele>256.0</ele><time>2026-03-24T13:37:27.003Z</time></trkpt><trkpt lat="45.6759645" lon="9.2973873"><ele>256.0</ele><time>2026-03-24T13:37:30.003Z</time></trkpt><trkpt lat="45.6760397" lon="9.2974198"><ele>256.85714285714283</ele><time>2026-03-24T13:37:33.003Z</time></trkpt><trkpt lat="45.6761255" lon="9.2974073"><ele>257.71428571428567</ele><time>2026-03-24T13:37:36.003Z</time></trkpt><trkpt lat="45.6762001" lon="9.2974156"><ele>258.57142857142856</ele><time>2026-03-24T13:37:40.002Z</time></trkpt><trkpt lat="45.6762702" lon="9.2974169"><ele>259.42857142857144</ele><time>2026-03-24T13:37:44.003Z</time></trkpt><trkpt lat="45.6763345" lon="9.2973712"><ele>260.28571428571433</ele><time>2026-03-24T13:37:54.002Z</time></trkpt><trkpt lat="45.6763772" lon="9.2973008"><ele>261.14285714285717</ele><time>2026-03-24T13:37:59.003Z</time></trkpt><trkpt lat="45.6764245" lon="9.2972381"><ele>262.0</ele><time>2026-03-24T13:38:02.003Z</time></trkpt><trkpt lat="45.6764902" lon="9.2972017"><ele>262.0</ele><time>2026-03-24T13:38:05.003Z</time></trkpt><trkpt lat="45.6765845" lon="9.2971697"><ele>262.0</ele><time>2026-03-24T13:38:08.003Z</time></trkpt><trkpt lat="45.6766657" lon="9.2971528"><ele>262.0</ele><time>2026-03-24T13:38:10.003Z</time></trkpt><trkpt lat="45.6767366" lon="9.2971689"><ele>262.0</ele><time>2026-03-24T13:38:12.003Z</time></trkpt><trkpt lat="45.6768221" lon="9.2971778"><ele>262.0</ele><time>2026-03-24T13:38:15.003Z</time></trkpt><trkpt lat="45.6769012" lon="9.2972004"><ele>262.0</ele><time>2026-03-24T13:38:18.003Z</time></trkpt><trkpt lat="45.6769796" lon="9.2972411"><ele>262.0</ele><time>2026-03-24T13:38:21.003Z</time></trkpt><trkpt lat="45.6770605" lon="9.2972529"><ele>262.0</ele><time>2026-03-24T13:38:24.003Z</time></trkpt><trkpt lat="45.6771349" lon="9.2972394"><ele>262.0</ele><time>2026-03-24T13:38:27.003Z</time></trkpt><trkpt lat="45.6772121" lon="9.2972105"><ele>262.0</ele><time>2026-03-24T13:38:30.003Z</time></trkpt><trkpt lat="45.6772779" lon="9.2971754"><ele>262.0</ele><time>2026-03-24T13:38:34.002Z</time></trkpt><trkpt lat="45.6773465" lon="9.2971524"><ele>262.0</ele><time>2026-03-24T13:38:37.003Z</time></trkpt><trkpt lat="45.6774095" lon="9.2971396"><ele>262.0</ele><time>2026-03-24T13:38:40.002Z</time></trkpt><trkpt lat="45.67747" lon="9.2970942"><ele>262.0</ele><time>2026-03-24T13:38:43.003Z</time></trkpt><trkpt lat="45.6775939" lon="9.2970513"><ele>262.0</ele><time>2026-03-24T13:38:46.003Z</time></trkpt><trkpt lat="45.6776754" lon="9.2970384"><ele>262.0</ele><time>2026-03-24T13:38:49.415Z</time></trkpt><trkpt lat="45.6777419" lon="9.2970453"><ele>262.0</ele><time>2026-03-24T13:38:50.993Z</time></trkpt><trkpt lat="45.677807" lon="9.2970461"><ele>262.0</ele><time>2026-03-24T13:38:52.993Z</time></trkpt><trkpt lat="45.6778822" lon="9.2970373"><ele>262.0</ele><time>2026-03-24T13:38:54.987Z</time></trkpt><trkpt lat="45.6779639" lon="9.2970295"><ele>262.8333333333333</ele><time>2026-03-24T13:38:56.988Z</time></trkpt><trkpt lat="45.6780463" lon="9.2970413"><ele>263.66666666666663</ele><time>2026-03-24T13:38:58.988Z</time></trkpt><trkpt lat="45.6781149" lon="9.2970416"><ele>264.5</ele><time>2026-03-24T13:39:00.988Z</time></trkpt><trkpt lat="45.6781861" lon="9.2970303"><ele>265.3333333333333</ele><time>2026-03-24T13:39:03.988Z</time></trkpt><trkpt lat="45.6782688" lon="9.2970193"><ele>266.1666666666667</ele><time>2026-03-24T13:39:07.988Z</time></trkpt><trkpt lat="45.6783411" lon="9.297057"><ele>267.0</ele><time>2026-03-24T13:39:11.988Z</time></trkpt><trkpt lat="45.6784189" lon="9.2970895"><ele>267.00000000000006</ele><time>2026-03-24T13:39:14.988Z</time></trkpt><trkpt lat="45.6784918" lon="9.2970894"><ele>267.0</ele><time>2026-03-24T13:39:17.988Z</time></trkpt><trkpt lat="45.6785678" lon="9.2970663"><ele>267.0</ele><time>2026-03-24T13:39:22.988Z</time></trkpt><trkpt lat="45.6786372" lon="9.2970907"><ele>267.0</ele><time>2026-03-24T13:39:25.988Z</time></trkpt><trkpt lat="45.6787054" lon="9.2970897"><ele>267.0</ele><time>2026-03-24T13:39:28.988Z</time></trkpt><trkpt lat="45.678787" lon="9.2971029"><ele>267.00000000000006</ele><time>2026-03-24T13:39:31.988Z</time></trkpt><trkpt lat="45.6788553" lon="9.2970976"><ele>267.0</ele><time>2026-03-24T13:39:33.988Z</time></trkpt><trkpt lat="45.6789421" lon="9.2970912"><ele>267.6666666666667</ele><time>2026-03-24T13:39:36.987Z</time></trkpt><trkpt lat="45.6790221" lon="9.2970774"><ele>268.3333333333333</ele><time>2026-03-24T13:39:39.988Z</time></trkpt><trkpt lat="45.6790996" lon="9.2970973"><ele>269.0</ele><time>2026-03-24T13:39:42.988Z</time></trkpt><trkpt lat="45.6791755" lon="9.2970701"><ele>269.66666666666663</ele><time>2026-03-24T13:39:45.988Z</time></trkpt><trkpt lat="45.6792475" lon="9.2970596"><ele>270.3333333333333</ele><time>2026-03-24T13:39:48.988Z</time></trkpt><trkpt lat="45.6793209" lon="9.297064"><ele>271.0</ele><time>2026-03-24T13:39:51.987Z</time></trkpt><trkpt lat="45.6793926" lon="9.2970745"><ele>271.8</ele><time>2026-03-24T13:39:54.988Z</time></trkpt><trkpt lat="45.6795976" lon="9.297131"><ele>272.6</ele><time>2026-03-24T13:40:02.988Z</time></trkpt><trkpt lat="45.6796686" lon="9.2971898"><ele>273.4</ele><time>2026-03-24T13:40:04.988Z</time></trkpt><trkpt lat="45.6796929" lon="9.2972787"><ele>274.2</ele><time>2026-03-24T13:40:06.988Z</time></trkpt><trkpt lat="45.6797402" lon="9.297353"><ele>275.0</ele><time>2026-03-24T13:40:08.988Z</time></trkpt><trkpt lat="45.6798047" lon="9.2974147"><ele>274.14285714285717</ele><time>2026-03-24T13:40:10.988Z</time></trkpt><trkpt lat="45.6798648" lon="9.2974451"><ele>273.2857142857143</ele><time>2026-03-24T13:40:12.988Z</time></trkpt><trkpt lat="45.679931" lon="9.2974585"><ele>272.42857142857144</ele><time>2026-03-24T13:40:14.988Z</time></trkpt><trkpt lat="45.6800129" lon="9.2974853"><ele>271.57142857142856</ele><time>2026-03-24T13:40:16.988Z</time></trkpt><trkpt lat="45.6800893" lon="9.2975082"><ele>270.7142857142857</ele><time>2026-03-24T13:40:18.988Z</time></trkpt><trkpt lat="45.6801546" lon="9.2974964"><ele>269.8571428571429</ele><time>2026-03-24T13:40:20.988Z</time></trkpt><trkpt lat="45.6802302" lon="9.2975005"><ele>269.0</ele><time>2026-03-24T13:40:22.988Z</time></trkpt><trkpt lat="45.6803012" lon="9.2974999"><ele>269.0</ele><time>2026-03-24T13:40:24.988Z</time></trkpt><trkpt lat="45.68037" lon="9.2975179"><ele>269.0</ele><time>2026-03-24T13:40:26.988Z</time></trkpt><trkpt lat="45.6804343" lon="9.2975843"><ele>269.0</ele><time>2026-03-24T13:40:30.988Z</time></trkpt><trkpt lat="45.680471" lon="9.2976583"><ele>269.0</ele><time>2026-03-24T13:40:33.987Z</time></trkpt><trkpt lat="45.6805252" lon="9.2977402"><ele>269.0</ele><time>2026-03-24T13:40:37.987Z</time></trkpt><trkpt lat="45.6805708" lon="9.2978045"><ele>269.0</ele><time>2026-03-24T13:40:41.988Z</time></trkpt><trkpt lat="45.6805984" lon="9.2978893"><ele>269.0</ele><time>2026-03-24T13:40:44.988Z</time></trkpt><trkpt lat="45.6806273" lon="9.2979871"><ele>268.1666666666667</ele><time>2026-03-24T13:40:56.988Z</time></trkpt><trkpt lat="45.6806223" lon="9.2981014"><ele>267.33333333333337</ele><time>2026-03-24T13:40:59.988Z</time></trkpt><trkpt lat="45.6805784" lon="9.298205"><ele>266.5</ele><time>2026-03-24T13:41:02.988Z</time></trkpt><trkpt lat="45.6805357" lon="9.2982731"><ele>265.6666666666667</ele><time>2026-03-24T13:41:04.987Z</time></trkpt><trkpt lat="45.6804987" lon="9.2983746"><ele>264.8333333333333</ele><time>2026-03-24T13:41:07.988Z</time></trkpt><trkpt lat="45.6805099" lon="9.2984811"><ele>264.0</ele><time>2026-03-24T13:41:10.988Z</time></trkpt><trkpt lat="45.6805418" lon="9.2985817"><ele>264.0</ele><time>2026-03-24T13:41:13.988Z</time></trkpt><trkpt lat="45.6805677" lon="9.2986839"><ele>264.0</ele><time>2026-03-24T13:41:16.988Z</time></trkpt><trkpt lat="45.6805972" lon="9.2987798"><ele>264.0</ele><time>2026-03-24T13:41:19.988Z</time></trkpt><trkpt lat="45.6806305" lon="9.298872"><ele>264.0</ele><time>2026-03-24T13:41:22.988Z</time></trkpt><trkpt lat="45.6806566" lon="9.2989793"><ele>264.0</ele><time>2026-03-24T13:41:26.988Z</time></trkpt><trkpt lat="45.6806852" lon="9.299074"><ele>264.0</ele><time>2026-03-24T13:41:30.988Z</time></trkpt><trkpt lat="45.680713" lon="9.2991701"><ele>264.0</ele><time>2026-03-24T13:41:35.988Z</time></trkpt><trkpt lat="45.6807468" lon="9.2992599"><ele>266.0</ele><time>2026-03-24T13:41:40.988Z</time></trkpt><trkpt lat="45.6807754" lon="9.2993418"><ele>268.0</ele><time>2026-03-24T13:41:44.988Z</time></trkpt><trkpt lat="45.680808" lon="9.2994246"><ele>270.0</ele><time>2026-03-24T13:41:49.988Z</time></trkpt><trkpt lat="45.6808522" lon="9.2994982"><ele>272.0</ele><time>2026-03-24T13:41:53.988Z</time></trkpt><trkpt lat="45.6809022" lon="9.2995786"><ele>274.0</ele><time>2026-03-24T13:41:56.988Z</time></trkpt><trkpt lat="45.6809688" lon="9.299644"><ele>276.0</ele><time>2026-03-24T13:42:01.988Z</time></trkpt><trkpt lat="45.6809922" lon="9.2997574"><ele>278.0</ele><time>2026-03-24T13:42:06.988Z</time></trkpt><trkpt lat="45.6810118" lon="9.2998489"><ele>277.42857142857144</ele><time>2026-03-24T13:42:09.988Z</time></trkpt><trkpt lat="45.6810065" lon="9.2999456"><ele>276.8571428571429</ele><time>2026-03-24T13:42:14.988Z</time></trkpt><trkpt lat="45.6810067" lon="9.3000664"><ele>276.28571428571433</ele><time>2026-03-24T13:42:18.988Z</time></trkpt><trkpt lat="45.6810111" lon="9.3001655"><ele>275.7142857142857</ele><time>2026-03-24T13:42:21.988Z</time></trkpt><trkpt lat="45.6810282" lon="9.3002732"><ele>275.14285714285717</ele><time>2026-03-24T13:42:24.988Z</time></trkpt><trkpt lat="45.6810554" lon="9.3003644"><ele>274.5714285714286</ele><time>2026-03-24T13:42:27.988Z</time></trkpt><trkpt lat="45.6810805" lon="9.3004519"><ele>274.0</ele><time>2026-03-24T13:42:31.988Z</time></trkpt><trkpt lat="45.6811127" lon="9.3005584"><ele>276.0</ele><time>2026-03-24T13:42:35.988Z</time></trkpt><trkpt lat="45.6811303" lon="9.3006568"><ele>278.0</ele><time>2026-03-24T13:42:38.988Z</time></trkpt><trkpt lat="45.6811384" lon="9.3007724"><ele>280.0</ele><time>2026-03-24T13:42:42.988Z</time></trkpt><trkpt lat="45.6811348" lon="9.3008676"><ele>282.0</ele><time>2026-03-24T13:42:45.988Z</time></trkpt><trkpt lat="45.6811446" lon="9.3009651"><ele>284.0</ele><time>2026-03-24T13:42:49.988Z</time></trkpt><trkpt lat="45.681153" lon="9.3010954"><ele>286.0</ele><time>2026-03-24T13:42:52.987Z</time></trkpt><trkpt lat="45.6811818" lon="9.301197"><ele>286.0</ele><time>2026-03-24T13:42:56.988Z</time></trkpt><trkpt lat="45.6812089" lon="9.3013136"><ele>286.0</ele><time>2026-03-24T13:43:00.988Z</time></trkpt><trkpt lat="45.6812361" lon="9.3014213"><ele>286.0</ele><time>2026-03-24T13:43:03.988Z</time></trkpt><trkpt lat="45.6812693" lon="9.3015254"><ele>286.0</ele><time>2026-03-24T13:43:06.988Z</time></trkpt><trkpt lat="45.6813018" lon="9.3016078"><ele>286.0</ele><time>2026-03-24T13:43:09.988Z</time></trkpt><trkpt lat="45.681325" lon="9.3017174"><ele>286.0</ele><time>2026-03-24T13:43:13.988Z</time></trkpt><trkpt lat="45.681359" lon="9.3018279"><ele>286.2857142857143</ele><time>2026-03-24T13:43:17.988Z</time></trkpt><trkpt lat="45.6813879" lon="9.3019128"><ele>286.57142857142856</ele><time>2026-03-24T13:43:20.988Z</time></trkpt><trkpt lat="45.6813853" lon="9.3020211"><ele>286.8571428571429</ele><time>2026-03-24T13:43:24.988Z</time></trkpt><trkpt lat="45.6813704" lon="9.302124"><ele>287.1428571428571</ele><time>2026-03-24T13:43:28.988Z</time></trkpt><trkpt lat="45.6813672" lon="9.3022428"><ele>287.42857142857144</ele><time>2026-03-24T13:43:31.988Z</time></trkpt><trkpt lat="45.6813678" lon="9.3023506"><ele>287.7142857142857</ele><time>2026-03-24T13:43:34.988Z</time></trkpt><trkpt lat="45.6813604" lon="9.3024434"><ele>288.0</ele><time>2026-03-24T13:43:36.987Z</time></trkpt><trkpt lat="45.6813338" lon="9.3025696"><ele>288.00000000000006</ele><time>2026-03-24T13:43:39.987Z</time></trkpt><trkpt lat="45.6812955" lon="9.3026741"><ele>288.0</ele><time>2026-03-24T13:43:42.987Z</time></trkpt><trkpt lat="45.6812616" lon="9.3027513"><ele>288.0</ele><time>2026-03-24T13:43:44.987Z</time></trkpt><trkpt lat="45.6812111" lon="9.3028093"><ele>288.0</ele><time>2026-03-24T13:43:47.988Z</time></trkpt><trkpt lat="45.6811448" lon="9.3028818"><ele>288.0</ele><time>2026-03-24T13:43:50.988Z</time></trkpt><trkpt lat="45.6810779" lon="9.3029327"><ele>288.00000000000006</ele><time>2026-03-24T13:43:53.988Z</time></trkpt><trkpt lat="45.6810186" lon="9.3029773"><ele>288.0</ele><time>2026-03-24T13:43:55.988Z</time></trkpt><trkpt lat="45.6809566" lon="9.3030166"><ele>288.6</ele><time>2026-03-24T13:43:57.988Z</time></trkpt><trkpt lat="45.6808715" lon="9.3030793"><ele>289.20000000000005</ele><time>2026-03-24T13:43:59.988Z</time></trkpt><trkpt lat="45.6807919" lon="9.303142"><ele>289.8</ele><time>2026-03-24T13:44:01.988Z</time></trkpt><trkpt lat="45.6807121" lon="9.3031927"><ele>290.40000000000003</ele><time>2026-03-24T13:44:03.988Z</time></trkpt><trkpt lat="45.6806302" lon="9.3032374"><ele>291.0</ele><time>2026-03-24T13:44:05.987Z</time></trkpt><trkpt lat="45.6805151" lon="9.3033141"><ele>291.0</ele><time>2026-03-24T13:44:09.988Z</time></trkpt><trkpt lat="45.6804389" lon="9.3033385"><ele>291.0</ele><time>2026-03-24T13:44:11.988Z</time></trkpt><trkpt lat="45.6803838" lon="9.3033953"><ele>291.0</ele><time>2026-03-24T13:44:14.988Z</time></trkpt><trkpt lat="45.6803062" lon="9.3034067"><ele>291.0</ele><time>2026-03-24T13:44:55.988Z</time></trkpt><trkpt lat="45.6802188" lon="9.3034193"><ele>291.0</ele><time>2026-03-24T13:44:57.988Z</time></trkpt><trkpt lat="45.68013" lon="9.3034515"><ele>291.0</ele><time>2026-03-24T13:44:59.988Z</time></trkpt><trkpt lat="45.680033" lon="9.3034808"><ele>290.6666666666667</ele><time>2026-03-24T13:45:01.988Z</time></trkpt><trkpt lat="45.6799231" lon="9.3035247"><ele>290.3333333333333</ele><time>2026-03-24T13:45:03.988Z</time></trkpt><trkpt lat="45.6798492" lon="9.3035933"><ele>290.0</ele><time>2026-03-24T13:45:05.987Z</time></trkpt><trkpt lat="45.679771" lon="9.3036346"><ele>289.66666666666663</ele><time>2026-03-24T13:45:07.988Z</time></trkpt><trkpt lat="45.6797057" lon="9.3036702"><ele>289.3333333333333</ele><time>2026-03-24T13:45:08.988Z</time></trkpt><trkpt lat="45.6796216" lon="9.3037281"><ele>289.0</ele><time>2026-03-24T13:45:11.988Z</time></trkpt><trkpt lat="45.679563" lon="9.3038141"><ele>288.7142857142857</ele><time>2026-03-24T13:45:13.988Z</time></trkpt><trkpt lat="45.6795385" lon="9.3039205"><ele>288.42857142857144</ele><time>2026-03-24T13:45:15.988Z</time></trkpt><trkpt lat="45.6795261" lon="9.3040103"><ele>288.1428571428571</ele><time>2026-03-24T13:45:17.988Z</time></trkpt><trkpt lat="45.6795225" lon="9.3041086"><ele>287.8571428571429</ele><time>2026-03-24T13:45:21.988Z</time></trkpt><trkpt lat="45.6795562" lon="9.3041909"><ele>287.57142857142856</ele><time>2026-03-24T13:45:24.988Z</time></trkpt><trkpt lat="45.6796057" lon="9.3042591"><ele>287.2857142857143</ele><time>2026-03-24T13:45:26.988Z</time></trkpt><trkpt lat="45.6796475" lon="9.3043698"><ele>287.0</ele><time>2026-03-24T13:45:28.988Z</time></trkpt><trkpt lat="45.6796704" lon="9.3044937"><ele>287.0</ele><time>2026-03-24T13:45:30.988Z</time></trkpt><trkpt lat="45.6796762" lon="9.3046198"><ele>287.0</ele><time>2026-03-24T13:45:32.988Z</time></trkpt><trkpt lat="45.6797076" lon="9.3047392"><ele>287.0</ele><time>2026-03-24T13:45:34.987Z</time></trkpt><trkpt lat="45.679736" lon="9.3048807"><ele>287.0</ele><time>2026-03-24T13:45:36.988Z</time></trkpt><trkpt lat="45.6797608" lon="9.3049992"><ele>287.0</ele><time>2026-03-24T13:45:38.988Z</time></trkpt><trkpt lat="45.6797835" lon="9.3051185"><ele>287.0</ele><time>2026-03-24T13:45:40.987Z</time></trkpt><trkpt lat="45.6798015" lon="9.3052742"><ele>287.0</ele><time>2026-03-24T13:45:42.988Z</time></trkpt><trkpt lat="45.6798181" lon="9.3054333"><ele>287.0</ele><time>2026-03-24T13:45:44.988Z</time></trkpt><trkpt lat="45.6798313" lon="9.3055791"><ele>287.0</ele><time>2026-03-24T13:45:46.988Z</time></trkpt><trkpt lat="45.679844" lon="9.3057173"><ele>287.0</ele><time>2026-03-24T13:45:48.988Z</time></trkpt><trkpt lat="45.6798552" lon="9.3058467"><ele>287.0</ele><time>2026-03-24T13:45:50.987Z</time></trkpt><trkpt lat="45.6798549" lon="9.3059517"><ele>287.0</ele><time>2026-03-24T13:45:52.988Z</time></trkpt><trkpt lat="45.6800488" lon="9.3061257"><ele>287.0</ele><time>2026-03-24T13:46:01.987Z</time></trkpt><trkpt lat="45.680139" lon="9.3061036"><ele>287.0</ele><time>2026-03-24T13:46:03.988Z</time></trkpt><trkpt lat="45.6802332" lon="9.3060606"><ele>287.25</ele><time>2026-03-24T13:46:05.988Z</time></trkpt><trkpt lat="45.6803431" lon="9.3060305"><ele>287.5</ele><time>2026-03-24T13:46:07.988Z</time></trkpt><trkpt lat="45.6804655" lon="9.3060175"><ele>287.75</ele><time>2026-03-24T13:46:09.988Z</time></trkpt><trkpt lat="45.6805661" lon="9.3059636"><ele>288.0</ele><time>2026-03-24T13:46:11.987Z</time></trkpt><trkpt lat="45.6806767" lon="9.3059309"><ele>288.0</ele><time>2026-03-24T13:46:13.988Z</time></trkpt><trkpt lat="45.6807809" lon="9.3058988"><ele>288.0</ele><time>2026-03-24T13:46:15.987Z</time></trkpt><trkpt lat="45.6808781" lon="9.3058786"><ele>288.0</ele><time>2026-03-24T13:46:17.988Z</time></trkpt><trkpt lat="45.6809696" lon="9.3058579"><ele>288.0</ele><time>2026-03-24T13:46:19.988Z</time></trkpt><trkpt lat="45.6810439" lon="9.3058263"><ele>288.0</ele><time>2026-03-24T13:46:21.988Z</time></trkpt><trkpt lat="45.681132" lon="9.3057984"><ele>288.5714285714286</ele><time>2026-03-24T13:46:23.988Z</time></trkpt><trkpt lat="45.6812021" lon="9.3057875"><ele>289.14285714285717</ele><time>2026-03-24T13:46:25.988Z</time></trkpt><trkpt lat="45.6812713" lon="9.3057673"><ele>289.7142857142857</ele><time>2026-03-24T13:46:27.988Z</time></trkpt><trkpt lat="45.6813481" lon="9.3057501"><ele>290.28571428571433</ele><time>2026-03-24T13:46:29.988Z</time></trkpt><trkpt lat="45.6814318" lon="9.3057324"><ele>290.8571428571429</ele><time>2026-03-24T13:46:31.988Z</time></trkpt><trkpt lat="45.6814998" lon="9.3057078"><ele>291.42857142857144</ele><time>2026-03-24T13:46:33.988Z</time></trkpt><trkpt lat="45.6815646" lon="9.3056786"><ele>292.0</ele><time>2026-03-24T13:46:35.988Z</time></trkpt><trkpt lat="45.6816321" lon="9.3056607"><ele>292.0</ele><time>2026-03-24T13:46:37.988Z</time></trkpt><trkpt lat="45.6816647" lon="9.3057867"><ele>292.0</ele><time>2026-03-24T13:46:43.988Z</time></trkpt><trkpt lat="45.6817062" lon="9.3058665"><ele>292.0</ele><time>2026-03-24T13:46:45.988Z</time></trkpt><trkpt lat="45.681744" lon="9.3059411"><ele>292.0</ele><time>2026-03-24T13:46:47.992Z</time></trkpt><trkpt lat="45.6818095" lon="9.3060192"><ele>292.0</ele><time>2026-03-24T13:46:49.988Z</time></trkpt><trkpt lat="45.6818807" lon="9.3061518"><ele>292.0</ele><time>2026-03-24T13:46:50.988Z</time></trkpt><trkpt lat="45.6819091" lon="9.3062795"><ele>293.0</ele><time>2026-03-24T13:46:52.988Z</time></trkpt><trkpt lat="45.681939" lon="9.3064151"><ele>294.0</ele><time>2026-03-24T13:46:54.988Z</time></trkpt><trkpt lat="45.6819719" lon="9.3065677"><ele>295.0</ele><time>2026-03-24T13:46:56.988Z</time></trkpt><trkpt lat="45.6820053" lon="9.3067045"><ele>296.0</ele><time>2026-03-24T13:46:58.988Z</time></trkpt><trkpt lat="45.6820392" lon="9.3068647"><ele>297.0</ele><time>2026-03-24T13:47:00.988Z</time></trkpt><trkpt lat="45.682077" lon="9.3070277"><ele>297.0</ele><time>2026-03-24T13:47:02.988Z</time></trkpt><trkpt lat="45.6821013" lon="9.3071875"><ele>297.0</ele><time>2026-03-24T13:47:04.988Z</time></trkpt><trkpt lat="45.6821287" lon="9.3073409"><ele>297.0</ele><time>2026-03-24T13:47:06.987Z</time></trkpt><trkpt lat="45.6821561" lon="9.3074714"><ele>297.0</ele><time>2026-03-24T13:47:08.988Z</time></trkpt><trkpt lat="45.6821822" lon="9.3076071"><ele>297.0</ele><time>2026-03-24T13:47:10.988Z</time></trkpt><trkpt lat="45.6822137" lon="9.3077422"><ele>297.5</ele><time>2026-03-24T13:47:12.988Z</time></trkpt><trkpt lat="45.6822432" lon="9.3078498"><ele>298.0</ele><time>2026-03-24T13:47:14.988Z</time></trkpt><trkpt lat="45.6822691" lon="9.3079603"><ele>298.5</ele><time>2026-03-24T13:47:16.988Z</time></trkpt><trkpt lat="45.6822999" lon="9.3080844"><ele>299.0</ele><time>2026-03-24T13:47:18.988Z</time></trkpt><trkpt lat="45.682324" lon="9.3082022"><ele>299.5</ele><time>2026-03-24T13:47:20.988Z</time></trkpt><trkpt lat="45.6823477" lon="9.3083188"><ele>300.0</ele><time>2026-03-24T13:47:22.988Z</time></trkpt><trkpt lat="45.6823773" lon="9.3084287"><ele>300.5</ele><time>2026-03-24T13:47:24.988Z</time></trkpt><trkpt lat="45.6824053" lon="9.308556"><ele>301.0</ele><time>2026-03-24T13:47:26.988Z</time></trkpt><trkpt lat="45.6824346" lon="9.3086671"><ele>301.5</ele><time>2026-03-24T13:47:28.988Z</time></trkpt><trkpt lat="45.6824611" lon="9.308773"><ele>302.0</ele><time>2026-03-24T13:47:30.987Z</time></trkpt><trkpt lat="45.6824852" lon="9.3088799"><ele>302.5</ele><time>2026-03-24T13:47:32.988Z</time></trkpt><trkpt lat="45.682504" lon="9.3089755"><ele>303.0</ele><time>2026-03-24T13:47:34.988Z</time></trkpt><trkpt lat="45.6825318" lon="9.3090716"><ele>303.0</ele><time>2026-03-24T13:47:37.988Z</time></trkpt><trkpt lat="45.6825639" lon="9.3092035"><ele>303.0</ele><time>2026-03-24T13:47:39.988Z</time></trkpt><trkpt lat="45.6825953" lon="9.3093518"><ele>303.0</ele><time>2026-03-24T13:47:41.988Z</time></trkpt><trkpt lat="45.6826226" lon="9.3094859"><ele>303.0</ele><time>2026-03-24T13:47:43.988Z</time></trkpt><trkpt lat="45.6826547" lon="9.3096205"><ele>303.0</ele><time>2026-03-24T13:47:45.988Z</time></trkpt><trkpt lat="45.6826899" lon="9.3097474"><ele>303.4</ele><time>2026-03-24T13:47:47.988Z</time></trkpt><trkpt lat="45.6827155" lon="9.3098834"><ele>303.8</ele><time>2026-03-24T13:47:49.988Z</time></trkpt><trkpt lat="45.6827349" lon="9.3100457"><ele>304.2</ele><time>2026-03-24T13:47:51.988Z</time></trkpt><trkpt lat="45.6827439" lon="9.3102051"><ele>304.6</ele><time>2026-03-24T13:47:53.988Z</time></trkpt><trkpt lat="45.6827707" lon="9.3103329"><ele>305.0</ele><time>2026-03-24T13:47:55.988Z</time></trkpt><trkpt lat="45.6828033" lon="9.3104602"><ele>305.0</ele><time>2026-03-24T13:47:57.988Z</time></trkpt><trkpt lat="45.6828233" lon="9.310586"><ele>305.0</ele><time>2026-03-24T13:47:59.988Z</time></trkpt><trkpt lat="45.6828406" lon="9.3107241"><ele>305.0</ele><time>2026-03-24T13:48:01.987Z</time></trkpt><trkpt lat="45.6828551" lon="9.3108662"><ele>305.0</ele><time>2026-03-24T13:48:03.988Z</time></trkpt><trkpt lat="45.682885" lon="9.3110062"><ele>305.0</ele><time>2026-03-24T13:48:05.988Z</time></trkpt><trkpt lat="45.6829111" lon="9.3111625"><ele>305.0</ele><time>2026-03-24T13:48:07.988Z</time></trkpt><trkpt lat="45.6829403" lon="9.3113267"><ele>305.0</ele><time>2026-03-24T13:48:09.988Z</time></trkpt><trkpt lat="45.6829533" lon="9.3114178"><ele>305.0</ele><time>2026-03-24T13:48:10.988Z</time></trkpt><trkpt lat="45.6830021" lon="9.3116071"><ele>305.0</ele><time>2026-03-24T13:48:12.988Z</time></trkpt><trkpt lat="45.6830267" lon="9.3117596"><ele>305.0</ele><time>2026-03-24T13:48:14.988Z</time></trkpt><trkpt lat="45.6830395" lon="9.3118542"><ele>304.25</ele><time>2026-03-24T13:48:15.988Z</time></trkpt><trkpt lat="45.6830651" lon="9.31201"><ele>303.5</ele><time>2026-03-24T13:48:17.988Z</time></trkpt><trkpt lat="45.683091" lon="9.3121696"><ele>302.75</ele><time>2026-03-24T13:48:19.988Z</time></trkpt><trkpt lat="45.6831197" lon="9.3123192"><ele>302.0</ele><time>2026-03-24T13:48:21.988Z</time></trkpt><trkpt lat="45.6831452" lon="9.3124819"><ele>302.0</ele><time>2026-03-24T13:48:23.988Z</time></trkpt><trkpt lat="45.6831736" lon="9.312638"><ele>302.0</ele><time>2026-03-24T13:48:25.987Z</time></trkpt><trkpt lat="45.6831959" lon="9.3128009"><ele>302.0</ele><time>2026-03-24T13:48:27.988Z</time></trkpt><trkpt lat="45.6832182" lon="9.3129494"><ele>302.0</ele><time>2026-03-24T13:48:29.988Z</time></trkpt><trkpt lat="45.6832485" lon="9.3130997"><ele>302.0</ele><time>2026-03-24T13:48:31.988Z</time></trkpt><trkpt lat="45.6832766" lon="9.3132624"><ele>302.0</ele><time>2026-03-24T13:48:33.988Z</time></trkpt><trkpt lat="45.6832994" lon="9.3134157"><ele>302.0</ele><time>2026-03-24T13:48:35.988Z</time></trkpt><trkpt lat="45.6833379" lon="9.3135477"><ele>302.0</ele><time>2026-03-24T13:48:37.988Z</time></trkpt><trkpt lat="45.6833669" lon="9.3136611"><ele>302.0</ele><time>2026-03-24T13:48:38.988Z</time></trkpt><trkpt lat="45.6833973" lon="9.3137708"><ele>302.0</ele><time>2026-03-24T13:48:39.988Z</time></trkpt><trkpt lat="45.6834197" lon="9.3138764"><ele>302.0</ele><time>2026-03-24T13:48:40.987Z</time></trkpt><trkpt lat="45.6834465" lon="9.3139656"><ele>302.0</ele><time>2026-03-24T13:48:41.988Z</time></trkpt><trkpt lat="45.6834764" lon="9.3140623"><ele>302.0</ele><time>2026-03-24T13:48:42.988Z</time></trkpt><trkpt lat="45.6835054" lon="9.3141644"><ele>302.0</ele><time>2026-03-24T13:48:43.988Z</time></trkpt><trkpt lat="45.6835324" lon="9.3142462"><ele>302.0</ele><time>2026-03-24T13:48:44.988Z</time></trkpt><trkpt lat="45.6835856" lon="9.3144088"><ele>302.0</ele><time>2026-03-24T13:48:46.988Z</time></trkpt><trkpt lat="45.6836264" lon="9.3145555"><ele>302.2</ele><time>2026-03-24T13:48:48.988Z</time></trkpt><trkpt lat="45.6836658" lon="9.3146814"><ele>302.4</ele><time>2026-03-24T13:48:50.988Z</time></trkpt><trkpt lat="45.6836898" lon="9.3148067"><ele>302.6</ele><time>2026-03-24T13:48:52.987Z</time></trkpt><trkpt lat="45.6837192" lon="9.314929"><ele>302.8</ele><time>2026-03-24T13:48:54.988Z</time></trkpt><trkpt lat="45.6837623" lon="9.3150512"><ele>303.0</ele><time>2026-03-24T13:48:56.988Z</time></trkpt><trkpt lat="45.6837999" lon="9.3151674"><ele>303.5</ele><time>2026-03-24T13:48:58.988Z</time></trkpt><trkpt lat="45.6838347" lon="9.3152758"><ele>304.0</ele><time>2026-03-24T13:49:00.988Z</time></trkpt><trkpt lat="45.6838703" lon="9.3153754"><ele>304.5</ele><time>2026-03-24T13:49:02.987Z</time></trkpt><trkpt lat="45.683917" lon="9.3154819"><ele>305.0</ele><time>2026-03-24T13:49:04.988Z</time></trkpt><trkpt lat="45.6839531" lon="9.3155808"><ele>305.5</ele><time>2026-03-24T13:49:06.988Z</time></trkpt><trkpt lat="45.6839766" lon="9.3156861"><ele>306.0</ele><time>2026-03-24T13:49:08.988Z</time></trkpt><trkpt lat="45.6839877" lon="9.3158165"><ele>306.3333333333333</ele><time>2026-03-24T13:49:10.988Z</time></trkpt><trkpt lat="45.6839951" lon="9.3159424"><ele>306.6666666666667</ele><time>2026-03-24T13:49:12.988Z</time></trkpt><trkpt lat="45.6839971" lon="9.3160566"><ele>307.0</ele><time>2026-03-24T13:49:14.988Z</time></trkpt><trkpt lat="45.6839959" lon="9.3161733"><ele>307.33333333333337</ele><time>2026-03-24T13:49:16.988Z</time></trkpt><trkpt lat="45.6839639" lon="9.3162647"><ele>307.6666666666667</ele><time>2026-03-24T13:49:18.988Z</time></trkpt><trkpt lat="45.6839395" lon="9.3163644"><ele>308.0</ele><time>2026-03-24T13:49:20.988Z</time></trkpt><trkpt lat="45.6839625" lon="9.3164495"><ele>308.1666666666667</ele><time>2026-03-24T13:49:51.988Z</time></trkpt><trkpt lat="45.6840103" lon="9.3165195"><ele>308.33333333333337</ele><time>2026-03-24T13:49:53.988Z</time></trkpt><trkpt lat="45.684052" lon="9.3166319"><ele>308.5</ele><time>2026-03-24T13:49:55.988Z</time></trkpt><trkpt lat="45.6840857" lon="9.3167438"><ele>308.6666666666667</ele><time>2026-03-24T13:49:57.987Z</time></trkpt><trkpt lat="45.6841202" lon="9.3168463"><ele>308.8333333333333</ele><time>2026-03-24T13:49:59.988Z</time></trkpt><trkpt lat="45.6841538" lon="9.3169584"><ele>309.0</ele><time>2026-03-24T13:50:01.988Z</time></trkpt><trkpt lat="45.6841708" lon="9.3170587"><ele>309.0</ele><time>2026-03-24T13:50:02.988Z</time></trkpt><trkpt lat="45.6841917" lon="9.3171666"><ele>309.0</ele><time>2026-03-24T13:50:04.988Z</time></trkpt><trkpt lat="45.6842078" lon="9.3172789"><ele>309.0</ele><time>2026-03-24T13:50:06.988Z</time></trkpt><trkpt lat="45.6842817" lon="9.3175919"><ele>309.0</ele><time>2026-03-24T13:50:07.988Z</time></trkpt><trkpt lat="45.6843064" lon="9.3177397"><ele>309.2</ele><time>2026-03-24T13:50:09.988Z</time></trkpt><trkpt lat="45.6843311" lon="9.3178672"><ele>309.4</ele><time>2026-03-24T13:50:11.988Z</time></trkpt><trkpt lat="45.684358" lon="9.3180286"><ele>309.6</ele><time>2026-03-24T13:50:13.988Z</time></trkpt><trkpt lat="45.6843821" lon="9.3181807"><ele>309.8</ele><time>2026-03-24T13:50:15.988Z</time></trkpt><trkpt lat="45.6843853" lon="9.3183318"><ele>310.0</ele><time>2026-03-24T13:50:17.988Z</time></trkpt><trkpt lat="45.6843772" lon="9.3185283"><ele>309.4</ele><time>2026-03-24T13:50:19.987Z</time></trkpt><trkpt lat="45.6843449" lon="9.3186193"><ele>308.8</ele><time>2026-03-24T13:50:20.988Z</time></trkpt><trkpt lat="45.6843157" lon="9.3187027"><ele>308.2</ele><time>2026-03-24T13:50:21.988Z</time></trkpt><trkpt lat="45.6842284" lon="9.3187999"><ele>307.6</ele><time>2026-03-24T13:50:23.988Z</time></trkpt><trkpt lat="45.684118" lon="9.3188617"><ele>307.0</ele><time>2026-03-24T13:50:25.988Z</time></trkpt><trkpt lat="45.6840022" lon="9.3189156"><ele>306.8333333333333</ele><time>2026-03-24T13:50:27.988Z</time></trkpt><trkpt lat="45.6838978" lon="9.3189778"><ele>306.66666666666663</ele><time>2026-03-24T13:50:29.988Z</time></trkpt><trkpt lat="45.6837867" lon="9.3190397"><ele>306.5</ele><time>2026-03-24T13:50:31.988Z</time></trkpt><trkpt lat="45.6837239" lon="9.3190598"><ele>306.3333333333333</ele><time>2026-03-24T13:50:32.988Z</time></trkpt><trkpt lat="45.6836631" lon="9.3190877"><ele>306.1666666666667</ele><time>2026-03-24T13:50:33.988Z</time></trkpt><trkpt lat="45.6836009" lon="9.3191116"><ele>306.0</ele><time>2026-03-24T13:50:34.988Z</time></trkpt><trkpt lat="45.6835393" lon="9.3191379"><ele>305.2</ele><time>2026-03-24T13:50:35.988Z</time></trkpt><trkpt lat="45.6834284" lon="9.3191996"><ele>304.40000000000003</ele><time>2026-03-24T13:50:37.988Z</time></trkpt><trkpt lat="45.6833663" lon="9.3192218"><ele>303.6</ele><time>2026-03-24T13:50:38.988Z</time></trkpt><trkpt lat="45.6832611" lon="9.3192708"><ele>302.8</ele><time>2026-03-24T13:50:40.988Z</time></trkpt><trkpt lat="45.6831439" lon="9.3192904"><ele>302.0</ele><time>2026-03-24T13:50:42.988Z</time></trkpt><trkpt lat="45.6830364" lon="9.3192599"><ele>302.0</ele><time>2026-03-24T13:50:44.988Z</time></trkpt><trkpt lat="45.6829401" lon="9.3191697"><ele>302.0</ele><time>2026-03-24T13:50:46.988Z</time></trkpt><trkpt lat="45.6828712" lon="9.3191476"><ele>302.0</ele><time>2026-03-24T13:50:48.988Z</time></trkpt><trkpt lat="45.6828061" lon="9.3191236"><ele>302.0</ele><time>2026-03-24T13:50:50.988Z</time></trkpt><trkpt lat="45.6827803" lon="9.3192059"><ele>302.0</ele><time>2026-03-24T13:50:51.988Z</time></trkpt><trkpt lat="45.6827605" lon="9.3193256"><ele>302.0</ele><time>2026-03-24T13:50:53.988Z</time></trkpt><trkpt lat="45.6827356" lon="9.3194653"><ele>302.4</ele><time>2026-03-24T13:50:55.987Z</time></trkpt><trkpt lat="45.6827181" lon="9.3196092"><ele>302.79999999999995</ele><time>2026-03-24T13:50:57.987Z</time></trkpt><trkpt lat="45.6826849" lon="9.3197321"><ele>303.2</ele><time>2026-03-24T13:50:59.988Z</time></trkpt><trkpt lat="45.6826634" lon="9.3198788"><ele>303.59999999999997</ele><time>2026-03-24T13:51:01.988Z</time></trkpt><trkpt lat="45.6826174" lon="9.3200476"><ele>304.0</ele><time>2026-03-24T13:51:03.988Z</time></trkpt><trkpt lat="45.6825883" lon="9.3201792"><ele>304.0</ele><time>2026-03-24T13:51:05.988Z</time></trkpt><trkpt lat="45.6825725" lon="9.3202824"><ele>304.0</ele><time>2026-03-24T13:51:07.988Z</time></trkpt><trkpt lat="45.6825568" lon="9.3203973"><ele>304.0</ele><time>2026-03-24T13:51:09.988Z</time></trkpt><trkpt lat="45.682555" lon="9.3205061"><ele>304.0</ele><time>2026-03-24T13:51:10.988Z</time></trkpt><trkpt lat="45.6825442" lon="9.3206171"><ele>304.0</ele><time>2026-03-24T13:51:11.988Z</time></trkpt><trkpt lat="45.6825012" lon="9.32077"><ele>304.0</ele><time>2026-03-24T13:51:13.988Z</time></trkpt><trkpt lat="45.6824791" lon="9.3209208"><ele>303.59999999999997</ele><time>2026-03-24T13:51:15.987Z</time></trkpt><trkpt lat="45.6824723" lon="9.3210136"><ele>303.2</ele><time>2026-03-24T13:51:16.988Z</time></trkpt><trkpt lat="45.6824414" lon="9.3211706"><ele>302.79999999999995</ele><time>2026-03-24T13:51:18.988Z</time></trkpt><trkpt lat="45.6824121" lon="9.3213222"><ele>302.4</ele><time>2026-03-24T13:51:20.988Z</time></trkpt><trkpt lat="45.6823856" lon="9.3214711"><ele>302.0</ele><time>2026-03-24T13:51:22.987Z</time></trkpt><trkpt lat="45.6823639" lon="9.3216192"><ele>302.0</ele><time>2026-03-24T13:51:24.987Z</time></trkpt><trkpt lat="45.6823359" lon="9.321767"><ele>302.0</ele><time>2026-03-24T13:51:26.988Z</time></trkpt><trkpt lat="45.6823039" lon="9.3219224"><ele>302.0</ele><time>2026-03-24T13:51:28.988Z</time></trkpt><trkpt lat="45.682269" lon="9.322068"><ele>302.0</ele><time>2026-03-24T13:51:30.988Z</time></trkpt><trkpt lat="45.6822495" lon="9.3221715"><ele>302.0</ele><time>2026-03-24T13:51:32.987Z</time></trkpt><trkpt lat="45.6822199" lon="9.3222697"><ele>302.5</ele><time>2026-03-24T13:51:34.988Z</time></trkpt><trkpt lat="45.6821422" lon="9.3223607"><ele>303.0</ele><time>2026-03-24T13:51:37.988Z</time></trkpt><trkpt lat="45.6820605" lon="9.3223907"><ele>303.5</ele><time>2026-03-24T13:51:40.988Z</time></trkpt><trkpt lat="45.6820164" lon="9.3224625"><ele>304.0</ele><time>2026-03-24T13:51:42.988Z</time></trkpt><trkpt lat="45.6819805" lon="9.3225662"><ele>304.5</ele><time>2026-03-24T13:51:46.987Z</time></trkpt><trkpt lat="45.6820069" lon="9.3226662"><ele>305.0</ele><time>2026-03-24T13:51:49.988Z</time></trkpt><trkpt lat="45.6820043" lon="9.3227859"><ele>305.0</ele><time>2026-03-24T13:51:52.988Z</time></trkpt><trkpt lat="45.6819936" lon="9.3228787"><ele>305.0</ele><time>2026-03-24T13:51:54.988Z</time></trkpt><trkpt lat="45.6819487" lon="9.322982"><ele>305.0</ele><time>2026-03-24T13:51:57.988Z</time></trkpt><trkpt lat="45.6818979" lon="9.3230514"><ele>305.0</ele><time>2026-03-24T13:52:00.988Z</time></trkpt><trkpt lat="45.6818144" lon="9.3231236"><ele>305.0</ele><time>2026-03-24T13:52:03.988Z</time></trkpt><trkpt lat="45.6817477" lon="9.3231751"><ele>305.0</ele><time>2026-03-24T13:52:05.988Z</time></trkpt><trkpt lat="45.6816492" lon="9.3232455"><ele>304.0</ele><time>2026-03-24T13:52:07.988Z</time></trkpt><trkpt lat="45.6815699" lon="9.3233151"><ele>303.0</ele><time>2026-03-24T13:52:08.988Z</time></trkpt><trkpt lat="45.6815091" lon="9.3233567"><ele>302.0</ele><time>2026-03-24T13:52:09.988Z</time></trkpt><trkpt lat="45.681416" lon="9.3234462"><ele>301.0</ele><time>2026-03-24T13:52:11.988Z</time></trkpt><trkpt lat="45.6813398" lon="9.3235125"><ele>300.0</ele><time>2026-03-24T13:52:13.988Z</time></trkpt><trkpt lat="45.6812953" lon="9.3236159"><ele>299.0</ele><time>2026-03-24T13:52:15.987Z</time></trkpt><trkpt lat="45.6813076" lon="9.3237393"><ele>297.5</ele><time>2026-03-24T13:52:17.988Z</time></trkpt><trkpt lat="45.6812977" lon="9.3239042"><ele>296.0</ele><time>2026-03-24T13:52:19.988Z</time></trkpt><trkpt lat="45.6813109" lon="9.3240639"><ele>294.5</ele><time>2026-03-24T13:52:21.988Z</time></trkpt><trkpt lat="45.681304" lon="9.3242271"><ele>293.0</ele><time>2026-03-24T13:52:23.988Z</time></trkpt><trkpt lat="45.6813086" lon="9.3243926"><ele>293.0</ele><time>2026-03-24T13:52:25.987Z</time></trkpt><trkpt lat="45.6813127" lon="9.3245694"><ele>293.0</ele><time>2026-03-24T13:52:27.987Z</time></trkpt><trkpt lat="45.6813202" lon="9.3247284"><ele>293.0</ele><time>2026-03-24T13:52:29.988Z</time></trkpt><trkpt lat="45.6813281" lon="9.3248877"><ele>293.0</ele><time>2026-03-24T13:52:31.988Z</time></trkpt><trkpt lat="45.6813313" lon="9.3250372"><ele>292.4</ele><time>2026-03-24T13:52:33.987Z</time></trkpt><trkpt lat="45.6813481" lon="9.3252014"><ele>291.8</ele><time>2026-03-24T13:52:35.988Z</time></trkpt><trkpt lat="45.6813665" lon="9.3252992"><ele>291.2</ele><time>2026-03-24T13:52:36.988Z</time></trkpt><trkpt lat="45.6813782" lon="9.3253957"><ele>290.6</ele><time>2026-03-24T13:52:37.988Z</time></trkpt><trkpt lat="45.681384" lon="9.3255525"><ele>290.0</ele><time>2026-03-24T13:52:39.988Z</time></trkpt><trkpt lat="45.6813962" lon="9.3256852"><ele>289.83333333333337</ele><time>2026-03-24T13:52:41.988Z</time></trkpt><trkpt lat="45.6813943" lon="9.3257858"><ele>289.6666666666667</ele><time>2026-03-24T13:52:43.988Z</time></trkpt><trkpt lat="45.681343" lon="9.3258481"><ele>289.5</ele><time>2026-03-24T13:52:45.988Z</time></trkpt><trkpt lat="45.681275" lon="9.3258968"><ele>289.3333333333333</ele><time>2026-03-24T13:52:47.988Z</time></trkpt><trkpt lat="45.6812007" lon="9.3259648"><ele>289.16666666666663</ele><time>2026-03-24T13:52:49.988Z</time></trkpt><trkpt lat="45.681162" lon="9.3260617"><ele>289.0</ele><time>2026-03-24T13:52:51.988Z</time></trkpt><trkpt lat="45.6811498" lon="9.3261602"><ele>289.0</ele><time>2026-03-24T13:52:53.988Z</time></trkpt><trkpt lat="45.6811635" lon="9.3262978"><ele>289.0</ele><time>2026-03-24T13:52:55.988Z</time></trkpt><trkpt lat="45.6812085" lon="9.326387"><ele>289.0</ele><time>2026-03-24T13:52:57.988Z</time></trkpt><trkpt lat="45.6812153" lon="9.3264786"><ele>289.0</ele><time>2026-03-24T13:52:58.988Z</time></trkpt><trkpt lat="45.68125" lon="9.3265992"><ele>289.0</ele><time>2026-03-24T13:53:00.988Z</time></trkpt><trkpt lat="45.6812881" lon="9.3267432"><ele>289.0</ele><time>2026-03-24T13:53:02.987Z</time></trkpt><trkpt lat="45.6813117" lon="9.3268776"><ele>289.25</ele><time>2026-03-24T13:53:04.988Z</time></trkpt><trkpt lat="45.6813462" lon="9.3270226"><ele>289.5</ele><time>2026-03-24T13:53:06.988Z</time></trkpt><trkpt lat="45.6813868" lon="9.3271513"><ele>289.75</ele><time>2026-03-24T13:53:08.988Z</time></trkpt><trkpt lat="45.6814169" lon="9.3272756"><ele>290.0</ele><time>2026-03-24T13:53:10.988Z</time></trkpt><trkpt lat="45.6816346" lon="9.3272333"><ele>290.0</ele><time>2026-03-24T13:53:21.988Z</time></trkpt><trkpt lat="45.6817204" lon="9.3271894"><ele>290.0</ele><time>2026-03-24T13:53:24.988Z</time></trkpt><trkpt lat="45.6817996" lon="9.3271466"><ele>290.0</ele><time>2026-03-24T13:53:26.988Z</time></trkpt><trkpt lat="45.6818897" lon="9.3271078"><ele>290.0</ele><time>2026-03-24T13:53:28.988Z</time></trkpt><trkpt lat="45.681978" lon="9.3270822"><ele>290.0</ele><time>2026-03-24T13:53:30.988Z</time></trkpt><trkpt lat="45.6820707" lon="9.3270465"><ele>290.1666666666667</ele><time>2026-03-24T13:53:32.987Z</time></trkpt><trkpt lat="45.6821605" lon="9.3270311"><ele>290.33333333333337</ele><time>2026-03-24T13:53:34.988Z</time></trkpt><trkpt lat="45.6822334" lon="9.327076"><ele>290.5</ele><time>2026-03-24T13:53:36.988Z</time></trkpt><trkpt lat="45.6822938" lon="9.3271535"><ele>290.6666666666667</ele><time>2026-03-24T13:53:38.988Z</time></trkpt><trkpt lat="45.6823381" lon="9.3272498"><ele>290.8333333333333</ele><time>2026-03-24T13:53:40.988Z</time></trkpt><trkpt lat="45.6823755" lon="9.3273449"><ele>291.0</ele><time>2026-03-24T13:53:42.988Z</time></trkpt><trkpt lat="45.6824131" lon="9.3274462"><ele>291.40000000000003</ele><time>2026-03-24T13:53:44.988Z</time></trkpt><trkpt lat="45.682454" lon="9.3275587"><ele>291.8</ele><time>2026-03-24T13:53:46.988Z</time></trkpt><trkpt lat="45.6824791" lon="9.3276704"><ele>292.20000000000005</ele><time>2026-03-24T13:53:48.988Z</time></trkpt><trkpt lat="45.6824369" lon="9.3277713"><ele>292.6</ele><time>2026-03-24T13:53:50.988Z</time></trkpt><trkpt lat="45.6823557" lon="9.3278586"><ele>293.0</ele><time>2026-03-24T13:53:52.988Z</time></trkpt><trkpt lat="45.6822562" lon="9.3279032"><ele>293.0</ele><time>2026-03-24T13:53:54.988Z</time></trkpt><trkpt lat="45.6821664" lon="9.3279556"><ele>293.0</ele><time>2026-03-24T13:53:56.988Z</time></trkpt><trkpt lat="45.6820643" lon="9.3280168"><ele>293.0</ele><time>2026-03-24T13:53:58.988Z</time></trkpt><trkpt lat="45.681951" lon="9.3280666"><ele>293.0</ele><time>2026-03-24T13:54:00.988Z</time></trkpt><trkpt lat="45.681853" lon="9.3281203"><ele>293.0</ele><time>2026-03-24T13:54:02.988Z</time></trkpt><trkpt lat="45.6817491" lon="9.3281797"><ele>292.4</ele><time>2026-03-24T13:54:04.988Z</time></trkpt><trkpt lat="45.6816526" lon="9.3282325"><ele>291.8</ele><time>2026-03-24T13:54:06.988Z</time></trkpt><trkpt lat="45.6815521" lon="9.3282799"><ele>291.2</ele><time>2026-03-24T13:54:08.988Z</time></trkpt><trkpt lat="45.6814608" lon="9.3283303"><ele>290.6</ele><time>2026-03-24T13:54:10.988Z</time></trkpt><trkpt lat="45.6813547" lon="9.3283817"><ele>290.0</ele><time>2026-03-24T13:54:12.988Z</time></trkpt><trkpt lat="45.6812555" lon="9.3284316"><ele>290.0</ele><time>2026-03-24T13:54:14.988Z</time></trkpt><trkpt lat="45.6811502" lon="9.3284749"><ele>290.0</ele><time>2026-03-24T13:54:16.988Z</time></trkpt><trkpt lat="45.6810522" lon="9.3285166"><ele>290.0</ele><time>2026-03-24T13:54:18.987Z</time></trkpt><trkpt lat="45.680974" lon="9.3285601"><ele>290.0</ele><time>2026-03-24T13:54:20.988Z</time></trkpt><trkpt lat="45.6809985" lon="9.3286919"><ele>290.0</ele><time>2026-03-24T13:54:22.988Z</time></trkpt><trkpt lat="45.6810392" lon="9.3288215"><ele>289.6666666666667</ele><time>2026-03-24T13:54:24.987Z</time></trkpt><trkpt lat="45.6810861" lon="9.3289211"><ele>289.33333333333337</ele><time>2026-03-24T13:54:26.988Z</time></trkpt><trkpt lat="45.6811275" lon="9.3290364"><ele>289.0</ele><time>2026-03-24T13:54:28.988Z</time></trkpt><trkpt lat="45.6811089" lon="9.3291692"><ele>288.6666666666667</ele><time>2026-03-24T13:54:30.988Z</time></trkpt><trkpt lat="45.6810513" lon="9.3292621"><ele>288.3333333333333</ele><time>2026-03-24T13:54:32.988Z</time></trkpt><trkpt lat="45.6809864" lon="9.3292877"><ele>288.0</ele><time>2026-03-24T13:54:33.988Z</time></trkpt><trkpt lat="45.6809311" lon="9.3293347"><ele>287.5</ele><time>2026-03-24T13:54:34.987Z</time></trkpt><trkpt lat="45.6808517" lon="9.32938"><ele>287.0</ele><time>2026-03-24T13:54:36.988Z</time></trkpt><trkpt lat="45.6807927" lon="9.3294224"><ele>286.5</ele><time>2026-03-24T13:54:37.988Z</time></trkpt><trkpt lat="45.6807306" lon="9.3294519"><ele>286.0</ele><time>2026-03-24T13:54:38.988Z</time></trkpt><trkpt lat="45.6806693" lon="9.3294781"><ele>285.5</ele><time>2026-03-24T13:54:39.988Z</time></trkpt><trkpt lat="45.6805725" lon="9.3295308"><ele>285.0</ele><time>2026-03-24T13:54:41.988Z</time></trkpt><trkpt lat="45.6804487" lon="9.3295797"><ele>285.0</ele><time>2026-03-24T13:54:43.988Z</time></trkpt><trkpt lat="45.6803294" lon="9.3296459"><ele>285.0</ele><time>2026-03-24T13:54:45.988Z</time></trkpt><trkpt lat="45.6802457" lon="9.3296883"><ele>285.0</ele><time>2026-03-24T13:54:47.988Z</time></trkpt><trkpt lat="45.6801544" lon="9.3297553"><ele>285.0</ele><time>2026-03-24T13:54:49.988Z</time></trkpt><trkpt lat="45.6800378" lon="9.3297746"><ele>285.0</ele><time>2026-03-24T13:54:51.988Z</time></trkpt><trkpt lat="45.6799179" lon="9.329792"><ele>284.8</ele><time>2026-03-24T13:54:53.988Z</time></trkpt><trkpt lat="45.6798129" lon="9.3298221"><ele>284.6</ele><time>2026-03-24T13:54:55.987Z</time></trkpt><trkpt lat="45.679689" lon="9.3298734"><ele>284.4</ele><time>2026-03-24T13:54:57.988Z</time></trkpt><trkpt lat="45.679619" lon="9.3298946"><ele>284.2</ele><time>2026-03-24T13:54:58.987Z</time></trkpt><trkpt lat="45.6794939" lon="9.3299375"><ele>284.0</ele><time>2026-03-24T13:55:00.987Z</time></trkpt><trkpt lat="45.6793658" lon="9.3300019"><ele>284.0</ele><time>2026-03-24T13:55:02.988Z</time></trkpt><trkpt lat="45.6793025" lon="9.3300233"><ele>284.0</ele><time>2026-03-24T13:55:03.988Z</time></trkpt><trkpt lat="45.6792396" lon="9.3300449"><ele>284.0</ele><time>2026-03-24T13:55:04.988Z</time></trkpt><trkpt lat="45.6791705" lon="9.3300734"><ele>284.0</ele><time>2026-03-24T13:55:05.988Z</time></trkpt><trkpt lat="45.6790744" lon="9.3301598"><ele>284.0</ele><time>2026-03-24T13:55:07.988Z</time></trkpt><trkpt lat="45.6789817" lon="9.3302386"><ele>284.0</ele><time>2026-03-24T13:55:09.987Z</time></trkpt><trkpt lat="45.6789078" lon="9.3303125"><ele>284.0</ele><time>2026-03-24T13:55:11.988Z</time></trkpt><trkpt lat="45.6788008" lon="9.3304023"><ele>284.0</ele><time>2026-03-24T13:55:13.988Z</time></trkpt><trkpt lat="45.6787382" lon="9.3304501"><ele>284.0</ele><time>2026-03-24T13:55:14.987Z</time></trkpt><trkpt lat="45.678642" lon="9.3305411"><ele>284.0</ele><time>2026-03-24T13:55:16.987Z</time></trkpt><trkpt lat="45.6785775" lon="9.3305855"><ele>284.0</ele><time>2026-03-24T13:55:17.988Z</time></trkpt><trkpt lat="45.6784911" lon="9.3306796"><ele>284.75</ele><time>2026-03-24T13:55:19.988Z</time></trkpt><trkpt lat="45.6784615" lon="9.3308274"><ele>285.5</ele><time>2026-03-24T13:55:21.988Z</time></trkpt><trkpt lat="45.6784219" lon="9.3309717"><ele>286.25</ele><time>2026-03-24T13:55:23.988Z</time></trkpt><trkpt lat="45.6783882" lon="9.3311409"><ele>287.0</ele><time>2026-03-24T13:55:25.988Z</time></trkpt><trkpt lat="45.6783429" lon="9.3313059"><ele>286.4</ele><time>2026-03-24T13:55:27.987Z</time></trkpt><trkpt lat="45.6782896" lon="9.3314575"><ele>285.79999999999995</ele><time>2026-03-24T13:55:29.988Z</time></trkpt><trkpt lat="45.6782252" lon="9.3315907"><ele>285.2</ele><time>2026-03-24T13:55:31.988Z</time></trkpt><trkpt lat="45.6781804" lon="9.3317164"><ele>284.59999999999997</ele><time>2026-03-24T13:55:33.988Z</time></trkpt><trkpt lat="45.6781362" lon="9.3318152"><ele>284.0</ele><time>2026-03-24T13:55:35.988Z</time></trkpt><trkpt lat="45.6780992" lon="9.3319054"><ele>284.0</ele><time>2026-03-24T13:55:46.988Z</time></trkpt><trkpt lat="45.6780223" lon="9.3319287"><ele>284.0</ele><time>2026-03-24T13:55:49.988Z</time></trkpt><trkpt lat="45.6779481" lon="9.3319694"><ele>284.0</ele><time>2026-03-24T13:55:51.988Z</time></trkpt><trkpt lat="45.6778399" lon="9.3320645"><ele>284.0</ele><time>2026-03-24T13:55:53.988Z</time></trkpt><trkpt lat="45.6777704" lon="9.3321526"><ele>284.0</ele><time>2026-03-24T13:55:55.988Z</time></trkpt><trkpt lat="45.6776825" lon="9.332231"><ele>283.4</ele><time>2026-03-24T13:55:57.988Z</time></trkpt><trkpt lat="45.677628" lon="9.3322799"><ele>282.79999999999995</ele><time>2026-03-24T13:55:58.988Z</time></trkpt><trkpt lat="45.6775252" lon="9.3323613"><ele>282.20000000000005</ele><time>2026-03-24T13:56:00.987Z</time></trkpt><trkpt lat="45.6774668" lon="9.3324588"><ele>281.6</ele><time>2026-03-24T13:56:01.988Z</time></trkpt><trkpt lat="45.6773501" lon="9.3325523"><ele>281.0</ele><time>2026-03-24T13:56:03.988Z</time></trkpt><trkpt lat="45.6772296" lon="9.3326742"><ele>281.00000000000006</ele><time>2026-03-24T13:56:05.988Z</time></trkpt><trkpt lat="45.6771898" lon="9.3327462"><ele>281.0</ele><time>2026-03-24T13:56:06.987Z</time></trkpt><trkpt lat="45.6771369" lon="9.3327967"><ele>281.0</ele><time>2026-03-24T13:56:07.988Z</time></trkpt><trkpt lat="45.6770855" lon="9.3328599"><ele>281.0</ele><time>2026-03-24T13:56:08.987Z</time></trkpt><trkpt lat="45.677029" lon="9.3329297"><ele>281.0</ele><time>2026-03-24T13:56:09.988Z</time></trkpt><trkpt lat="45.6769663" lon="9.3330121"><ele>281.00000000000006</ele><time>2026-03-24T13:56:10.987Z</time></trkpt><trkpt lat="45.6769176" lon="9.3330983"><ele>281.0</ele><time>2026-03-24T13:56:12.988Z</time></trkpt><trkpt lat="45.6768296" lon="9.3331959"><ele>280.7142857142857</ele><time>2026-03-24T13:56:14.988Z</time></trkpt><trkpt lat="45.6767718" lon="9.3332591"><ele>280.42857142857144</ele><time>2026-03-24T13:56:15.988Z</time></trkpt><trkpt lat="45.6767045" lon="9.3332989"><ele>280.1428571428571</ele><time>2026-03-24T13:56:16.988Z</time></trkpt><trkpt lat="45.6766526" lon="9.3333596"><ele>279.8571428571429</ele><time>2026-03-24T13:56:17.988Z</time></trkpt><trkpt lat="45.6765991" lon="9.3334152"><ele>279.57142857142856</ele><time>2026-03-24T13:56:18.988Z</time></trkpt><trkpt lat="45.6765387" lon="9.3334788"><ele>279.2857142857143</ele><time>2026-03-24T13:56:19.988Z</time></trkpt><trkpt lat="45.6764775" lon="9.3335374"><ele>279.0</ele><time>2026-03-24T13:56:20.988Z</time></trkpt><trkpt lat="45.6764209" lon="9.3336104"><ele>279.0</ele><time>2026-03-24T13:56:21.988Z</time></trkpt><trkpt lat="45.6763592" lon="9.3336793"><ele>279.0</ele><time>2026-03-24T13:56:22.988Z</time></trkpt><trkpt lat="45.6763056" lon="9.3337346"><ele>279.0</ele><time>2026-03-24T13:56:23.988Z</time></trkpt><trkpt lat="45.6762182" lon="9.3338394"><ele>279.0</ele><time>2026-03-24T13:56:25.988Z</time></trkpt><trkpt lat="45.6761478" lon="9.333894"><ele>279.0</ele><time>2026-03-24T13:56:26.988Z</time></trkpt><trkpt lat="45.6760496" lon="9.3339986"><ele>278.4</ele><time>2026-03-24T13:56:28.988Z</time></trkpt><trkpt lat="45.6759333" lon="9.3340904"><ele>277.79999999999995</ele><time>2026-03-24T13:56:29.988Z</time></trkpt><trkpt lat="45.6758714" lon="9.3341394"><ele>277.20000000000005</ele><time>2026-03-24T13:56:30.988Z</time></trkpt><trkpt lat="45.675816" lon="9.3342019"><ele>276.6</ele><time>2026-03-24T13:56:31.988Z</time></trkpt><trkpt lat="45.6757488" lon="9.3342561"><ele>276.0</ele><time>2026-03-24T13:56:32.988Z</time></trkpt><trkpt lat="45.6756366" lon="9.3343537"><ele>276.0</ele><time>2026-03-24T13:56:34.988Z</time></trkpt><trkpt lat="45.675583" lon="9.3344022"><ele>276.0</ele><time>2026-03-24T13:56:35.988Z</time></trkpt><trkpt lat="45.6755113" lon="9.3344403"><ele>276.0</ele><time>2026-03-24T13:56:36.988Z</time></trkpt><trkpt lat="45.6754434" lon="9.3344528"><ele>276.0</ele><time>2026-03-24T13:56:37.988Z</time></trkpt><trkpt lat="45.6753704" lon="9.3344728"><ele>276.0</ele><time>2026-03-24T13:56:38.988Z</time></trkpt><trkpt lat="45.675301" lon="9.3344877"><ele>276.0</ele><time>2026-03-24T13:56:39.988Z</time></trkpt><trkpt lat="45.6751714" lon="9.3345402"><ele>275.6</ele><time>2026-03-24T13:56:41.988Z</time></trkpt><trkpt lat="45.6751038" lon="9.3345715"><ele>275.20000000000005</ele><time>2026-03-24T13:56:42.988Z</time></trkpt><trkpt lat="45.6750319" lon="9.3346155"><ele>274.79999999999995</ele><time>2026-03-24T13:56:43.988Z</time></trkpt><trkpt lat="45.6749469" lon="9.3346495"><ele>274.4</ele><time>2026-03-24T13:56:44.988Z</time></trkpt><trkpt lat="45.674869" lon="9.3346729"><ele>274.0</ele><time>2026-03-24T13:56:45.988Z</time></trkpt><trkpt lat="45.6747369" lon="9.3347123"><ele>273.66666666666663</ele><time>2026-03-24T13:56:47.988Z</time></trkpt><trkpt lat="45.6746541" lon="9.3347578"><ele>273.3333333333333</ele><time>2026-03-24T13:56:48.988Z</time></trkpt><trkpt lat="45.6745894" lon="9.3347766"><ele>273.0</ele><time>2026-03-24T13:56:49.988Z</time></trkpt><trkpt lat="45.6745169" lon="9.3347961"><ele>272.6666666666667</ele><time>2026-03-24T13:56:50.988Z</time></trkpt><trkpt lat="45.6744315" lon="9.3348028"><ele>272.33333333333337</ele><time>2026-03-24T13:56:51.988Z</time></trkpt><trkpt lat="45.6743643" lon="9.3348265"><ele>272.0</ele><time>2026-03-24T13:56:52.988Z</time></trkpt><trkpt lat="45.6742977" lon="9.3348313"><ele>271.85714285714283</ele><time>2026-03-24T13:56:53.988Z</time></trkpt><trkpt lat="45.6742276" lon="9.3348499"><ele>271.7142857142857</ele><time>2026-03-24T13:56:54.988Z</time></trkpt><trkpt lat="45.6741587" lon="9.3348499"><ele>271.57142857142856</ele><time>2026-03-24T13:56:55.988Z</time></trkpt><trkpt lat="45.6740903" lon="9.3348744"><ele>271.42857142857144</ele><time>2026-03-24T13:56:56.988Z</time></trkpt><trkpt lat="45.6740148" lon="9.3348792"><ele>271.2857142857143</ele><time>2026-03-24T13:56:57.988Z</time></trkpt><trkpt lat="45.673952" lon="9.3348975"><ele>271.1428571428571</ele><time>2026-03-24T13:56:58.988Z</time></trkpt><trkpt lat="45.6738878" lon="9.3349344"><ele>271.0</ele><time>2026-03-24T13:56:59.987Z</time></trkpt><trkpt lat="45.6738247" lon="9.3349468"><ele>271.0</ele><time>2026-03-24T13:57:00.988Z</time></trkpt><trkpt lat="45.6737043" lon="9.3349756"><ele>271.0</ele><time>2026-03-24T13:57:02.988Z</time></trkpt><trkpt lat="45.6736423" lon="9.3349949"><ele>271.0</ele><time>2026-03-24T13:57:03.988Z</time></trkpt><trkpt lat="45.6735746" lon="9.3350148"><ele>271.0</ele><time>2026-03-24T13:57:04.988Z</time></trkpt><trkpt lat="45.6735061" lon="9.3350393"><ele>271.0</ele><time>2026-03-24T13:57:05.988Z</time></trkpt><trkpt lat="45.6734364" lon="9.3350609"><ele>271.0</ele><time>2026-03-24T13:57:06.988Z</time></trkpt><trkpt lat="45.6733717" lon="9.3350855"><ele>270.8</ele><time>2026-03-24T13:57:07.988Z</time></trkpt><trkpt lat="45.6732959" lon="9.3351129"><ele>270.6</ele><time>2026-03-24T13:57:08.988Z</time></trkpt><trkpt lat="45.6731789" lon="9.3351815"><ele>270.4</ele><time>2026-03-24T13:57:10.988Z</time></trkpt><trkpt lat="45.6730592" lon="9.3352177"><ele>270.2</ele><time>2026-03-24T13:57:12.988Z</time></trkpt><trkpt lat="45.6729816" lon="9.3352433"><ele>270.0</ele><time>2026-03-24T13:57:13.988Z</time></trkpt><trkpt lat="45.6728583" lon="9.3352661"><ele>270.0</ele><time>2026-03-24T13:57:15.988Z</time></trkpt><trkpt lat="45.6727267" lon="9.335305"><ele>270.0</ele><time>2026-03-24T13:57:17.988Z</time></trkpt><trkpt lat="45.6726464" lon="9.3353205"><ele>270.0</ele><time>2026-03-24T13:57:18.987Z</time></trkpt><trkpt lat="45.6725834" lon="9.3353438"><ele>270.0</ele><time>2026-03-24T13:57:19.988Z</time></trkpt><trkpt lat="45.672517" lon="9.3353702"><ele>270.0</ele><time>2026-03-24T13:57:20.988Z</time></trkpt><trkpt lat="45.6724464" lon="9.3353889"><ele>270.0</ele><time>2026-03-24T13:57:21.988Z</time></trkpt><trkpt lat="45.672378" lon="9.3354242"><ele>270.0</ele><time>2026-03-24T13:57:22.988Z</time></trkpt><trkpt lat="45.6723062" lon="9.3354371"><ele>270.0</ele><time>2026-03-24T13:57:23.988Z</time></trkpt><trkpt lat="45.6722398" lon="9.335461"><ele>270.0</ele><time>2026-03-24T13:57:24.988Z</time></trkpt><trkpt lat="45.6721739" lon="9.3354763"><ele>270.0</ele><time>2026-03-24T13:57:25.988Z</time></trkpt><trkpt lat="45.6720371" lon="9.3355144"><ele>270.0</ele><time>2026-03-24T13:57:27.987Z</time></trkpt><trkpt lat="45.6719647" lon="9.33554"><ele>270.0</ele><time>2026-03-24T13:57:28.988Z</time></trkpt><trkpt lat="45.6719013" lon="9.3355659"><ele>269.6666666666667</ele><time>2026-03-24T13:57:29.988Z</time></trkpt><trkpt lat="45.6718328" lon="9.3355844"><ele>269.3333333333333</ele><time>2026-03-24T13:57:30.988Z</time></trkpt><trkpt lat="45.6717643" lon="9.3356011"><ele>269.0</ele><time>2026-03-24T13:57:31.988Z</time></trkpt><trkpt lat="45.6716945" lon="9.335624"><ele>268.66666666666663</ele><time>2026-03-24T13:57:32.988Z</time></trkpt><trkpt lat="45.6715731" lon="9.3356521"><ele>268.3333333333333</ele><time>2026-03-24T13:57:34.988Z</time></trkpt><trkpt lat="45.6715085" lon="9.3356599"><ele>268.0</ele><time>2026-03-24T13:57:35.988Z</time></trkpt><trkpt lat="45.6714413" lon="9.3356754"><ele>268.0</ele><time>2026-03-24T13:57:36.988Z</time></trkpt><trkpt lat="45.6713743" lon="9.335709"><ele>268.0</ele><time>2026-03-24T13:57:37.988Z</time></trkpt><trkpt lat="45.6713065" lon="9.3357247"><ele>268.0</ele><time>2026-03-24T13:57:38.988Z</time></trkpt><trkpt lat="45.6712401" lon="9.3357443"><ele>268.0</ele><time>2026-03-24T13:57:39.988Z</time></trkpt><trkpt lat="45.671176" lon="9.3357662"><ele>268.0</ele><time>2026-03-24T13:57:40.988Z</time></trkpt><trkpt lat="45.6711082" lon="9.3357884"><ele>268.0</ele><time>2026-03-24T13:57:41.988Z</time></trkpt><trkpt lat="45.6710439" lon="9.3358059"><ele>268.0</ele><time>2026-03-24T13:57:42.988Z</time></trkpt><trkpt lat="45.6709715" lon="9.3358114"><ele>267.3333333333333</ele><time>2026-03-24T13:57:43.988Z</time></trkpt><trkpt lat="45.6709091" lon="9.3358314"><ele>266.66666666666663</ele><time>2026-03-24T13:57:44.988Z</time></trkpt><trkpt lat="45.6708338" lon="9.3358479"><ele>266.0</ele><time>2026-03-24T13:57:45.988Z</time></trkpt><trkpt lat="45.670769" lon="9.3358607"><ele>265.3333333333333</ele><time>2026-03-24T13:57:46.987Z</time></trkpt><trkpt lat="45.6707063" lon="9.3358874"><ele>264.6666666666667</ele><time>2026-03-24T13:57:47.988Z</time></trkpt><trkpt lat="45.6705823" lon="9.3359158"><ele>264.0</ele><time>2026-03-24T13:57:49.988Z</time></trkpt><trkpt lat="45.6705181" lon="9.3359254"><ele>264.0</ele><time>2026-03-24T13:57:50.987Z</time></trkpt><trkpt lat="45.6703983" lon="9.3359633"><ele>264.0</ele><time>2026-03-24T13:57:52.988Z</time></trkpt><trkpt lat="45.6703061" lon="9.3360215"><ele>264.0</ele><time>2026-03-24T13:57:54.988Z</time></trkpt><trkpt lat="45.6702173" lon="9.3361023"><ele>264.0</ele><time>2026-03-24T13:57:56.988Z</time></trkpt><trkpt lat="45.6701734" lon="9.3362175"><ele>264.0</ele><time>2026-03-24T13:57:58.988Z</time></trkpt><trkpt lat="45.6701869" lon="9.336317"><ele>264.0</ele><time>2026-03-24T13:58:00.988Z</time></trkpt><trkpt lat="45.670207" lon="9.3364119"><ele>264.0</ele><time>2026-03-24T13:58:01.988Z</time></trkpt><trkpt lat="45.6702393" lon="9.3365212"><ele>264.0</ele><time>2026-03-24T13:58:03.988Z</time></trkpt><trkpt lat="45.6702587" lon="9.3366305"><ele>264.0</ele><time>2026-03-24T13:58:04.988Z</time></trkpt><trkpt lat="45.6702756" lon="9.3368014"><ele>264.0</ele><time>2026-03-24T13:58:06.988Z</time></trkpt><trkpt lat="45.6703005" lon="9.3369572"><ele>264.2</ele><time>2026-03-24T13:58:08.987Z</time></trkpt><trkpt lat="45.6703272" lon="9.337099"><ele>264.4</ele><time>2026-03-24T13:58:10.988Z</time></trkpt><trkpt lat="45.6703399" lon="9.3371901"><ele>264.6</ele><time>2026-03-24T13:58:11.988Z</time></trkpt><trkpt lat="45.670374" lon="9.3373566"><ele>264.8</ele><time>2026-03-24T13:58:13.987Z</time></trkpt><trkpt lat="45.6704019" lon="9.3375169"><ele>265.0</ele><time>2026-03-24T13:58:15.988Z</time></trkpt><trkpt lat="45.6704289" lon="9.337687"><ele>265.0</ele><time>2026-03-24T13:58:17.988Z</time></trkpt><trkpt lat="45.6704426" lon="9.3378323"><ele>265.0</ele><time>2026-03-24T13:58:19.988Z</time></trkpt><trkpt lat="45.6704614" lon="9.3379313"><ele>265.0</ele><time>2026-03-24T13:58:20.988Z</time></trkpt><trkpt lat="45.6704908" lon="9.3380817"><ele>265.0</ele><time>2026-03-24T13:58:22.988Z</time></trkpt><trkpt lat="45.6705132" lon="9.3382098"><ele>265.0</ele><time>2026-03-24T13:58:24.988Z</time></trkpt><trkpt lat="45.670544" lon="9.3383551"><ele>265.4</ele><time>2026-03-24T13:58:26.988Z</time></trkpt><trkpt lat="45.6705561" lon="9.3384941"><ele>265.8</ele><time>2026-03-24T13:58:28.988Z</time></trkpt><trkpt lat="45.6705876" lon="9.3386578"><ele>266.2</ele><time>2026-03-24T13:58:30.988Z</time></trkpt><trkpt lat="45.670662" lon="9.3387466"><ele>266.6</ele><time>2026-03-24T13:58:32.988Z</time></trkpt><trkpt lat="45.6707551" lon="9.3387757"><ele>267.0</ele><time>2026-03-24T13:58:34.988Z</time></trkpt><trkpt lat="45.6708296" lon="9.3387362"><ele>267.0</ele><time>2026-03-24T13:58:36.988Z</time></trkpt><trkpt lat="45.6709053" lon="9.3387088"><ele>267.0</ele><time>2026-03-24T13:58:38.988Z</time></trkpt><trkpt lat="45.6710098" lon="9.3387165"><ele>267.0</ele><time>2026-03-24T13:58:40.988Z</time></trkpt><trkpt lat="45.6710223" lon="9.3388268"><ele>267.0</ele><time>2026-03-24T13:58:44.987Z</time></trkpt><trkpt lat="45.6709969" lon="9.3389585"><ele>267.0</ele><time>2026-03-24T13:58:46.988Z</time></trkpt><trkpt lat="45.6709535" lon="9.3390904"><ele>267.0</ele><time>2026-03-24T13:58:48.988Z</time></trkpt><trkpt lat="45.6709456" lon="9.3392403"><ele>267.0</ele><time>2026-03-24T13:58:50.988Z</time></trkpt><trkpt lat="45.6709171" lon="9.3393767"><ele>267.0</ele><time>2026-03-24T13:58:52.988Z</time></trkpt><trkpt lat="45.6708829" lon="9.3395009"><ele>267.0</ele><time>2026-03-24T13:58:54.987Z</time></trkpt><trkpt lat="45.6708485" lon="9.339622"><ele>267.0</ele><time>2026-03-24T13:58:56.988Z</time></trkpt><trkpt lat="45.670817" lon="9.3397459"><ele>267.2</ele><time>2026-03-24T13:58:58.988Z</time></trkpt><trkpt lat="45.6707685" lon="9.3398453"><ele>267.4</ele><time>2026-03-24T13:59:00.988Z</time></trkpt><trkpt lat="45.6707173" lon="9.3399584"><ele>267.6</ele><time>2026-03-24T13:59:02.988Z</time></trkpt><trkpt lat="45.6706958" lon="9.3400572"><ele>267.8</ele><time>2026-03-24T13:59:04.988Z</time></trkpt><trkpt lat="45.6706636" lon="9.3402028"><ele>268.0</ele><time>2026-03-24T13:59:06.988Z</time></trkpt><trkpt lat="45.6706174" lon="9.3403246"><ele>268.0</ele><time>2026-03-24T13:59:08.988Z</time></trkpt><trkpt lat="45.6705721" lon="9.3404598"><ele>268.0</ele><time>2026-03-24T13:59:10.988Z</time></trkpt><trkpt lat="45.6705013" lon="9.3405827"><ele>268.0</ele><time>2026-03-24T13:59:12.988Z</time></trkpt><trkpt lat="45.6704428" lon="9.340716"><ele>268.0</ele><time>2026-03-24T13:59:14.988Z</time></trkpt><trkpt lat="45.6703868" lon="9.3408327"><ele>268.0</ele><time>2026-03-24T13:59:16.988Z</time></trkpt><trkpt lat="45.6703167" lon="9.3409416"><ele>268.0</ele><time>2026-03-24T13:59:18.988Z</time></trkpt><trkpt lat="45.6702474" lon="9.3410586"><ele>268.0</ele><time>2026-03-24T13:59:20.988Z</time></trkpt><trkpt lat="45.6701839" lon="9.3411884"><ele>268.0</ele><time>2026-03-24T13:59:22.987Z</time></trkpt><trkpt lat="45.6701154" lon="9.3412929"><ele>268.0</ele><time>2026-03-24T13:59:24.988Z</time></trkpt><trkpt lat="45.6700586" lon="9.3414203"><ele>268.0</ele><time>2026-03-24T13:59:26.988Z</time></trkpt><trkpt lat="45.6700115" lon="9.341515"><ele>268.0</ele><time>2026-03-24T13:59:28.988Z</time></trkpt><trkpt lat="45.6699728" lon="9.3416238"><ele>268.0</ele><time>2026-03-24T13:59:30.988Z</time></trkpt><trkpt lat="45.6699127" lon="9.3417145"><ele>268.0</ele><time>2026-03-24T13:59:32.988Z</time></trkpt><trkpt lat="45.6698653" lon="9.3418299"><ele>268.0</ele><time>2026-03-24T13:59:34.988Z</time></trkpt><trkpt lat="45.6698324" lon="9.3419564"><ele>268.0</ele><time>2026-03-24T13:59:36.988Z</time></trkpt><trkpt lat="45.6697768" lon="9.3420873"><ele>268.0</ele><time>2026-03-24T13:59:38.988Z</time></trkpt><trkpt lat="45.6697489" lon="9.3421861"><ele>268.0</ele><time>2026-03-24T13:59:40.988Z</time></trkpt><trkpt lat="45.6697084" lon="9.3422831"><ele>268.0</ele><time>2026-03-24T13:59:42.988Z</time></trkpt><trkpt lat="45.669676" lon="9.3423944"><ele>268.0</ele><time>2026-03-24T13:59:44.988Z</time></trkpt><trkpt lat="45.6696477" lon="9.3425038"><ele>268.0</ele><time>2026-03-24T13:59:46.988Z</time></trkpt><trkpt lat="45.6696226" lon="9.3426031"><ele>268.0</ele><time>2026-03-24T13:59:48.988Z</time></trkpt><trkpt lat="45.6695955" lon="9.3427064"><ele>268.16666666666663</ele><time>2026-03-24T13:59:50.988Z</time></trkpt><trkpt lat="45.6695655" lon="9.3428286"><ele>268.3333333333333</ele><time>2026-03-24T13:59:53.988Z</time></trkpt><trkpt lat="45.6695419" lon="9.3429236"><ele>268.5</ele><time>2026-03-24T13:59:55.988Z</time></trkpt><trkpt lat="45.6695124" lon="9.3430186"><ele>268.6666666666667</ele><time>2026-03-24T13:59:57.988Z</time></trkpt><trkpt lat="45.6694538" lon="9.3431115"><ele>268.83333333333337</ele><time>2026-03-24T14:00:00.988Z</time></trkpt><trkpt lat="45.6693934" lon="9.3431868"><ele>269.0</ele><time>2026-03-24T14:00:03.988Z</time></trkpt><trkpt lat="45.6693361" lon="9.3432595"><ele>270.0</ele><time>2026-03-24T14:00:06.987Z</time></trkpt><trkpt lat="45.6692846" lon="9.3433143"><ele>271.0</ele><time>2026-03-24T14:00:09.988Z</time></trkpt><trkpt lat="45.669221" lon="9.3433745"><ele>272.0</ele><time>2026-03-24T14:00:12.988Z</time></trkpt><trkpt lat="45.6691432" lon="9.3434328"><ele>273.0</ele><time>2026-03-24T14:00:15.988Z</time></trkpt><trkpt lat="45.6690774" lon="9.3434722"><ele>274.0</ele><time>2026-03-24T14:00:18.988Z</time></trkpt><trkpt lat="45.6690123" lon="9.3435356"><ele>275.0</ele><time>2026-03-24T14:00:22.988Z</time></trkpt><trkpt lat="45.6689492" lon="9.3436077"><ele>275.0</ele><time>2026-03-24T14:00:25.988Z</time></trkpt><trkpt lat="45.6688914" lon="9.3436716"><ele>275.0</ele><time>2026-03-24T14:00:28.988Z</time></trkpt><trkpt lat="45.668834" lon="9.3437724"><ele>275.0</ele><time>2026-03-24T14:00:31.988Z</time></trkpt><trkpt lat="45.66877" lon="9.3438511"><ele>275.0</ele><time>2026-03-24T14:00:34.987Z</time></trkpt><trkpt lat="45.6687214" lon="9.3439378"><ele>275.0</ele><time>2026-03-24T14:00:38.22Z</time></trkpt><trkpt lat="45.668656" lon="9.3440706"><ele>275.0</ele><time>2026-03-24T14:00:40.998Z</time></trkpt><trkpt lat="45.668609" lon="9.3441735"><ele>275.83333333333337</ele><time>2026-03-24T14:00:42.998Z</time></trkpt><trkpt lat="45.6685668" lon="9.3442894"><ele>276.6666666666667</ele><time>2026-03-24T14:00:44.988Z</time></trkpt><trkpt lat="45.668542" lon="9.3443803"><ele>277.5</ele><time>2026-03-24T14:00:46.987Z</time></trkpt><trkpt lat="45.6685159" lon="9.3444934"><ele>278.3333333333333</ele><time>2026-03-24T14:00:48.988Z</time></trkpt><trkpt lat="45.6685158" lon="9.344595"><ele>279.16666666666663</ele><time>2026-03-24T14:00:50.988Z</time></trkpt><trkpt lat="45.6685421" lon="9.3447448"><ele>280.0</ele><time>2026-03-24T14:00:52.988Z</time></trkpt><trkpt lat="45.6685434" lon="9.3448788"><ele>280.0</ele><time>2026-03-24T14:00:54.987Z</time></trkpt><trkpt lat="45.6685414" lon="9.345035"><ele>280.0</ele><time>2026-03-24T14:00:56.987Z</time></trkpt><trkpt lat="45.6685163" lon="9.3451833"><ele>280.0</ele><time>2026-03-24T14:00:58.988Z</time></trkpt><trkpt lat="45.6685013" lon="9.3452829"><ele>280.0</ele><time>2026-03-24T14:01:00.988Z</time></trkpt><trkpt lat="45.6684747" lon="9.345419"><ele>280.0</ele><time>2026-03-24T14:01:02.988Z</time></trkpt><trkpt lat="45.6684557" lon="9.3455633"><ele>279.66666666666663</ele><time>2026-03-24T14:01:04.988Z</time></trkpt><trkpt lat="45.6684573" lon="9.3457041"><ele>279.3333333333333</ele><time>2026-03-24T14:01:06.988Z</time></trkpt><trkpt lat="45.6684627" lon="9.3457971"><ele>279.0</ele><time>2026-03-24T14:01:07.988Z</time></trkpt><trkpt lat="45.6684696" lon="9.3458923"><ele>278.6666666666667</ele><time>2026-03-24T14:01:08.988Z</time></trkpt><trkpt lat="45.6684849" lon="9.3460646"><ele>278.33333333333337</ele><time>2026-03-24T14:01:10.988Z</time></trkpt><trkpt lat="45.6684988" lon="9.3461573"><ele>278.0</ele><time>2026-03-24T14:01:11.988Z</time></trkpt><trkpt lat="45.6685168" lon="9.346249"><ele>276.8</ele><time>2026-03-24T14:01:12.988Z</time></trkpt><trkpt lat="45.6685537" lon="9.3464005"><ele>275.6</ele><time>2026-03-24T14:01:14.987Z</time></trkpt><trkpt lat="45.6685998" lon="9.3465662"><ele>274.4</ele><time>2026-03-24T14:01:16.988Z</time></trkpt><trkpt lat="45.6686372" lon="9.3467043"><ele>273.2</ele><time>2026-03-24T14:01:18.987Z</time></trkpt><trkpt lat="45.6686491" lon="9.3468458"><ele>272.0</ele><time>2026-03-24T14:01:20.988Z</time></trkpt><trkpt lat="45.6686332" lon="9.3469793"><ele>272.0</ele><time>2026-03-24T14:01:22.988Z</time></trkpt><trkpt lat="45.6685756" lon="9.3470867"><ele>272.0</ele><time>2026-03-24T14:01:24.988Z</time></trkpt><trkpt lat="45.6684899" lon="9.3472174"><ele>272.0</ele><time>2026-03-24T14:01:26.988Z</time></trkpt><trkpt lat="45.6684403" lon="9.3472767"><ele>272.0</ele><time>2026-03-24T14:01:27.988Z</time></trkpt><trkpt lat="45.6683528" lon="9.3473722"><ele>272.0</ele><time>2026-03-24T14:01:29.988Z</time></trkpt><trkpt lat="45.6682733" lon="9.347474"><ele>270.0</ele><time>2026-03-24T14:01:31.988Z</time></trkpt><trkpt lat="45.6682404" lon="9.3476238"><ele>268.0</ele><time>2026-03-24T14:01:33.988Z</time></trkpt><trkpt lat="45.6682448" lon="9.347777"><ele>266.0</ele><time>2026-03-24T14:01:35.988Z</time></trkpt><trkpt lat="45.6682576" lon="9.3479279"><ele>264.0</ele><time>2026-03-24T14:01:37.988Z</time></trkpt><trkpt lat="45.6682488" lon="9.3480922"><ele>262.0</ele><time>2026-03-24T14:01:39.987Z</time></trkpt><trkpt lat="45.6682124" lon="9.3481809"><ele>261.4</ele><time>2026-03-24T14:01:40.988Z</time></trkpt><trkpt lat="45.6681411" lon="9.3483354"><ele>260.79999999999995</ele><time>2026-03-24T14:01:42.988Z</time></trkpt><trkpt lat="45.6680709" lon="9.3484296"><ele>260.2</ele><time>2026-03-24T14:01:44.987Z</time></trkpt><trkpt lat="45.6680364" lon="9.348529"><ele>259.59999999999997</ele><time>2026-03-24T14:01:46.988Z</time></trkpt><trkpt lat="45.6680538" lon="9.3486461"><ele>259.0</ele><time>2026-03-24T14:01:48.988Z</time></trkpt><trkpt lat="45.6680306" lon="9.3487568"><ele>258.8</ele><time>2026-03-24T14:01:50.987Z</time></trkpt><trkpt lat="45.6679748" lon="9.3488856"><ele>258.59999999999997</ele><time>2026-03-24T14:01:52.988Z</time></trkpt><trkpt lat="45.6679336" lon="9.3489566"><ele>258.4</ele><time>2026-03-24T14:01:53.988Z</time></trkpt><trkpt lat="45.6678487" lon="9.3490919"><ele>258.2</ele><time>2026-03-24T14:01:55.988Z</time></trkpt><trkpt lat="45.6677735" lon="9.3492162"><ele>258.0</ele><time>2026-03-24T14:01:57.988Z</time></trkpt><trkpt lat="45.6677056" lon="9.3493474"><ele>257.4</ele><time>2026-03-24T14:01:59.988Z</time></trkpt><trkpt lat="45.6676547" lon="9.3494111"><ele>256.8</ele><time>2026-03-24T14:02:00.988Z</time></trkpt><trkpt lat="45.6675992" lon="9.3495218"><ele>256.2</ele><time>2026-03-24T14:02:02.988Z</time></trkpt><trkpt lat="45.6675027" lon="9.3496475"><ele>255.6</ele><time>2026-03-24T14:02:04.988Z</time></trkpt><trkpt lat="45.6674247" lon="9.3497714"><ele>255.0</ele><time>2026-03-24T14:02:06.988Z</time></trkpt><trkpt lat="45.6673472" lon="9.3498977"><ele>254.4</ele><time>2026-03-24T14:02:08.988Z</time></trkpt><trkpt lat="45.6673045" lon="9.3499659"><ele>253.8</ele><time>2026-03-24T14:02:09.988Z</time></trkpt><trkpt lat="45.6672207" lon="9.3501011"><ele>253.2</ele><time>2026-03-24T14:02:11.988Z</time></trkpt><trkpt lat="45.6671432" lon="9.3502297"><ele>252.6</ele><time>2026-03-24T14:02:13.988Z</time></trkpt><trkpt lat="45.6670611" lon="9.3503617"><ele>252.0</ele><time>2026-03-24T14:02:15.988Z</time></trkpt><trkpt lat="45.6669723" lon="9.3504736"><ele>252.0</ele><time>2026-03-24T14:02:17.987Z</time></trkpt><trkpt lat="45.6668906" lon="9.3506039"><ele>252.0</ele><time>2026-03-24T14:02:19.987Z</time></trkpt><trkpt lat="45.6668438" lon="9.3506657"><ele>252.0</ele><time>2026-03-24T14:02:20.988Z</time></trkpt><trkpt lat="45.6667457" lon="9.3507851"><ele>252.0</ele><time>2026-03-24T14:02:22.988Z</time></trkpt><trkpt lat="45.6666699" lon="9.3509119"><ele>252.0</ele><time>2026-03-24T14:02:24.988Z</time></trkpt><trkpt lat="45.6666242" lon="9.3509764"><ele>252.0</ele><time>2026-03-24T14:02:25.988Z</time></trkpt><trkpt lat="45.6665458" lon="9.3511049"><ele>252.0</ele><time>2026-03-24T14:02:27.988Z</time></trkpt><trkpt lat="45.666501" lon="9.3511796"><ele>252.0</ele><time>2026-03-24T14:02:28.988Z</time></trkpt><trkpt lat="45.6664293" lon="9.351311"><ele>252.0</ele><time>2026-03-24T14:02:30.988Z</time></trkpt><trkpt lat="45.6663634" lon="9.3514336"><ele>252.0</ele><time>2026-03-24T14:02:32.988Z</time></trkpt><trkpt lat="45.6663191" lon="9.3515052"><ele>252.0</ele><time>2026-03-24T14:02:33.988Z</time></trkpt><trkpt lat="45.6662419" lon="9.3516352"><ele>252.0</ele><time>2026-03-24T14:02:35.987Z</time></trkpt><trkpt lat="45.66617" lon="9.3517665"><ele>252.0</ele><time>2026-03-24T14:02:37.988Z</time></trkpt><trkpt lat="45.6661245" lon="9.3518362"><ele>252.0</ele><time>2026-03-24T14:02:38.988Z</time></trkpt><trkpt lat="45.6660444" lon="9.3519714"><ele>252.0</ele><time>2026-03-24T14:02:40.988Z</time></trkpt><trkpt lat="45.6659547" lon="9.3520855"><ele>252.0</ele><time>2026-03-24T14:02:42.988Z</time></trkpt><trkpt lat="45.6659107" lon="9.3521551"><ele>252.0</ele><time>2026-03-24T14:02:43.988Z</time></trkpt><trkpt lat="45.6658293" lon="9.3522859"><ele>252.0</ele><time>2026-03-24T14:02:45.988Z</time></trkpt><trkpt lat="45.6657562" lon="9.3524097"><ele>252.0</ele><time>2026-03-24T14:02:47.987Z</time></trkpt><trkpt lat="45.6657014" lon="9.3524849"><ele>252.0</ele><time>2026-03-24T14:02:48.988Z</time></trkpt><trkpt lat="45.6656243" lon="9.3526108"><ele>252.0</ele><time>2026-03-24T14:02:50.988Z</time></trkpt><trkpt lat="45.6655445" lon="9.3527403"><ele>252.0</ele><time>2026-03-24T14:02:52.988Z</time></trkpt><trkpt lat="45.6654718" lon="9.3528532"><ele>252.0</ele><time>2026-03-24T14:02:54.988Z</time></trkpt><trkpt lat="45.6653943" lon="9.3529679"><ele>252.0</ele><time>2026-03-24T14:02:56.987Z</time></trkpt><trkpt lat="45.6653012" lon="9.3530257"><ele>252.0</ele><time>2026-03-24T14:02:58.988Z</time></trkpt><trkpt lat="45.6652077" lon="9.3530744"><ele>251.2</ele><time>2026-03-24T14:03:00.988Z</time></trkpt><trkpt lat="45.6650779" lon="9.3530974"><ele>250.39999999999998</ele><time>2026-03-24T14:03:02.988Z</time></trkpt><trkpt lat="45.6650049" lon="9.3530633"><ele>249.60000000000002</ele><time>2026-03-24T14:03:03.988Z</time></trkpt><trkpt lat="45.6649195" lon="9.3530821"><ele>248.8</ele><time>2026-03-24T14:03:04.988Z</time></trkpt><trkpt lat="45.6648561" lon="9.3530863"><ele>248.0</ele><time>2026-03-24T14:03:05.988Z</time></trkpt><trkpt lat="45.6647341" lon="9.353086"><ele>248.0</ele><time>2026-03-24T14:03:07.988Z</time></trkpt><trkpt lat="45.664636" lon="9.3530563"><ele>248.0</ele><time>2026-03-24T14:03:09.987Z</time></trkpt><trkpt lat="45.6645196" lon="9.3530404"><ele>248.0</ele><time>2026-03-24T14:03:11.988Z</time></trkpt><trkpt lat="45.6644565" lon="9.353043"><ele>248.0</ele><time>2026-03-24T14:03:12.988Z</time></trkpt><trkpt lat="45.66434" lon="9.3530152"><ele>248.0</ele><time>2026-03-24T14:03:14.988Z</time></trkpt><trkpt lat="45.6642409" lon="9.3529817"><ele>247.60000000000002</ele><time>2026-03-24T14:03:16.988Z</time></trkpt><trkpt lat="45.6641405" lon="9.3529935"><ele>247.20000000000002</ele><time>2026-03-24T14:03:18.987Z</time></trkpt><trkpt lat="45.6640269" lon="9.3530141"><ele>246.8</ele><time>2026-03-24T14:03:20.988Z</time></trkpt><trkpt lat="45.663914" lon="9.3530073"><ele>246.4</ele><time>2026-03-24T14:03:22.988Z</time></trkpt><trkpt lat="45.6638106" lon="9.3529931"><ele>246.0</ele><time>2026-03-24T14:03:24.988Z</time></trkpt><trkpt lat="45.6637332" lon="9.3530012"><ele>245.83333333333334</ele><time>2026-03-24T14:03:26.988Z</time></trkpt><trkpt lat="45.6637063" lon="9.3531405"><ele>245.66666666666669</ele><time>2026-03-24T14:03:28.987Z</time></trkpt><trkpt lat="45.6637017" lon="9.3532681"><ele>245.5</ele><time>2026-03-24T14:03:30.988Z</time></trkpt><trkpt lat="45.6636935" lon="9.3534071"><ele>245.33333333333334</ele><time>2026-03-24T14:03:32.988Z</time></trkpt><trkpt lat="45.6636988" lon="9.3535459"><ele>245.16666666666669</ele><time>2026-03-24T14:03:34.988Z</time></trkpt><trkpt lat="45.6636937" lon="9.3536373"><ele>245.0</ele><time>2026-03-24T14:03:36.988Z</time></trkpt><trkpt lat="45.6637537" lon="9.3537026"><ele>245.00000000000003</ele><time>2026-03-24T14:03:37.988Z</time></trkpt><trkpt lat="45.6638344" lon="9.3537817"><ele>245.0</ele><time>2026-03-24T14:03:39.988Z</time></trkpt><trkpt lat="45.6639354" lon="9.3538275"><ele>245.0</ele><time>2026-03-24T14:03:41.988Z</time></trkpt><trkpt lat="45.6640001" lon="9.3538262"><ele>245.0</ele><time>2026-03-24T14:03:42.988Z</time></trkpt><trkpt lat="45.6640682" lon="9.3538357"><ele>245.00000000000003</ele><time>2026-03-24T14:03:43.988Z</time></trkpt><trkpt lat="45.6641261" lon="9.3538824"><ele>245.0</ele><time>2026-03-24T14:03:44.988Z</time></trkpt><trkpt lat="45.6641974" lon="9.3539013"><ele>244.2</ele><time>2026-03-24T14:03:45.988Z</time></trkpt><trkpt lat="45.6643397" lon="9.3539468"><ele>243.4</ele><time>2026-03-24T14:03:47.988Z</time></trkpt><trkpt lat="45.6644047" lon="9.3539893"><ele>242.60000000000002</ele><time>2026-03-24T14:03:48.988Z</time></trkpt><trkpt lat="45.6645009" lon="9.3541052"><ele>241.8</ele><time>2026-03-24T14:03:50.988Z</time></trkpt><trkpt lat="45.6645414" lon="9.3541781"><ele>241.0</ele><time>2026-03-24T14:03:51.988Z</time></trkpt><trkpt lat="45.6645902" lon="9.3542361"><ele>241.0</ele><time>2026-03-24T14:03:52.988Z</time></trkpt><trkpt lat="45.664689" lon="9.3543524"><ele>241.0</ele><time>2026-03-24T14:03:54.988Z</time></trkpt><trkpt lat="45.6647792" lon="9.3544712"><ele>241.0</ele><time>2026-03-24T14:03:56.988Z</time></trkpt><trkpt lat="45.6648582" lon="9.354578"><ele>241.0</ele><time>2026-03-24T14:03:58.988Z</time></trkpt><trkpt lat="45.6649289" lon="9.3546846"><ele>240.49999999999997</ele><time>2026-03-24T14:04:00.988Z</time></trkpt><trkpt lat="45.6649894" lon="9.3547769"><ele>240.0</ele><time>2026-03-24T14:04:02.988Z</time></trkpt><trkpt lat="45.6650419" lon="9.3548394"><ele>239.5</ele><time>2026-03-24T14:04:04.988Z</time></trkpt><trkpt lat="45.6650912" lon="9.3549251"><ele>239.0</ele><time>2026-03-24T14:04:07.988Z</time></trkpt><trkpt lat="45.6650981" lon="9.3550243"><ele>238.49999999999997</ele><time>2026-03-24T14:04:10.988Z</time></trkpt><trkpt lat="45.6650672" lon="9.3551398"><ele>238.0</ele><time>2026-03-24T14:04:13.988Z</time></trkpt><trkpt lat="45.6650056" lon="9.3552099"><ele>238.0</ele><time>2026-03-24T14:04:15.988Z</time></trkpt><trkpt lat="45.664932" lon="9.3552682"><ele>238.0</ele><time>2026-03-24T14:04:16.988Z</time></trkpt><trkpt lat="45.6648719" lon="9.3552967"><ele>238.0</ele><time>2026-03-24T14:04:17.988Z</time></trkpt><trkpt lat="45.6647496" lon="9.3553746"><ele>238.0</ele><time>2026-03-24T14:04:19.988Z</time></trkpt><trkpt lat="45.6646482" lon="9.3554465"><ele>238.0</ele><time>2026-03-24T14:04:21.988Z</time></trkpt><trkpt lat="45.6645404" lon="9.3555135"><ele>238.0</ele><time>2026-03-24T14:04:23.987Z</time></trkpt><trkpt lat="45.6644323" lon="9.3555734"><ele>238.0</ele><time>2026-03-24T14:04:25.988Z</time></trkpt><trkpt lat="45.6643241" lon="9.3556409"><ele>238.0</ele><time>2026-03-24T14:04:27.988Z</time></trkpt><trkpt lat="45.6642571" lon="9.3556736"><ele>238.0</ele><time>2026-03-24T14:04:28.988Z</time></trkpt><trkpt lat="45.6641562" lon="9.3557514"><ele>238.0</ele><time>2026-03-24T14:04:30.988Z</time></trkpt><trkpt lat="45.6640487" lon="9.3558222"><ele>237.99999999999997</ele><time>2026-03-24T14:04:32.988Z</time></trkpt><trkpt lat="45.6639457" lon="9.3558772"><ele>238.0</ele><time>2026-03-24T14:04:34.988Z</time></trkpt><trkpt lat="45.6638521" lon="9.3559196"><ele>238.0</ele><time>2026-03-24T14:04:36.988Z</time></trkpt><trkpt lat="45.6637902" lon="9.3559647"><ele>238.0</ele><time>2026-03-24T14:04:37.988Z</time></trkpt><trkpt lat="45.66373" lon="9.3560105"><ele>237.99999999999997</ele><time>2026-03-24T14:04:38.988Z</time></trkpt><trkpt lat="45.663636" lon="9.3560625"><ele>238.0</ele><time>2026-03-24T14:04:40.988Z</time></trkpt><trkpt lat="45.6635512" lon="9.3561228"><ele>238.49999999999997</ele><time>2026-03-24T14:04:42.988Z</time></trkpt><trkpt lat="45.6634578" lon="9.3561875"><ele>239.0</ele><time>2026-03-24T14:04:44.988Z</time></trkpt><trkpt lat="45.6634051" lon="9.3562507"><ele>239.5</ele><time>2026-03-24T14:04:46.988Z</time></trkpt><trkpt lat="45.6633367" lon="9.3562844"><ele>240.0</ele><time>2026-03-24T14:04:48.988Z</time></trkpt><trkpt lat="45.6632506" lon="9.3563359"><ele>240.49999999999997</ele><time>2026-03-24T14:04:50.988Z</time></trkpt><trkpt lat="45.6631572" lon="9.3563812"><ele>241.0</ele><time>2026-03-24T14:04:52.988Z</time></trkpt><trkpt lat="45.6630961" lon="9.3564249"><ele>241.8</ele><time>2026-03-24T14:04:53.988Z</time></trkpt><trkpt lat="45.6630051" lon="9.3565102"><ele>242.60000000000002</ele><time>2026-03-24T14:04:55.988Z</time></trkpt><trkpt lat="45.6629112" lon="9.35657"><ele>243.4</ele><time>2026-03-24T14:04:57.988Z</time></trkpt><trkpt lat="45.6628165" lon="9.3566264"><ele>244.2</ele><time>2026-03-24T14:04:59.988Z</time></trkpt><trkpt lat="45.6627142" lon="9.3566842"><ele>245.0</ele><time>2026-03-24T14:05:01.988Z</time></trkpt><trkpt lat="45.6626095" lon="9.3567312"><ele>245.0</ele><time>2026-03-24T14:05:03.988Z</time></trkpt><trkpt lat="45.6625066" lon="9.3567767"><ele>245.0</ele><time>2026-03-24T14:05:05.988Z</time></trkpt><trkpt lat="45.6623502" lon="9.3568352"><ele>245.0</ele><time>2026-03-24T14:05:08.987Z</time></trkpt><trkpt lat="45.6622428" lon="9.3568721"><ele>245.0</ele><time>2026-03-24T14:05:10.988Z</time></trkpt><trkpt lat="45.6621391" lon="9.3569084"><ele>245.0</ele><time>2026-03-24T14:05:12.988Z</time></trkpt><trkpt lat="45.6620383" lon="9.3569369"><ele>245.0</ele><time>2026-03-24T14:05:14.988Z</time></trkpt><trkpt lat="45.6619345" lon="9.3569682"><ele>245.0</ele><time>2026-03-24T14:05:16.988Z</time></trkpt><trkpt lat="45.6618352" lon="9.357009"><ele>245.0</ele><time>2026-03-24T14:05:18.988Z</time></trkpt><trkpt lat="45.6617341" lon="9.3570531"><ele>245.0</ele><time>2026-03-24T14:05:20.988Z</time></trkpt><trkpt lat="45.6616308" lon="9.3571056"><ele>245.2</ele><time>2026-03-24T14:05:22.988Z</time></trkpt><trkpt lat="45.6615325" lon="9.3571549"><ele>245.4</ele><time>2026-03-24T14:05:24.988Z</time></trkpt><trkpt lat="45.661428" lon="9.3572042"><ele>245.60000000000002</ele><time>2026-03-24T14:05:26.988Z</time></trkpt><trkpt lat="45.6613302" lon="9.3572544"><ele>245.8</ele><time>2026-03-24T14:05:28.988Z</time></trkpt><trkpt lat="45.661227" lon="9.3573036"><ele>246.0</ele><time>2026-03-24T14:05:30.988Z</time></trkpt><trkpt lat="45.6611415" lon="9.3573507"><ele>245.8</ele><time>2026-03-24T14:05:32.988Z</time></trkpt><trkpt lat="45.6610686" lon="9.3574227"><ele>245.60000000000002</ele><time>2026-03-24T14:05:34.988Z</time></trkpt><trkpt lat="45.6610331" lon="9.3575292"><ele>245.4</ele><time>2026-03-24T14:05:36.988Z</time></trkpt><trkpt lat="45.6610284" lon="9.3576844"><ele>245.2</ele><time>2026-03-24T14:05:39.988Z</time></trkpt><trkpt lat="45.6610326" lon="9.3578068"><ele>245.0</ele><time>2026-03-24T14:05:41.988Z</time></trkpt><trkpt lat="45.6610486" lon="9.3579374"><ele>245.2</ele><time>2026-03-24T14:05:43.988Z</time></trkpt><trkpt lat="45.6610542" lon="9.3580668"><ele>245.4</ele><time>2026-03-24T14:05:45.988Z</time></trkpt><trkpt lat="45.6610569" lon="9.3581701"><ele>245.60000000000002</ele><time>2026-03-24T14:05:46.988Z</time></trkpt><trkpt lat="45.6610696" lon="9.358298"><ele>245.8</ele><time>2026-03-24T14:05:48.988Z</time></trkpt><trkpt lat="45.6610808" lon="9.3584268"><ele>246.0</ele><time>2026-03-24T14:05:50.988Z</time></trkpt><trkpt lat="45.6610809" lon="9.3585822"><ele>246.0</ele><time>2026-03-24T14:05:52.988Z</time></trkpt><trkpt lat="45.6611005" lon="9.3587368"><ele>246.0</ele><time>2026-03-24T14:05:54.988Z</time></trkpt><trkpt lat="45.6611126" lon="9.3588801"><ele>246.0</ele><time>2026-03-24T14:05:56.987Z</time></trkpt><trkpt lat="45.661132" lon="9.3590141"><ele>246.0</ele><time>2026-03-24T14:05:58.988Z</time></trkpt><trkpt lat="45.6611548" lon="9.3591079"><ele>246.0</ele><time>2026-03-24T14:06:00.988Z</time></trkpt><trkpt lat="45.6612111" lon="9.3591506"><ele>246.0</ele><time>2026-03-24T14:06:02.988Z</time></trkpt><trkpt lat="45.6612418" lon="9.3592307"><ele>246.4</ele><time>2026-03-24T14:06:03.988Z</time></trkpt><trkpt lat="45.6612887" lon="9.3593948"><ele>246.8</ele><time>2026-03-24T14:06:05.988Z</time></trkpt><trkpt lat="45.661307" lon="9.3595455"><ele>247.20000000000002</ele><time>2026-03-24T14:06:07.988Z</time></trkpt><trkpt lat="45.6613339" lon="9.359669"><ele>247.60000000000002</ele><time>2026-03-24T14:06:09.988Z</time></trkpt><trkpt lat="45.6613488" lon="9.359837"><ele>248.0</ele><time>2026-03-24T14:06:11.987Z</time></trkpt><trkpt lat="45.6613614" lon="9.3599353"><ele>247.33333333333334</ele><time>2026-03-24T14:06:12.988Z</time></trkpt><trkpt lat="45.6613747" lon="9.3600237"><ele>246.66666666666669</ele><time>2026-03-24T14:06:13.988Z</time></trkpt><trkpt lat="45.661395" lon="9.3601907"><ele>246.0</ele><time>2026-03-24T14:06:15.988Z</time></trkpt><trkpt lat="45.6614084" lon="9.3602886"><ele>245.33333333333331</ele><time>2026-03-24T14:06:16.988Z</time></trkpt><trkpt lat="45.6614364" lon="9.3604137"><ele>244.66666666666666</ele><time>2026-03-24T14:06:18.987Z</time></trkpt><trkpt lat="45.6614597" lon="9.3605591"><ele>244.0</ele><time>2026-03-24T14:06:20.988Z</time></trkpt><trkpt lat="45.6614666" lon="9.3606573"><ele>243.83333333333331</ele><time>2026-03-24T14:06:22.988Z</time></trkpt><trkpt lat="45.6614291" lon="9.3607379"><ele>243.66666666666666</ele><time>2026-03-24T14:06:23.988Z</time></trkpt><trkpt lat="45.6613499" lon="9.3608534"><ele>243.5</ele><time>2026-03-24T14:06:25.988Z</time></trkpt><trkpt lat="45.6612583" lon="9.3609597"><ele>243.33333333333331</ele><time>2026-03-24T14:06:27.988Z</time></trkpt><trkpt lat="45.6612018" lon="9.3610182"><ele>243.16666666666666</ele><time>2026-03-24T14:06:28.988Z</time></trkpt><trkpt lat="45.6611523" lon="9.3610815"><ele>243.0</ele><time>2026-03-24T14:06:29.988Z</time></trkpt><trkpt lat="45.6611096" lon="9.3611557"><ele>242.8</ele><time>2026-03-24T14:06:30.988Z</time></trkpt><trkpt lat="45.6610336" lon="9.3612341"><ele>242.60000000000002</ele><time>2026-03-24T14:06:31.988Z</time></trkpt><trkpt lat="45.6609688" lon="9.3613026"><ele>242.39999999999998</ele><time>2026-03-24T14:06:32.987Z</time></trkpt><trkpt lat="45.6608947" lon="9.3614008"><ele>242.2</ele><time>2026-03-24T14:06:33.987Z</time></trkpt><trkpt lat="45.660816" lon="9.3615497"><ele>242.0</ele><time>2026-03-24T14:06:35.987Z</time></trkpt><trkpt lat="45.6607921" lon="9.3616493"><ele>241.66666666666669</ele><time>2026-03-24T14:06:36.988Z</time></trkpt><trkpt lat="45.6607736" lon="9.3617404"><ele>241.33333333333334</ele><time>2026-03-24T14:06:37.988Z</time></trkpt><trkpt lat="45.6607328" lon="9.3619268"><ele>241.0</ele><time>2026-03-24T14:06:39.988Z</time></trkpt><trkpt lat="45.6607371" lon="9.3620184"><ele>240.66666666666669</ele><time>2026-03-24T14:06:40.988Z</time></trkpt><trkpt lat="45.6607143" lon="9.3621331"><ele>240.33333333333334</ele><time>2026-03-24T14:06:41.988Z</time></trkpt><trkpt lat="45.6606993" lon="9.362239"><ele>240.0</ele><time>2026-03-24T14:06:42.988Z</time></trkpt><trkpt lat="45.6606645" lon="9.3623295"><ele>240.0</ele><time>2026-03-24T14:06:43.988Z</time></trkpt><trkpt lat="45.6606168" lon="9.3624076"><ele>240.0</ele><time>2026-03-24T14:06:44.988Z</time></trkpt><trkpt lat="45.6605541" lon="9.3624988"><ele>240.0</ele><time>2026-03-24T14:06:46.988Z</time></trkpt><trkpt lat="45.6604751" lon="9.3626156"><ele>240.0</ele><time>2026-03-24T14:06:48.988Z</time></trkpt><trkpt lat="45.6604145" lon="9.3626824"><ele>240.0</ele><time>2026-03-24T14:06:49.988Z</time></trkpt><trkpt lat="45.6603546" lon="9.3627477"><ele>240.0</ele><time>2026-03-24T14:06:50.988Z</time></trkpt><trkpt lat="45.660294" lon="9.36282"><ele>239.2</ele><time>2026-03-24T14:06:51.988Z</time></trkpt><trkpt lat="45.6602377" lon="9.362865"><ele>238.4</ele><time>2026-03-24T14:06:52.988Z</time></trkpt><trkpt lat="45.6601581" lon="9.3629715"><ele>237.60000000000002</ele><time>2026-03-24T14:06:54.988Z</time></trkpt><trkpt lat="45.6600831" lon="9.3631015"><ele>236.8</ele><time>2026-03-24T14:06:56.988Z</time></trkpt><trkpt lat="45.6600486" lon="9.3632249"><ele>236.0</ele><time>2026-03-24T14:06:58.988Z</time></trkpt><trkpt lat="45.6599798" lon="9.3633506"><ele>236.0</ele><time>2026-03-24T14:07:00.988Z</time></trkpt><trkpt lat="45.6599255" lon="9.3634462"><ele>236.00000000000003</ele><time>2026-03-24T14:07:02.988Z</time></trkpt><trkpt lat="45.6598783" lon="9.3635904"><ele>236.00000000000003</ele><time>2026-03-24T14:07:04.988Z</time></trkpt><trkpt lat="45.6598451" lon="9.363722"><ele>236.0</ele><time>2026-03-24T14:07:06.988Z</time></trkpt><trkpt lat="45.6598295" lon="9.3638474"><ele>236.0</ele><time>2026-03-24T14:07:08.988Z</time></trkpt><trkpt lat="45.6598065" lon="9.3639496"><ele>236.66666666666669</ele><time>2026-03-24T14:07:10.988Z</time></trkpt><trkpt lat="45.6597624" lon="9.3640528"><ele>237.33333333333334</ele><time>2026-03-24T14:07:12.988Z</time></trkpt><trkpt lat="45.6597149" lon="9.3641684"><ele>238.0</ele><time>2026-03-24T14:07:14.988Z</time></trkpt><trkpt lat="45.6596754" lon="9.3642834"><ele>238.66666666666669</ele><time>2026-03-24T14:07:16.987Z</time></trkpt><trkpt lat="45.659642" lon="9.364397"><ele>239.33333333333334</ele><time>2026-03-24T14:07:18.988Z</time></trkpt><trkpt lat="45.6596328" lon="9.3645121"><ele>240.0</ele><time>2026-03-24T14:07:20.988Z</time></trkpt><trkpt lat="45.6595982" lon="9.3646163"><ele>240.0</ele><time>2026-03-24T14:07:23.988Z</time></trkpt><trkpt lat="45.6595725" lon="9.3647056"><ele>240.0</ele><time>2026-03-24T14:07:27.988Z</time></trkpt><trkpt lat="45.6595499" lon="9.364826"><ele>240.0</ele><time>2026-03-24T14:07:31.988Z</time></trkpt><trkpt lat="45.6596286" lon="9.3646757"><ele>240.0</ele><time>2026-03-24T14:07:34.988Z</time></trkpt><trkpt lat="45.6596433" lon="9.3647837"><ele>240.0</ele><time>2026-03-24T14:07:37.982Z</time></trkpt><trkpt lat="45.6596498" lon="9.3648769"><ele>240.0</ele><time>2026-03-24T14:07:39.987Z</time></trkpt><trkpt lat="45.6596564" lon="9.36497"><ele>240.4</ele><time>2026-03-24T14:07:41.925Z</time></trkpt><trkpt lat="45.6596738" lon="9.3651194"><ele>240.8</ele><time>2026-03-24T14:07:44.008Z</time></trkpt><trkpt lat="45.6596805" lon="9.365264"><ele>241.2</ele><time>2026-03-24T14:07:45.985Z</time></trkpt><trkpt lat="45.6596529" lon="9.3653966"><ele>241.6</ele><time>2026-03-24T14:07:48.06Z</time></trkpt><trkpt lat="45.659647" lon="9.365535"><ele>242.0</ele><time>2026-03-24T14:07:49.988Z</time></trkpt><trkpt lat="45.6596534" lon="9.3656469"><ele>240.2</ele><time>2026-03-24T14:07:52.014Z</time></trkpt><trkpt lat="45.6596677" lon="9.3657481"><ele>238.39999999999998</ele><time>2026-03-24T14:07:53.903Z</time></trkpt><trkpt lat="45.6596882" lon="9.3659404"><ele>236.60000000000002</ele><time>2026-03-24T14:07:55.988Z</time></trkpt><trkpt lat="45.6596538" lon="9.3660276"><ele>234.8</ele><time>2026-03-24T14:07:57.988Z</time></trkpt><trkpt lat="45.6595789" lon="9.3660807"><ele>233.0</ele><time>2026-03-24T14:07:59.987Z</time></trkpt><trkpt lat="45.6594893" lon="9.3660989"><ele>231.0</ele><time>2026-03-24T14:08:01.988Z</time></trkpt><trkpt lat="45.6593885" lon="9.3660862"><ele>229.0</ele><time>2026-03-24T14:08:03.987Z</time></trkpt><trkpt lat="45.659288" lon="9.3660629"><ele>227.0</ele><time>2026-03-24T14:08:05.988Z</time></trkpt><trkpt lat="45.6591783" lon="9.3660498"><ele>225.0</ele><time>2026-03-24T14:08:07.988Z</time></trkpt><trkpt lat="45.659064" lon="9.3660467"><ele>223.0</ele><time>2026-03-24T14:08:09.988Z</time></trkpt><trkpt lat="45.6589515" lon="9.3660363"><ele>223.0</ele><time>2026-03-24T14:08:11.988Z</time></trkpt><trkpt lat="45.6588329" lon="9.3660181"><ele>223.0</ele><time>2026-03-24T14:08:13.988Z</time></trkpt><trkpt lat="45.658711" lon="9.3659995"><ele>223.0</ele><time>2026-03-24T14:08:15.988Z</time></trkpt><trkpt lat="45.6585813" lon="9.3659898"><ele>223.0</ele><time>2026-03-24T14:08:17.987Z</time></trkpt><trkpt lat="45.6584789" lon="9.3659737"><ele>222.49999999999997</ele><time>2026-03-24T14:08:19.988Z</time></trkpt><trkpt lat="45.6583446" lon="9.365947"><ele>222.0</ele><time>2026-03-24T14:08:21.988Z</time></trkpt><trkpt lat="45.6582824" lon="9.3659266"><ele>221.5</ele><time>2026-03-24T14:08:22.988Z</time></trkpt><trkpt lat="45.6582205" lon="9.3658876"><ele>221.0</ele><time>2026-03-24T14:08:23.987Z</time></trkpt><trkpt lat="45.6581594" lon="9.3658586"><ele>220.49999999999997</ele><time>2026-03-24T14:08:24.988Z</time></trkpt><trkpt lat="45.6580978" lon="9.3658376"><ele>220.0</ele><time>2026-03-24T14:08:25.988Z</time></trkpt><trkpt lat="45.6580333" lon="9.3658427"><ele>219.99999999999997</ele><time>2026-03-24T14:08:26.988Z</time></trkpt><trkpt lat="45.6579554" lon="9.3658421"><ele>220.0</ele><time>2026-03-24T14:08:27.988Z</time></trkpt><trkpt lat="45.6578894" lon="9.3658023"><ele>220.0</ele><time>2026-03-24T14:08:28.988Z</time></trkpt><trkpt lat="45.6578254" lon="9.3657833"><ele>220.0</ele><time>2026-03-24T14:08:29.988Z</time></trkpt><trkpt lat="45.6577589" lon="9.3657703"><ele>220.0</ele><time>2026-03-24T14:08:30.988Z</time></trkpt><trkpt lat="45.6576939" lon="9.3657594"><ele>219.99999999999997</ele><time>2026-03-24T14:08:31.988Z</time></trkpt><trkpt lat="45.6576253" lon="9.365749"><ele>220.0</ele><time>2026-03-24T14:08:32.987Z</time></trkpt><trkpt lat="45.6575609" lon="9.3657504"><ele>219.99999999999997</ele><time>2026-03-24T14:08:33.988Z</time></trkpt><trkpt lat="45.6574938" lon="9.3657381"><ele>220.0</ele><time>2026-03-24T14:08:34.988Z</time></trkpt><trkpt lat="45.6574299" lon="9.3657244"><ele>220.0</ele><time>2026-03-24T14:08:35.988Z</time></trkpt><trkpt lat="45.6573141" lon="9.3656968"><ele>220.0</ele><time>2026-03-24T14:08:37.988Z</time></trkpt><trkpt lat="45.6571958" lon="9.3656788"><ele>219.99999999999997</ele><time>2026-03-24T14:08:39.988Z</time></trkpt><trkpt lat="45.6571237" lon="9.3656603"><ele>220.0</ele><time>2026-03-24T14:08:40.988Z</time></trkpt><trkpt lat="45.657061" lon="9.3656399"><ele>220.0</ele><time>2026-03-24T14:08:41.988Z</time></trkpt><trkpt lat="45.6569299" lon="9.3656191"><ele>220.0</ele><time>2026-03-24T14:08:43.988Z</time></trkpt><trkpt lat="45.6568646" lon="9.3656029"><ele>220.0</ele><time>2026-03-24T14:08:44.988Z</time></trkpt><trkpt lat="45.6567982" lon="9.3655794"><ele>220.0</ele><time>2026-03-24T14:08:45.988Z</time></trkpt><trkpt lat="45.6567356" lon="9.3655571"><ele>220.0</ele><time>2026-03-24T14:08:46.987Z</time></trkpt><trkpt lat="45.656613" lon="9.3655311"><ele>220.0</ele><time>2026-03-24T14:08:48.988Z</time></trkpt><trkpt lat="45.6564944" lon="9.3655207"><ele>220.0</ele><time>2026-03-24T14:08:50.988Z</time></trkpt><trkpt lat="45.6563664" lon="9.3655194"><ele>220.0</ele><time>2026-03-24T14:08:52.988Z</time></trkpt><trkpt lat="45.656244" lon="9.3655269"><ele>220.0</ele><time>2026-03-24T14:08:54.988Z</time></trkpt><trkpt lat="45.6561798" lon="9.3655292"><ele>220.0</ele><time>2026-03-24T14:08:55.988Z</time></trkpt><trkpt lat="45.6560591" lon="9.3655325"><ele>221.6</ele><time>2026-03-24T14:08:57.988Z</time></trkpt><trkpt lat="45.6559422" lon="9.3655181"><ele>223.2</ele><time>2026-03-24T14:08:59.988Z</time></trkpt><trkpt lat="45.6558787" lon="9.3655041"><ele>224.8</ele><time>2026-03-24T14:09:00.988Z</time></trkpt><trkpt lat="45.6557534" lon="9.3654911"><ele>226.4</ele><time>2026-03-24T14:09:02.987Z</time></trkpt><trkpt lat="45.6556914" lon="9.365474"><ele>228.0</ele><time>2026-03-24T14:09:03.988Z</time></trkpt><trkpt lat="45.65557" lon="9.3654537"><ele>228.0</ele><time>2026-03-24T14:09:05.988Z</time></trkpt><trkpt lat="45.6555045" lon="9.365434"><ele>228.0</ele><time>2026-03-24T14:09:06.988Z</time></trkpt><trkpt lat="45.6553848" lon="9.3654165"><ele>228.0</ele><time>2026-03-24T14:09:08.988Z</time></trkpt><trkpt lat="45.655269" lon="9.3653737"><ele>228.0</ele><time>2026-03-24T14:09:10.988Z</time></trkpt><trkpt lat="45.6552076" lon="9.3653437"><ele>228.0</ele><time>2026-03-24T14:09:11.988Z</time></trkpt><trkpt lat="45.6551475" lon="9.3653158"><ele>228.0</ele><time>2026-03-24T14:09:12.988Z</time></trkpt><trkpt lat="45.6550898" lon="9.3652759"><ele>226.8</ele><time>2026-03-24T14:09:13.988Z</time></trkpt><trkpt lat="45.6549792" lon="9.3651998"><ele>225.60000000000002</ele><time>2026-03-24T14:09:15.988Z</time></trkpt><trkpt lat="45.654879" lon="9.3651217"><ele>224.39999999999998</ele><time>2026-03-24T14:09:17.988Z</time></trkpt><trkpt lat="45.6548011" lon="9.3650389"><ele>223.2</ele><time>2026-03-24T14:09:19.988Z</time></trkpt><trkpt lat="45.6547237" lon="9.3649777"><ele>222.0</ele><time>2026-03-24T14:09:32.988Z</time></trkpt><trkpt lat="45.6546484" lon="9.364951"><ele>222.0</ele><time>2026-03-24T14:09:34.988Z</time></trkpt><trkpt lat="45.6545484" lon="9.3649205"><ele>222.0</ele><time>2026-03-24T14:09:36.987Z</time></trkpt><trkpt lat="45.6544476" lon="9.3648878"><ele>222.0</ele><time>2026-03-24T14:09:38.988Z</time></trkpt><trkpt lat="45.6543582" lon="9.3648384"><ele>222.0</ele><time>2026-03-24T14:09:40.988Z</time></trkpt><trkpt lat="45.6543072" lon="9.3647182"><ele>222.0</ele><time>2026-03-24T14:09:42.988Z</time></trkpt><trkpt lat="45.6542377" lon="9.3646083"><ele>221.2</ele><time>2026-03-24T14:09:44.988Z</time></trkpt><trkpt lat="45.6541468" lon="9.3646334"><ele>220.39999999999998</ele><time>2026-03-24T14:09:46.988Z</time></trkpt><trkpt lat="45.6540843" lon="9.3647298"><ele>219.60000000000002</ele><time>2026-03-24T14:09:48.988Z</time></trkpt><trkpt lat="45.654046" lon="9.3648665"><ele>218.8</ele><time>2026-03-24T14:09:50.988Z</time></trkpt><trkpt lat="45.6540135" lon="9.3650101"><ele>218.0</ele><time>2026-03-24T14:09:52.988Z</time></trkpt><trkpt lat="45.653985" lon="9.3651606"><ele>217.5</ele><time>2026-03-24T14:09:54.988Z</time></trkpt><trkpt lat="45.6539509" lon="9.3653202"><ele>217.0</ele><time>2026-03-24T14:09:56.988Z</time></trkpt><trkpt lat="45.6539348" lon="9.3654701"><ele>216.5</ele><time>2026-03-24T14:09:58.988Z</time></trkpt><trkpt lat="45.6539146" lon="9.365633"><ele>216.0</ele><time>2026-03-24T14:10:00.988Z</time></trkpt><trkpt lat="45.6538767" lon="9.3657888"><ele>215.8</ele><time>2026-03-24T14:10:02.987Z</time></trkpt><trkpt lat="45.6538549" lon="9.3659387"><ele>215.60000000000002</ele><time>2026-03-24T14:10:04.988Z</time></trkpt><trkpt lat="45.65382" lon="9.3660867"><ele>215.4</ele><time>2026-03-24T14:10:06.987Z</time></trkpt><trkpt lat="45.6537935" lon="9.3662222"><ele>215.2</ele><time>2026-03-24T14:10:08.988Z</time></trkpt><trkpt lat="45.6537532" lon="9.366352"><ele>215.0</ele><time>2026-03-24T14:10:10.988Z</time></trkpt><trkpt lat="45.6537012" lon="9.366475"><ele>216.25</ele><time>2026-03-24T14:10:12.988Z</time></trkpt><trkpt lat="45.6536417" lon="9.3666152"><ele>217.5</ele><time>2026-03-24T14:10:14.988Z</time></trkpt><trkpt lat="45.6536399" lon="9.3667795"><ele>218.75</ele><time>2026-03-24T14:10:16.988Z</time></trkpt><trkpt lat="45.653643" lon="9.3669486"><ele>220.0</ele><time>2026-03-24T14:10:18.988Z</time></trkpt><trkpt lat="45.653672" lon="9.3671173"><ele>220.2</ele><time>2026-03-24T14:10:20.988Z</time></trkpt><trkpt lat="45.6536967" lon="9.3672011"><ele>220.4</ele><time>2026-03-24T14:10:21.988Z</time></trkpt><trkpt lat="45.6537356" lon="9.3673779"><ele>220.60000000000002</ele><time>2026-03-24T14:10:23.988Z</time></trkpt><trkpt lat="45.6537698" lon="9.3675378"><ele>220.8</ele><time>2026-03-24T14:10:25.988Z</time></trkpt><trkpt lat="45.6538146" lon="9.3677031"><ele>221.0</ele><time>2026-03-24T14:10:27.988Z</time></trkpt><trkpt lat="45.6538598" lon="9.3678757"><ele>221.0</ele><time>2026-03-24T14:10:29.987Z</time></trkpt><trkpt lat="45.653885" lon="9.3679615"><ele>221.00000000000003</ele><time>2026-03-24T14:10:30.988Z</time></trkpt><trkpt lat="45.653926" lon="9.3681159"><ele>221.00000000000003</ele><time>2026-03-24T14:10:32.988Z</time></trkpt><trkpt lat="45.6539625" lon="9.3682845"><ele>221.0</ele><time>2026-03-24T14:10:34.988Z</time></trkpt><trkpt lat="45.6539961" lon="9.3684669"><ele>221.0</ele><time>2026-03-24T14:10:36.988Z</time></trkpt><trkpt lat="45.6540243" lon="9.3686203"><ele>221.16666666666669</ele><time>2026-03-24T14:10:38.988Z</time></trkpt><trkpt lat="45.6539905" lon="9.3687692"><ele>221.33333333333334</ele><time>2026-03-24T14:10:40.987Z</time></trkpt><trkpt lat="45.653902" lon="9.3688577"><ele>221.5</ele><time>2026-03-24T14:10:42.988Z</time></trkpt><trkpt lat="45.6538408" lon="9.3688862"><ele>221.66666666666669</ele><time>2026-03-24T14:10:43.988Z</time></trkpt><trkpt lat="45.6537785" lon="9.3689122"><ele>221.83333333333334</ele><time>2026-03-24T14:10:44.988Z</time></trkpt><trkpt lat="45.6537159" lon="9.368928"><ele>222.0</ele><time>2026-03-24T14:10:45.987Z</time></trkpt><trkpt lat="45.6536519" lon="9.3689498"><ele>221.2</ele><time>2026-03-24T14:10:46.987Z</time></trkpt><trkpt lat="45.6535309" lon="9.3689551"><ele>220.39999999999998</ele><time>2026-03-24T14:10:48.988Z</time></trkpt><trkpt lat="45.6534674" lon="9.3689626"><ele>219.60000000000002</ele><time>2026-03-24T14:10:49.988Z</time></trkpt><trkpt lat="45.6533474" lon="9.3689715"><ele>218.8</ele><time>2026-03-24T14:10:51.988Z</time></trkpt><trkpt lat="45.6532254" lon="9.3689779"><ele>218.0</ele><time>2026-03-24T14:10:53.988Z</time></trkpt><trkpt lat="45.6531507" lon="9.3689782"><ele>218.0</ele><time>2026-03-24T14:10:54.988Z</time></trkpt><trkpt lat="45.6530874" lon="9.3689819"><ele>218.0</ele><time>2026-03-24T14:10:55.988Z</time></trkpt><trkpt lat="45.6529654" lon="9.3689817"><ele>218.0</ele><time>2026-03-24T14:10:57.988Z</time></trkpt><trkpt lat="45.6528399" lon="9.3689909"><ele>218.0</ele><time>2026-03-24T14:10:59.988Z</time></trkpt><trkpt lat="45.6527736" lon="9.3689883"><ele>218.0</ele><time>2026-03-24T14:11:00.988Z</time></trkpt><trkpt lat="45.6526481" lon="9.3689866"><ele>218.25</ele><time>2026-03-24T14:11:02.987Z</time></trkpt><trkpt lat="45.6525298" lon="9.3689667"><ele>218.5</ele><time>2026-03-24T14:11:04.988Z</time></trkpt><trkpt lat="45.6524223" lon="9.3689044"><ele>218.75</ele><time>2026-03-24T14:11:06.988Z</time></trkpt><trkpt lat="45.6523321" lon="9.3687821"><ele>219.0</ele><time>2026-03-24T14:11:08.987Z</time></trkpt><trkpt lat="45.6522303" lon="9.3687491"><ele>219.0</ele><time>2026-03-24T14:11:10.988Z</time></trkpt><trkpt lat="45.6521282" lon="9.3687941"><ele>218.99999999999997</ele><time>2026-03-24T14:11:12.988Z</time></trkpt><trkpt lat="45.6520196" lon="9.3688084"><ele>218.99999999999997</ele><time>2026-03-24T14:11:14.988Z</time></trkpt><trkpt lat="45.651907" lon="9.3687789"><ele>219.0</ele><time>2026-03-24T14:11:16.988Z</time></trkpt><trkpt lat="45.6518441" lon="9.3687621"><ele>219.0</ele><time>2026-03-24T14:11:17.988Z</time></trkpt><trkpt lat="45.6517325" lon="9.3687278"><ele>219.25</ele><time>2026-03-24T14:11:19.988Z</time></trkpt><trkpt lat="45.6515746" lon="9.3687241"><ele>219.5</ele><time>2026-03-24T14:11:22.988Z</time></trkpt><trkpt lat="45.6514568" lon="9.368675"><ele>219.75</ele><time>2026-03-24T14:11:24.985Z</time></trkpt><trkpt lat="45.6513477" lon="9.3686441"><ele>220.0</ele><time>2026-03-24T14:11:26.985Z</time></trkpt><trkpt lat="45.6512831" lon="9.3686402"><ele>220.0</ele><time>2026-03-24T14:11:27.984Z</time></trkpt><trkpt lat="45.6512229" lon="9.3686111"><ele>220.0</ele><time>2026-03-24T14:11:28.983Z</time></trkpt><trkpt lat="45.651101" lon="9.3685616"><ele>220.0</ele><time>2026-03-24T14:11:30.984Z</time></trkpt><trkpt lat="45.6509957" lon="9.3685322"><ele>220.0</ele><time>2026-03-24T14:11:32.984Z</time></trkpt><trkpt lat="45.6508851" lon="9.3684561"><ele>220.0</ele><time>2026-03-24T14:11:34.984Z</time></trkpt><trkpt lat="45.6507675" lon="9.3683831"><ele>219.99999999999997</ele><time>2026-03-24T14:11:36.984Z</time></trkpt><trkpt lat="45.6507036" lon="9.3683277"><ele>220.0</ele><time>2026-03-24T14:11:37.984Z</time></trkpt><trkpt lat="45.6506406" lon="9.3682975"><ele>220.0</ele><time>2026-03-24T14:11:38.983Z</time></trkpt><trkpt lat="45.650574" lon="9.3682738"><ele>220.0</ele><time>2026-03-24T14:11:39.984Z</time></trkpt><trkpt lat="45.6505127" lon="9.3682421"><ele>220.0</ele><time>2026-03-24T14:11:40.984Z</time></trkpt><trkpt lat="45.6504508" lon="9.36821"><ele>219.99999999999997</ele><time>2026-03-24T14:11:41.984Z</time></trkpt><trkpt lat="45.6503892" lon="9.368178"><ele>220.0</ele><time>2026-03-24T14:11:42.984Z</time></trkpt><trkpt lat="45.650267" lon="9.3681117"><ele>219.49999999999997</ele><time>2026-03-24T14:11:44.984Z</time></trkpt><trkpt lat="45.650203" lon="9.3680706"><ele>219.0</ele><time>2026-03-24T14:11:45.984Z</time></trkpt><trkpt lat="45.6501397" lon="9.3680411"><ele>218.5</ele><time>2026-03-24T14:11:46.983Z</time></trkpt><trkpt lat="45.650078" lon="9.3680147"><ele>218.0</ele><time>2026-03-24T14:11:47.984Z</time></trkpt><trkpt lat="45.6500169" lon="9.3679847"><ele>217.49999999999997</ele><time>2026-03-24T14:11:48.983Z</time></trkpt><trkpt lat="45.6499532" lon="9.3679527"><ele>217.0</ele><time>2026-03-24T14:11:49.983Z</time></trkpt><trkpt lat="45.6498338" lon="9.3679123"><ele>216.83333333333331</ele><time>2026-03-24T14:11:51.984Z</time></trkpt><trkpt lat="45.6497662" lon="9.3678743"><ele>216.66666666666666</ele><time>2026-03-24T14:11:52.984Z</time></trkpt><trkpt lat="45.6496998" lon="9.3678501"><ele>216.5</ele><time>2026-03-24T14:11:53.984Z</time></trkpt><trkpt lat="45.6495829" lon="9.3677928"><ele>216.33333333333331</ele><time>2026-03-24T14:11:55.984Z</time></trkpt><trkpt lat="45.6495169" lon="9.3677575"><ele>216.16666666666666</ele><time>2026-03-24T14:11:56.984Z</time></trkpt><trkpt lat="45.6494547" lon="9.3677151"><ele>216.0</ele><time>2026-03-24T14:11:57.984Z</time></trkpt><trkpt lat="45.6493875" lon="9.3676862"><ele>216.0</ele><time>2026-03-24T14:11:58.984Z</time></trkpt><trkpt lat="45.6492594" lon="9.3676355"><ele>216.0</ele><time>2026-03-24T14:12:00.984Z</time></trkpt><trkpt lat="45.6491924" lon="9.3676158"><ele>216.0</ele><time>2026-03-24T14:12:01.984Z</time></trkpt><trkpt lat="45.6491296" lon="9.367582"><ele>216.0</ele><time>2026-03-24T14:12:02.984Z</time></trkpt><trkpt lat="45.6490665" lon="9.3675458"><ele>216.0</ele><time>2026-03-24T14:12:03.984Z</time></trkpt><trkpt lat="45.6489982" lon="9.3675157"><ele>216.0</ele><time>2026-03-24T14:12:04.984Z</time></trkpt><trkpt lat="45.6489345" lon="9.3674837"><ele>216.0</ele><time>2026-03-24T14:12:05.984Z</time></trkpt><trkpt lat="45.6488311" lon="9.3674237"><ele>216.0</ele><time>2026-03-24T14:12:07.984Z</time></trkpt><trkpt lat="45.6487576" lon="9.3673818"><ele>216.0</ele><time>2026-03-24T14:12:08.984Z</time></trkpt><trkpt lat="45.6486968" lon="9.3673429"><ele>216.0</ele><time>2026-03-24T14:12:09.984Z</time></trkpt><trkpt lat="45.6486356" lon="9.367296"><ele>216.0</ele><time>2026-03-24T14:12:10.983Z</time></trkpt><trkpt lat="45.6485728" lon="9.3672506"><ele>216.0</ele><time>2026-03-24T14:12:11.984Z</time></trkpt><trkpt lat="45.648514" lon="9.3671911"><ele>215.8</ele><time>2026-03-24T14:12:12.983Z</time></trkpt><trkpt lat="45.6484566" lon="9.3671472"><ele>215.60000000000002</ele><time>2026-03-24T14:12:13.983Z</time></trkpt><trkpt lat="45.6484028" lon="9.3670907"><ele>215.4</ele><time>2026-03-24T14:12:14.984Z</time></trkpt><trkpt lat="45.6482968" lon="9.3669865"><ele>215.2</ele><time>2026-03-24T14:12:16.984Z</time></trkpt><trkpt lat="45.6481834" lon="9.3669013"><ele>215.0</ele><time>2026-03-24T14:12:18.983Z</time></trkpt><trkpt lat="45.6481252" lon="9.3668666"><ele>215.0</ele><time>2026-03-24T14:12:19.984Z</time></trkpt><trkpt lat="45.6480152" lon="9.3668184"><ele>215.0</ele><time>2026-03-24T14:12:21.984Z</time></trkpt><trkpt lat="45.6479155" lon="9.3667594"><ele>215.0</ele><time>2026-03-24T14:12:23.984Z</time></trkpt><trkpt lat="45.6478391" lon="9.3667326"><ele>215.0</ele><time>2026-03-24T14:12:25.984Z</time></trkpt><trkpt lat="45.6477648" lon="9.3668017"><ele>215.0</ele><time>2026-03-24T14:12:27.984Z</time></trkpt><trkpt lat="45.647646" lon="9.3668506"><ele>215.6</ele><time>2026-03-24T14:12:29.984Z</time></trkpt><trkpt lat="45.647573" lon="9.3668651"><ele>216.2</ele><time>2026-03-24T14:12:30.984Z</time></trkpt><trkpt lat="45.6475084" lon="9.3668889"><ele>216.8</ele><time>2026-03-24T14:12:31.984Z</time></trkpt><trkpt lat="45.6474419" lon="9.3669148"><ele>217.4</ele><time>2026-03-24T14:12:32.984Z</time></trkpt><trkpt lat="45.6473766" lon="9.3669409"><ele>218.0</ele><time>2026-03-24T14:12:33.984Z</time></trkpt><trkpt lat="45.6470446" lon="9.3669929"><ele>218.33333333333334</ele><time>2026-03-24T14:12:39.987Z</time></trkpt><trkpt lat="45.6469278" lon="9.3669881"><ele>218.66666666666669</ele><time>2026-03-24T14:12:41.984Z</time></trkpt><trkpt lat="45.646857" lon="9.3669809"><ele>219.0</ele><time>2026-03-24T14:12:42.977Z</time></trkpt><trkpt lat="45.6467915" lon="9.3669406"><ele>219.33333333333331</ele><time>2026-03-24T14:12:44.986Z</time></trkpt><trkpt lat="45.6467265" lon="9.3669103"><ele>219.66666666666666</ele><time>2026-03-24T14:12:45.985Z</time></trkpt><trkpt lat="45.6466371" lon="9.366877"><ele>220.0</ele><time>2026-03-24T14:12:47.985Z</time></trkpt><trkpt lat="45.6465367" lon="9.3668359"><ele>220.0</ele><time>2026-03-24T14:12:49.986Z</time></trkpt><trkpt lat="45.64644" lon="9.3668123"><ele>220.0</ele><time>2026-03-24T14:12:51.985Z</time></trkpt><trkpt lat="45.646335" lon="9.3667604"><ele>220.0</ele><time>2026-03-24T14:12:53.986Z</time></trkpt><trkpt lat="45.6462206" lon="9.3667034"><ele>220.0</ele><time>2026-03-24T14:12:55.986Z</time></trkpt><trkpt lat="45.6461057" lon="9.3666437"><ele>219.0</ele><time>2026-03-24T14:12:57.986Z</time></trkpt><trkpt lat="45.64599" lon="9.3666199"><ele>218.0</ele><time>2026-03-24T14:12:59.985Z</time></trkpt><trkpt lat="45.6458704" lon="9.3665774"><ele>217.0</ele><time>2026-03-24T14:13:01.986Z</time></trkpt><trkpt lat="45.6457962" lon="9.3665545"><ele>216.0</ele><time>2026-03-24T14:13:02.986Z</time></trkpt><trkpt lat="45.6457365" lon="9.3665255"><ele>215.0</ele><time>2026-03-24T14:13:03.986Z</time></trkpt><trkpt lat="45.6456545" lon="9.3664415"><ele>215.2</ele><time>2026-03-24T14:13:05.986Z</time></trkpt><trkpt lat="45.6456216" lon="9.3663178"><ele>215.4</ele><time>2026-03-24T14:13:07.986Z</time></trkpt><trkpt lat="45.6456444" lon="9.3662121"><ele>215.60000000000002</ele><time>2026-03-24T14:13:09.986Z</time></trkpt><trkpt lat="45.6456627" lon="9.3660756"><ele>215.8</ele><time>2026-03-24T14:13:11.986Z</time></trkpt><trkpt lat="45.6456863" lon="9.3659326"><ele>216.0</ele><time>2026-03-24T14:13:13.986Z</time></trkpt><trkpt lat="45.6457235" lon="9.3657889"><ele>216.0</ele><time>2026-03-24T14:13:15.986Z</time></trkpt><trkpt lat="45.6457623" lon="9.3656552"><ele>216.00000000000003</ele><time>2026-03-24T14:13:17.986Z</time></trkpt><trkpt lat="45.6458013" lon="9.3655122"><ele>216.00000000000003</ele><time>2026-03-24T14:13:19.986Z</time></trkpt><trkpt lat="45.6458402" lon="9.3653735"><ele>216.0</ele><time>2026-03-24T14:13:21.986Z</time></trkpt><trkpt lat="45.6458716" lon="9.3652398"><ele>216.0</ele><time>2026-03-24T14:13:23.985Z</time></trkpt><trkpt lat="45.645895" lon="9.3650993"><ele>216.60000000000002</ele><time>2026-03-24T14:13:25.986Z</time></trkpt><trkpt lat="45.6459013" lon="9.3650087"><ele>217.20000000000002</ele><time>2026-03-24T14:13:26.986Z</time></trkpt><trkpt lat="45.6459324" lon="9.3648582"><ele>217.79999999999998</ele><time>2026-03-24T14:13:28.986Z</time></trkpt><trkpt lat="45.6459824" lon="9.3647271"><ele>218.39999999999998</ele><time>2026-03-24T14:13:30.986Z</time></trkpt><trkpt lat="45.6460031" lon="9.3645699"><ele>219.0</ele><time>2026-03-24T14:13:32.986Z</time></trkpt><trkpt lat="45.6459754" lon="9.3644302"><ele>219.2</ele><time>2026-03-24T14:13:34.986Z</time></trkpt><trkpt lat="45.6459159" lon="9.3642848"><ele>219.39999999999998</ele><time>2026-03-24T14:13:36.986Z</time></trkpt><trkpt lat="45.6458482" lon="9.3641503"><ele>219.6</ele><time>2026-03-24T14:13:38.986Z</time></trkpt><trkpt lat="45.6457644" lon="9.3640276"><ele>219.8</ele><time>2026-03-24T14:13:40.986Z</time></trkpt><trkpt lat="45.6457134" lon="9.3639643"><ele>220.0</ele><time>2026-03-24T14:13:42.986Z</time></trkpt><trkpt lat="45.6456532" lon="9.3639249"><ele>219.99999999999997</ele><time>2026-03-24T14:13:44.986Z</time></trkpt><trkpt lat="45.6455613" lon="9.3639456"><ele>220.0</ele><time>2026-03-24T14:13:45.986Z</time></trkpt><trkpt lat="45.6454919" lon="9.3639632"><ele>220.0</ele><time>2026-03-24T14:13:46.986Z</time></trkpt><trkpt lat="45.6454217" lon="9.363961"><ele>220.0</ele><time>2026-03-24T14:13:47.985Z</time></trkpt><trkpt lat="45.6453046" lon="9.363978"><ele>219.99999999999997</ele><time>2026-03-24T14:13:49.986Z</time></trkpt><trkpt lat="45.6452395" lon="9.3639936"><ele>220.0</ele><time>2026-03-24T14:13:50.986Z</time></trkpt><trkpt lat="45.6451663" lon="9.3640002"><ele>219.66666666666666</ele><time>2026-03-24T14:13:51.986Z</time></trkpt><trkpt lat="45.6451006" lon="9.3640083"><ele>219.33333333333331</ele><time>2026-03-24T14:13:52.985Z</time></trkpt><trkpt lat="45.6450296" lon="9.3640066"><ele>219.0</ele><time>2026-03-24T14:13:53.986Z</time></trkpt><trkpt lat="45.6449093" lon="9.3640235"><ele>218.66666666666669</ele><time>2026-03-24T14:13:55.986Z</time></trkpt><trkpt lat="45.6448329" lon="9.3640356"><ele>218.33333333333334</ele><time>2026-03-24T14:13:56.986Z</time></trkpt><trkpt lat="45.6447655" lon="9.3640403"><ele>218.0</ele><time>2026-03-24T14:13:57.986Z</time></trkpt><trkpt lat="45.6446952" lon="9.3640442"><ele>218.00000000000003</ele><time>2026-03-24T14:13:58.986Z</time></trkpt><trkpt lat="45.6446242" lon="9.3640486"><ele>218.0</ele><time>2026-03-24T14:13:59.986Z</time></trkpt><trkpt lat="45.6445466" lon="9.364054"><ele>218.0</ele><time>2026-03-24T14:14:00.986Z</time></trkpt><trkpt lat="45.6444804" lon="9.3640576"><ele>218.0</ele><time>2026-03-24T14:14:01.986Z</time></trkpt><trkpt lat="45.6444191" lon="9.3640335"><ele>218.00000000000003</ele><time>2026-03-24T14:14:02.986Z</time></trkpt><trkpt lat="45.6442853" lon="9.3640576"><ele>218.0</ele><time>2026-03-24T14:14:04.986Z</time></trkpt><trkpt lat="45.6442177" lon="9.3640528"><ele>217.83333333333334</ele><time>2026-03-24T14:14:05.986Z</time></trkpt><trkpt lat="45.6441442" lon="9.3640674"><ele>217.66666666666669</ele><time>2026-03-24T14:14:06.985Z</time></trkpt><trkpt lat="45.6440805" lon="9.3640742"><ele>217.5</ele><time>2026-03-24T14:14:07.986Z</time></trkpt><trkpt lat="45.6440141" lon="9.3640723"><ele>217.33333333333331</ele><time>2026-03-24T14:14:08.986Z</time></trkpt><trkpt lat="45.6439434" lon="9.3640695"><ele>217.16666666666666</ele><time>2026-03-24T14:14:09.985Z</time></trkpt><trkpt lat="45.643879" lon="9.3640819"><ele>217.0</ele><time>2026-03-24T14:14:10.986Z</time></trkpt><trkpt lat="45.643759" lon="9.3641031"><ele>217.0</ele><time>2026-03-24T14:14:12.986Z</time></trkpt><trkpt lat="45.6436547" lon="9.3641151"><ele>217.0</ele><time>2026-03-24T14:14:14.986Z</time></trkpt><trkpt lat="45.6435825" lon="9.3641009"><ele>217.0</ele><time>2026-03-24T14:14:15.986Z</time></trkpt><trkpt lat="45.6434996" lon="9.3639777"><ele>217.0</ele><time>2026-03-24T14:14:17.985Z</time></trkpt><trkpt lat="45.6434047" lon="9.3639476"><ele>217.0</ele><time>2026-03-24T14:14:19.985Z</time></trkpt><trkpt lat="45.6432973" lon="9.3639721"><ele>216.8</ele><time>2026-03-24T14:14:21.986Z</time></trkpt><trkpt lat="45.6431887" lon="9.3639902"><ele>216.6</ele><time>2026-03-24T14:14:23.986Z</time></trkpt><trkpt lat="45.6431251" lon="9.3639811"><ele>216.40000000000003</ele><time>2026-03-24T14:14:24.986Z</time></trkpt><trkpt lat="45.6430005" lon="9.3639307"><ele>216.20000000000002</ele><time>2026-03-24T14:14:26.985Z</time></trkpt><trkpt lat="45.6428826" lon="9.3638768"><ele>216.0</ele><time>2026-03-24T14:14:28.986Z</time></trkpt><trkpt lat="45.6427729" lon="9.363809"><ele>215.60000000000002</ele><time>2026-03-24T14:14:30.986Z</time></trkpt><trkpt lat="45.6426635" lon="9.3637183"><ele>215.20000000000002</ele><time>2026-03-24T14:14:32.986Z</time></trkpt><trkpt lat="45.64261" lon="9.3636585"><ele>214.79999999999998</ele><time>2026-03-24T14:14:33.986Z</time></trkpt><trkpt lat="45.6425501" lon="9.3635785"><ele>214.39999999999998</ele><time>2026-03-24T14:14:34.985Z</time></trkpt><trkpt lat="45.6424984" lon="9.3635228"><ele>214.0</ele><time>2026-03-24T14:14:35.986Z</time></trkpt><trkpt lat="45.642404" lon="9.3633936"><ele>214.00000000000003</ele><time>2026-03-24T14:14:37.986Z</time></trkpt><trkpt lat="45.6423546" lon="9.3633325"><ele>214.0</ele><time>2026-03-24T14:14:38.986Z</time></trkpt><trkpt lat="45.642309" lon="9.3632442"><ele>214.0</ele><time>2026-03-24T14:14:39.986Z</time></trkpt><trkpt lat="45.642267" lon="9.3631565"><ele>214.0</ele><time>2026-03-24T14:14:40.986Z</time></trkpt><trkpt lat="45.6422202" lon="9.3630735"><ele>214.0</ele><time>2026-03-24T14:14:41.986Z</time></trkpt><trkpt lat="45.6421826" lon="9.3629852"><ele>214.00000000000003</ele><time>2026-03-24T14:14:42.986Z</time></trkpt><trkpt lat="45.642143" lon="9.3628998"><ele>214.0</ele><time>2026-03-24T14:14:43.986Z</time></trkpt><trkpt lat="45.6421006" lon="9.362829"><ele>214.16666666666666</ele><time>2026-03-24T14:14:44.985Z</time></trkpt><trkpt lat="45.6420364" lon="9.3626905"><ele>214.33333333333331</ele><time>2026-03-24T14:14:46.986Z</time></trkpt><trkpt lat="45.642001" lon="9.3625987"><ele>214.5</ele><time>2026-03-24T14:14:47.985Z</time></trkpt><trkpt lat="45.6419383" lon="9.3624638"><ele>214.66666666666669</ele><time>2026-03-24T14:14:49.986Z</time></trkpt><trkpt lat="45.6418955" lon="9.3623967"><ele>214.83333333333334</ele><time>2026-03-24T14:14:50.986Z</time></trkpt><trkpt lat="45.6418409" lon="9.362344"><ele>215.0</ele><time>2026-03-24T14:14:51.986Z</time></trkpt><trkpt lat="45.641733" lon="9.3622928"><ele>215.0</ele><time>2026-03-24T14:14:53.986Z</time></trkpt><trkpt lat="45.6416352" lon="9.3623239"><ele>215.0</ele><time>2026-03-24T14:14:55.985Z</time></trkpt><trkpt lat="45.6416035" lon="9.3624194"><ele>215.0</ele><time>2026-03-24T14:14:57.986Z</time></trkpt><trkpt lat="45.6416186" lon="9.3625301"><ele>215.0</ele><time>2026-03-24T14:14:58.986Z</time></trkpt><trkpt lat="45.6416067" lon="9.3626832"><ele>215.0</ele><time>2026-03-24T14:15:00.986Z</time></trkpt><trkpt lat="45.6416177" lon="9.362844"><ele>215.0</ele><time>2026-03-24T14:15:02.985Z</time></trkpt><trkpt lat="45.6416089" lon="9.3630236"><ele>215.0</ele><time>2026-03-24T14:15:04.986Z</time></trkpt><trkpt lat="45.6416026" lon="9.3631243"><ele>215.0</ele><time>2026-03-24T14:15:05.986Z</time></trkpt><trkpt lat="45.6416012" lon="9.3632276"><ele>215.0</ele><time>2026-03-24T14:15:06.986Z</time></trkpt><trkpt lat="45.6415745" lon="9.3633929"><ele>215.0</ele><time>2026-03-24T14:15:08.986Z</time></trkpt><trkpt lat="45.6415613" lon="9.3634905"><ele>215.16666666666669</ele><time>2026-03-24T14:15:09.985Z</time></trkpt><trkpt lat="45.6415154" lon="9.3636567"><ele>215.33333333333334</ele><time>2026-03-24T14:15:11.986Z</time></trkpt><trkpt lat="45.6414869" lon="9.3637402"><ele>215.5</ele><time>2026-03-24T14:15:12.986Z</time></trkpt><trkpt lat="45.6414558" lon="9.3638208"><ele>215.66666666666669</ele><time>2026-03-24T14:15:13.986Z</time></trkpt><trkpt lat="45.6414141" lon="9.3639104"><ele>215.83333333333334</ele><time>2026-03-24T14:15:14.986Z</time></trkpt><trkpt lat="45.6413709" lon="9.3639911"><ele>216.0</ele><time>2026-03-24T14:15:15.986Z</time></trkpt><trkpt lat="45.641321" lon="9.3640697"><ele>216.16666666666666</ele><time>2026-03-24T14:15:16.986Z</time></trkpt><trkpt lat="45.6412704" lon="9.3641474"><ele>216.33333333333331</ele><time>2026-03-24T14:15:17.986Z</time></trkpt><trkpt lat="45.6412231" lon="9.3642084"><ele>216.5</ele><time>2026-03-24T14:15:18.986Z</time></trkpt><trkpt lat="45.6411581" lon="9.3642636"><ele>216.66666666666666</ele><time>2026-03-24T14:15:19.986Z</time></trkpt><trkpt lat="45.6410799" lon="9.3643156"><ele>216.83333333333331</ele><time>2026-03-24T14:15:20.986Z</time></trkpt><trkpt lat="45.6410112" lon="9.3643488"><ele>217.0</ele><time>2026-03-24T14:15:21.986Z</time></trkpt><trkpt lat="45.6409165" lon="9.3643995"><ele>216.49999999999997</ele><time>2026-03-24T14:15:22.986Z</time></trkpt><trkpt lat="45.6408162" lon="9.3644438"><ele>216.0</ele><time>2026-03-24T14:15:23.986Z</time></trkpt><trkpt lat="45.6407372" lon="9.3644604"><ele>215.5</ele><time>2026-03-24T14:15:24.986Z</time></trkpt><trkpt lat="45.6406564" lon="9.3644832"><ele>215.0</ele><time>2026-03-24T14:15:25.986Z</time></trkpt><trkpt lat="45.6405764" lon="9.3645301"><ele>214.49999999999997</ele><time>2026-03-24T14:15:26.986Z</time></trkpt><trkpt lat="45.6405022" lon="9.3645735"><ele>214.0</ele><time>2026-03-24T14:15:27.986Z</time></trkpt><trkpt lat="45.6404269" lon="9.3646148"><ele>213.33333333333331</ele><time>2026-03-24T14:15:28.986Z</time></trkpt><trkpt lat="45.6403222" lon="9.3647169"><ele>212.66666666666669</ele><time>2026-03-24T14:15:29.986Z</time></trkpt><trkpt lat="45.6402269" lon="9.3648112"><ele>212.0</ele><time>2026-03-24T14:15:30.985Z</time></trkpt><trkpt lat="45.6399522" lon="9.3650174"><ele>211.83333333333334</ele><time>2026-03-24T14:15:36Z</time></trkpt><trkpt lat="45.6398716" lon="9.3650599"><ele>211.66666666666669</ele><time>2026-03-24T14:15:36.991Z</time></trkpt><trkpt lat="45.6397853" lon="9.3650027"><ele>211.5</ele><time>2026-03-24T14:15:37.988Z</time></trkpt><trkpt lat="45.6397204" lon="9.3649183"><ele>211.33333333333331</ele><time>2026-03-24T14:15:38.997Z</time></trkpt><trkpt lat="45.6396602" lon="9.3648792"><ele>211.16666666666666</ele><time>2026-03-24T14:15:39.992Z</time></trkpt><trkpt lat="45.6395928" lon="9.364843"><ele>211.0</ele><time>2026-03-24T14:15:40.986Z</time></trkpt><trkpt lat="45.6394965" lon="9.3648018"><ele>211.0</ele><time>2026-03-24T14:15:42.986Z</time></trkpt><trkpt lat="45.6393888" lon="9.3647399"><ele>211.0</ele><time>2026-03-24T14:15:44.986Z</time></trkpt><trkpt lat="45.6392849" lon="9.3646818"><ele>211.0</ele><time>2026-03-24T14:15:46.986Z</time></trkpt><trkpt lat="45.6391874" lon="9.3646559"><ele>211.0</ele><time>2026-03-24T14:15:48.986Z</time></trkpt><trkpt lat="45.6390733" lon="9.3646434"><ele>211.0</ele><time>2026-03-24T14:15:50.986Z</time></trkpt><trkpt lat="45.6389861" lon="9.3646197"><ele>211.0</ele><time>2026-03-24T14:15:52.986Z</time></trkpt><trkpt lat="45.6388854" lon="9.3646028"><ele>211.0</ele><time>2026-03-24T14:15:54.986Z</time></trkpt><trkpt lat="45.6387728" lon="9.3645988"><ele>211.0</ele><time>2026-03-24T14:15:56.986Z</time></trkpt><trkpt lat="45.6386501" lon="9.3645964"><ele>211.0</ele><time>2026-03-24T14:15:58.985Z</time></trkpt><trkpt lat="45.6385385" lon="9.3645808"><ele>211.0</ele><time>2026-03-24T14:16:00.986Z</time></trkpt><trkpt lat="45.6384306" lon="9.3645903"><ele>211.25</ele><time>2026-03-24T14:16:02.986Z</time></trkpt><trkpt lat="45.6383181" lon="9.3646072"><ele>211.5</ele><time>2026-03-24T14:16:04.986Z</time></trkpt><trkpt lat="45.6382109" lon="9.364627"><ele>211.75</ele><time>2026-03-24T14:16:06.986Z</time></trkpt><trkpt lat="45.6380963" lon="9.3646486"><ele>212.0</ele><time>2026-03-24T14:16:08.986Z</time></trkpt><trkpt lat="45.6379779" lon="9.3646849"><ele>212.2</ele><time>2026-03-24T14:16:10.986Z</time></trkpt><trkpt lat="45.637904" lon="9.3647207"><ele>212.39999999999998</ele><time>2026-03-24T14:16:11.986Z</time></trkpt><trkpt lat="45.6377824" lon="9.3647115"><ele>212.60000000000002</ele><time>2026-03-24T14:16:13.986Z</time></trkpt><trkpt lat="45.6376579" lon="9.3647456"><ele>212.8</ele><time>2026-03-24T14:16:15.986Z</time></trkpt><trkpt lat="45.6375941" lon="9.364764"><ele>213.0</ele><time>2026-03-24T14:16:16.986Z</time></trkpt><trkpt lat="45.6374815" lon="9.3648062"><ele>212.5</ele><time>2026-03-24T14:16:18.985Z</time></trkpt><trkpt lat="45.6373671" lon="9.3648422"><ele>212.0</ele><time>2026-03-24T14:16:20.986Z</time></trkpt><trkpt lat="45.6372447" lon="9.3648911"><ele>211.5</ele><time>2026-03-24T14:16:22.986Z</time></trkpt><trkpt lat="45.6371376" lon="9.3649404"><ele>211.0</ele><time>2026-03-24T14:16:24.986Z</time></trkpt><trkpt lat="45.6370191" lon="9.3649897"><ele>210.8</ele><time>2026-03-24T14:16:26.986Z</time></trkpt><trkpt lat="45.6369535" lon="9.3650161"><ele>210.60000000000002</ele><time>2026-03-24T14:16:27.986Z</time></trkpt><trkpt lat="45.6368362" lon="9.3650936"><ele>210.4</ele><time>2026-03-24T14:16:29.986Z</time></trkpt><trkpt lat="45.6367758" lon="9.3651285"><ele>210.2</ele><time>2026-03-24T14:16:30.986Z</time></trkpt><trkpt lat="45.6367172" lon="9.36517"><ele>210.0</ele><time>2026-03-24T14:16:31.986Z</time></trkpt><trkpt lat="45.6366085" lon="9.3652659"><ele>210.0</ele><time>2026-03-24T14:16:33.985Z</time></trkpt><trkpt lat="45.6365049" lon="9.3653617"><ele>210.0</ele><time>2026-03-24T14:16:35.986Z</time></trkpt><trkpt lat="45.6364499" lon="9.3654138"><ele>210.0</ele><time>2026-03-24T14:16:36.986Z</time></trkpt><trkpt lat="45.6363927" lon="9.3654666"><ele>210.0</ele><time>2026-03-24T14:16:37.986Z</time></trkpt><trkpt lat="45.6363294" lon="9.3655103"><ele>210.0</ele><time>2026-03-24T14:16:38.986Z</time></trkpt><trkpt lat="45.6362684" lon="9.3655468"><ele>210.0</ele><time>2026-03-24T14:16:39.986Z</time></trkpt><trkpt lat="45.6362035" lon="9.3655951"><ele>210.0</ele><time>2026-03-24T14:16:40.986Z</time></trkpt><trkpt lat="45.6361354" lon="9.3656367"><ele>210.0</ele><time>2026-03-24T14:16:41.986Z</time></trkpt><trkpt lat="45.6360743" lon="9.3656792"><ele>210.0</ele><time>2026-03-24T14:16:42.986Z</time></trkpt><trkpt lat="45.6360084" lon="9.3657037"><ele>210.0</ele><time>2026-03-24T14:16:43.985Z</time></trkpt><trkpt lat="45.6359422" lon="9.3657408"><ele>210.0</ele><time>2026-03-24T14:16:44.986Z</time></trkpt><trkpt lat="45.6358835" lon="9.3657828"><ele>210.0</ele><time>2026-03-24T14:16:45.986Z</time></trkpt><trkpt lat="45.6358166" lon="9.3658172"><ele>210.0</ele><time>2026-03-24T14:16:46.985Z</time></trkpt><trkpt lat="45.6357523" lon="9.3658517"><ele>210.0</ele><time>2026-03-24T14:16:47.986Z</time></trkpt><trkpt lat="45.6356905" lon="9.3658919"><ele>210.0</ele><time>2026-03-24T14:16:48.986Z</time></trkpt><trkpt lat="45.6356288" lon="9.3659364"><ele>210.0</ele><time>2026-03-24T14:16:49.986Z</time></trkpt><trkpt lat="45.6355619" lon="9.3659705"><ele>210.0</ele><time>2026-03-24T14:16:50.986Z</time></trkpt><trkpt lat="45.6354987" lon="9.3660134"><ele>210.0</ele><time>2026-03-24T14:16:51.986Z</time></trkpt><trkpt lat="45.6354369" lon="9.3660433"><ele>210.0</ele><time>2026-03-24T14:16:52.986Z</time></trkpt><trkpt lat="45.635375" lon="9.3660828"><ele>210.0</ele><time>2026-03-24T14:16:53.986Z</time></trkpt><trkpt lat="45.6353114" lon="9.366118"><ele>210.0</ele><time>2026-03-24T14:16:54.986Z</time></trkpt><trkpt lat="45.6352482" lon="9.3661494"><ele>210.0</ele><time>2026-03-24T14:16:55.986Z</time></trkpt><trkpt lat="45.6351778" lon="9.3661823"><ele>210.0</ele><time>2026-03-24T14:16:56.986Z</time></trkpt><trkpt lat="45.6350509" lon="9.3662585"><ele>210.0</ele><time>2026-03-24T14:16:58.986Z</time></trkpt><trkpt lat="45.6349845" lon="9.3663039"><ele>210.0</ele><time>2026-03-24T14:16:59.986Z</time></trkpt><trkpt lat="45.6349182" lon="9.366342"><ele>210.0</ele><time>2026-03-24T14:17:00.986Z</time></trkpt><trkpt lat="45.634852" lon="9.3663828"><ele>210.0</ele><time>2026-03-24T14:17:01.986Z</time></trkpt><trkpt lat="45.6347836" lon="9.3664265"><ele>210.0</ele><time>2026-03-24T14:17:02.986Z</time></trkpt><trkpt lat="45.6347136" lon="9.3664674"><ele>210.0</ele><time>2026-03-24T14:17:03.986Z</time></trkpt><trkpt lat="45.6346426" lon="9.3665092"><ele>210.0</ele><time>2026-03-24T14:17:04.985Z</time></trkpt><trkpt lat="45.6345767" lon="9.3665548"><ele>210.0</ele><time>2026-03-24T14:17:05.986Z</time></trkpt><trkpt lat="45.6345073" lon="9.3665947"><ele>210.0</ele><time>2026-03-24T14:17:06.986Z</time></trkpt><trkpt lat="45.6344349" lon="9.3666321"><ele>210.28571428571428</ele><time>2026-03-24T14:17:07.985Z</time></trkpt><trkpt lat="45.6343696" lon="9.3666768"><ele>210.57142857142856</ele><time>2026-03-24T14:17:08.986Z</time></trkpt><trkpt lat="45.6343031" lon="9.3667131"><ele>210.85714285714286</ele><time>2026-03-24T14:17:09.986Z</time></trkpt><trkpt lat="45.6342368" lon="9.3667624"><ele>211.14285714285714</ele><time>2026-03-24T14:17:10.986Z</time></trkpt><trkpt lat="45.6341673" lon="9.3668024"><ele>211.42857142857142</ele><time>2026-03-24T14:17:11.986Z</time></trkpt><trkpt lat="45.6341012" lon="9.3668423"><ele>211.71428571428572</ele><time>2026-03-24T14:17:12.986Z</time></trkpt><trkpt lat="45.6340323" lon="9.366891"><ele>212.0</ele><time>2026-03-24T14:17:13.986Z</time></trkpt><trkpt lat="45.6339699" lon="9.3669356"><ele>212.0</ele><time>2026-03-24T14:17:14.985Z</time></trkpt><trkpt lat="45.6339017" lon="9.3669776"><ele>212.0</ele><time>2026-03-24T14:17:15.986Z</time></trkpt><trkpt lat="45.6338338" lon="9.3670196"><ele>212.0</ele><time>2026-03-24T14:17:16.986Z</time></trkpt><trkpt lat="45.6337672" lon="9.3670632"><ele>212.0</ele><time>2026-03-24T14:17:17.986Z</time></trkpt><trkpt lat="45.6336983" lon="9.3671036"><ele>212.0</ele><time>2026-03-24T14:17:18.986Z</time></trkpt><trkpt lat="45.6336333" lon="9.3671366"><ele>212.0</ele><time>2026-03-24T14:17:19.986Z</time></trkpt><trkpt lat="45.6335676" lon="9.3671735"><ele>212.0</ele><time>2026-03-24T14:17:20.986Z</time></trkpt><trkpt lat="45.6335068" lon="9.3672119"><ele>211.2857142857143</ele><time>2026-03-24T14:17:21.986Z</time></trkpt><trkpt lat="45.6334428" lon="9.3672382"><ele>210.57142857142856</ele><time>2026-03-24T14:17:22.986Z</time></trkpt><trkpt lat="45.6333758" lon="9.3672676"><ele>209.85714285714286</ele><time>2026-03-24T14:17:23.986Z</time></trkpt><trkpt lat="45.6333074" lon="9.3672811"><ele>209.14285714285717</ele><time>2026-03-24T14:17:24.986Z</time></trkpt><trkpt lat="45.6332387" lon="9.3672884"><ele>208.42857142857144</ele><time>2026-03-24T14:17:25.986Z</time></trkpt><trkpt lat="45.6331758" lon="9.3673074"><ele>207.71428571428572</ele><time>2026-03-24T14:17:26.986Z</time></trkpt><trkpt lat="45.6331158" lon="9.3673577"><ele>207.0</ele><time>2026-03-24T14:17:27.986Z</time></trkpt><trkpt lat="45.6330206" lon="9.367463"><ele>207.00000000000003</ele><time>2026-03-24T14:17:29.986Z</time></trkpt><trkpt lat="45.6329623" lon="9.3675031"><ele>207.0</ele><time>2026-03-24T14:17:30.985Z</time></trkpt><trkpt lat="45.6329059" lon="9.3675499"><ele>207.0</ele><time>2026-03-24T14:17:31.986Z</time></trkpt><trkpt lat="45.632844" lon="9.3675869"><ele>207.0</ele><time>2026-03-24T14:17:32.985Z</time></trkpt><trkpt lat="45.632776" lon="9.3676215"><ele>207.0</ele><time>2026-03-24T14:17:33.986Z</time></trkpt><trkpt lat="45.6327127" lon="9.3676517"><ele>207.00000000000003</ele><time>2026-03-24T14:17:34.986Z</time></trkpt><trkpt lat="45.6326424" lon="9.3676922"><ele>207.0</ele><time>2026-03-24T14:17:35.986Z</time></trkpt><trkpt lat="45.6325792" lon="9.3677238"><ele>207.14285714285717</ele><time>2026-03-24T14:17:36.986Z</time></trkpt><trkpt lat="45.6325157" lon="9.367756"><ele>207.28571428571428</ele><time>2026-03-24T14:17:37.986Z</time></trkpt><trkpt lat="45.6324451" lon="9.3677912"><ele>207.42857142857144</ele><time>2026-03-24T14:17:38.986Z</time></trkpt><trkpt lat="45.6323798" lon="9.3678282"><ele>207.57142857142858</ele><time>2026-03-24T14:17:39.986Z</time></trkpt><trkpt lat="45.6323127" lon="9.3678695"><ele>207.71428571428572</ele><time>2026-03-24T14:17:40.986Z</time></trkpt><trkpt lat="45.6322466" lon="9.3679039"><ele>207.85714285714286</ele><time>2026-03-24T14:17:41.986Z</time></trkpt><trkpt lat="45.632183" lon="9.3679418"><ele>208.0</ele><time>2026-03-24T14:17:42.986Z</time></trkpt><trkpt lat="45.6321166" lon="9.3679727"><ele>208.0</ele><time>2026-03-24T14:17:43.986Z</time></trkpt><trkpt lat="45.632054" lon="9.3680151"><ele>208.0</ele><time>2026-03-24T14:17:44.986Z</time></trkpt><trkpt lat="45.6319856" lon="9.3680562"><ele>208.0</ele><time>2026-03-24T14:17:45.985Z</time></trkpt><trkpt lat="45.6319233" lon="9.3680936"><ele>208.0</ele><time>2026-03-24T14:17:46.986Z</time></trkpt><trkpt lat="45.6318524" lon="9.3681303"><ele>208.0</ele><time>2026-03-24T14:17:47.986Z</time></trkpt><trkpt lat="45.6317835" lon="9.3681668"><ele>208.0</ele><time>2026-03-24T14:17:48.986Z</time></trkpt><trkpt lat="45.6317196" lon="9.3682043"><ele>208.0</ele><time>2026-03-24T14:17:49.986Z</time></trkpt><trkpt lat="45.6316529" lon="9.368238"><ele>208.0</ele><time>2026-03-24T14:17:50.986Z</time></trkpt><trkpt lat="45.6315848" lon="9.3682686"><ele>208.0</ele><time>2026-03-24T14:17:51.985Z</time></trkpt><trkpt lat="45.6315189" lon="9.3683106"><ele>208.0</ele><time>2026-03-24T14:17:52.986Z</time></trkpt><trkpt lat="45.6314483" lon="9.3683524"><ele>208.0</ele><time>2026-03-24T14:17:53.986Z</time></trkpt><trkpt lat="45.6313818" lon="9.3683821"><ele>208.0</ele><time>2026-03-24T14:17:54.986Z</time></trkpt><trkpt lat="45.6313089" lon="9.3684172"><ele>208.0</ele><time>2026-03-24T14:17:55.986Z</time></trkpt><trkpt lat="45.6312438" lon="9.3684456"><ele>208.0</ele><time>2026-03-24T14:17:56.985Z</time></trkpt><trkpt lat="45.631175" lon="9.3684727"><ele>207.85714285714286</ele><time>2026-03-24T14:17:57.986Z</time></trkpt><trkpt lat="45.6311051" lon="9.3684828"><ele>207.71428571428572</ele><time>2026-03-24T14:17:58.986Z</time></trkpt><trkpt lat="45.6310398" lon="9.3685003"><ele>207.57142857142858</ele><time>2026-03-24T14:17:59.986Z</time></trkpt><trkpt lat="45.6309673" lon="9.3685223"><ele>207.42857142857144</ele><time>2026-03-24T14:18:00.985Z</time></trkpt><trkpt lat="45.6308965" lon="9.3685535"><ele>207.28571428571428</ele><time>2026-03-24T14:18:01.986Z</time></trkpt><trkpt lat="45.6308291" lon="9.3685802"><ele>207.14285714285717</ele><time>2026-03-24T14:18:02.986Z</time></trkpt><trkpt lat="45.6307616" lon="9.3685999"><ele>207.0</ele><time>2026-03-24T14:18:03.986Z</time></trkpt><trkpt lat="45.6306843" lon="9.3686132"><ele>207.00000000000003</ele><time>2026-03-24T14:18:04.986Z</time></trkpt><trkpt lat="45.6306155" lon="9.3686287"><ele>207.0</ele><time>2026-03-24T14:18:05.986Z</time></trkpt><trkpt lat="45.6305436" lon="9.368659"><ele>207.0</ele><time>2026-03-24T14:18:06.986Z</time></trkpt><trkpt lat="45.6304669" lon="9.3686797"><ele>207.0</ele><time>2026-03-24T14:18:07.986Z</time></trkpt><trkpt lat="45.6303983" lon="9.368697"><ele>207.0</ele><time>2026-03-24T14:18:08.986Z</time></trkpt><trkpt lat="45.6303249" lon="9.3687196"><ele>207.00000000000003</ele><time>2026-03-24T14:18:09.986Z</time></trkpt><trkpt lat="45.6302471" lon="9.368724"><ele>207.0</ele><time>2026-03-24T14:18:10.986Z</time></trkpt><trkpt lat="45.6301737" lon="9.3687358"><ele>206.83333333333334</ele><time>2026-03-24T14:18:11.986Z</time></trkpt><trkpt lat="45.6300955" lon="9.3687436"><ele>206.66666666666669</ele><time>2026-03-24T14:18:12.986Z</time></trkpt><trkpt lat="45.6300209" lon="9.3687513"><ele>206.5</ele><time>2026-03-24T14:18:13.986Z</time></trkpt><trkpt lat="45.6299408" lon="9.3687519"><ele>206.33333333333334</ele><time>2026-03-24T14:18:14.986Z</time></trkpt><trkpt lat="45.6298613" lon="9.3687479"><ele>206.16666666666669</ele><time>2026-03-24T14:18:15.986Z</time></trkpt><trkpt lat="45.6297854" lon="9.3687339"><ele>206.0</ele><time>2026-03-24T14:18:16.985Z</time></trkpt><trkpt lat="45.6297134" lon="9.3687244"><ele>205.99999999999997</ele><time>2026-03-24T14:18:17.986Z</time></trkpt><trkpt lat="45.6296406" lon="9.3687162"><ele>206.0</ele><time>2026-03-24T14:18:18.986Z</time></trkpt><trkpt lat="45.6295672" lon="9.3686997"><ele>206.0</ele><time>2026-03-24T14:18:19.985Z</time></trkpt><trkpt lat="45.6294891" lon="9.368684"><ele>206.0</ele><time>2026-03-24T14:18:20.986Z</time></trkpt><trkpt lat="45.6294189" lon="9.368673"><ele>206.0</ele><time>2026-03-24T14:18:21.986Z</time></trkpt><trkpt lat="45.6293489" lon="9.3686782"><ele>205.99999999999997</ele><time>2026-03-24T14:18:22.986Z</time></trkpt><trkpt lat="45.6292688" lon="9.3686705"><ele>206.0</ele><time>2026-03-24T14:18:23.986Z</time></trkpt><trkpt lat="45.6291956" lon="9.3686651"><ele>205.83333333333334</ele><time>2026-03-24T14:18:24.986Z</time></trkpt><trkpt lat="45.6291181" lon="9.3686586"><ele>205.66666666666669</ele><time>2026-03-24T14:18:25.986Z</time></trkpt><trkpt lat="45.6290378" lon="9.3686615"><ele>205.5</ele><time>2026-03-24T14:18:26.986Z</time></trkpt><trkpt lat="45.6289651" lon="9.36867"><ele>205.33333333333331</ele><time>2026-03-24T14:18:27.986Z</time></trkpt><trkpt lat="45.628889" lon="9.3686806"><ele>205.16666666666666</ele><time>2026-03-24T14:18:28.986Z</time></trkpt><trkpt lat="45.6288113" lon="9.3686988"><ele>205.0</ele><time>2026-03-24T14:18:29.986Z</time></trkpt><trkpt lat="45.6287385" lon="9.3687085"><ele>204.99999999999997</ele><time>2026-03-24T14:18:30.986Z</time></trkpt><trkpt lat="45.6286634" lon="9.368729"><ele>205.0</ele><time>2026-03-24T14:18:31.986Z</time></trkpt><trkpt lat="45.6285909" lon="9.36874"><ele>205.0</ele><time>2026-03-24T14:18:32.986Z</time></trkpt><trkpt lat="45.6285146" lon="9.3687523"><ele>205.0</ele><time>2026-03-24T14:18:33.986Z</time></trkpt><trkpt lat="45.6284384" lon="9.3687706"><ele>204.99999999999997</ele><time>2026-03-24T14:18:34.985Z</time></trkpt><trkpt lat="45.6283636" lon="9.3687802"><ele>205.0</ele><time>2026-03-24T14:18:35.986Z</time></trkpt><trkpt lat="45.6282918" lon="9.368793"><ele>205.16666666666666</ele><time>2026-03-24T14:18:36.986Z</time></trkpt><trkpt lat="45.6282206" lon="9.36881"><ele>205.33333333333331</ele><time>2026-03-24T14:18:37.986Z</time></trkpt><trkpt lat="45.6281518" lon="9.3688328"><ele>205.5</ele><time>2026-03-24T14:18:38.986Z</time></trkpt><trkpt lat="45.6280899" lon="9.3688539"><ele>205.66666666666669</ele><time>2026-03-24T14:18:39.986Z</time></trkpt><trkpt lat="45.6280203" lon="9.3688862"><ele>205.83333333333334</ele><time>2026-03-24T14:18:40.986Z</time></trkpt><trkpt lat="45.6279397" lon="9.3688805"><ele>206.0</ele><time>2026-03-24T14:18:41.986Z</time></trkpt><trkpt lat="45.6278163" lon="9.3689035"><ele>206.0</ele><time>2026-03-24T14:18:43.986Z</time></trkpt><trkpt lat="45.6277449" lon="9.3689033"><ele>206.0</ele><time>2026-03-24T14:18:44.986Z</time></trkpt><trkpt lat="45.6276171" lon="9.3689353"><ele>206.0</ele><time>2026-03-24T14:18:46.986Z</time></trkpt><trkpt lat="45.6275441" lon="9.3689521"><ele>206.0</ele><time>2026-03-24T14:18:47.986Z</time></trkpt><trkpt lat="45.6274254" lon="9.3689972"><ele>206.0</ele><time>2026-03-24T14:18:49.985Z</time></trkpt><trkpt lat="45.6273626" lon="9.3690167"><ele>206.0</ele><time>2026-03-24T14:18:50.986Z</time></trkpt><trkpt lat="45.627238" lon="9.3690725"><ele>206.0</ele><time>2026-03-24T14:18:52.986Z</time></trkpt><trkpt lat="45.6271452" lon="9.3691015"><ele>206.0</ele><time>2026-03-24T14:18:54.986Z</time></trkpt><trkpt lat="45.6270468" lon="9.3691225"><ele>206.0</ele><time>2026-03-24T14:18:55.986Z</time></trkpt><trkpt lat="45.6269629" lon="9.3691305"><ele>206.0</ele><time>2026-03-24T14:18:56.986Z</time></trkpt><trkpt lat="45.6268962" lon="9.369126"><ele>205.8</ele><time>2026-03-24T14:18:57.986Z</time></trkpt><trkpt lat="45.6267442" lon="9.3691509"><ele>205.60000000000002</ele><time>2026-03-24T14:18:59.986Z</time></trkpt><trkpt lat="45.626668" lon="9.3691724"><ele>205.4</ele><time>2026-03-24T14:19:00.986Z</time></trkpt><trkpt lat="45.6265922" lon="9.3691966"><ele>205.2</ele><time>2026-03-24T14:19:01.986Z</time></trkpt><trkpt lat="45.6265172" lon="9.3692156"><ele>205.0</ele><time>2026-03-24T14:19:02.985Z</time></trkpt><trkpt lat="45.626452" lon="9.3692308"><ele>205.0</ele><time>2026-03-24T14:19:03.986Z</time></trkpt><trkpt lat="45.6263781" lon="9.3692489"><ele>205.0</ele><time>2026-03-24T14:19:04.986Z</time></trkpt><trkpt lat="45.6263085" lon="9.3692721"><ele>205.0</ele><time>2026-03-24T14:19:05.986Z</time></trkpt><trkpt lat="45.6262438" lon="9.369308"><ele>205.0</ele><time>2026-03-24T14:19:06.986Z</time></trkpt><trkpt lat="45.6261679" lon="9.3693111"><ele>205.0</ele><time>2026-03-24T14:19:07.985Z</time></trkpt><trkpt lat="45.6260922" lon="9.3693305"><ele>205.0</ele><time>2026-03-24T14:19:08.986Z</time></trkpt><trkpt lat="45.6260205" lon="9.3693527"><ele>205.0</ele><time>2026-03-24T14:19:09.986Z</time></trkpt><trkpt lat="45.62594" lon="9.3693864"><ele>204.99999999999997</ele><time>2026-03-24T14:19:10.986Z</time></trkpt><trkpt lat="45.6258676" lon="9.3693887"><ele>205.0</ele><time>2026-03-24T14:19:11.986Z</time></trkpt><trkpt lat="45.6257963" lon="9.3693989"><ele>205.0</ele><time>2026-03-24T14:19:12.986Z</time></trkpt><trkpt lat="45.6257235" lon="9.3694088"><ele>205.0</ele><time>2026-03-24T14:19:13.986Z</time></trkpt><trkpt lat="45.6256481" lon="9.3694518"><ele>204.99999999999997</ele><time>2026-03-24T14:19:14.986Z</time></trkpt><trkpt lat="45.6255142" lon="9.3695197"><ele>205.0</ele><time>2026-03-24T14:19:16.986Z</time></trkpt><trkpt lat="45.625444" lon="9.3695205"><ele>204.99999999999997</ele><time>2026-03-24T14:19:17.986Z</time></trkpt><trkpt lat="45.625374" lon="9.3695376"><ele>205.0</ele><time>2026-03-24T14:19:18.986Z</time></trkpt><trkpt lat="45.6252934" lon="9.3695457"><ele>205.0</ele><time>2026-03-24T14:19:19.986Z</time></trkpt><trkpt lat="45.6251543" lon="9.3695752"><ele>205.0</ele><time>2026-03-24T14:19:21.986Z</time></trkpt><trkpt lat="45.6250763" lon="9.3696008"><ele>204.99999999999997</ele><time>2026-03-24T14:19:22.986Z</time></trkpt><trkpt lat="45.625" lon="9.3696051"><ele>205.0</ele><time>2026-03-24T14:19:23.986Z</time></trkpt><trkpt lat="45.6248982" lon="9.3696374"><ele>204.85714285714286</ele><time>2026-03-24T14:19:25.986Z</time></trkpt><trkpt lat="45.6248274" lon="9.3696701"><ele>204.7142857142857</ele><time>2026-03-24T14:19:26.986Z</time></trkpt><trkpt lat="45.6247517" lon="9.3696667"><ele>204.57142857142856</ele><time>2026-03-24T14:19:27.986Z</time></trkpt><trkpt lat="45.6246727" lon="9.3696658"><ele>204.42857142857144</ele><time>2026-03-24T14:19:28.986Z</time></trkpt><trkpt lat="45.6246036" lon="9.3696722"><ele>204.28571428571428</ele><time>2026-03-24T14:19:29.985Z</time></trkpt><trkpt lat="45.6245319" lon="9.3696765"><ele>204.14285714285714</ele><time>2026-03-24T14:19:30.986Z</time></trkpt><trkpt lat="45.6244662" lon="9.3696885"><ele>204.0</ele><time>2026-03-24T14:19:31.986Z</time></trkpt><trkpt lat="45.6243386" lon="9.3697157"><ele>203.85714285714286</ele><time>2026-03-24T14:19:33.986Z</time></trkpt><trkpt lat="45.6242528" lon="9.369747"><ele>203.71428571428572</ele><time>2026-03-24T14:19:34.986Z</time></trkpt><trkpt lat="45.6241833" lon="9.369767"><ele>203.57142857142856</ele><time>2026-03-24T14:19:35.986Z</time></trkpt><trkpt lat="45.6241121" lon="9.3697724"><ele>203.42857142857144</ele><time>2026-03-24T14:19:36.986Z</time></trkpt><trkpt lat="45.6240492" lon="9.3697573"><ele>203.28571428571428</ele><time>2026-03-24T14:19:37.986Z</time></trkpt><trkpt lat="45.6239852" lon="9.369777"><ele>203.14285714285714</ele><time>2026-03-24T14:19:38.986Z</time></trkpt><trkpt lat="45.62391" lon="9.3697857"><ele>203.0</ele><time>2026-03-24T14:19:39.986Z</time></trkpt><trkpt lat="45.6238384" lon="9.3698078"><ele>203.0</ele><time>2026-03-24T14:19:40.986Z</time></trkpt><trkpt lat="45.6236972" lon="9.3698309"><ele>203.0</ele><time>2026-03-24T14:19:42.986Z</time></trkpt><trkpt lat="45.6236214" lon="9.3698503"><ele>203.0</ele><time>2026-03-24T14:19:43.986Z</time></trkpt><trkpt lat="45.6234789" lon="9.3698821"><ele>203.0</ele><time>2026-03-24T14:19:45.986Z</time></trkpt><trkpt lat="45.6234114" lon="9.3698993"><ele>203.0</ele><time>2026-03-24T14:19:46.986Z</time></trkpt><trkpt lat="45.6233406" lon="9.3699144"><ele>203.0</ele><time>2026-03-24T14:19:47.986Z</time></trkpt><trkpt lat="45.6232632" lon="9.3699325"><ele>203.0</ele><time>2026-03-24T14:19:48.986Z</time></trkpt><trkpt lat="45.623132" lon="9.3699573"><ele>203.0</ele><time>2026-03-24T14:19:50.986Z</time></trkpt><trkpt lat="45.6230502" lon="9.3699951"><ele>203.0</ele><time>2026-03-24T14:19:51.986Z</time></trkpt><trkpt lat="45.6229393" lon="9.3700507"><ele>203.0</ele><time>2026-03-24T14:19:53.986Z</time></trkpt><trkpt lat="45.6228369" lon="9.3700478"><ele>202.4</ele><time>2026-03-24T14:19:54.986Z</time></trkpt><trkpt lat="45.6227049" lon="9.3700799"><ele>201.8</ele><time>2026-03-24T14:19:56.986Z</time></trkpt><trkpt lat="45.6226248" lon="9.3701248"><ele>201.2</ele><time>2026-03-24T14:19:57.986Z</time></trkpt><trkpt lat="45.622546" lon="9.3701099"><ele>200.6</ele><time>2026-03-24T14:19:58.986Z</time></trkpt><trkpt lat="45.6224658" lon="9.37011"><ele>200.0</ele><time>2026-03-24T14:19:59.986Z</time></trkpt><trkpt lat="45.622368" lon="9.3701272"><ele>200.00000000000003</ele><time>2026-03-24T14:20:00.986Z</time></trkpt><trkpt lat="45.622282" lon="9.3701343"><ele>200.0</ele><time>2026-03-24T14:20:01.986Z</time></trkpt><trkpt lat="45.6222146" lon="9.3701089"><ele>200.0</ele><time>2026-03-24T14:20:02.986Z</time></trkpt><trkpt lat="45.6220944" lon="9.3701443"><ele>200.0</ele><time>2026-03-24T14:20:04.985Z</time></trkpt><trkpt lat="45.6220237" lon="9.3701633"><ele>200.00000000000003</ele><time>2026-03-24T14:20:05.986Z</time></trkpt><trkpt lat="45.6219514" lon="9.3702597"><ele>200.0</ele><time>2026-03-24T14:20:06.986Z</time></trkpt><trkpt lat="45.6218018" lon="9.3703185"><ele>200.0</ele><time>2026-03-24T14:20:08.986Z</time></trkpt><trkpt lat="45.6216757" lon="9.3703228"><ele>200.0</ele><time>2026-03-24T14:20:10.985Z</time></trkpt><trkpt lat="45.6215867" lon="9.3703689"><ele>200.0</ele><time>2026-03-24T14:20:11.986Z</time></trkpt><trkpt lat="45.6215156" lon="9.3703926"><ele>200.0</ele><time>2026-03-24T14:20:12.986Z</time></trkpt><trkpt lat="45.6214336" lon="9.3704117"><ele>200.0</ele><time>2026-03-24T14:20:13.986Z</time></trkpt><trkpt lat="45.6213003" lon="9.3704295"><ele>200.00000000000003</ele><time>2026-03-24T14:20:15.986Z</time></trkpt><trkpt lat="45.6212256" lon="9.3704582"><ele>200.0</ele><time>2026-03-24T14:20:16.986Z</time></trkpt><trkpt lat="45.6211524" lon="9.370475"><ele>200.0</ele><time>2026-03-24T14:20:17.986Z</time></trkpt><trkpt lat="45.6210811" lon="9.3704756"><ele>200.0</ele><time>2026-03-24T14:20:18.986Z</time></trkpt><trkpt lat="45.6210112" lon="9.3705015"><ele>200.00000000000003</ele><time>2026-03-24T14:20:19.986Z</time></trkpt><trkpt lat="45.6209399" lon="9.3705142"><ele>200.0</ele><time>2026-03-24T14:20:20.986Z</time></trkpt><trkpt lat="45.6208314" lon="9.3705375"><ele>199.83333333333334</ele><time>2026-03-24T14:20:22.986Z</time></trkpt><trkpt lat="45.6207198" lon="9.3705493"><ele>199.66666666666669</ele><time>2026-03-24T14:20:24.986Z</time></trkpt><trkpt lat="45.6206066" lon="9.3705557"><ele>199.5</ele><time>2026-03-24T14:20:26.986Z</time></trkpt><trkpt lat="45.6205215" lon="9.3705704"><ele>199.33333333333331</ele><time>2026-03-24T14:20:28.986Z</time></trkpt><trkpt lat="45.6204572" lon="9.3705733"><ele>199.16666666666666</ele><time>2026-03-24T14:20:30.986Z</time></trkpt><trkpt lat="45.620394" lon="9.3705817"><ele>199.0</ele><time>2026-03-24T14:20:49.986Z</time></trkpt><trkpt lat="45.6202763" lon="9.3706363"><ele>199.0</ele><time>2026-03-24T14:20:51.985Z</time></trkpt><trkpt lat="45.6201556" lon="9.3706394"><ele>199.0</ele><time>2026-03-24T14:20:53.986Z</time></trkpt><trkpt lat="45.6200898" lon="9.3706343"><ele>199.0</ele><time>2026-03-24T14:20:54.986Z</time></trkpt><trkpt lat="45.6199626" lon="9.3706611"><ele>199.0</ele><time>2026-03-24T14:20:56.986Z</time></trkpt><trkpt lat="45.6198557" lon="9.3707185"><ele>199.0</ele><time>2026-03-24T14:20:58.985Z</time></trkpt><trkpt lat="45.6197878" lon="9.3707381"><ele>198.99999999999997</ele><time>2026-03-24T14:20:59.986Z</time></trkpt><trkpt lat="45.6197218" lon="9.3707633"><ele>199.0</ele><time>2026-03-24T14:21:00.986Z</time></trkpt><trkpt lat="45.619652" lon="9.370783"><ele>199.0</ele><time>2026-03-24T14:21:01.985Z</time></trkpt><trkpt lat="45.6195766" lon="9.3708093"><ele>199.0</ele><time>2026-03-24T14:21:02.985Z</time></trkpt><trkpt lat="45.6195133" lon="9.3708215"><ele>198.99999999999997</ele><time>2026-03-24T14:21:03.986Z</time></trkpt><trkpt lat="45.6194019" lon="9.3708256"><ele>199.0</ele><time>2026-03-24T14:21:05.986Z</time></trkpt><trkpt lat="45.6193306" lon="9.3708012"><ele>198.99999999999997</ele><time>2026-03-24T14:21:06.986Z</time></trkpt><trkpt lat="45.6191925" lon="9.3707931"><ele>199.0</ele><time>2026-03-24T14:21:08.986Z</time></trkpt><trkpt lat="45.6191304" lon="9.3708122"><ele>199.0</ele><time>2026-03-24T14:21:09.986Z</time></trkpt><trkpt lat="45.6190674" lon="9.3708215"><ele>199.0</ele><time>2026-03-24T14:21:10.986Z</time></trkpt><trkpt lat="45.6190013" lon="9.3708418"><ele>198.99999999999997</ele><time>2026-03-24T14:21:11.986Z</time></trkpt><trkpt lat="45.6189366" lon="9.3708524"><ele>199.0</ele><time>2026-03-24T14:21:12.986Z</time></trkpt><trkpt lat="45.6188474" lon="9.3708691"><ele>198.99999999999997</ele><time>2026-03-24T14:21:13.986Z</time></trkpt><trkpt lat="45.6187678" lon="9.3708752"><ele>199.0</ele><time>2026-03-24T14:21:14.986Z</time></trkpt><trkpt lat="45.6187032" lon="9.370898"><ele>199.0</ele><time>2026-03-24T14:21:15.986Z</time></trkpt><trkpt lat="45.6186425" lon="9.3709296"><ele>199.0</ele><time>2026-03-24T14:21:16.986Z</time></trkpt><trkpt lat="45.6185278" lon="9.3709546"><ele>198.99999999999997</ele><time>2026-03-24T14:21:18.985Z</time></trkpt><trkpt lat="45.6184543" lon="9.3709663"><ele>199.0</ele><time>2026-03-24T14:21:19.986Z</time></trkpt><trkpt lat="45.6183767" lon="9.3709721"><ele>199.0</ele><time>2026-03-24T14:21:20.986Z</time></trkpt><trkpt lat="45.618312" lon="9.3709864"><ele>199.0</ele><time>2026-03-24T14:21:21.986Z</time></trkpt><trkpt lat="45.6182514" lon="9.3710125"><ele>199.0</ele><time>2026-03-24T14:21:22.986Z</time></trkpt><trkpt lat="45.6181201" lon="9.3710578"><ele>199.0</ele><time>2026-03-24T14:21:24.986Z</time></trkpt><trkpt lat="45.6180484" lon="9.371074"><ele>199.0</ele><time>2026-03-24T14:21:25.986Z</time></trkpt><trkpt lat="45.6179151" lon="9.3711322"><ele>199.2</ele><time>2026-03-24T14:21:27.986Z</time></trkpt><trkpt lat="45.6178064" lon="9.3711721"><ele>199.39999999999998</ele><time>2026-03-24T14:21:29.986Z</time></trkpt><trkpt lat="45.6176842" lon="9.3712049"><ele>199.6</ele><time>2026-03-24T14:21:31.986Z</time></trkpt><trkpt lat="45.6176028" lon="9.3712157"><ele>199.8</ele><time>2026-03-24T14:21:32.986Z</time></trkpt><trkpt lat="45.6175395" lon="9.3712384"><ele>200.0</ele><time>2026-03-24T14:21:33.986Z</time></trkpt><trkpt lat="45.6174398" lon="9.371274"><ele>200.0</ele><time>2026-03-24T14:21:35.985Z</time></trkpt><trkpt lat="45.6173321" lon="9.3713178"><ele>200.0</ele><time>2026-03-24T14:21:37.986Z</time></trkpt><trkpt lat="45.617229" lon="9.3713279"><ele>200.0</ele><time>2026-03-24T14:21:39.986Z</time></trkpt><trkpt lat="45.6171061" lon="9.3713607"><ele>200.0</ele><time>2026-03-24T14:21:41.986Z</time></trkpt><trkpt lat="45.617039" lon="9.3713634"><ele>200.0</ele><time>2026-03-24T14:21:42.985Z</time></trkpt><trkpt lat="45.6169062" lon="9.3713838"><ele>199.0</ele><time>2026-03-24T14:21:44.986Z</time></trkpt><trkpt lat="45.6167922" lon="9.3714014"><ele>198.0</ele><time>2026-03-24T14:21:46.986Z</time></trkpt><trkpt lat="45.6167063" lon="9.3714558"><ele>197.0</ele><time>2026-03-24T14:21:48.986Z</time></trkpt><trkpt lat="45.6165962" lon="9.371467"><ele>196.0</ele><time>2026-03-24T14:21:51.986Z</time></trkpt><trkpt lat="45.6165137" lon="9.3715042"><ele>195.0</ele><time>2026-03-24T14:21:53.986Z</time></trkpt><trkpt lat="45.6164162" lon="9.3715401"><ele>195.0</ele><time>2026-03-24T14:21:55.985Z</time></trkpt><trkpt lat="45.616354" lon="9.3715608"><ele>195.0</ele><time>2026-03-24T14:21:56.985Z</time></trkpt><trkpt lat="45.6162518" lon="9.371608"><ele>195.0</ele><time>2026-03-24T14:21:58.986Z</time></trkpt><trkpt lat="45.6161378" lon="9.3716245"><ele>195.0</ele><time>2026-03-24T14:22:00.986Z</time></trkpt><trkpt lat="45.6160457" lon="9.3716261"><ele>195.0</ele><time>2026-03-24T14:22:02.986Z</time></trkpt><trkpt lat="45.6159405" lon="9.371619"><ele>195.0</ele><time>2026-03-24T14:22:04.986Z</time></trkpt><trkpt lat="45.6158315" lon="9.3715975"><ele>195.0</ele><time>2026-03-24T14:22:06.986Z</time></trkpt><trkpt lat="45.615732" lon="9.3715643"><ele>195.0</ele><time>2026-03-24T14:22:09.986Z</time></trkpt><trkpt lat="45.6156604" lon="9.3715892"><ele>195.0</ele><time>2026-03-24T14:22:11.986Z</time></trkpt><trkpt lat="45.6155893" lon="9.3715985"><ele>195.0</ele><time>2026-03-24T14:22:13.986Z</time></trkpt><trkpt lat="45.6155139" lon="9.3716112"><ele>195.0</ele><time>2026-03-24T14:22:15.986Z</time></trkpt><trkpt lat="45.6153976" lon="9.3716502"><ele>195.0</ele><time>2026-03-24T14:22:17.986Z</time></trkpt><trkpt lat="45.6153229" lon="9.3716486"><ele>195.0</ele><time>2026-03-24T14:22:18.986Z</time></trkpt><trkpt lat="45.6152174" lon="9.3716441"><ele>195.0</ele><time>2026-03-24T14:22:21.986Z</time></trkpt><trkpt lat="45.6151089" lon="9.3716402"><ele>195.0</ele><time>2026-03-24T14:22:23.986Z</time></trkpt><trkpt lat="45.6149562" lon="9.3715828"><ele>195.0</ele><time>2026-03-24T14:22:25.986Z</time></trkpt><trkpt lat="45.6148623" lon="9.3715839"><ele>195.4</ele><time>2026-03-24T14:22:27.986Z</time></trkpt><trkpt lat="45.6147637" lon="9.3715639"><ele>195.8</ele><time>2026-03-24T14:22:29.985Z</time></trkpt><trkpt lat="45.6147013" lon="9.371552"><ele>196.2</ele><time>2026-03-24T14:22:30.986Z</time></trkpt><trkpt lat="45.6145934" lon="9.3715399"><ele>196.6</ele><time>2026-03-24T14:22:32.986Z</time></trkpt><trkpt lat="45.6144897" lon="9.3715083"><ele>197.0</ele><time>2026-03-24T14:22:34.986Z</time></trkpt><trkpt lat="45.6143759" lon="9.3714774"><ele>197.2</ele><time>2026-03-24T14:22:36.986Z</time></trkpt><trkpt lat="45.6142762" lon="9.3714344"><ele>197.39999999999998</ele><time>2026-03-24T14:22:38.986Z</time></trkpt><trkpt lat="45.6141725" lon="9.3714008"><ele>197.60000000000002</ele><time>2026-03-24T14:22:40.986Z</time></trkpt><trkpt lat="45.6140537" lon="9.3713391"><ele>197.8</ele><time>2026-03-24T14:22:42.986Z</time></trkpt><trkpt lat="45.6139488" lon="9.3712867"><ele>198.0</ele><time>2026-03-24T14:22:44.986Z</time></trkpt><trkpt lat="45.6138722" lon="9.3712462"><ele>198.0</ele><time>2026-03-24T14:22:47.985Z</time></trkpt><trkpt lat="45.6138406" lon="9.3713573"><ele>198.0</ele><time>2026-03-24T14:22:51.986Z</time></trkpt><trkpt lat="45.6138152" lon="9.3714753"><ele>198.0</ele><time>2026-03-24T14:22:53.986Z</time></trkpt><trkpt lat="45.6137774" lon="9.3715953"><ele>198.0</ele><time>2026-03-24T14:22:55.986Z</time></trkpt><trkpt lat="45.613735" lon="9.3717094"><ele>198.0</ele><time>2026-03-24T14:22:57.986Z</time></trkpt><trkpt lat="45.6136922" lon="9.3718173"><ele>198.0</ele><time>2026-03-24T14:22:59.986Z</time></trkpt><trkpt lat="45.6136665" lon="9.3719204"><ele>197.8</ele><time>2026-03-24T14:23:01.986Z</time></trkpt><trkpt lat="45.613618" lon="9.3720202"><ele>197.60000000000002</ele><time>2026-03-24T14:23:03.986Z</time></trkpt><trkpt lat="45.6135878" lon="9.372166"><ele>197.39999999999998</ele><time>2026-03-24T14:23:05.985Z</time></trkpt><trkpt lat="45.6135708" lon="9.3723108"><ele>197.2</ele><time>2026-03-24T14:23:07.986Z</time></trkpt><trkpt lat="45.613561" lon="9.3724544"><ele>197.0</ele><time>2026-03-24T14:23:09.986Z</time></trkpt><trkpt lat="45.613528" lon="9.3726042"><ele>197.00000000000003</ele><time>2026-03-24T14:23:11.986Z</time></trkpt><trkpt lat="45.6135133" lon="9.3727074"><ele>197.0</ele><time>2026-03-24T14:23:14.986Z</time></trkpt><trkpt lat="45.613506" lon="9.3728233"><ele>197.0</ele><time>2026-03-24T14:23:28.986Z</time></trkpt><trkpt lat="45.6135148" lon="9.3729188"><ele>197.0</ele><time>2026-03-24T14:23:30.985Z</time></trkpt><trkpt lat="45.6135229" lon="9.3730217"><ele>197.00000000000003</ele><time>2026-03-24T14:23:32.986Z</time></trkpt><trkpt lat="45.6135221" lon="9.3731418"><ele>197.0</ele><time>2026-03-24T14:23:34.986Z</time></trkpt><trkpt lat="45.6135001" lon="9.3732774"><ele>196.6</ele><time>2026-03-24T14:23:36.986Z</time></trkpt><trkpt lat="45.6134702" lon="9.3734037"><ele>196.2</ele><time>2026-03-24T14:23:38.986Z</time></trkpt><trkpt lat="45.6134482" lon="9.3735182"><ele>195.8</ele><time>2026-03-24T14:23:40.986Z</time></trkpt><trkpt lat="45.6134198" lon="9.3736366"><ele>195.4</ele><time>2026-03-24T14:23:42.986Z</time></trkpt><trkpt lat="45.613392" lon="9.3737552"><ele>195.0</ele><time>2026-03-24T14:23:44.986Z</time></trkpt><trkpt lat="45.6133958" lon="9.3739244"><ele>194.8</ele><time>2026-03-24T14:23:46.986Z</time></trkpt><trkpt lat="45.6133619" lon="9.3740692"><ele>194.6</ele><time>2026-03-24T14:23:48.986Z</time></trkpt><trkpt lat="45.6133263" lon="9.3742075"><ele>194.39999999999998</ele><time>2026-03-24T14:23:50.986Z</time></trkpt><trkpt lat="45.6132905" lon="9.3743569"><ele>194.2</ele><time>2026-03-24T14:23:52.985Z</time></trkpt><trkpt lat="45.6132501" lon="9.3744613"><ele>194.0</ele><time>2026-03-24T14:23:54.986Z</time></trkpt><trkpt lat="45.6131838" lon="9.3745634"><ele>194.0</ele><time>2026-03-24T14:23:56.986Z</time></trkpt><trkpt lat="45.6131468" lon="9.3746536"><ele>194.0</ele><time>2026-03-24T14:23:58.986Z</time></trkpt><trkpt lat="45.6130625" lon="9.3747333"><ele>194.0</ele><time>2026-03-24T14:24:00.985Z</time></trkpt><trkpt lat="45.6129785" lon="9.3748283"><ele>194.0</ele><time>2026-03-24T14:24:02.986Z</time></trkpt><trkpt lat="45.6129051" lon="9.3749411"><ele>194.0</ele><time>2026-03-24T14:24:04.986Z</time></trkpt><trkpt lat="45.6128374" lon="9.3750624"><ele>193.50000000000003</ele><time>2026-03-24T14:24:06.986Z</time></trkpt><trkpt lat="45.6127636" lon="9.3751639"><ele>193.0</ele><time>2026-03-24T14:24:08.986Z</time></trkpt><trkpt lat="45.6127198" lon="9.3752839"><ele>192.5</ele><time>2026-03-24T14:24:10.986Z</time></trkpt><trkpt lat="45.6126971" lon="9.3753797"><ele>192.0</ele><time>2026-03-24T14:24:12.986Z</time></trkpt><trkpt lat="45.6126696" lon="9.3754877"><ele>191.5</ele><time>2026-03-24T14:24:14.985Z</time></trkpt><trkpt lat="45.6126864" lon="9.3755838"><ele>191.0</ele><time>2026-03-24T14:24:16.986Z</time></trkpt><trkpt lat="45.6127061" lon="9.3756744"><ele>191.0</ele><time>2026-03-24T14:24:17.986Z</time></trkpt><trkpt lat="45.6127569" lon="9.3757845"><ele>191.0</ele><time>2026-03-24T14:24:19.986Z</time></trkpt><trkpt lat="45.6128246" lon="9.3759185"><ele>191.0</ele><time>2026-03-24T14:24:21.986Z</time></trkpt><trkpt lat="45.6128856" lon="9.3760584"><ele>191.0</ele><time>2026-03-24T14:24:23.986Z</time></trkpt><trkpt lat="45.6129243" lon="9.3761391"><ele>191.0</ele><time>2026-03-24T14:24:24.986Z</time></trkpt><trkpt lat="45.612966" lon="9.3762244"><ele>191.0</ele><time>2026-03-24T14:24:25.986Z</time></trkpt><trkpt lat="45.6130036" lon="9.3763062"><ele>191.0</ele><time>2026-03-24T14:24:26.985Z</time></trkpt><trkpt lat="45.613045" lon="9.376374"><ele>191.0</ele><time>2026-03-24T14:24:27.986Z</time></trkpt><trkpt lat="45.6131188" lon="9.3765227"><ele>191.0</ele><time>2026-03-24T14:24:29.986Z</time></trkpt><trkpt lat="45.6132027" lon="9.3766573"><ele>191.0</ele><time>2026-03-24T14:24:31.985Z</time></trkpt><trkpt lat="45.61328" lon="9.376782"><ele>190.8</ele><time>2026-03-24T14:24:33.986Z</time></trkpt><trkpt lat="45.6133213" lon="9.3768513"><ele>190.60000000000002</ele><time>2026-03-24T14:24:34.986Z</time></trkpt><trkpt lat="45.6133812" lon="9.3770096"><ele>190.4</ele><time>2026-03-24T14:24:36.985Z</time></trkpt><trkpt lat="45.6134015" lon="9.3771761"><ele>190.2</ele><time>2026-03-24T14:24:38.986Z</time></trkpt><trkpt lat="45.6134047" lon="9.3772896"><ele>190.0</ele><time>2026-03-24T14:24:40.986Z</time></trkpt><trkpt lat="45.6133744" lon="9.3774667"><ele>190.0</ele><time>2026-03-24T14:24:42.986Z</time></trkpt><trkpt lat="45.6133238" lon="9.3775798"><ele>190.0</ele><time>2026-03-24T14:24:44.986Z</time></trkpt><trkpt lat="45.6132562" lon="9.3776075"><ele>190.0</ele><time>2026-03-24T14:24:45.985Z</time></trkpt><trkpt lat="45.6131464" lon="9.3776576"><ele>190.0</ele><time>2026-03-24T14:24:47.986Z</time></trkpt><trkpt lat="45.6130374" lon="9.3776857"><ele>190.0</ele><time>2026-03-24T14:24:49.986Z</time></trkpt><trkpt lat="45.6129289" lon="9.3776898"><ele>190.0</ele><time>2026-03-24T14:24:51.986Z</time></trkpt><trkpt lat="45.6128629" lon="9.3777172"><ele>190.0</ele><time>2026-03-24T14:24:52.986Z</time></trkpt><trkpt lat="45.6127988" lon="9.3778255"><ele>190.0</ele><time>2026-03-24T14:24:54.986Z</time></trkpt><trkpt lat="45.6127359" lon="9.3779214"><ele>190.0</ele><time>2026-03-24T14:24:56.986Z</time></trkpt><trkpt lat="45.6126495" lon="9.3780116"><ele>190.0</ele><time>2026-03-24T14:24:58.986Z</time></trkpt><trkpt lat="45.6125927" lon="9.3781515"><ele>190.16666666666669</ele><time>2026-03-24T14:25:00.986Z</time></trkpt><trkpt lat="45.612546" lon="9.378282"><ele>190.33333333333334</ele><time>2026-03-24T14:25:02.986Z</time></trkpt><trkpt lat="45.6124884" lon="9.3784083"><ele>190.5</ele><time>2026-03-24T14:25:04.986Z</time></trkpt><trkpt lat="45.612426" lon="9.3784603"><ele>190.66666666666666</ele><time>2026-03-24T14:25:06.985Z</time></trkpt><trkpt lat="45.6123655" lon="9.3785239"><ele>190.83333333333331</ele><time>2026-03-24T14:25:08.985Z</time></trkpt><trkpt lat="45.6123686" lon="9.3786327"><ele>191.0</ele><time>2026-03-24T14:25:10.986Z</time></trkpt><trkpt lat="45.6123528" lon="9.3787498"><ele>191.16666666666666</ele><time>2026-03-24T14:25:12.986Z</time></trkpt><trkpt lat="45.6123206" lon="9.3788719"><ele>191.33333333333331</ele><time>2026-03-24T14:25:14.985Z</time></trkpt><trkpt lat="45.6123061" lon="9.3790136"><ele>191.5</ele><time>2026-03-24T14:25:16.986Z</time></trkpt><trkpt lat="45.612298" lon="9.3791478"><ele>191.66666666666666</ele><time>2026-03-24T14:25:18.986Z</time></trkpt><trkpt lat="45.612287" lon="9.3792799"><ele>191.83333333333334</ele><time>2026-03-24T14:25:20.986Z</time></trkpt><trkpt lat="45.6122783" lon="9.3793787"><ele>192.0</ele><time>2026-03-24T14:25:22.986Z</time></trkpt><trkpt lat="45.6122569" lon="9.379544"><ele>192.16666666666666</ele><time>2026-03-24T14:25:25.986Z</time></trkpt><trkpt lat="45.6122074" lon="9.3796919"><ele>192.33333333333331</ele><time>2026-03-24T14:25:27.986Z</time></trkpt><trkpt lat="45.6121667" lon="9.3798169"><ele>192.5</ele><time>2026-03-24T14:25:29.986Z</time></trkpt><trkpt lat="45.6121383" lon="9.3799314"><ele>192.66666666666666</ele><time>2026-03-24T14:25:31.986Z</time></trkpt><trkpt lat="45.6121238" lon="9.3800251"><ele>192.83333333333331</ele><time>2026-03-24T14:25:33.986Z</time></trkpt><trkpt lat="45.6121153" lon="9.3801154"><ele>193.0</ele><time>2026-03-24T14:25:35.986Z</time></trkpt><trkpt lat="45.6121202" lon="9.3802161"><ele>192.99999999999997</ele><time>2026-03-24T14:25:37.986Z</time></trkpt><trkpt lat="45.6121478" lon="9.3803072"><ele>193.0</ele><time>2026-03-24T14:25:39.986Z</time></trkpt><trkpt lat="45.6122103" lon="9.380379"><ele>193.0</ele><time>2026-03-24T14:25:41.986Z</time></trkpt><trkpt lat="45.6122691" lon="9.3804655"><ele>193.0</ele><time>2026-03-24T14:25:43.986Z</time></trkpt><trkpt lat="45.6123272" lon="9.3805503"><ele>192.99999999999997</ele><time>2026-03-24T14:25:45.986Z</time></trkpt><trkpt lat="45.6124031" lon="9.3806462"><ele>193.0</ele><time>2026-03-24T14:25:47.986Z</time></trkpt><trkpt lat="45.612475" lon="9.3807273"><ele>193.0</ele><time>2026-03-24T14:25:49.986Z</time></trkpt><trkpt lat="45.6125508" lon="9.3808076"><ele>193.0</ele><time>2026-03-24T14:25:51.986Z</time></trkpt><trkpt lat="45.6126178" lon="9.3808788"><ele>193.0</ele><time>2026-03-24T14:25:53.986Z</time></trkpt><trkpt lat="45.6126963" lon="9.3809575"><ele>193.0</ele><time>2026-03-24T14:25:55.986Z</time></trkpt><trkpt lat="45.6128001" lon="9.3810151"><ele>193.0</ele><time>2026-03-24T14:25:57.985Z</time></trkpt><trkpt lat="45.6129115" lon="9.381089"><ele>193.0</ele><time>2026-03-24T14:25:59.986Z</time></trkpt><trkpt lat="45.6130084" lon="9.3811525"><ele>193.0</ele><time>2026-03-24T14:26:01.986Z</time></trkpt><trkpt lat="45.6130948" lon="9.3812105"><ele>193.0</ele><time>2026-03-24T14:26:03.986Z</time></trkpt><trkpt lat="45.6131821" lon="9.3812582"><ele>193.0</ele><time>2026-03-24T14:26:05.986Z</time></trkpt><trkpt lat="45.6132715" lon="9.3813024"><ele>193.0</ele><time>2026-03-24T14:26:07.986Z</time></trkpt><trkpt lat="45.6133628" lon="9.3813584"><ele>193.60000000000002</ele><time>2026-03-24T14:26:09.985Z</time></trkpt><trkpt lat="45.6134573" lon="9.3814071"><ele>194.20000000000002</ele><time>2026-03-24T14:26:11.986Z</time></trkpt><trkpt lat="45.6135504" lon="9.3814603"><ele>194.8</ele><time>2026-03-24T14:26:13.986Z</time></trkpt><trkpt lat="45.6136518" lon="9.3815082"><ele>195.4</ele><time>2026-03-24T14:26:15.986Z</time></trkpt><trkpt lat="45.6137798" lon="9.3815288"><ele>196.0</ele><time>2026-03-24T14:26:17.986Z</time></trkpt><trkpt lat="45.6138539" lon="9.3815252"><ele>195.99999999999997</ele><time>2026-03-24T14:26:18.986Z</time></trkpt><trkpt lat="45.6139272" lon="9.3815212"><ele>196.0</ele><time>2026-03-24T14:26:19.986Z</time></trkpt><trkpt lat="45.613999" lon="9.3815188"><ele>196.0</ele><time>2026-03-24T14:26:20.985Z</time></trkpt><trkpt lat="45.6140675" lon="9.381516"><ele>196.0</ele><time>2026-03-24T14:26:21.986Z</time></trkpt><trkpt lat="45.6141356" lon="9.3815081"><ele>195.99999999999997</ele><time>2026-03-24T14:26:22.986Z</time></trkpt><trkpt lat="45.6142018" lon="9.3815048"><ele>196.0</ele><time>2026-03-24T14:26:23.986Z</time></trkpt><trkpt lat="45.6143424" lon="9.381531"><ele>196.0</ele><time>2026-03-24T14:26:24.986Z</time></trkpt><trkpt lat="45.6144774" lon="9.381552"><ele>196.0</ele><time>2026-03-24T14:26:26.986Z</time></trkpt><trkpt lat="45.6145425" lon="9.3815617"><ele>196.0</ele><time>2026-03-24T14:26:27.986Z</time></trkpt><trkpt lat="45.61461" lon="9.381573"><ele>196.0</ele><time>2026-03-24T14:26:28.986Z</time></trkpt><trkpt lat="45.6147353" lon="9.3816"><ele>196.0</ele><time>2026-03-24T14:26:30.986Z</time></trkpt><trkpt lat="45.6148476" lon="9.3816276"><ele>196.33333333333331</ele><time>2026-03-24T14:26:32.986Z</time></trkpt><trkpt lat="45.6149148" lon="9.3816311"><ele>196.66666666666666</ele><time>2026-03-24T14:26:34.986Z</time></trkpt><trkpt lat="45.6150205" lon="9.3816345"><ele>197.0</ele><time>2026-03-24T14:26:36.986Z</time></trkpt><trkpt lat="45.6151455" lon="9.3816832"><ele>197.33333333333331</ele><time>2026-03-24T14:26:38.986Z</time></trkpt><trkpt lat="45.6152112" lon="9.3816896"><ele>197.66666666666666</ele><time>2026-03-24T14:26:39.985Z</time></trkpt><trkpt lat="45.6152791" lon="9.3816898"><ele>198.0</ele><time>2026-03-24T14:26:40.986Z</time></trkpt><trkpt lat="45.6153979" lon="9.3817151"><ele>198.4</ele><time>2026-03-24T14:26:42.986Z</time></trkpt><trkpt lat="45.615514" lon="9.3817492"><ele>198.8</ele><time>2026-03-24T14:26:44.985Z</time></trkpt><trkpt lat="45.6155771" lon="9.3817636"><ele>199.2</ele><time>2026-03-24T14:26:45.986Z</time></trkpt><trkpt lat="45.6156878" lon="9.3818272"><ele>199.6</ele><time>2026-03-24T14:26:47.986Z</time></trkpt><trkpt lat="45.6158135" lon="9.3818639"><ele>200.0</ele><time>2026-03-24T14:26:49.986Z</time></trkpt><trkpt lat="45.6159344" lon="9.3819159"><ele>200.0</ele><time>2026-03-24T14:26:51.986Z</time></trkpt><trkpt lat="45.6160184" lon="9.3819446"><ele>200.0</ele><time>2026-03-24T14:26:52.986Z</time></trkpt><trkpt lat="45.6161122" lon="9.3819788"><ele>200.0</ele><time>2026-03-24T14:26:54.986Z</time></trkpt><trkpt lat="45.6162141" lon="9.382025"><ele>200.0</ele><time>2026-03-24T14:26:56.986Z</time></trkpt><trkpt lat="45.616292" lon="9.3820916"><ele>200.0</ele><time>2026-03-24T14:26:58.985Z</time></trkpt><trkpt lat="45.6163672" lon="9.3821125"><ele>200.00000000000003</ele><time>2026-03-24T14:27:00.986Z</time></trkpt><trkpt lat="45.6164659" lon="9.3821344"><ele>200.0</ele><time>2026-03-24T14:27:02.986Z</time></trkpt><trkpt lat="45.6165395" lon="9.3821336"><ele>200.0</ele><time>2026-03-24T14:27:03.986Z</time></trkpt><trkpt lat="45.6166045" lon="9.3821468"><ele>200.0</ele><time>2026-03-24T14:27:04.986Z</time></trkpt><trkpt lat="45.6167085" lon="9.3821708"><ele>200.00000000000003</ele><time>2026-03-24T14:27:06.986Z</time></trkpt><trkpt lat="45.6167772" lon="9.3821703"><ele>200.0</ele><time>2026-03-24T14:27:07.986Z</time></trkpt><trkpt lat="45.6168475" lon="9.3821779"><ele>200.00000000000003</ele><time>2026-03-24T14:27:08.986Z</time></trkpt><trkpt lat="45.6169599" lon="9.3821818"><ele>200.0</ele><time>2026-03-24T14:27:10.986Z</time></trkpt><trkpt lat="45.6170251" lon="9.3821922"><ele>200.0</ele><time>2026-03-24T14:27:11.986Z</time></trkpt><trkpt lat="45.6171336" lon="9.3821881"><ele>200.0</ele><time>2026-03-24T14:27:13.986Z</time></trkpt><trkpt lat="45.6172047" lon="9.3821865"><ele>200.00000000000003</ele><time>2026-03-24T14:27:14.986Z</time></trkpt><trkpt lat="45.6172819" lon="9.3821959"><ele>200.0</ele><time>2026-03-24T14:27:15.986Z</time></trkpt><trkpt lat="45.6173946" lon="9.382186"><ele>200.2</ele><time>2026-03-24T14:27:17.986Z</time></trkpt><trkpt lat="45.617524" lon="9.3821759"><ele>200.4</ele><time>2026-03-24T14:27:19.986Z</time></trkpt><trkpt lat="45.6176287" lon="9.3821726"><ele>200.60000000000002</ele><time>2026-03-24T14:27:20.986Z</time></trkpt><trkpt lat="45.6177165" lon="9.3821662"><ele>200.8</ele><time>2026-03-24T14:27:21.986Z</time></trkpt><trkpt lat="45.6177823" lon="9.3821574"><ele>201.0</ele><time>2026-03-24T14:27:22.986Z</time></trkpt><trkpt lat="45.6178534" lon="9.3821629"><ele>201.14285714285714</ele><time>2026-03-24T14:27:23.986Z</time></trkpt><trkpt lat="45.6179271" lon="9.3821613"><ele>201.2857142857143</ele><time>2026-03-24T14:27:24.986Z</time></trkpt><trkpt lat="45.6179948" lon="9.3821601"><ele>201.42857142857144</ele><time>2026-03-24T14:27:25.986Z</time></trkpt><trkpt lat="45.6180611" lon="9.3821659"><ele>201.57142857142856</ele><time>2026-03-24T14:27:26.986Z</time></trkpt><trkpt lat="45.6181272" lon="9.3821769"><ele>201.71428571428572</ele><time>2026-03-24T14:27:27.986Z</time></trkpt><trkpt lat="45.6181911" lon="9.3821971"><ele>201.85714285714286</ele><time>2026-03-24T14:27:28.986Z</time></trkpt><trkpt lat="45.6182593" lon="9.3822031"><ele>202.0</ele><time>2026-03-24T14:27:29.986Z</time></trkpt><trkpt lat="45.6183232" lon="9.3822179"><ele>201.8</ele><time>2026-03-24T14:27:30.985Z</time></trkpt><trkpt lat="45.618448" lon="9.3822399"><ele>201.6</ele><time>2026-03-24T14:27:32.986Z</time></trkpt><trkpt lat="45.618514" lon="9.3822509"><ele>201.4</ele><time>2026-03-24T14:27:33.986Z</time></trkpt><trkpt lat="45.6186468" lon="9.3822685"><ele>201.20000000000002</ele><time>2026-03-24T14:27:35.986Z</time></trkpt><trkpt lat="45.618724" lon="9.3822785"><ele>201.0</ele><time>2026-03-24T14:27:36.986Z</time></trkpt><trkpt lat="45.6188386" lon="9.3822958"><ele>201.0</ele><time>2026-03-24T14:27:38.986Z</time></trkpt><trkpt lat="45.6189645" lon="9.3823322"><ele>201.0</ele><time>2026-03-24T14:27:40.986Z</time></trkpt><trkpt lat="45.6190828" lon="9.3823407"><ele>201.0</ele><time>2026-03-24T14:27:42.986Z</time></trkpt><trkpt lat="45.6191554" lon="9.3823541"><ele>201.0</ele><time>2026-03-24T14:27:43.985Z</time></trkpt><trkpt lat="45.6192183" lon="9.3823594"><ele>201.0</ele><time>2026-03-24T14:27:44.986Z</time></trkpt><trkpt lat="45.619294" lon="9.382347"><ele>201.0</ele><time>2026-03-24T14:27:45.986Z</time></trkpt><trkpt lat="45.6194133" lon="9.3823818"><ele>201.0</ele><time>2026-03-24T14:27:47.986Z</time></trkpt><trkpt lat="45.6194767" lon="9.382393"><ele>201.0</ele><time>2026-03-24T14:27:48.986Z</time></trkpt><trkpt lat="45.6196101" lon="9.3824364"><ele>201.0</ele><time>2026-03-24T14:27:50.985Z</time></trkpt><trkpt lat="45.6196773" lon="9.3824596"><ele>201.0</ele><time>2026-03-24T14:27:51.985Z</time></trkpt><trkpt lat="45.6197407" lon="9.3824654"><ele>202.0</ele><time>2026-03-24T14:27:52.985Z</time></trkpt><trkpt lat="45.6198695" lon="9.3824841"><ele>203.0</ele><time>2026-03-24T14:27:54.985Z</time></trkpt><trkpt lat="45.6199965" lon="9.3824988"><ele>204.0</ele><time>2026-03-24T14:27:56.986Z</time></trkpt><trkpt lat="45.6200639" lon="9.3825104"><ele>205.0</ele><time>2026-03-24T14:27:57.986Z</time></trkpt><trkpt lat="45.6201847" lon="9.3825292"><ele>206.0</ele><time>2026-03-24T14:27:59.986Z</time></trkpt><trkpt lat="45.6202959" lon="9.3825266"><ele>205.5</ele><time>2026-03-24T14:28:01.986Z</time></trkpt><trkpt lat="45.6204062" lon="9.3825485"><ele>205.0</ele><time>2026-03-24T14:28:03.986Z</time></trkpt><trkpt lat="45.6205122" lon="9.3825819"><ele>204.5</ele><time>2026-03-24T14:28:05.986Z</time></trkpt><trkpt lat="45.6205971" lon="9.3825723"><ele>204.0</ele><time>2026-03-24T14:28:07.986Z</time></trkpt><trkpt lat="45.6206031" lon="9.3828171"><ele>204.0</ele><time>2026-03-24T14:28:17.985Z</time></trkpt><trkpt lat="45.6206047" lon="9.3829552"><ele>204.0</ele><time>2026-03-24T14:28:19.986Z</time></trkpt><trkpt lat="45.6206547" lon="9.3830857"><ele>204.0</ele><time>2026-03-24T14:28:21.985Z</time></trkpt><trkpt lat="45.6207265" lon="9.3832071"><ele>204.0</ele><time>2026-03-24T14:28:23.986Z</time></trkpt><trkpt lat="45.6207616" lon="9.3832829"><ele>204.0</ele><time>2026-03-24T14:28:24.986Z</time></trkpt><trkpt lat="45.6207956" lon="9.383363"><ele>204.0</ele><time>2026-03-24T14:28:25.985Z</time></trkpt><trkpt lat="45.6208193" lon="9.3835064"><ele>204.25</ele><time>2026-03-24T14:28:27.986Z</time></trkpt><trkpt lat="45.6208367" lon="9.3836611"><ele>204.5</ele><time>2026-03-24T14:28:29.986Z</time></trkpt><trkpt lat="45.6208408" lon="9.3838063"><ele>204.75</ele><time>2026-03-24T14:28:31.986Z</time></trkpt><trkpt lat="45.6208413" lon="9.3839808"><ele>205.0</ele><time>2026-03-24T14:28:33.986Z</time></trkpt><trkpt lat="45.6208356" lon="9.3841483"><ele>204.6</ele><time>2026-03-24T14:28:35.986Z</time></trkpt><trkpt lat="45.620827" lon="9.3843138"><ele>204.2</ele><time>2026-03-24T14:28:37.986Z</time></trkpt><trkpt lat="45.6208218" lon="9.384493"><ele>203.8</ele><time>2026-03-24T14:28:39.986Z</time></trkpt><trkpt lat="45.6208121" lon="9.3845934"><ele>203.4</ele><time>2026-03-24T14:28:40.986Z</time></trkpt><trkpt lat="45.6207634" lon="9.3847756"><ele>203.0</ele><time>2026-03-24T14:28:42.985Z</time></trkpt><trkpt lat="45.620732" lon="9.3848657"><ele>202.57142857142858</ele><time>2026-03-24T14:28:43.986Z</time></trkpt><trkpt lat="45.6206924" lon="9.3849546"><ele>202.14285714285714</ele><time>2026-03-24T14:28:44.986Z</time></trkpt><trkpt lat="45.6206509" lon="9.3850456"><ele>201.71428571428572</ele><time>2026-03-24T14:28:45.986Z</time></trkpt><trkpt lat="45.6206158" lon="9.3851372"><ele>201.28571428571428</ele><time>2026-03-24T14:28:46.986Z</time></trkpt><trkpt lat="45.6205795" lon="9.3852255"><ele>200.85714285714286</ele><time>2026-03-24T14:28:47.985Z</time></trkpt><trkpt lat="45.6205437" lon="9.3853142"><ele>200.42857142857144</ele><time>2026-03-24T14:28:48.986Z</time></trkpt><trkpt lat="45.6205128" lon="9.3854062"><ele>200.0</ele><time>2026-03-24T14:28:49.986Z</time></trkpt><trkpt lat="45.6204828" lon="9.3854937"><ele>199.42857142857144</ele><time>2026-03-24T14:28:50.986Z</time></trkpt><trkpt lat="45.6204464" lon="9.3855855"><ele>198.85714285714286</ele><time>2026-03-24T14:28:51.986Z</time></trkpt><trkpt lat="45.6204229" lon="9.3856753"><ele>198.28571428571428</ele><time>2026-03-24T14:28:52.986Z</time></trkpt><trkpt lat="45.6204069" lon="9.3857711"><ele>197.71428571428572</ele><time>2026-03-24T14:28:53.986Z</time></trkpt><trkpt lat="45.6203951" lon="9.3858686"><ele>197.14285714285714</ele><time>2026-03-24T14:28:54.986Z</time></trkpt><trkpt lat="45.6203817" lon="9.3859649"><ele>196.57142857142858</ele><time>2026-03-24T14:28:55.986Z</time></trkpt><trkpt lat="45.6203707" lon="9.3860677"><ele>196.0</ele><time>2026-03-24T14:28:56.986Z</time></trkpt><trkpt lat="45.6203634" lon="9.386167"><ele>196.0</ele><time>2026-03-24T14:28:57.986Z</time></trkpt><trkpt lat="45.620355" lon="9.3862628"><ele>196.0</ele><time>2026-03-24T14:28:58.986Z</time></trkpt><trkpt lat="45.6203454" lon="9.3863666"><ele>196.0</ele><time>2026-03-24T14:28:59.986Z</time></trkpt><trkpt lat="45.6203385" lon="9.386466"><ele>196.0</ele><time>2026-03-24T14:29:00.986Z</time></trkpt><trkpt lat="45.6203357" lon="9.3865642"><ele>196.0</ele><time>2026-03-24T14:29:01.986Z</time></trkpt><trkpt lat="45.620325" lon="9.3866715"><ele>196.0</ele><time>2026-03-24T14:29:02.986Z</time></trkpt><trkpt lat="45.6203194" lon="9.3867767"><ele>196.0</ele><time>2026-03-24T14:29:03.986Z</time></trkpt><trkpt lat="45.6203193" lon="9.3869494"><ele>195.99999999999997</ele><time>2026-03-24T14:29:05.986Z</time></trkpt><trkpt lat="45.6203075" lon="9.387145"><ele>196.0</ele><time>2026-03-24T14:29:07.986Z</time></trkpt><trkpt lat="45.6203042" lon="9.3872461"><ele>196.0</ele><time>2026-03-24T14:29:08.986Z</time></trkpt><trkpt lat="45.6203016" lon="9.3873531"><ele>196.0</ele><time>2026-03-24T14:29:09.986Z</time></trkpt><trkpt lat="45.6202935" lon="9.3874578"><ele>195.99999999999997</ele><time>2026-03-24T14:29:10.986Z</time></trkpt><trkpt lat="45.6202907" lon="9.3875567"><ele>196.0</ele><time>2026-03-24T14:29:11.986Z</time></trkpt><trkpt lat="45.6202838" lon="9.3876571"><ele>196.0</ele><time>2026-03-24T14:29:12.986Z</time></trkpt><trkpt lat="45.6202803" lon="9.3877564"><ele>196.0</ele><time>2026-03-24T14:29:13.986Z</time></trkpt><trkpt lat="45.62027" lon="9.3878543"><ele>196.0</ele><time>2026-03-24T14:29:14.986Z</time></trkpt><trkpt lat="45.6202576" lon="9.387953"><ele>196.0</ele><time>2026-03-24T14:29:15.986Z</time></trkpt><trkpt lat="45.6202467" lon="9.3880507"><ele>196.0</ele><time>2026-03-24T14:29:16.986Z</time></trkpt><trkpt lat="45.6202322" lon="9.388148"><ele>196.0</ele><time>2026-03-24T14:29:17.986Z</time></trkpt><trkpt lat="45.6202221" lon="9.3882447"><ele>196.0</ele><time>2026-03-24T14:29:18.986Z</time></trkpt><trkpt lat="45.6202123" lon="9.3883499"><ele>196.0</ele><time>2026-03-24T14:29:19.986Z</time></trkpt><trkpt lat="45.6201998" lon="9.3884518"><ele>196.0</ele><time>2026-03-24T14:29:20.985Z</time></trkpt><trkpt lat="45.6201826" lon="9.3885558"><ele>196.0</ele><time>2026-03-24T14:29:21.986Z</time></trkpt><trkpt lat="45.6201745" lon="9.388657"><ele>196.0</ele><time>2026-03-24T14:29:22.986Z</time></trkpt><trkpt lat="45.6201626" lon="9.3887633"><ele>196.0</ele><time>2026-03-24T14:29:23.985Z</time></trkpt><trkpt lat="45.6201455" lon="9.3888653"><ele>196.0</ele><time>2026-03-24T14:29:24.986Z</time></trkpt><trkpt lat="45.6201373" lon="9.388958"><ele>196.0</ele><time>2026-03-24T14:29:25.986Z</time></trkpt><trkpt lat="45.6201282" lon="9.3890605"><ele>195.83333333333331</ele><time>2026-03-24T14:29:26.985Z</time></trkpt><trkpt lat="45.620119" lon="9.3891542"><ele>195.66666666666666</ele><time>2026-03-24T14:29:27.986Z</time></trkpt><trkpt lat="45.6201042" lon="9.3893585"><ele>195.5</ele><time>2026-03-24T14:29:29.988Z</time></trkpt><trkpt lat="45.6201064" lon="9.3894565"><ele>195.33333333333331</ele><time>2026-03-24T14:29:30.981Z</time></trkpt><trkpt lat="45.6201064" lon="9.3895538"><ele>195.16666666666666</ele><time>2026-03-24T14:29:31.977Z</time></trkpt><trkpt lat="45.6201071" lon="9.3896519"><ele>195.0</ele><time>2026-03-24T14:29:32.983Z</time></trkpt><trkpt lat="45.6201138" lon="9.3897533"><ele>195.28571428571428</ele><time>2026-03-24T14:29:33.982Z</time></trkpt><trkpt lat="45.6201178" lon="9.3898538"><ele>195.57142857142856</ele><time>2026-03-24T14:29:34.99Z</time></trkpt><trkpt lat="45.6201228" lon="9.3899602"><ele>195.85714285714286</ele><time>2026-03-24T14:29:35.99Z</time></trkpt><trkpt lat="45.6201195" lon="9.3900712"><ele>196.14285714285714</ele><time>2026-03-24T14:29:36.99Z</time></trkpt><trkpt lat="45.6201262" lon="9.3901751"><ele>196.42857142857144</ele><time>2026-03-24T14:29:37.99Z</time></trkpt><trkpt lat="45.6201326" lon="9.3902691"><ele>196.71428571428572</ele><time>2026-03-24T14:29:38.99Z</time></trkpt><trkpt lat="45.6201331" lon="9.3903674"><ele>197.0</ele><time>2026-03-24T14:29:39.99Z</time></trkpt><trkpt lat="45.6201383" lon="9.3904657"><ele>197.33333333333334</ele><time>2026-03-24T14:29:40.99Z</time></trkpt><trkpt lat="45.6201407" lon="9.3905576"><ele>197.66666666666669</ele><time>2026-03-24T14:29:41.99Z</time></trkpt><trkpt lat="45.6201391" lon="9.3906524"><ele>198.0</ele><time>2026-03-24T14:29:42.99Z</time></trkpt><trkpt lat="45.6201468" lon="9.3908217"><ele>198.33333333333331</ele><time>2026-03-24T14:29:44.99Z</time></trkpt><trkpt lat="45.6201484" lon="9.3909156"><ele>198.66666666666666</ele><time>2026-03-24T14:29:45.99Z</time></trkpt><trkpt lat="45.6201668" lon="9.3910892"><ele>199.0</ele><time>2026-03-24T14:29:47.99Z</time></trkpt><trkpt lat="45.6201794" lon="9.3911781"><ele>199.75</ele><time>2026-03-24T14:29:48.989Z</time></trkpt><trkpt lat="45.620193" lon="9.391344"><ele>200.5</ele><time>2026-03-24T14:29:50.99Z</time></trkpt><trkpt lat="45.6202133" lon="9.3915188"><ele>201.25</ele><time>2026-03-24T14:29:52.989Z</time></trkpt><trkpt lat="45.6202504" lon="9.3916621"><ele>202.0</ele><time>2026-03-24T14:29:54.99Z</time></trkpt><trkpt lat="45.6202798" lon="9.391802"><ele>202.0</ele><time>2026-03-24T14:29:56.99Z</time></trkpt><trkpt lat="45.6203029" lon="9.3919436"><ele>202.0</ele><time>2026-03-24T14:29:58.99Z</time></trkpt><trkpt lat="45.6203025" lon="9.3921132"><ele>202.0</ele><time>2026-03-24T14:30:00.99Z</time></trkpt><trkpt lat="45.6202863" lon="9.3922714"><ele>202.0</ele><time>2026-03-24T14:30:02.989Z</time></trkpt><trkpt lat="45.6202593" lon="9.3924313"><ele>202.0</ele><time>2026-03-24T14:30:04.99Z</time></trkpt><trkpt lat="45.6202345" lon="9.392588"><ele>202.25</ele><time>2026-03-24T14:30:06.989Z</time></trkpt><trkpt lat="45.6202111" lon="9.3927343"><ele>202.5</ele><time>2026-03-24T14:30:08.99Z</time></trkpt><trkpt lat="45.6201811" lon="9.3929042"><ele>202.75</ele><time>2026-03-24T14:30:10.99Z</time></trkpt><trkpt lat="45.6201526" lon="9.3930768"><ele>203.0</ele><time>2026-03-24T14:30:12.99Z</time></trkpt><trkpt lat="45.6201297" lon="9.393251"><ele>203.25</ele><time>2026-03-24T14:30:14.99Z</time></trkpt><trkpt lat="45.6201005" lon="9.39342"><ele>203.5</ele><time>2026-03-24T14:30:16.989Z</time></trkpt><trkpt lat="45.6200735" lon="9.3935963"><ele>203.75</ele><time>2026-03-24T14:30:18.99Z</time></trkpt><trkpt lat="45.6200524" lon="9.3937478"><ele>204.0</ele><time>2026-03-24T14:30:20.99Z</time></trkpt><trkpt lat="45.6200349" lon="9.3939122"><ele>204.2</ele><time>2026-03-24T14:30:22.99Z</time></trkpt><trkpt lat="45.6200064" lon="9.3940666"><ele>204.39999999999998</ele><time>2026-03-24T14:30:24.99Z</time></trkpt><trkpt lat="45.619987" lon="9.3942211"><ele>204.6</ele><time>2026-03-24T14:30:26.99Z</time></trkpt><trkpt lat="45.6199806" lon="9.3943127"><ele>204.8</ele><time>2026-03-24T14:30:27.99Z</time></trkpt><trkpt lat="45.6199513" lon="9.3944738"><ele>205.0</ele><time>2026-03-24T14:30:29.99Z</time></trkpt><trkpt lat="45.6199099" lon="9.394608"><ele>205.0</ele><time>2026-03-24T14:30:31.99Z</time></trkpt><trkpt lat="45.6198923" lon="9.3947396"><ele>205.0</ele><time>2026-03-24T14:30:33.99Z</time></trkpt><trkpt lat="45.6198995" lon="9.3948871"><ele>205.0</ele><time>2026-03-24T14:30:36.99Z</time></trkpt><trkpt lat="45.6198861" lon="9.3950004"><ele>205.0</ele><time>2026-03-24T14:30:37.99Z</time></trkpt><trkpt lat="45.6198711" lon="9.3951744"><ele>205.0</ele><time>2026-03-24T14:30:39.99Z</time></trkpt><trkpt lat="45.6198579" lon="9.3952727"><ele>205.0</ele><time>2026-03-24T14:30:40.99Z</time></trkpt><trkpt lat="45.6198326" lon="9.395436"><ele>205.0</ele><time>2026-03-24T14:30:42.99Z</time></trkpt><trkpt lat="45.6197779" lon="9.3955677"><ele>205.0</ele><time>2026-03-24T14:30:44.989Z</time></trkpt><trkpt lat="45.6196793" lon="9.3956"><ele>205.0</ele><time>2026-03-24T14:30:46.99Z</time></trkpt><trkpt lat="45.6195953" lon="9.3955969"><ele>205.0</ele><time>2026-03-24T14:30:48.99Z</time></trkpt><trkpt lat="45.6195284" lon="9.3955892"><ele>204.6</ele><time>2026-03-24T14:30:50.99Z</time></trkpt><trkpt lat="45.6194541" lon="9.395668"><ele>204.2</ele><time>2026-03-24T14:30:53.989Z</time></trkpt><trkpt lat="45.6194254" lon="9.3957981"><ele>203.8</ele><time>2026-03-24T14:30:55.99Z</time></trkpt><trkpt lat="45.6193959" lon="9.3959322"><ele>203.4</ele><time>2026-03-24T14:30:57.99Z</time></trkpt><trkpt lat="45.61938" lon="9.3960618"><ele>203.0</ele><time>2026-03-24T14:30:59.99Z</time></trkpt><trkpt lat="45.6193991" lon="9.3961902"><ele>203.16666666666669</ele><time>2026-03-24T14:31:01.99Z</time></trkpt><trkpt lat="45.6194006" lon="9.3963409"><ele>203.33333333333334</ele><time>2026-03-24T14:31:03.99Z</time></trkpt><trkpt lat="45.6194147" lon="9.3964713"><ele>203.5</ele><time>2026-03-24T14:31:05.99Z</time></trkpt><trkpt lat="45.6194303" lon="9.3965597"><ele>203.66666666666669</ele><time>2026-03-24T14:31:06.99Z</time></trkpt><trkpt lat="45.6194532" lon="9.3966467"><ele>203.83333333333334</ele><time>2026-03-24T14:31:07.99Z</time></trkpt><trkpt lat="45.6195049" lon="9.3968053"><ele>204.0</ele><time>2026-03-24T14:31:09.99Z</time></trkpt><trkpt lat="45.6195594" lon="9.3969619"><ele>204.0</ele><time>2026-03-24T14:31:11.99Z</time></trkpt><trkpt lat="45.619614" lon="9.3970912"><ele>204.0</ele><time>2026-03-24T14:31:13.99Z</time></trkpt><trkpt lat="45.6196765" lon="9.397245"><ele>204.0</ele><time>2026-03-24T14:31:15.99Z</time></trkpt><trkpt lat="45.6197062" lon="9.397327"><ele>204.0</ele><time>2026-03-24T14:31:16.99Z</time></trkpt><trkpt lat="45.6197639" lon="9.3974855"><ele>204.0</ele><time>2026-03-24T14:31:18.99Z</time></trkpt><trkpt lat="45.6198253" lon="9.3976233"><ele>204.0</ele><time>2026-03-24T14:31:20.99Z</time></trkpt><trkpt lat="45.619843" lon="9.3977134"><ele>204.0</ele><time>2026-03-24T14:31:21.99Z</time></trkpt><trkpt lat="45.6198439" lon="9.397882"><ele>204.0</ele><time>2026-03-24T14:31:23.99Z</time></trkpt><trkpt lat="45.6198392" lon="9.3979751"><ele>204.0</ele><time>2026-03-24T14:31:24.99Z</time></trkpt><trkpt lat="45.6198317" lon="9.3981321"><ele>204.0</ele><time>2026-03-24T14:31:26.99Z</time></trkpt><trkpt lat="45.619824" lon="9.3982876"><ele>204.0</ele><time>2026-03-24T14:31:28.989Z</time></trkpt><trkpt lat="45.6198275" lon="9.3984614"><ele>204.0</ele><time>2026-03-24T14:31:30.99Z</time></trkpt><trkpt lat="45.6198352" lon="9.3986292"><ele>204.0</ele><time>2026-03-24T14:31:32.99Z</time></trkpt><trkpt lat="45.6198623" lon="9.3987889"><ele>204.0</ele><time>2026-03-24T14:31:34.99Z</time></trkpt><trkpt lat="45.6199007" lon="9.398945"><ele>204.0</ele><time>2026-03-24T14:31:36.99Z</time></trkpt><trkpt lat="45.6199159" lon="9.3990387"><ele>204.0</ele><time>2026-03-24T14:31:37.99Z</time></trkpt><trkpt lat="45.6199422" lon="9.3992034"><ele>204.0</ele><time>2026-03-24T14:31:39.989Z</time></trkpt><trkpt lat="45.6199532" lon="9.399304"><ele>204.0</ele><time>2026-03-24T14:31:40.99Z</time></trkpt><trkpt lat="45.6199827" lon="9.3994634"><ele>204.0</ele><time>2026-03-24T14:31:42.99Z</time></trkpt><trkpt lat="45.620011" lon="9.3996303"><ele>204.0</ele><time>2026-03-24T14:31:44.989Z</time></trkpt><trkpt lat="45.6200453" lon="9.3997911"><ele>204.0</ele><time>2026-03-24T14:31:46.989Z</time></trkpt><trkpt lat="45.620111" lon="9.3999497"><ele>204.0</ele><time>2026-03-24T14:31:48.99Z</time></trkpt><trkpt lat="45.6201458" lon="9.4000265"><ele>204.0</ele><time>2026-03-24T14:31:49.99Z</time></trkpt><trkpt lat="45.6202207" lon="9.4001738"><ele>204.0</ele><time>2026-03-24T14:31:51.99Z</time></trkpt><trkpt lat="45.6202899" lon="9.40033"><ele>204.2</ele><time>2026-03-24T14:31:53.989Z</time></trkpt><trkpt lat="45.6203535" lon="9.4004744"><ele>204.39999999999998</ele><time>2026-03-24T14:31:55.99Z</time></trkpt><trkpt lat="45.620385" lon="9.4005561"><ele>204.6</ele><time>2026-03-24T14:31:56.99Z</time></trkpt><trkpt lat="45.6204525" lon="9.400698"><ele>204.8</ele><time>2026-03-24T14:31:58.99Z</time></trkpt><trkpt lat="45.6205209" lon="9.400844"><ele>205.0</ele><time>2026-03-24T14:32:00.99Z</time></trkpt><trkpt lat="45.6205544" lon="9.4009211"><ele>205.0</ele><time>2026-03-24T14:32:01.99Z</time></trkpt><trkpt lat="45.6205899" lon="9.4010029"><ele>205.0</ele><time>2026-03-24T14:32:02.99Z</time></trkpt><trkpt lat="45.6206494" lon="9.4011616"><ele>205.0</ele><time>2026-03-24T14:32:04.99Z</time></trkpt><trkpt lat="45.6206957" lon="9.4013192"><ele>205.0</ele><time>2026-03-24T14:32:06.99Z</time></trkpt><trkpt lat="45.6207269" lon="9.4014855"><ele>205.0</ele><time>2026-03-24T14:32:08.99Z</time></trkpt><trkpt lat="45.6207371" lon="9.4016584"><ele>205.2</ele><time>2026-03-24T14:32:10.99Z</time></trkpt><trkpt lat="45.6207257" lon="9.4017634"><ele>205.4</ele><time>2026-03-24T14:32:11.989Z</time></trkpt><trkpt lat="45.6206924" lon="9.4019325"><ele>205.60000000000002</ele><time>2026-03-24T14:32:13.99Z</time></trkpt><trkpt lat="45.6206739" lon="9.4020256"><ele>205.8</ele><time>2026-03-24T14:32:14.99Z</time></trkpt><trkpt lat="45.6206562" lon="9.4022005"><ele>206.0</ele><time>2026-03-24T14:32:16.99Z</time></trkpt><trkpt lat="45.6207068" lon="9.4023251"><ele>206.20000000000002</ele><time>2026-03-24T14:32:18.99Z</time></trkpt><trkpt lat="45.6208013" lon="9.4024206"><ele>206.4</ele><time>2026-03-24T14:32:20.989Z</time></trkpt><trkpt lat="45.6208934" lon="9.4025067"><ele>206.6</ele><time>2026-03-24T14:32:22.99Z</time></trkpt><trkpt lat="45.6209728" lon="9.402602"><ele>206.8</ele><time>2026-03-24T14:32:24.99Z</time></trkpt><trkpt lat="45.6210545" lon="9.4027076"><ele>207.0</ele><time>2026-03-24T14:32:26.99Z</time></trkpt><trkpt lat="45.621134" lon="9.4027958"><ele>207.0</ele><time>2026-03-24T14:32:28.99Z</time></trkpt><trkpt lat="45.6212005" lon="9.4028795"><ele>207.0</ele><time>2026-03-24T14:32:30.99Z</time></trkpt><trkpt lat="45.6212442" lon="9.4029616"><ele>207.0</ele><time>2026-03-24T14:32:31.99Z</time></trkpt><trkpt lat="45.621316" lon="9.4030536"><ele>207.0</ele><time>2026-03-24T14:32:33.99Z</time></trkpt><trkpt lat="45.6213594" lon="9.4031648"><ele>207.0</ele><time>2026-03-24T14:32:35.99Z</time></trkpt><trkpt lat="45.6213566" lon="9.4033055"><ele>207.0</ele><time>2026-03-24T14:32:37.99Z</time></trkpt><trkpt lat="45.6213499" lon="9.4034406"><ele>207.0</ele><time>2026-03-24T14:32:39.99Z</time></trkpt><trkpt lat="45.6213293" lon="9.4035796"><ele>207.0</ele><time>2026-03-24T14:32:41.99Z</time></trkpt><trkpt lat="45.6213056" lon="9.4036753"><ele>207.0</ele><time>2026-03-24T14:32:43.989Z</time></trkpt><trkpt lat="45.6213035" lon="9.4038286"><ele>207.0</ele><time>2026-03-24T14:32:45.99Z</time></trkpt><trkpt lat="45.6212837" lon="9.4039695"><ele>207.0</ele><time>2026-03-24T14:32:47.99Z</time></trkpt><trkpt lat="45.6212552" lon="9.4041291"><ele>207.0</ele><time>2026-03-24T14:32:49.99Z</time></trkpt><trkpt lat="45.6212438" lon="9.4042735"><ele>207.0</ele><time>2026-03-24T14:32:51.99Z</time></trkpt><trkpt lat="45.6212294" lon="9.4044357"><ele>207.0</ele><time>2026-03-24T14:32:53.989Z</time></trkpt><trkpt lat="45.6212257" lon="9.4046033"><ele>207.0</ele><time>2026-03-24T14:32:55.99Z</time></trkpt><trkpt lat="45.6212251" lon="9.404695"><ele>207.0</ele><time>2026-03-24T14:32:56.989Z</time></trkpt><trkpt lat="45.6212155" lon="9.4048496"><ele>207.0</ele><time>2026-03-24T14:32:58.989Z</time></trkpt><trkpt lat="45.6212034" lon="9.404955"><ele>207.0</ele><time>2026-03-24T14:32:59.99Z</time></trkpt><trkpt lat="45.621198" lon="9.4050524"><ele>207.0</ele><time>2026-03-24T14:33:00.99Z</time></trkpt><trkpt lat="45.6211849" lon="9.4051487"><ele>207.0</ele><time>2026-03-24T14:33:01.99Z</time></trkpt><trkpt lat="45.6211645" lon="9.4052347"><ele>207.0</ele><time>2026-03-24T14:33:02.99Z</time></trkpt><trkpt lat="45.6211308" lon="9.4053972"><ele>207.0</ele><time>2026-03-24T14:33:04.99Z</time></trkpt><trkpt lat="45.6210706" lon="9.4055616"><ele>206.5</ele><time>2026-03-24T14:33:06.99Z</time></trkpt><trkpt lat="45.6210254" lon="9.4056975"><ele>206.0</ele><time>2026-03-24T14:33:08.99Z</time></trkpt><trkpt lat="45.6209909" lon="9.4058088"><ele>205.5</ele><time>2026-03-24T14:33:10.99Z</time></trkpt><trkpt lat="45.6209154" lon="9.4059546"><ele>205.0</ele><time>2026-03-24T14:33:12.99Z</time></trkpt><trkpt lat="45.6209004" lon="9.4060445"><ele>204.5</ele><time>2026-03-24T14:33:13.99Z</time></trkpt><trkpt lat="45.6208891" lon="9.406136"><ele>204.0</ele><time>2026-03-24T14:33:14.99Z</time></trkpt><trkpt lat="45.6208775" lon="9.4063272"><ele>203.14285714285714</ele><time>2026-03-24T14:33:16.99Z</time></trkpt><trkpt lat="45.6208709" lon="9.4064313"><ele>202.28571428571428</ele><time>2026-03-24T14:33:17.99Z</time></trkpt><trkpt lat="45.620871" lon="9.406529"><ele>201.42857142857144</ele><time>2026-03-24T14:33:18.989Z</time></trkpt><trkpt lat="45.6208618" lon="9.4066232"><ele>200.57142857142856</ele><time>2026-03-24T14:33:19.99Z</time></trkpt><trkpt lat="45.6208567" lon="9.4067206"><ele>199.7142857142857</ele><time>2026-03-24T14:33:20.99Z</time></trkpt><trkpt lat="45.620844" lon="9.4068089"><ele>198.85714285714286</ele><time>2026-03-24T14:33:21.989Z</time></trkpt><trkpt lat="45.6208259" lon="9.4069039"><ele>198.0</ele><time>2026-03-24T14:33:22.99Z</time></trkpt><trkpt lat="45.6208188" lon="9.4070096"><ele>198.0</ele><time>2026-03-24T14:33:23.99Z</time></trkpt><trkpt lat="45.6208077" lon="9.4071014"><ele>198.0</ele><time>2026-03-24T14:33:24.99Z</time></trkpt><trkpt lat="45.6207993" lon="9.407291"><ele>198.0</ele><time>2026-03-24T14:33:26.99Z</time></trkpt><trkpt lat="45.6207918" lon="9.4073866"><ele>198.0</ele><time>2026-03-24T14:33:27.99Z</time></trkpt><trkpt lat="45.6207873" lon="9.4074781"><ele>198.0</ele><time>2026-03-24T14:33:28.99Z</time></trkpt><trkpt lat="45.6207859" lon="9.407569"><ele>198.0</ele><time>2026-03-24T14:33:29.99Z</time></trkpt><trkpt lat="45.6207801" lon="9.4076753"><ele>197.8</ele><time>2026-03-24T14:33:30.99Z</time></trkpt><trkpt lat="45.6207723" lon="9.4078467"><ele>197.60000000000002</ele><time>2026-03-24T14:33:32.99Z</time></trkpt><trkpt lat="45.62076" lon="9.4080158"><ele>197.39999999999998</ele><time>2026-03-24T14:33:34.99Z</time></trkpt><trkpt lat="45.6207519" lon="9.4081099"><ele>197.2</ele><time>2026-03-24T14:33:35.99Z</time></trkpt><trkpt lat="45.6207486" lon="9.4082748"><ele>197.0</ele><time>2026-03-24T14:33:37.99Z</time></trkpt><trkpt lat="45.6207388" lon="9.4083686"><ele>197.0</ele><time>2026-03-24T14:33:38.99Z</time></trkpt><trkpt lat="45.6207301" lon="9.408522"><ele>197.0</ele><time>2026-03-24T14:33:40.99Z</time></trkpt><trkpt lat="45.6207353" lon="9.4086672"><ele>197.0</ele><time>2026-03-24T14:33:42.989Z</time></trkpt><trkpt lat="45.6207312" lon="9.4087602"><ele>197.0</ele><time>2026-03-24T14:33:43.989Z</time></trkpt><trkpt lat="45.6207358" lon="9.4088592"><ele>197.0</ele><time>2026-03-24T14:33:44.99Z</time></trkpt><trkpt lat="45.6207384" lon="9.4090214"><ele>197.25</ele><time>2026-03-24T14:33:46.99Z</time></trkpt><trkpt lat="45.6207397" lon="9.4091916"><ele>197.5</ele><time>2026-03-24T14:33:48.99Z</time></trkpt><trkpt lat="45.6207348" lon="9.4093604"><ele>197.75</ele><time>2026-03-24T14:33:50.99Z</time></trkpt><trkpt lat="45.6207411" lon="9.4095311"><ele>198.0</ele><time>2026-03-24T14:33:52.99Z</time></trkpt><trkpt lat="45.6207504" lon="9.4096892"><ele>198.4</ele><time>2026-03-24T14:33:54.989Z</time></trkpt><trkpt lat="45.6207704" lon="9.4098432"><ele>198.8</ele><time>2026-03-24T14:33:56.99Z</time></trkpt><trkpt lat="45.6208021" lon="9.4100007"><ele>199.2</ele><time>2026-03-24T14:33:58.99Z</time></trkpt><trkpt lat="45.6208412" lon="9.4101232"><ele>199.6</ele><time>2026-03-24T14:34:00.99Z</time></trkpt><trkpt lat="45.6208986" lon="9.4102365"><ele>200.0</ele><time>2026-03-24T14:34:02.99Z</time></trkpt><trkpt lat="45.6209716" lon="9.4103473"><ele>200.00000000000003</ele><time>2026-03-24T14:34:04.99Z</time></trkpt><trkpt lat="45.6210543" lon="9.4104264"><ele>200.0</ele><time>2026-03-24T14:34:06.989Z</time></trkpt><trkpt lat="45.6211276" lon="9.4105312"><ele>200.0</ele><time>2026-03-24T14:34:08.99Z</time></trkpt><trkpt lat="45.6212093" lon="9.4106145"><ele>200.0</ele><time>2026-03-24T14:34:10.99Z</time></trkpt><trkpt lat="45.6212588" lon="9.4106751"><ele>200.00000000000003</ele><time>2026-03-24T14:34:11.99Z</time></trkpt><trkpt lat="45.6213057" lon="9.4107401"><ele>200.0</ele><time>2026-03-24T14:34:13.989Z</time></trkpt><trkpt lat="45.6213711" lon="9.4108586"><ele>201.0</ele><time>2026-03-24T14:34:15.99Z</time></trkpt><trkpt lat="45.6214284" lon="9.4109882"><ele>202.0</ele><time>2026-03-24T14:34:17.99Z</time></trkpt><trkpt lat="45.6214051" lon="9.4110729"><ele>203.0</ele><time>2026-03-24T14:34:19.99Z</time></trkpt><trkpt lat="45.6213948" lon="9.4112259"><ele>204.0</ele><time>2026-03-24T14:34:21.99Z</time></trkpt><trkpt lat="45.6214008" lon="9.4113841"><ele>205.0</ele><time>2026-03-24T14:34:23.99Z</time></trkpt><trkpt lat="45.6214071" lon="9.4115533"><ele>205.4</ele><time>2026-03-24T14:34:25.99Z</time></trkpt><trkpt lat="45.6213926" lon="9.4116928"><ele>205.8</ele><time>2026-03-24T14:34:27.99Z</time></trkpt><trkpt lat="45.6213782" lon="9.4118044"><ele>206.2</ele><time>2026-03-24T14:34:29.976Z</time></trkpt><trkpt lat="45.6213592" lon="9.411921"><ele>206.6</ele><time>2026-03-24T14:34:31.981Z</time></trkpt><trkpt lat="45.6213555" lon="9.4120728"><ele>207.0</ele><time>2026-03-24T14:34:33.988Z</time></trkpt><trkpt lat="45.6213583" lon="9.4122031"><ele>207.5</ele><time>2026-03-24T14:34:35.99Z</time></trkpt><trkpt lat="45.6213412" lon="9.4122942"><ele>208.0</ele><time>2026-03-24T14:34:37.99Z</time></trkpt><trkpt lat="45.6213017" lon="9.412392"><ele>208.5</ele><time>2026-03-24T14:34:39.99Z</time></trkpt><trkpt lat="45.6212782" lon="9.4125244"><ele>209.0</ele><time>2026-03-24T14:34:41.99Z</time></trkpt><trkpt lat="45.6212897" lon="9.4126231"><ele>209.5</ele><time>2026-03-24T14:34:42.99Z</time></trkpt><trkpt lat="45.6212927" lon="9.4127358"><ele>210.0</ele><time>2026-03-24T14:34:43.99Z</time></trkpt><trkpt lat="45.6212875" lon="9.4128504"><ele>210.0</ele><time>2026-03-24T14:34:44.99Z</time></trkpt><trkpt lat="45.6212868" lon="9.4129704"><ele>210.0</ele><time>2026-03-24T14:34:45.99Z</time></trkpt><trkpt lat="45.6212834" lon="9.413078"><ele>210.0</ele><time>2026-03-24T14:34:46.99Z</time></trkpt><trkpt lat="45.6212935" lon="9.4131984"><ele>210.0</ele><time>2026-03-24T14:34:47.99Z</time></trkpt><trkpt lat="45.6213013" lon="9.4133036"><ele>210.0</ele><time>2026-03-24T14:34:48.989Z</time></trkpt><trkpt lat="45.6212963" lon="9.4134045"><ele>210.0</ele><time>2026-03-24T14:34:49.99Z</time></trkpt><trkpt lat="45.6212888" lon="9.4134994"><ele>209.8</ele><time>2026-03-24T14:34:50.989Z</time></trkpt><trkpt lat="45.6212722" lon="9.4136617"><ele>209.6</ele><time>2026-03-24T14:34:52.989Z</time></trkpt><trkpt lat="45.621267" lon="9.4138105"><ele>209.39999999999998</ele><time>2026-03-24T14:34:54.99Z</time></trkpt><trkpt lat="45.6212252" lon="9.4139463"><ele>209.2</ele><time>2026-03-24T14:34:56.99Z</time></trkpt><trkpt lat="45.6211466" lon="9.4140481"><ele>209.0</ele><time>2026-03-24T14:34:58.99Z</time></trkpt><trkpt lat="45.6210889" lon="9.4141817"><ele>208.79999999999998</ele><time>2026-03-24T14:35:00.99Z</time></trkpt><trkpt lat="45.6210413" lon="9.4143388"><ele>208.6</ele><time>2026-03-24T14:35:02.99Z</time></trkpt><trkpt lat="45.6210245" lon="9.4144258"><ele>208.4</ele><time>2026-03-24T14:35:03.99Z</time></trkpt><trkpt lat="45.6210047" lon="9.4145897"><ele>208.2</ele><time>2026-03-24T14:35:05.99Z</time></trkpt><trkpt lat="45.6209709" lon="9.4147291"><ele>208.0</ele><time>2026-03-24T14:35:06.99Z</time></trkpt><trkpt lat="45.6209542" lon="9.4148857"><ele>208.0</ele><time>2026-03-24T14:35:08.99Z</time></trkpt><trkpt lat="45.6209276" lon="9.4150385"><ele>208.0</ele><time>2026-03-24T14:35:10.99Z</time></trkpt><trkpt lat="45.6208672" lon="9.4151603"><ele>208.0</ele><time>2026-03-24T14:35:12.99Z</time></trkpt><trkpt lat="45.6207875" lon="9.415206"><ele>208.0</ele><time>2026-03-24T14:35:14.99Z</time></trkpt><trkpt lat="45.6207015" lon="9.4151921"><ele>208.0</ele><time>2026-03-24T14:35:16.99Z</time></trkpt><trkpt lat="45.6205884" lon="9.4151622"><ele>208.0</ele><time>2026-03-24T14:35:18.99Z</time></trkpt><trkpt lat="45.6204801" lon="9.4151394"><ele>208.0</ele><time>2026-03-24T14:35:20.99Z</time></trkpt><trkpt lat="45.6203654" lon="9.4151295"><ele>208.0</ele><time>2026-03-24T14:35:22.99Z</time></trkpt><trkpt lat="45.6202524" lon="9.4150881"><ele>208.0</ele><time>2026-03-24T14:35:24.99Z</time></trkpt><trkpt lat="45.6201789" lon="9.4150397"><ele>208.0</ele><time>2026-03-24T14:35:26.99Z</time></trkpt><trkpt lat="45.6201113" lon="9.4150283"><ele>207.83333333333331</ele><time>2026-03-24T14:35:27.99Z</time></trkpt><trkpt lat="45.6199926" lon="9.4150103"><ele>207.66666666666666</ele><time>2026-03-24T14:35:29.99Z</time></trkpt><trkpt lat="45.6199285" lon="9.4150049"><ele>207.5</ele><time>2026-03-24T14:35:30.99Z</time></trkpt><trkpt lat="45.6198524" lon="9.4149815"><ele>207.33333333333331</ele><time>2026-03-24T14:35:32.99Z</time></trkpt><trkpt lat="45.6197574" lon="9.4149674"><ele>207.16666666666666</ele><time>2026-03-24T14:35:34.989Z</time></trkpt><trkpt lat="45.6196878" lon="9.4149831"><ele>207.0</ele><time>2026-03-24T14:35:37.99Z</time></trkpt><trkpt lat="45.6196118" lon="9.4150836"><ele>207.0</ele><time>2026-03-24T14:35:39.99Z</time></trkpt><trkpt lat="45.6196131" lon="9.4152158"><ele>207.0</ele><time>2026-03-24T14:35:42.99Z</time></trkpt><trkpt lat="45.6196151" lon="9.4153184"><ele>207.0</ele><time>2026-03-24T14:35:44.99Z</time></trkpt><trkpt lat="45.6195752" lon="9.4154168"><ele>207.0</ele><time>2026-03-24T14:35:46.99Z</time></trkpt><trkpt lat="45.619447" lon="9.4154969"><ele>207.0</ele><time>2026-03-24T14:35:48.99Z</time></trkpt><trkpt lat="45.6193355" lon="9.4154969"><ele>207.2</ele><time>2026-03-24T14:35:50.99Z</time></trkpt><trkpt lat="45.6192177" lon="9.4154965"><ele>207.39999999999998</ele><time>2026-03-24T14:35:52.99Z</time></trkpt><trkpt lat="45.6191113" lon="9.4154648"><ele>207.60000000000002</ele><time>2026-03-24T14:35:54.99Z</time></trkpt><trkpt lat="45.6190165" lon="9.4154645"><ele>207.8</ele><time>2026-03-24T14:35:56.99Z</time></trkpt><trkpt lat="45.61897" lon="9.4155555"><ele>208.0</ele><time>2026-03-24T14:35:59.989Z</time></trkpt><trkpt lat="45.6189549" lon="9.4156571"><ele>207.8</ele><time>2026-03-24T14:36:02.99Z</time></trkpt><trkpt lat="45.6189494" lon="9.4157626"><ele>207.60000000000002</ele><time>2026-03-24T14:36:04.99Z</time></trkpt><trkpt lat="45.6189316" lon="9.415916"><ele>207.39999999999998</ele><time>2026-03-24T14:36:06.99Z</time></trkpt><trkpt lat="45.6189247" lon="9.4160675"><ele>207.2</ele><time>2026-03-24T14:36:08.99Z</time></trkpt><trkpt lat="45.6189021" lon="9.4162105"><ele>207.0</ele><time>2026-03-24T14:36:10.99Z</time></trkpt><trkpt lat="45.6189086" lon="9.4163945"><ele>207.0</ele><time>2026-03-24T14:36:12.99Z</time></trkpt><trkpt lat="45.618891" lon="9.4165552"><ele>207.0</ele><time>2026-03-24T14:36:14.99Z</time></trkpt><trkpt lat="45.6188748" lon="9.4167126"><ele>207.0</ele><time>2026-03-24T14:36:16.989Z</time></trkpt><trkpt lat="45.6188778" lon="9.4168921"><ele>207.0</ele><time>2026-03-24T14:36:18.989Z</time></trkpt><trkpt lat="45.6188797" lon="9.4169852"><ele>207.0</ele><time>2026-03-24T14:36:19.99Z</time></trkpt><trkpt lat="45.6188904" lon="9.417193"><ele>207.39999999999998</ele><time>2026-03-24T14:36:21.99Z</time></trkpt><trkpt lat="45.6188872" lon="9.4172881"><ele>207.79999999999998</ele><time>2026-03-24T14:36:22.99Z</time></trkpt><trkpt lat="45.618896" lon="9.4174677"><ele>208.2</ele><time>2026-03-24T14:36:24.99Z</time></trkpt><trkpt lat="45.6188967" lon="9.4175617"><ele>208.6</ele><time>2026-03-24T14:36:25.99Z</time></trkpt><trkpt lat="45.6189005" lon="9.4177146"><ele>209.0</ele><time>2026-03-24T14:36:27.99Z</time></trkpt><trkpt lat="45.6188959" lon="9.4178798"><ele>209.00000000000003</ele><time>2026-03-24T14:36:29.99Z</time></trkpt><trkpt lat="45.6189074" lon="9.4179848"><ele>209.0</ele><time>2026-03-24T14:36:31.99Z</time></trkpt><trkpt lat="45.6188831" lon="9.4180836"><ele>209.0</ele><time>2026-03-24T14:36:33.99Z</time></trkpt><trkpt lat="45.6188415" lon="9.4181956"><ele>209.0</ele><time>2026-03-24T14:36:36.99Z</time></trkpt><trkpt lat="45.6187449" lon="9.418187"><ele>209.00000000000003</ele><time>2026-03-24T14:36:39.99Z</time></trkpt><trkpt lat="45.6186656" lon="9.4181431"><ele>209.0</ele><time>2026-03-24T14:36:41.99Z</time></trkpt><trkpt lat="45.6185727" lon="9.418096"><ele>208.6</ele><time>2026-03-24T14:36:43.99Z</time></trkpt><trkpt lat="45.6184755" lon="9.4180659"><ele>208.2</ele><time>2026-03-24T14:36:45.99Z</time></trkpt><trkpt lat="45.6183738" lon="9.4180505"><ele>207.79999999999998</ele><time>2026-03-24T14:36:47.99Z</time></trkpt><trkpt lat="45.618272" lon="9.418062"><ele>207.39999999999998</ele><time>2026-03-24T14:36:49.99Z</time></trkpt><trkpt lat="45.6181582" lon="9.4180474"><ele>207.0</ele><time>2026-03-24T14:36:51.99Z</time></trkpt><trkpt lat="45.6180456" lon="9.4180392"><ele>207.0</ele><time>2026-03-24T14:36:53.99Z</time></trkpt><trkpt lat="45.6179325" lon="9.4180304"><ele>207.0</ele><time>2026-03-24T14:36:55.99Z</time></trkpt><trkpt lat="45.6178097" lon="9.4180241"><ele>207.0</ele><time>2026-03-24T14:36:57.99Z</time></trkpt><trkpt lat="45.6176786" lon="9.4180207"><ele>207.0</ele><time>2026-03-24T14:36:59.989Z</time></trkpt><trkpt lat="45.6175514" lon="9.417991"><ele>207.0</ele><time>2026-03-24T14:37:01.99Z</time></trkpt><trkpt lat="45.6174866" lon="9.4179769"><ele>207.0</ele><time>2026-03-24T14:37:02.99Z</time></trkpt><trkpt lat="45.6173719" lon="9.417968"><ele>207.0</ele><time>2026-03-24T14:37:04.99Z</time></trkpt><trkpt lat="45.6172747" lon="9.4179707"><ele>207.0</ele><time>2026-03-24T14:37:06.99Z</time></trkpt><trkpt lat="45.6171864" lon="9.4179819"><ele>207.0</ele><time>2026-03-24T14:37:08.99Z</time></trkpt><trkpt lat="45.6171166" lon="9.4179566"><ele>207.0</ele><time>2026-03-24T14:37:09.989Z</time></trkpt><trkpt lat="45.6170531" lon="9.41796"><ele>206.8</ele><time>2026-03-24T14:37:11.99Z</time></trkpt><trkpt lat="45.6169964" lon="9.4180522"><ele>206.6</ele><time>2026-03-24T14:37:14.99Z</time></trkpt><trkpt lat="45.6169826" lon="9.4181647"><ele>206.4</ele><time>2026-03-24T14:37:16.99Z</time></trkpt><trkpt lat="45.6169292" lon="9.4182315"><ele>206.20000000000002</ele><time>2026-03-24T14:37:18.99Z</time></trkpt><trkpt lat="45.6168245" lon="9.4182217"><ele>206.0</ele><time>2026-03-24T14:37:20.99Z</time></trkpt><trkpt lat="45.6167056" lon="9.4182007"><ele>205.60000000000002</ele><time>2026-03-24T14:37:22.99Z</time></trkpt><trkpt lat="45.6166032" lon="9.4181982"><ele>205.2</ele><time>2026-03-24T14:37:24.989Z</time></trkpt><trkpt lat="45.6165381" lon="9.4181978"><ele>204.8</ele><time>2026-03-24T14:37:25.989Z</time></trkpt><trkpt lat="45.6164745" lon="9.4181927"><ele>204.39999999999998</ele><time>2026-03-24T14:37:26.99Z</time></trkpt><trkpt lat="45.6163588" lon="9.418171"><ele>204.0</ele><time>2026-03-24T14:37:28.99Z</time></trkpt><trkpt lat="45.616251" lon="9.4181267"><ele>204.0</ele><time>2026-03-24T14:37:30.99Z</time></trkpt><trkpt lat="45.6161816" lon="9.4181198"><ele>204.0</ele><time>2026-03-24T14:37:31.989Z</time></trkpt><trkpt lat="45.616078" lon="9.4181129"><ele>204.0</ele><time>2026-03-24T14:37:33.99Z</time></trkpt><trkpt lat="45.6160114" lon="9.4181126"><ele>204.0</ele><time>2026-03-24T14:37:34.99Z</time></trkpt><trkpt lat="45.615944" lon="9.4181108"><ele>204.0</ele><time>2026-03-24T14:37:35.99Z</time></trkpt><trkpt lat="45.6158743" lon="9.4181032"><ele>204.0</ele><time>2026-03-24T14:37:36.99Z</time></trkpt><trkpt lat="45.6157516" lon="9.4180939"><ele>203.79999999999998</ele><time>2026-03-24T14:37:38.99Z</time></trkpt><trkpt lat="45.6156493" lon="9.418135"><ele>203.6</ele><time>2026-03-24T14:37:40.99Z</time></trkpt><trkpt lat="45.615571" lon="9.4182289"><ele>203.4</ele><time>2026-03-24T14:37:42.99Z</time></trkpt><trkpt lat="45.615527" lon="9.4183738"><ele>203.2</ele><time>2026-03-24T14:37:44.99Z</time></trkpt><trkpt lat="45.6154916" lon="9.4184862"><ele>203.0</ele><time>2026-03-24T14:37:46.99Z</time></trkpt><trkpt lat="45.6154288" lon="9.4185868"><ele>203.0</ele><time>2026-03-24T14:37:48.99Z</time></trkpt><trkpt lat="45.6153458" lon="9.4186452"><ele>203.0</ele><time>2026-03-24T14:37:50.99Z</time></trkpt><trkpt lat="45.6152495" lon="9.4186776"><ele>203.0</ele><time>2026-03-24T14:37:52.99Z</time></trkpt><trkpt lat="45.6151506" lon="9.4186898"><ele>203.0</ele><time>2026-03-24T14:37:54.989Z</time></trkpt><trkpt lat="45.6150788" lon="9.4186939"><ele>203.0</ele><time>2026-03-24T14:37:55.99Z</time></trkpt><trkpt lat="45.6149484" lon="9.4187026"><ele>202.83333333333334</ele><time>2026-03-24T14:37:57.99Z</time></trkpt><trkpt lat="45.6148121" lon="9.418729"><ele>202.66666666666669</ele><time>2026-03-24T14:37:59.99Z</time></trkpt><trkpt lat="45.6147448" lon="9.4187406"><ele>202.5</ele><time>2026-03-24T14:38:00.99Z</time></trkpt><trkpt lat="45.6146797" lon="9.4187289"><ele>202.33333333333331</ele><time>2026-03-24T14:38:01.99Z</time></trkpt><trkpt lat="45.6146036" lon="9.4187399"><ele>202.16666666666666</ele><time>2026-03-24T14:38:02.99Z</time></trkpt><trkpt lat="45.6145347" lon="9.4187573"><ele>202.0</ele><time>2026-03-24T14:38:03.99Z</time></trkpt><trkpt lat="45.6144621" lon="9.4187765"><ele>201.85714285714286</ele><time>2026-03-24T14:38:04.989Z</time></trkpt><trkpt lat="45.6143911" lon="9.4187756"><ele>201.71428571428572</ele><time>2026-03-24T14:38:05.99Z</time></trkpt><trkpt lat="45.6143252" lon="9.4187664"><ele>201.57142857142856</ele><time>2026-03-24T14:38:06.99Z</time></trkpt><trkpt lat="45.6142572" lon="9.4187677"><ele>201.42857142857144</ele><time>2026-03-24T14:38:07.99Z</time></trkpt><trkpt lat="45.6141786" lon="9.4187707"><ele>201.2857142857143</ele><time>2026-03-24T14:38:08.99Z</time></trkpt><trkpt lat="45.6140917" lon="9.4187859"><ele>201.14285714285714</ele><time>2026-03-24T14:38:09.99Z</time></trkpt><trkpt lat="45.6140283" lon="9.4187899"><ele>201.0</ele><time>2026-03-24T14:38:10.99Z</time></trkpt><trkpt lat="45.6139641" lon="9.4187842"><ele>201.0</ele><time>2026-03-24T14:38:11.99Z</time></trkpt><trkpt lat="45.6138986" lon="9.4187776"><ele>201.0</ele><time>2026-03-24T14:38:12.99Z</time></trkpt><trkpt lat="45.6138344" lon="9.4187761"><ele>201.0</ele><time>2026-03-24T14:38:13.99Z</time></trkpt><trkpt lat="45.6137033" lon="9.4188017"><ele>201.0</ele><time>2026-03-24T14:38:15.99Z</time></trkpt><trkpt lat="45.6135715" lon="9.4188228"><ele>201.0</ele><time>2026-03-24T14:38:17.99Z</time></trkpt><trkpt lat="45.6134659" lon="9.4188154"><ele>200.8</ele><time>2026-03-24T14:38:19.99Z</time></trkpt><trkpt lat="45.6133634" lon="9.4188362"><ele>200.60000000000002</ele><time>2026-03-24T14:38:21.99Z</time></trkpt><trkpt lat="45.613237" lon="9.4187758"><ele>200.4</ele><time>2026-03-24T14:38:23.99Z</time></trkpt><trkpt lat="45.6131701" lon="9.4187323"><ele>200.2</ele><time>2026-03-24T14:38:24.99Z</time></trkpt><trkpt lat="45.613111" lon="9.418695"><ele>200.0</ele><time>2026-03-24T14:38:25.99Z</time></trkpt><trkpt lat="45.6130072" lon="9.4186518"><ele>200.00000000000003</ele><time>2026-03-24T14:38:27.99Z</time></trkpt><trkpt lat="45.6129203" lon="9.4186825"><ele>200.0</ele><time>2026-03-24T14:38:29.99Z</time></trkpt><trkpt lat="45.6128342" lon="9.4187795"><ele>200.0</ele><time>2026-03-24T14:38:31.99Z</time></trkpt><trkpt lat="45.6127654" lon="9.4188777"><ele>200.0</ele><time>2026-03-24T14:38:33.99Z</time></trkpt><trkpt lat="45.612746" lon="9.4189926"><ele>200.00000000000003</ele><time>2026-03-24T14:38:39.99Z</time></trkpt><trkpt lat="45.6127174" lon="9.4190776"><ele>200.0</ele><time>2026-03-24T14:38:41.99Z</time></trkpt><trkpt lat="45.6126276" lon="9.419106"><ele>200.0</ele><time>2026-03-24T14:38:43.99Z</time></trkpt><trkpt lat="45.6125614" lon="9.4190857"><ele>200.0</ele><time>2026-03-24T14:38:44.99Z</time></trkpt><trkpt lat="45.6124549" lon="9.4190796"><ele>200.0</ele><time>2026-03-24T14:38:46.99Z</time></trkpt><trkpt lat="45.6123493" lon="9.419085"><ele>200.0</ele><time>2026-03-24T14:38:48.99Z</time></trkpt><trkpt lat="45.6122381" lon="9.4190842"><ele>200.0</ele><time>2026-03-24T14:38:50.99Z</time></trkpt><trkpt lat="45.6121216" lon="9.4191139"><ele>200.0</ele><time>2026-03-24T14:38:52.989Z</time></trkpt><trkpt lat="45.6119946" lon="9.4191261"><ele>200.0</ele><time>2026-03-24T14:38:54.99Z</time></trkpt><trkpt lat="45.6119015" lon="9.4191401"><ele>200.0</ele><time>2026-03-24T14:38:57.2Z</time></trkpt><trkpt lat="45.6118328" lon="9.4191465"><ele>200.0</ele><time>2026-03-24T14:38:58.378Z</time></trkpt><trkpt lat="45.6117108" lon="9.4191548"><ele>200.0</ele><time>2026-03-24T14:38:59.987Z</time></trkpt><trkpt lat="45.6116436" lon="9.4191688"><ele>199.66666666666669</ele><time>2026-03-24T14:39:00.987Z</time></trkpt><trkpt lat="45.6115729" lon="9.419181"><ele>199.33333333333334</ele><time>2026-03-24T14:39:01.987Z</time></trkpt><trkpt lat="45.6114591" lon="9.419209"><ele>199.0</ele><time>2026-03-24T14:39:03.98Z</time></trkpt><trkpt lat="45.611392" lon="9.4192001"><ele>198.66666666666669</ele><time>2026-03-24T14:39:04.98Z</time></trkpt><trkpt lat="45.6112703" lon="9.4191929"><ele>198.33333333333334</ele><time>2026-03-24T14:39:06.98Z</time></trkpt><trkpt lat="45.6112061" lon="9.4191859"><ele>198.0</ele><time>2026-03-24T14:39:07.98Z</time></trkpt><trkpt lat="45.611085" lon="9.4191945"><ele>197.8</ele><time>2026-03-24T14:39:09.98Z</time></trkpt><trkpt lat="45.6109598" lon="9.4192021"><ele>197.60000000000002</ele><time>2026-03-24T14:39:11.98Z</time></trkpt><trkpt lat="45.6108962" lon="9.4192119"><ele>197.39999999999998</ele><time>2026-03-24T14:39:12.98Z</time></trkpt><trkpt lat="45.610829" lon="9.4192147"><ele>197.2</ele><time>2026-03-24T14:39:13.98Z</time></trkpt><trkpt lat="45.6107039" lon="9.4192207"><ele>197.0</ele><time>2026-03-24T14:39:15.98Z</time></trkpt><trkpt lat="45.6105891" lon="9.4192392"><ele>197.00000000000003</ele><time>2026-03-24T14:39:17.979Z</time></trkpt><trkpt lat="45.6105216" lon="9.419256"><ele>197.0</ele><time>2026-03-24T14:39:18.979Z</time></trkpt><trkpt lat="45.6103934" lon="9.4192681"><ele>197.0</ele><time>2026-03-24T14:39:20.98Z</time></trkpt><trkpt lat="45.61033" lon="9.419266"><ele>197.0</ele><time>2026-03-24T14:39:21.98Z</time></trkpt><trkpt lat="45.6102646" lon="9.4192687"><ele>197.00000000000003</ele><time>2026-03-24T14:39:22.98Z</time></trkpt><trkpt lat="45.6102016" lon="9.4192801"><ele>197.0</ele><time>2026-03-24T14:39:23.98Z</time></trkpt><trkpt lat="45.6101332" lon="9.4192891"><ele>196.85714285714286</ele><time>2026-03-24T14:39:24.98Z</time></trkpt><trkpt lat="45.6100672" lon="9.4192967"><ele>196.71428571428572</ele><time>2026-03-24T14:39:25.98Z</time></trkpt><trkpt lat="45.6100031" lon="9.4193075"><ele>196.57142857142856</ele><time>2026-03-24T14:39:26.98Z</time></trkpt><trkpt lat="45.6099369" lon="9.4193054"><ele>196.42857142857144</ele><time>2026-03-24T14:39:27.98Z</time></trkpt><trkpt lat="45.6098679" lon="9.4193084"><ele>196.28571428571428</ele><time>2026-03-24T14:39:28.98Z</time></trkpt><trkpt lat="45.6097985" lon="9.4193186"><ele>196.14285714285714</ele><time>2026-03-24T14:39:29.98Z</time></trkpt><trkpt lat="45.6097354" lon="9.4193232"><ele>196.0</ele><time>2026-03-24T14:39:30.98Z</time></trkpt><trkpt lat="45.6096664" lon="9.4193218"><ele>196.0</ele><time>2026-03-24T14:39:31.98Z</time></trkpt><trkpt lat="45.6095934" lon="9.4193382"><ele>196.0</ele><time>2026-03-24T14:39:32.98Z</time></trkpt><trkpt lat="45.6095308" lon="9.4193513"><ele>196.0</ele><time>2026-03-24T14:39:33.979Z</time></trkpt><trkpt lat="45.609466" lon="9.4193623"><ele>196.0</ele><time>2026-03-24T14:39:34.98Z</time></trkpt><trkpt lat="45.6094033" lon="9.4193738"><ele>196.0</ele><time>2026-03-24T14:39:35.98Z</time></trkpt><trkpt lat="45.6093338" lon="9.4193808"><ele>196.0</ele><time>2026-03-24T14:39:36.98Z</time></trkpt><trkpt lat="45.609265" lon="9.4193918"><ele>196.0</ele><time>2026-03-24T14:39:37.98Z</time></trkpt><trkpt lat="45.6091974" lon="9.4194031"><ele>195.83333333333331</ele><time>2026-03-24T14:39:38.98Z</time></trkpt><trkpt lat="45.609133" lon="9.4194106"><ele>195.66666666666666</ele><time>2026-03-24T14:39:39.98Z</time></trkpt><trkpt lat="45.6090128" lon="9.4194272"><ele>195.5</ele><time>2026-03-24T14:39:41.98Z</time></trkpt><trkpt lat="45.6089491" lon="9.4194336"><ele>195.33333333333331</ele><time>2026-03-24T14:39:42.98Z</time></trkpt><trkpt lat="45.6088786" lon="9.4194416"><ele>195.16666666666666</ele><time>2026-03-24T14:39:43.979Z</time></trkpt><trkpt lat="45.6088067" lon="9.4194457"><ele>195.0</ele><time>2026-03-24T14:39:44.98Z</time></trkpt><trkpt lat="45.6086731" lon="9.4194514"><ele>194.83333333333334</ele><time>2026-03-24T14:39:46.98Z</time></trkpt><trkpt lat="45.6086096" lon="9.4194633"><ele>194.66666666666669</ele><time>2026-03-24T14:39:47.98Z</time></trkpt><trkpt lat="45.6085451" lon="9.4194622"><ele>194.5</ele><time>2026-03-24T14:39:48.98Z</time></trkpt><trkpt lat="45.6084125" lon="9.4194749"><ele>194.33333333333334</ele><time>2026-03-24T14:39:50.98Z</time></trkpt><trkpt lat="45.6083421" lon="9.4194774"><ele>194.16666666666669</ele><time>2026-03-24T14:39:51.98Z</time></trkpt><trkpt lat="45.6082703" lon="9.4194872"><ele>194.0</ele><time>2026-03-24T14:39:52.98Z</time></trkpt><trkpt lat="45.6081997" lon="9.4194947"><ele>194.0</ele><time>2026-03-24T14:39:53.98Z</time></trkpt><trkpt lat="45.6080639" lon="9.4194994"><ele>194.0</ele><time>2026-03-24T14:39:55.979Z</time></trkpt><trkpt lat="45.607985" lon="9.4195123"><ele>194.0</ele><time>2026-03-24T14:39:56.98Z</time></trkpt><trkpt lat="45.6079186" lon="9.4195246"><ele>194.0</ele><time>2026-03-24T14:39:57.979Z</time></trkpt><trkpt lat="45.6078557" lon="9.4195437"><ele>194.0</ele><time>2026-03-24T14:39:58.98Z</time></trkpt><trkpt lat="45.6077498" lon="9.4196457"><ele>193.85714285714286</ele><time>2026-03-24T14:40:00.98Z</time></trkpt><trkpt lat="45.607708" lon="9.4197168"><ele>193.71428571428572</ele><time>2026-03-24T14:40:01.98Z</time></trkpt><trkpt lat="45.6076739" lon="9.4197971"><ele>193.57142857142858</ele><time>2026-03-24T14:40:02.98Z</time></trkpt><trkpt lat="45.6076524" lon="9.419885"><ele>193.42857142857144</ele><time>2026-03-24T14:40:03.98Z</time></trkpt><trkpt lat="45.6076364" lon="9.4199767"><ele>193.28571428571428</ele><time>2026-03-24T14:40:04.98Z</time></trkpt><trkpt lat="45.6075996" lon="9.4200502"><ele>193.14285714285717</ele><time>2026-03-24T14:40:05.98Z</time></trkpt><trkpt lat="45.6075572" lon="9.4201214"><ele>193.0</ele><time>2026-03-24T14:40:06.98Z</time></trkpt><trkpt lat="45.6074495" lon="9.4202353"><ele>192.99999999999997</ele><time>2026-03-24T14:40:08.98Z</time></trkpt><trkpt lat="45.6073965" lon="9.420291"><ele>193.0</ele><time>2026-03-24T14:40:09.98Z</time></trkpt><trkpt lat="45.6073514" lon="9.4203552"><ele>193.0</ele><time>2026-03-24T14:40:10.98Z</time></trkpt><trkpt lat="45.6073232" lon="9.4205226"><ele>193.0</ele><time>2026-03-24T14:40:12.98Z</time></trkpt><trkpt lat="45.6073202" lon="9.4206162"><ele>192.99999999999997</ele><time>2026-03-24T14:40:13.98Z</time></trkpt><trkpt lat="45.6073261" lon="9.4207128"><ele>193.0</ele><time>2026-03-24T14:40:14.98Z</time></trkpt><trkpt lat="45.607322" lon="9.4208091"><ele>192.99999999999997</ele><time>2026-03-24T14:40:15.98Z</time></trkpt><trkpt lat="45.6073171" lon="9.4209051"><ele>193.0</ele><time>2026-03-24T14:40:16.98Z</time></trkpt><trkpt lat="45.6073055" lon="9.4210847"><ele>193.0</ele><time>2026-03-24T14:40:18.98Z</time></trkpt><trkpt lat="45.607303" lon="9.4211766"><ele>193.0</ele><time>2026-03-24T14:40:19.98Z</time></trkpt><trkpt lat="45.6073015" lon="9.4212814"><ele>192.99999999999997</ele><time>2026-03-24T14:40:20.98Z</time></trkpt><trkpt lat="45.6073004" lon="9.4213778"><ele>193.0</ele><time>2026-03-24T14:40:21.98Z</time></trkpt><trkpt lat="45.6073024" lon="9.421479"><ele>192.99999999999997</ele><time>2026-03-24T14:40:22.98Z</time></trkpt><trkpt lat="45.6073001" lon="9.4215785"><ele>193.0</ele><time>2026-03-24T14:40:23.979Z</time></trkpt><trkpt lat="45.6072915" lon="9.4217636"><ele>193.0</ele><time>2026-03-24T14:40:25.98Z</time></trkpt><trkpt lat="45.607293" lon="9.4218595"><ele>193.0</ele><time>2026-03-24T14:40:26.98Z</time></trkpt><trkpt lat="45.6072895" lon="9.4219647"><ele>192.99999999999997</ele><time>2026-03-24T14:40:27.98Z</time></trkpt><trkpt lat="45.6072843" lon="9.4220626"><ele>193.0</ele><time>2026-03-24T14:40:28.98Z</time></trkpt><trkpt lat="45.6072789" lon="9.4221648"><ele>193.00000000000003</ele><time>2026-03-24T14:40:29.98Z</time></trkpt><trkpt lat="45.6072723" lon="9.4222782"><ele>193.0</ele><time>2026-03-24T14:40:30.98Z</time></trkpt><trkpt lat="45.6072691" lon="9.4223842"><ele>193.0</ele><time>2026-03-24T14:40:31.98Z</time></trkpt><trkpt lat="45.6072652" lon="9.4224899"><ele>193.0</ele><time>2026-03-24T14:40:32.98Z</time></trkpt><trkpt lat="45.6072653" lon="9.422595"><ele>193.0</ele><time>2026-03-24T14:40:33.98Z</time></trkpt><trkpt lat="45.607268" lon="9.4226868"><ele>193.00000000000003</ele><time>2026-03-24T14:40:34.98Z</time></trkpt><trkpt lat="45.6072678" lon="9.4227914"><ele>193.0</ele><time>2026-03-24T14:40:35.98Z</time></trkpt><trkpt lat="45.6072707" lon="9.4228949"><ele>192.99999999999997</ele><time>2026-03-24T14:40:36.979Z</time></trkpt><trkpt lat="45.6072667" lon="9.4229955"><ele>193.0</ele><time>2026-03-24T14:40:37.98Z</time></trkpt><trkpt lat="45.6072694" lon="9.4230918"><ele>193.0</ele><time>2026-03-24T14:40:38.98Z</time></trkpt><trkpt lat="45.6072705" lon="9.4231867"><ele>193.0</ele><time>2026-03-24T14:40:39.98Z</time></trkpt><trkpt lat="45.6072701" lon="9.4232774"><ele>192.99999999999997</ele><time>2026-03-24T14:40:40.98Z</time></trkpt><trkpt lat="45.6072755" lon="9.4234648"><ele>193.0</ele><time>2026-03-24T14:40:42.98Z</time></trkpt><trkpt lat="45.6072818" lon="9.4235596"><ele>193.0</ele><time>2026-03-24T14:40:43.98Z</time></trkpt><trkpt lat="45.6073157" lon="9.4237137"><ele>193.0</ele><time>2026-03-24T14:40:45.98Z</time></trkpt><trkpt lat="45.6073623" lon="9.4238713"><ele>193.0</ele><time>2026-03-24T14:40:47.979Z</time></trkpt><trkpt lat="45.6073919" lon="9.4240323"><ele>193.0</ele><time>2026-03-24T14:40:49.98Z</time></trkpt><trkpt lat="45.6074218" lon="9.4241698"><ele>193.2</ele><time>2026-03-24T14:40:51.98Z</time></trkpt><trkpt lat="45.6074409" lon="9.4243203"><ele>193.4</ele><time>2026-03-24T14:40:53.98Z</time></trkpt><trkpt lat="45.6074469" lon="9.4244844"><ele>193.6</ele><time>2026-03-24T14:40:55.98Z</time></trkpt><trkpt lat="45.6074448" lon="9.4246257"><ele>193.79999999999998</ele><time>2026-03-24T14:40:57.98Z</time></trkpt><trkpt lat="45.607446" lon="9.4247597"><ele>194.0</ele><time>2026-03-24T14:40:59.98Z</time></trkpt><trkpt lat="45.6074391" lon="9.4249116"><ele>194.2</ele><time>2026-03-24T14:41:01.98Z</time></trkpt><trkpt lat="45.6074357" lon="9.4250516"><ele>194.39999999999998</ele><time>2026-03-24T14:41:03.98Z</time></trkpt><trkpt lat="45.6074286" lon="9.4251823"><ele>194.6</ele><time>2026-03-24T14:41:05.98Z</time></trkpt><trkpt lat="45.6074214" lon="9.4253133"><ele>194.8</ele><time>2026-03-24T14:41:07.98Z</time></trkpt><trkpt lat="45.6074231" lon="9.4254415"><ele>195.0</ele><time>2026-03-24T14:41:09.98Z</time></trkpt><trkpt lat="45.6074179" lon="9.4255642"><ele>195.0</ele><time>2026-03-24T14:41:11.98Z</time></trkpt><trkpt lat="45.6074143" lon="9.4256739"><ele>195.0</ele><time>2026-03-24T14:41:13.98Z</time></trkpt><trkpt lat="45.6073952" lon="9.4257665"><ele>195.0</ele><time>2026-03-24T14:41:15.98Z</time></trkpt><trkpt lat="45.6073983" lon="9.4258715"><ele>195.0</ele><time>2026-03-24T14:41:18.98Z</time></trkpt><trkpt lat="45.6074022" lon="9.4257465"><ele>195.0</ele><time>2026-03-24T14:41:22.98Z</time></trkpt><trkpt lat="45.6074019" lon="9.4256426"><ele>195.0</ele><time>2026-03-24T14:41:24.98Z</time></trkpt><trkpt lat="45.6073881" lon="9.4255166"><ele>195.2</ele><time>2026-03-24T14:41:26.98Z</time></trkpt><trkpt lat="45.6073876" lon="9.4253761"><ele>195.4</ele><time>2026-03-24T14:41:28.98Z</time></trkpt><trkpt lat="45.6073901" lon="9.4252286"><ele>195.60000000000002</ele><time>2026-03-24T14:41:30.98Z</time></trkpt><trkpt lat="45.6073926" lon="9.4250815"><ele>195.8</ele><time>2026-03-24T14:41:32.98Z</time></trkpt><trkpt lat="45.6073944" lon="9.4249222"><ele>196.0</ele><time>2026-03-24T14:41:34.98Z</time></trkpt><trkpt lat="45.6073894" lon="9.4247851"><ele>195.99999999999997</ele><time>2026-03-24T14:41:36.979Z</time></trkpt><trkpt lat="45.6074017" lon="9.4246782"><ele>196.0</ele><time>2026-03-24T14:41:38.98Z</time></trkpt><trkpt lat="45.6074039" lon="9.4245824"><ele>196.0</ele><time>2026-03-24T14:41:39.979Z</time></trkpt><trkpt lat="45.6073984" lon="9.4244286"><ele>196.0</ele><time>2026-03-24T14:41:41.98Z</time></trkpt><trkpt lat="45.6073736" lon="9.424252"><ele>195.99999999999997</ele><time>2026-03-24T14:41:43.98Z</time></trkpt><trkpt lat="45.6073574" lon="9.4241567"><ele>196.0</ele><time>2026-03-24T14:41:44.98Z</time></trkpt><trkpt lat="45.6073449" lon="9.4240591"><ele>195.60000000000002</ele><time>2026-03-24T14:41:45.98Z</time></trkpt><trkpt lat="45.6073259" lon="9.4239644"><ele>195.2</ele><time>2026-03-24T14:41:46.98Z</time></trkpt><trkpt lat="45.6072831" lon="9.4237644"><ele>194.8</ele><time>2026-03-24T14:41:48.98Z</time></trkpt><trkpt lat="45.6072625" lon="9.4236536"><ele>194.39999999999998</ele><time>2026-03-24T14:41:49.98Z</time></trkpt><trkpt lat="45.6072535" lon="9.4235451"><ele>194.0</ele><time>2026-03-24T14:41:50.98Z</time></trkpt><trkpt lat="45.6072473" lon="9.4234264"><ele>193.83333333333334</ele><time>2026-03-24T14:41:51.98Z</time></trkpt><trkpt lat="45.6072362" lon="9.4232919"><ele>193.66666666666669</ele><time>2026-03-24T14:41:52.98Z</time></trkpt><trkpt lat="45.6072482" lon="9.423112"><ele>193.5</ele><time>2026-03-24T14:41:54.98Z</time></trkpt><trkpt lat="45.6072416" lon="9.4230163"><ele>193.33333333333331</ele><time>2026-03-24T14:41:55.98Z</time></trkpt><trkpt lat="45.6072357" lon="9.4229083"><ele>193.16666666666666</ele><time>2026-03-24T14:41:56.98Z</time></trkpt><trkpt lat="45.6072418" lon="9.4228169"><ele>193.0</ele><time>2026-03-24T14:41:57.98Z</time></trkpt><trkpt lat="45.607236" lon="9.4226518"><ele>193.0</ele><time>2026-03-24T14:41:59.98Z</time></trkpt><trkpt lat="45.6072393" lon="9.4224993"><ele>193.0</ele><time>2026-03-24T14:42:01.98Z</time></trkpt><trkpt lat="45.6072224" lon="9.422598"><ele>193.0</ele><time>2026-03-24T14:42:10.98Z</time></trkpt><trkpt lat="45.6072508" lon="9.4227423"><ele>193.0</ele><time>2026-03-24T14:42:12.98Z</time></trkpt><trkpt lat="45.6072526" lon="9.4228899"><ele>193.0</ele><time>2026-03-24T14:42:14.979Z</time></trkpt><trkpt lat="45.6072541" lon="9.4230345"><ele>193.0</ele><time>2026-03-24T14:42:16.98Z</time></trkpt><trkpt lat="45.6072555" lon="9.4232015"><ele>193.0</ele><time>2026-03-24T14:42:18.98Z</time></trkpt><trkpt lat="45.6072603" lon="9.4233692"><ele>193.0</ele><time>2026-03-24T14:42:20.98Z</time></trkpt><trkpt lat="45.6072732" lon="9.4235264"><ele>193.0</ele><time>2026-03-24T14:42:22.98Z</time></trkpt><trkpt lat="45.6072945" lon="9.4236774"><ele>193.2</ele><time>2026-03-24T14:42:24.98Z</time></trkpt><trkpt lat="45.6073268" lon="9.4238321"><ele>193.4</ele><time>2026-03-24T14:42:26.98Z</time></trkpt><trkpt lat="45.6073538" lon="9.4239814"><ele>193.6</ele><time>2026-03-24T14:42:28.98Z</time></trkpt><trkpt lat="45.6073838" lon="9.4241104"><ele>193.79999999999998</ele><time>2026-03-24T14:42:30.98Z</time></trkpt><trkpt lat="45.6074057" lon="9.4242464"><ele>194.0</ele><time>2026-03-24T14:42:32.98Z</time></trkpt><trkpt lat="45.607422" lon="9.4243618"><ele>194.0</ele><time>2026-03-24T14:42:34.98Z</time></trkpt><trkpt lat="45.607425" lon="9.4245016"><ele>194.0</ele><time>2026-03-24T14:42:36.98Z</time></trkpt><trkpt lat="45.6074215" lon="9.4246581"><ele>194.0</ele><time>2026-03-24T14:42:38.98Z</time></trkpt><trkpt lat="45.6074232" lon="9.4248122"><ele>194.0</ele><time>2026-03-24T14:42:40.98Z</time></trkpt><trkpt lat="45.607425" lon="9.4249358"><ele>194.0</ele><time>2026-03-24T14:42:42.98Z</time></trkpt><trkpt lat="45.6074231" lon="9.4250784"><ele>194.2</ele><time>2026-03-24T14:42:44.98Z</time></trkpt><trkpt lat="45.6074165" lon="9.4252588"><ele>194.39999999999998</ele><time>2026-03-24T14:42:46.98Z</time></trkpt><trkpt lat="45.6074207" lon="9.4254069"><ele>194.6</ele><time>2026-03-24T14:42:48.98Z</time></trkpt><trkpt lat="45.6074212" lon="9.4255737"><ele>194.8</ele><time>2026-03-24T14:42:50.98Z</time></trkpt><trkpt lat="45.6074238" lon="9.4257181"><ele>195.0</ele><time>2026-03-24T14:42:52.98Z</time></trkpt><trkpt lat="45.6074287" lon="9.4258335"><ele>195.0</ele><time>2026-03-24T14:42:54.979Z</time></trkpt><trkpt lat="45.6074677" lon="9.4259414"><ele>195.0</ele><time>2026-03-24T14:42:56.98Z</time></trkpt><trkpt lat="45.607561" lon="9.4259554"><ele>195.0</ele><time>2026-03-24T14:42:58.98Z</time></trkpt><trkpt lat="45.6076492" lon="9.4259738"><ele>195.0</ele><time>2026-03-24T14:43:00.98Z</time></trkpt><trkpt lat="45.6077557" lon="9.425978"><ele>195.0</ele><time>2026-03-24T14:43:02.98Z</time></trkpt><trkpt lat="45.6078642" lon="9.4259876"><ele>195.2</ele><time>2026-03-24T14:43:04.979Z</time></trkpt><trkpt lat="45.6079716" lon="9.4259935"><ele>195.4</ele><time>2026-03-24T14:43:06.98Z</time></trkpt><trkpt lat="45.608077" lon="9.4260004"><ele>195.60000000000002</ele><time>2026-03-24T14:43:08.98Z</time></trkpt><trkpt lat="45.6081885" lon="9.4259995"><ele>195.8</ele><time>2026-03-24T14:43:10.98Z</time></trkpt><trkpt lat="45.6083024" lon="9.4259914"><ele>196.0</ele><time>2026-03-24T14:43:12.98Z</time></trkpt><trkpt lat="45.6084121" lon="9.426008"><ele>196.0</ele><time>2026-03-24T14:43:14.98Z</time></trkpt><trkpt lat="45.6085278" lon="9.4260073"><ele>196.0</ele><time>2026-03-24T14:43:16.98Z</time></trkpt><trkpt lat="45.6086355" lon="9.4260169"><ele>196.0</ele><time>2026-03-24T14:43:18.98Z</time></trkpt><trkpt lat="45.6087531" lon="9.4260322"><ele>196.0</ele><time>2026-03-24T14:43:20.98Z</time></trkpt><trkpt lat="45.6088182" lon="9.4260365"><ele>196.0</ele><time>2026-03-24T14:43:21.98Z</time></trkpt><trkpt lat="45.608924" lon="9.4260282"><ele>196.60000000000002</ele><time>2026-03-24T14:43:23.979Z</time></trkpt><trkpt lat="45.6090416" lon="9.4260224"><ele>197.2</ele><time>2026-03-24T14:43:25.98Z</time></trkpt><trkpt lat="45.6091068" lon="9.4260199"><ele>197.8</ele><time>2026-03-24T14:43:26.98Z</time></trkpt><trkpt lat="45.6092177" lon="9.4260221"><ele>198.39999999999998</ele><time>2026-03-24T14:43:28.979Z</time></trkpt><trkpt lat="45.6093231" lon="9.4260314"><ele>199.0</ele><time>2026-03-24T14:43:30.98Z</time></trkpt><trkpt lat="45.6094197" lon="9.4260242"><ele>198.99999999999997</ele><time>2026-03-24T14:43:32.98Z</time></trkpt><trkpt lat="45.6094763" lon="9.4259763"><ele>199.0</ele><time>2026-03-24T14:43:34.98Z</time></trkpt><trkpt lat="45.6094698" lon="9.4258263"><ele>199.0</ele><time>2026-03-24T14:43:37.98Z</time></trkpt><trkpt lat="45.6094645" lon="9.4256817"><ele>199.0</ele><time>2026-03-24T14:43:39.979Z</time></trkpt><trkpt lat="45.6094533" lon="9.4255439"><ele>198.99999999999997</ele><time>2026-03-24T14:43:41.98Z</time></trkpt><trkpt lat="45.6094413" lon="9.4254375"><ele>199.0</ele><time>2026-03-24T14:43:43.98Z</time></trkpt><trkpt lat="45.6093695" lon="9.4253667"><ele>198.99999999999997</ele><time>2026-03-24T14:43:45.98Z</time></trkpt><trkpt lat="45.6093011" lon="9.4253666"><ele>199.0</ele><time>2026-03-24T14:43:47.98Z</time></trkpt><trkpt lat="45.6092449" lon="9.4254382"><ele>199.0</ele><time>2026-03-24T14:43:49.98Z</time></trkpt><trkpt lat="45.6092284" lon="9.4255442"><ele>199.0</ele><time>2026-03-24T14:43:51.98Z</time></trkpt><trkpt lat="45.6092452" lon="9.4256468"><ele>199.0</ele><time>2026-03-24T14:43:53.98Z</time></trkpt><trkpt lat="45.6092657" lon="9.4257572"><ele>198.99999999999997</ele><time>2026-03-24T14:43:55.98Z</time></trkpt><trkpt lat="45.6092802" lon="9.4258569"><ele>199.0</ele><time>2026-03-24T14:43:57.98Z</time></trkpt><trkpt lat="45.6093374" lon="9.4259155"><ele>199.0</ele><time>2026-03-24T14:43:59.98Z</time></trkpt><trkpt lat="45.6094194" lon="9.4259143"><ele>199.0</ele><time>2026-03-24T14:44:01.98Z</time></trkpt><trkpt lat="45.6095029" lon="9.4259171"><ele>199.0</ele><time>2026-03-24T14:44:03.98Z</time></trkpt><trkpt lat="45.609579" lon="9.4259334"><ele>199.0</ele><time>2026-03-24T14:44:05.98Z</time></trkpt><trkpt lat="45.6096459" lon="9.4260583"><ele>199.0</ele><time>2026-03-24T14:44:52.98Z</time></trkpt><trkpt lat="45.6096455" lon="9.4261979"><ele>199.6</ele><time>2026-03-24T14:44:54.98Z</time></trkpt><trkpt lat="45.6096474" lon="9.4263809"><ele>200.2</ele><time>2026-03-24T14:44:56.98Z</time></trkpt><trkpt lat="45.6096444" lon="9.4265187"><ele>200.79999999999998</ele><time>2026-03-24T14:44:58.98Z</time></trkpt><trkpt lat="45.609638" lon="9.4266541"><ele>201.39999999999998</ele><time>2026-03-24T14:45:00.98Z</time></trkpt><trkpt lat="45.6096423" lon="9.4267751"><ele>202.0</ele><time>2026-03-24T14:45:02.98Z</time></trkpt><trkpt lat="45.6096377" lon="9.4268833"><ele>202.0</ele><time>2026-03-24T14:45:04.98Z</time></trkpt><trkpt lat="45.6096226" lon="9.4270118"><ele>202.0</ele><time>2026-03-24T14:45:06.98Z</time></trkpt><trkpt lat="45.6096448" lon="9.4271199"><ele>202.0</ele><time>2026-03-24T14:45:08.98Z</time></trkpt><trkpt lat="45.6099275" lon="9.427246"><ele>200.0</ele><time>2026-03-24T14:48:40.239Z</time></trkpt><trkpt lat="45.6099915" lon="9.4272058"><ele>200.0</ele><time>2026-03-24T14:49:03.98Z</time></trkpt><trkpt lat="45.6099832" lon="9.4271127"><ele>202.0</ele><time>2026-03-24T14:49:10.98Z</time></trkpt><trkpt lat="45.6099669" lon="9.4270042"><ele>202.0</ele><time>2026-03-24T14:49:35.98Z</time></trkpt><trkpt lat="45.6099904" lon="9.4271148"><ele>202.0</ele><time>2026-03-24T14:50:31.98Z</time></trkpt><trkpt lat="45.6100076" lon="9.4272052"><ele>200.0</ele><time>2026-03-24T14:51:14.98Z</time></trkpt><trkpt lat="45.6099435" lon="9.4271771"><ele>200.0</ele><time>2026-03-24T14:53:49.974Z</time></trkpt></trkseg></trk></gpx>